<?xml version="1.0" encoding="UTF-8" standalone="no" ?>
<gpx xmlns="http://www.topografix.com/GPX/1/1" xmlns:xsi="http://www.w3.org/2001/XMLSchema-instance" xsi:schemaLocation="http://www.topografix.com/GPX/1/1 http://www.topografix.com/GPX/1/1/gpx.xsd" version="1.1" creator="VisuGPX - https://www.visugpx.com">
  <metadata>
    <name>rando stéphane</name>
    <desc><![CDATA[rando équestre organisée au départ de Folembray ]]></desc>
  </metadata>
  <trk>
    <name><![CDATA[27/08/2016 9:39]]></name>
    <desc><![CDATA[]]></desc>
    <trkseg>
      <trkpt lat="49.54305" lon="3.29465">
        <ele>134.7</ele>
        <time>2016-08-27T07:39:06.324Z</time>
      </trkpt>
      <trkpt lat="49.54312" lon="3.29473">
        <ele>128</ele>
        <time>2016-08-27T07:39:28.000Z</time>
      </trkpt>
      <trkpt lat="49.54312" lon="3.29474">
        <ele>128</ele>
        <time>2016-08-27T07:39:29.000Z</time>
      </trkpt>
      <trkpt lat="49.54313" lon="3.29474">
        <ele>128</ele>
        <time>2016-08-27T07:39:31.000Z</time>
      </trkpt>
      <trkpt lat="49.54313" lon="3.29475">
        <ele>128</ele>
        <time>2016-08-27T07:39:32.000Z</time>
      </trkpt>
      <trkpt lat="49.54313" lon="3.29475">
        <ele>127.9</ele>
        <time>2016-08-27T07:39:33.000Z</time>
      </trkpt>
      <trkpt lat="49.54313" lon="3.29475">
        <ele>128.3</ele>
        <time>2016-08-27T07:39:34.000Z</time>
      </trkpt>
      <trkpt lat="49.54314" lon="3.29477">
        <ele>127.2</ele>
        <time>2016-08-27T07:39:35.000Z</time>
      </trkpt>
      <trkpt lat="49.54314" lon="3.29478">
        <ele>126.6</ele>
        <time>2016-08-27T07:39:44.000Z</time>
      </trkpt>
      <trkpt lat="49.54312" lon="3.29477">
        <ele>126.6</ele>
        <time>2016-08-27T07:39:45.000Z</time>
      </trkpt>
      <trkpt lat="49.54312" lon="3.29477">
        <ele>126.7</ele>
        <time>2016-08-27T07:39:46.000Z</time>
      </trkpt>
      <trkpt lat="49.54312" lon="3.29477">
        <ele>126.1</ele>
        <time>2016-08-27T07:39:47.000Z</time>
      </trkpt>
      <trkpt lat="49.54314" lon="3.29478">
        <ele>123.9</ele>
        <time>2016-08-27T07:39:57.000Z</time>
      </trkpt>
      <trkpt lat="49.54316" lon="3.29481">
        <ele>121.3</ele>
        <time>2016-08-27T07:39:58.000Z</time>
      </trkpt>
      <trkpt lat="49.54316" lon="3.29483">
        <ele>121</ele>
        <time>2016-08-27T07:39:59.000Z</time>
      </trkpt>
      <trkpt lat="49.54316" lon="3.29484">
        <ele>121.3</ele>
        <time>2016-08-27T07:40:00.000Z</time>
      </trkpt>
      <trkpt lat="49.54317" lon="3.29485">
        <ele>120.6</ele>
        <time>2016-08-27T07:41:29.000Z</time>
      </trkpt>
      <trkpt lat="49.54314" lon="3.29488">
        <ele>121.1</ele>
        <time>2016-08-27T07:41:30.000Z</time>
      </trkpt>
      <trkpt lat="49.54312" lon="3.29487">
        <ele>121.9</ele>
        <time>2016-08-27T07:41:33.000Z</time>
      </trkpt>
      <trkpt lat="49.54312" lon="3.29487">
        <ele>122.2</ele>
        <time>2016-08-27T07:41:34.000Z</time>
      </trkpt>
      <trkpt lat="49.54312" lon="3.29487">
        <ele>122.4</ele>
        <time>2016-08-27T07:41:35.000Z</time>
      </trkpt>
      <trkpt lat="49.54311" lon="3.29485">
        <ele>123.2</ele>
        <time>2016-08-27T07:42:02.000Z</time>
      </trkpt>
      <trkpt lat="49.54311" lon="3.29485">
        <ele>123.1</ele>
        <time>2016-08-27T07:42:03.000Z</time>
      </trkpt>
      <trkpt lat="49.54311" lon="3.29486">
        <ele>123.1</ele>
        <time>2016-08-27T07:42:04.000Z</time>
      </trkpt>
      <trkpt lat="49.54311" lon="3.29486">
        <ele>123.2</ele>
        <time>2016-08-27T07:42:05.000Z</time>
      </trkpt>
      <trkpt lat="49.54311" lon="3.29487">
        <ele>123.2</ele>
        <time>2016-08-27T07:42:06.000Z</time>
      </trkpt>
      <trkpt lat="49.54311" lon="3.29487">
        <ele>123</ele>
        <time>2016-08-27T07:42:21.000Z</time>
      </trkpt>
      <trkpt lat="49.5431" lon="3.29485">
        <ele>122.3</ele>
        <time>2016-08-27T07:42:22.000Z</time>
      </trkpt>
      <trkpt lat="49.54309" lon="3.29485">
        <ele>122.2</ele>
        <time>2016-08-27T07:42:28.000Z</time>
      </trkpt>
      <trkpt lat="49.54309" lon="3.29486">
        <ele>122.3</ele>
        <time>2016-08-27T07:42:29.000Z</time>
      </trkpt>
      <trkpt lat="49.54309" lon="3.29486">
        <ele>122.4</ele>
        <time>2016-08-27T07:42:35.000Z</time>
      </trkpt>
      <trkpt lat="49.54309" lon="3.29486">
        <ele>122.1</ele>
        <time>2016-08-27T07:42:36.000Z</time>
      </trkpt>
      <trkpt lat="49.54309" lon="3.29486">
        <ele>122.1</ele>
        <time>2016-08-27T07:42:37.000Z</time>
      </trkpt>
      <trkpt lat="49.54309" lon="3.29486">
        <ele>122.1</ele>
        <time>2016-08-27T07:42:38.000Z</time>
      </trkpt>
      <trkpt lat="49.54309" lon="3.29486">
        <ele>122.2</ele>
        <time>2016-08-27T07:42:50.000Z</time>
      </trkpt>
      <trkpt lat="49.54312" lon="3.29484">
        <ele>121.5</ele>
        <time>2016-08-27T07:42:51.000Z</time>
      </trkpt>
      <trkpt lat="49.54313" lon="3.29488">
        <ele>122</ele>
        <time>2016-08-27T07:43:03.000Z</time>
      </trkpt>
      <trkpt lat="49.54313" lon="3.29488">
        <ele>122</ele>
        <time>2016-08-27T07:43:04.000Z</time>
      </trkpt>
      <trkpt lat="49.54312" lon="3.29488">
        <ele>122</ele>
        <time>2016-08-27T07:43:51.000Z</time>
      </trkpt>
      <trkpt lat="49.54312" lon="3.29485">
        <ele>123.6</ele>
        <time>2016-08-27T07:43:52.000Z</time>
      </trkpt>
      <trkpt lat="49.54317" lon="3.29478">
        <ele>122.5</ele>
        <time>2016-08-27T07:44:01.000Z</time>
      </trkpt>
      <trkpt lat="49.54317" lon="3.29478">
        <ele>122.5</ele>
        <time>2016-08-27T07:44:02.000Z</time>
      </trkpt>
      <trkpt lat="49.54317" lon="3.29478">
        <ele>122.6</ele>
        <time>2016-08-27T07:44:05.000Z</time>
      </trkpt>
      <trkpt lat="49.54318" lon="3.29477">
        <ele>122.6</ele>
        <time>2016-08-27T07:44:06.000Z</time>
      </trkpt>
      <trkpt lat="49.5432" lon="3.29468">
        <ele>122.9</ele>
        <time>2016-08-27T07:44:13.000Z</time>
      </trkpt>
      <trkpt lat="49.5432" lon="3.29468">
        <ele>123</ele>
        <time>2016-08-27T07:44:14.000Z</time>
      </trkpt>
      <trkpt lat="49.5432" lon="3.29467">
        <ele>123.1</ele>
        <time>2016-08-27T07:44:22.000Z</time>
      </trkpt>
      <trkpt lat="49.5432" lon="3.29466">
        <ele>123.7</ele>
        <time>2016-08-27T07:44:23.000Z</time>
      </trkpt>
      <trkpt lat="49.54323" lon="3.29454">
        <ele>124.2</ele>
        <time>2016-08-27T07:44:35.000Z</time>
      </trkpt>
      <trkpt lat="49.54324" lon="3.29454">
        <ele>124.4</ele>
        <time>2016-08-27T07:44:36.000Z</time>
      </trkpt>
      <trkpt lat="49.54327" lon="3.29467">
        <ele>123.8</ele>
        <time>2016-08-27T07:45:52.000Z</time>
      </trkpt>
      <trkpt lat="49.54327" lon="3.29467">
        <ele>123.8</ele>
        <time>2016-08-27T07:45:53.000Z</time>
      </trkpt>
      <trkpt lat="49.54328" lon="3.29469">
        <ele>123.7</ele>
        <time>2016-08-27T07:45:55.000Z</time>
      </trkpt>
      <trkpt lat="49.54328" lon="3.29469">
        <ele>123.9</ele>
        <time>2016-08-27T07:45:56.000Z</time>
      </trkpt>
      <trkpt lat="49.54328" lon="3.29469">
        <ele>124</ele>
        <time>2016-08-27T07:45:59.000Z</time>
      </trkpt>
      <trkpt lat="49.54328" lon="3.29469">
        <ele>124.1</ele>
        <time>2016-08-27T07:46:00.000Z</time>
      </trkpt>
      <trkpt lat="49.54333" lon="3.29474">
        <ele>123.8</ele>
        <time>2016-08-27T07:46:07.000Z</time>
      </trkpt>
      <trkpt lat="49.54333" lon="3.29474">
        <ele>123.9</ele>
        <time>2016-08-27T07:46:08.000Z</time>
      </trkpt>
      <trkpt lat="49.54333" lon="3.29474">
        <ele>124</ele>
        <time>2016-08-27T07:46:12.000Z</time>
      </trkpt>
      <trkpt lat="49.54333" lon="3.29477">
        <ele>124.2</ele>
        <time>2016-08-27T07:46:13.000Z</time>
      </trkpt>
      <trkpt lat="49.5433" lon="3.29486">
        <ele>123.8</ele>
        <time>2016-08-27T07:46:24.000Z</time>
      </trkpt>
      <trkpt lat="49.5433" lon="3.29487">
        <ele>123.9</ele>
        <time>2016-08-27T07:46:25.000Z</time>
      </trkpt>
      <trkpt lat="49.54329" lon="3.29487">
        <ele>123.9</ele>
        <time>2016-08-27T07:46:27.000Z</time>
      </trkpt>
      <trkpt lat="49.54329" lon="3.29488">
        <ele>123.9</ele>
        <time>2016-08-27T07:46:28.000Z</time>
      </trkpt>
      <trkpt lat="49.54328" lon="3.29489">
        <ele>124.2</ele>
        <time>2016-08-27T07:46:30.000Z</time>
      </trkpt>
      <trkpt lat="49.54329" lon="3.29489">
        <ele>124.4</ele>
        <time>2016-08-27T07:46:31.000Z</time>
      </trkpt>
      <trkpt lat="49.54329" lon="3.29488">
        <ele>124.7</ele>
        <time>2016-08-27T07:47:02.000Z</time>
      </trkpt>
      <trkpt lat="49.54328" lon="3.29483">
        <ele>124.8</ele>
        <time>2016-08-27T07:47:03.000Z</time>
      </trkpt>
      <trkpt lat="49.54329" lon="3.29483">
        <ele>124.9</ele>
        <time>2016-08-27T07:47:04.000Z</time>
      </trkpt>
      <trkpt lat="49.54329" lon="3.29482">
        <ele>124.8</ele>
        <time>2016-08-27T07:47:05.000Z</time>
      </trkpt>
      <trkpt lat="49.54329" lon="3.29482">
        <ele>124.9</ele>
        <time>2016-08-27T07:48:29.000Z</time>
      </trkpt>
      <trkpt lat="49.5433" lon="3.29476">
        <ele>125.7</ele>
        <time>2016-08-27T07:48:30.000Z</time>
      </trkpt>
      <trkpt lat="49.54331" lon="3.29475">
        <ele>125.9</ele>
        <time>2016-08-27T07:48:31.000Z</time>
      </trkpt>
      <trkpt lat="49.54331" lon="3.29475">
        <ele>126</ele>
        <time>2016-08-27T07:48:32.000Z</time>
      </trkpt>
      <trkpt lat="49.54331" lon="3.29475">
        <ele>125.9</ele>
        <time>2016-08-27T07:49:56.000Z</time>
      </trkpt>
      <trkpt lat="49.54332" lon="3.29478">
        <ele>124.6</ele>
        <time>2016-08-27T07:49:57.000Z</time>
      </trkpt>
      <trkpt lat="49.54332" lon="3.29478">
        <ele>124.7</ele>
        <time>2016-08-27T07:49:58.000Z</time>
      </trkpt>
      <trkpt lat="49.54332" lon="3.29477">
        <ele>124.6</ele>
        <time>2016-08-27T07:51:13.000Z</time>
      </trkpt>
      <trkpt lat="49.54332" lon="3.29477">
        <ele>124.6</ele>
        <time>2016-08-27T07:51:14.000Z</time>
      </trkpt>
      <trkpt lat="49.54337" lon="3.29466">
        <ele>125.7</ele>
        <time>2016-08-27T07:51:21.000Z</time>
      </trkpt>
      <trkpt lat="49.54337" lon="3.29465">
        <ele>126</ele>
        <time>2016-08-27T07:51:22.000Z</time>
      </trkpt>
      <trkpt lat="49.54343" lon="3.29462">
        <ele>126.1</ele>
        <time>2016-08-27T07:51:32.000Z</time>
      </trkpt>
      <trkpt lat="49.54344" lon="3.29463">
        <ele>126.1</ele>
        <time>2016-08-27T07:51:33.000Z</time>
      </trkpt>
      <trkpt lat="49.54344" lon="3.29463">
        <ele>126.1</ele>
        <time>2016-08-27T07:51:41.000Z</time>
      </trkpt>
      <trkpt lat="49.54343" lon="3.29464">
        <ele>125.6</ele>
        <time>2016-08-27T07:51:42.000Z</time>
      </trkpt>
      <trkpt lat="49.54342" lon="3.29466">
        <ele>125.5</ele>
        <time>2016-08-27T07:51:45.000Z</time>
      </trkpt>
      <trkpt lat="49.54342" lon="3.29466">
        <ele>125.4</ele>
        <time>2016-08-27T07:51:46.000Z</time>
      </trkpt>
      <trkpt lat="49.54343" lon="3.29466">
        <ele>125.3</ele>
        <time>2016-08-27T07:51:56.000Z</time>
      </trkpt>
      <trkpt lat="49.54342" lon="3.29467">
        <ele>125.1</ele>
        <time>2016-08-27T07:51:57.000Z</time>
      </trkpt>
      <trkpt lat="49.54335" lon="3.29473">
        <ele>123.9</ele>
        <time>2016-08-27T07:52:06.000Z</time>
      </trkpt>
      <trkpt lat="49.54334" lon="3.29474">
        <ele>123.6</ele>
        <time>2016-08-27T07:52:07.000Z</time>
      </trkpt>
      <trkpt lat="49.54334" lon="3.29474">
        <ele>123.4</ele>
        <time>2016-08-27T07:52:08.000Z</time>
      </trkpt>
      <trkpt lat="49.54334" lon="3.29474">
        <ele>123.5</ele>
        <time>2016-08-27T07:52:46.000Z</time>
      </trkpt>
      <trkpt lat="49.54333" lon="3.29473">
        <ele>122.2</ele>
        <time>2016-08-27T07:52:47.000Z</time>
      </trkpt>
      <trkpt lat="49.5433" lon="3.29474">
        <ele>122</ele>
        <time>2016-08-27T07:52:56.000Z</time>
      </trkpt>
      <trkpt lat="49.5433" lon="3.29475">
        <ele>121.9</ele>
        <time>2016-08-27T07:52:57.000Z</time>
      </trkpt>
      <trkpt lat="49.5433" lon="3.29475">
        <ele>121.9</ele>
        <time>2016-08-27T07:54:20.000Z</time>
      </trkpt>
      <trkpt lat="49.54331" lon="3.29478">
        <ele>122</ele>
        <time>2016-08-27T07:54:21.000Z</time>
      </trkpt>
      <trkpt lat="49.54331" lon="3.29478">
        <ele>122</ele>
        <time>2016-08-27T07:54:22.000Z</time>
      </trkpt>
      <trkpt lat="49.54331" lon="3.29477">
        <ele>122.3</ele>
        <time>2016-08-27T07:54:23.000Z</time>
      </trkpt>
      <trkpt lat="49.54331" lon="3.29477">
        <ele>122.5</ele>
        <time>2016-08-27T07:54:53.000Z</time>
      </trkpt>
      <trkpt lat="49.54331" lon="3.29476">
        <ele>122.6</ele>
        <time>2016-08-27T07:54:54.000Z</time>
      </trkpt>
      <trkpt lat="49.5433" lon="3.29488">
        <ele>122.3</ele>
        <time>2016-08-27T07:55:08.000Z</time>
      </trkpt>
      <trkpt lat="49.5433" lon="3.29491">
        <ele>122.3</ele>
        <time>2016-08-27T07:55:09.000Z</time>
      </trkpt>
      <trkpt lat="49.5433" lon="3.29503">
        <ele>122.2</ele>
        <time>2016-08-27T07:55:15.000Z</time>
      </trkpt>
      <trkpt lat="49.5433" lon="3.29505">
        <ele>122.3</ele>
        <time>2016-08-27T07:55:16.000Z</time>
      </trkpt>
      <trkpt lat="49.54332" lon="3.29518">
        <ele>123.3</ele>
        <time>2016-08-27T07:55:29.000Z</time>
      </trkpt>
      <trkpt lat="49.54333" lon="3.29519">
        <ele>123.3</ele>
        <time>2016-08-27T07:55:30.000Z</time>
      </trkpt>
      <trkpt lat="49.54341" lon="3.2952">
        <ele>122.2</ele>
        <time>2016-08-27T07:55:36.000Z</time>
      </trkpt>
      <trkpt lat="49.54342" lon="3.2952">
        <ele>122.1</ele>
        <time>2016-08-27T07:55:37.000Z</time>
      </trkpt>
      <trkpt lat="49.54347" lon="3.2951">
        <ele>122.5</ele>
        <time>2016-08-27T07:55:45.000Z</time>
      </trkpt>
      <trkpt lat="49.54348" lon="3.29509">
        <ele>122.3</ele>
        <time>2016-08-27T07:55:46.000Z</time>
      </trkpt>
      <trkpt lat="49.54355" lon="3.29503">
        <ele>123.2</ele>
        <time>2016-08-27T07:55:57.000Z</time>
      </trkpt>
      <trkpt lat="49.54357" lon="3.29503">
        <ele>123.5</ele>
        <time>2016-08-27T07:55:58.000Z</time>
      </trkpt>
      <trkpt lat="49.54365" lon="3.29503">
        <ele>124.5</ele>
        <time>2016-08-27T07:56:06.000Z</time>
      </trkpt>
      <trkpt lat="49.54367" lon="3.29503">
        <ele>124.4</ele>
        <time>2016-08-27T07:56:07.000Z</time>
      </trkpt>
      <trkpt lat="49.54374" lon="3.29498">
        <ele>126.6</ele>
        <time>2016-08-27T07:56:13.000Z</time>
      </trkpt>
      <trkpt lat="49.54375" lon="3.29496">
        <ele>127</ele>
        <time>2016-08-27T07:56:14.000Z</time>
      </trkpt>
      <trkpt lat="49.54376" lon="3.29483">
        <ele>127.9</ele>
        <time>2016-08-27T07:56:22.000Z</time>
      </trkpt>
      <trkpt lat="49.54376" lon="3.29481">
        <ele>127.8</ele>
        <time>2016-08-27T07:56:23.000Z</time>
      </trkpt>
      <trkpt lat="49.54381" lon="3.2947">
        <ele>128.8</ele>
        <time>2016-08-27T07:56:31.000Z</time>
      </trkpt>
      <trkpt lat="49.54381" lon="3.29469">
        <ele>128.8</ele>
        <time>2016-08-27T07:56:32.000Z</time>
      </trkpt>
      <trkpt lat="49.54381" lon="3.29469">
        <ele>128.9</ele>
        <time>2016-08-27T07:56:33.000Z</time>
      </trkpt>
      <trkpt lat="49.54381" lon="3.29468">
        <ele>129</ele>
        <time>2016-08-27T07:56:38.000Z</time>
      </trkpt>
      <trkpt lat="49.54382" lon="3.29469">
        <ele>128.6</ele>
        <time>2016-08-27T07:56:39.000Z</time>
      </trkpt>
      <trkpt lat="49.54377" lon="3.2946">
        <ele>129.8</ele>
        <time>2016-08-27T07:56:58.000Z</time>
      </trkpt>
      <trkpt lat="49.54376" lon="3.29458">
        <ele>129.8</ele>
        <time>2016-08-27T07:56:59.000Z</time>
      </trkpt>
      <trkpt lat="49.54374" lon="3.29447">
        <ele>130</ele>
        <time>2016-08-27T07:57:02.000Z</time>
      </trkpt>
      <trkpt lat="49.54374" lon="3.29443">
        <ele>129.9</ele>
        <time>2016-08-27T07:57:03.000Z</time>
      </trkpt>
      <trkpt lat="49.54374" lon="3.29432">
        <ele>129.6</ele>
        <time>2016-08-27T07:57:06.000Z</time>
      </trkpt>
      <trkpt lat="49.54374" lon="3.29428">
        <ele>129.5</ele>
        <time>2016-08-27T07:57:07.000Z</time>
      </trkpt>
      <trkpt lat="49.54374" lon="3.29416">
        <ele>129</ele>
        <time>2016-08-27T07:57:10.000Z</time>
      </trkpt>
      <trkpt lat="49.54374" lon="3.29412">
        <ele>128.9</ele>
        <time>2016-08-27T07:57:11.000Z</time>
      </trkpt>
      <trkpt lat="49.54373" lon="3.29398">
        <ele>129.1</ele>
        <time>2016-08-27T07:57:14.000Z</time>
      </trkpt>
      <trkpt lat="49.54372" lon="3.29394">
        <ele>129.5</ele>
        <time>2016-08-27T07:57:15.000Z</time>
      </trkpt>
      <trkpt lat="49.5437" lon="3.29385">
        <ele>130.7</ele>
        <time>2016-08-27T07:57:17.000Z</time>
      </trkpt>
      <trkpt lat="49.5437" lon="3.2938">
        <ele>130.8</ele>
        <time>2016-08-27T07:57:18.000Z</time>
      </trkpt>
      <trkpt lat="49.54368" lon="3.29368">
        <ele>131</ele>
        <time>2016-08-27T07:57:21.000Z</time>
      </trkpt>
      <trkpt lat="49.54367" lon="3.29364">
        <ele>131.1</ele>
        <time>2016-08-27T07:57:22.000Z</time>
      </trkpt>
      <trkpt lat="49.54365" lon="3.29351">
        <ele>132</ele>
        <time>2016-08-27T07:57:25.000Z</time>
      </trkpt>
      <trkpt lat="49.54363" lon="3.29346">
        <ele>132.3</ele>
        <time>2016-08-27T07:57:26.000Z</time>
      </trkpt>
      <trkpt lat="49.54361" lon="3.29334">
        <ele>132.7</ele>
        <time>2016-08-27T07:57:29.000Z</time>
      </trkpt>
      <trkpt lat="49.54361" lon="3.29331">
        <ele>132.5</ele>
        <time>2016-08-27T07:57:30.000Z</time>
      </trkpt>
      <trkpt lat="49.54361" lon="3.29317">
        <ele>131.7</ele>
        <time>2016-08-27T07:57:37.000Z</time>
      </trkpt>
      <trkpt lat="49.54361" lon="3.29317">
        <ele>131.7</ele>
        <time>2016-08-27T07:57:38.000Z</time>
      </trkpt>
      <trkpt lat="49.54361" lon="3.29317">
        <ele>131.8</ele>
        <time>2016-08-27T07:57:39.000Z</time>
      </trkpt>
      <trkpt lat="49.54361" lon="3.29316">
        <ele>131.9</ele>
        <time>2016-08-27T07:57:40.000Z</time>
      </trkpt>
      <trkpt lat="49.54359" lon="3.29327">
        <ele>131.4</ele>
        <time>2016-08-27T07:57:46.000Z</time>
      </trkpt>
      <trkpt lat="49.5436" lon="3.2933">
        <ele>131.6</ele>
        <time>2016-08-27T07:57:47.000Z</time>
      </trkpt>
      <trkpt lat="49.54362" lon="3.29342">
        <ele>131.4</ele>
        <time>2016-08-27T07:57:52.000Z</time>
      </trkpt>
      <trkpt lat="49.54362" lon="3.29344">
        <ele>131.4</ele>
        <time>2016-08-27T07:57:53.000Z</time>
      </trkpt>
      <trkpt lat="49.54363" lon="3.29355">
        <ele>131.6</ele>
        <time>2016-08-27T07:57:57.000Z</time>
      </trkpt>
      <trkpt lat="49.54363" lon="3.29358">
        <ele>132.1</ele>
        <time>2016-08-27T07:57:58.000Z</time>
      </trkpt>
      <trkpt lat="49.54366" lon="3.29371">
        <ele>132</ele>
        <time>2016-08-27T07:58:03.000Z</time>
      </trkpt>
      <trkpt lat="49.54366" lon="3.29374">
        <ele>131.9</ele>
        <time>2016-08-27T07:58:04.000Z</time>
      </trkpt>
      <trkpt lat="49.54368" lon="3.29386">
        <ele>131.8</ele>
        <time>2016-08-27T07:58:09.000Z</time>
      </trkpt>
      <trkpt lat="49.54367" lon="3.29388">
        <ele>132</ele>
        <time>2016-08-27T07:58:10.000Z</time>
      </trkpt>
      <trkpt lat="49.54368" lon="3.29401">
        <ele>132.5</ele>
        <time>2016-08-27T07:58:15.000Z</time>
      </trkpt>
      <trkpt lat="49.54369" lon="3.29403">
        <ele>132.6</ele>
        <time>2016-08-27T07:58:16.000Z</time>
      </trkpt>
      <trkpt lat="49.5437" lon="3.29416">
        <ele>132.4</ele>
        <time>2016-08-27T07:58:22.000Z</time>
      </trkpt>
      <trkpt lat="49.54371" lon="3.29418">
        <ele>132.4</ele>
        <time>2016-08-27T07:58:23.000Z</time>
      </trkpt>
      <trkpt lat="49.54373" lon="3.29431">
        <ele>132.6</ele>
        <time>2016-08-27T07:58:29.000Z</time>
      </trkpt>
      <trkpt lat="49.54373" lon="3.29433">
        <ele>132.7</ele>
        <time>2016-08-27T07:58:30.000Z</time>
      </trkpt>
      <trkpt lat="49.54372" lon="3.29447">
        <ele>133.2</ele>
        <time>2016-08-27T07:58:36.000Z</time>
      </trkpt>
      <trkpt lat="49.54372" lon="3.29449">
        <ele>133.3</ele>
        <time>2016-08-27T07:58:37.000Z</time>
      </trkpt>
      <trkpt lat="49.54374" lon="3.29462">
        <ele>132.8</ele>
        <time>2016-08-27T07:58:43.000Z</time>
      </trkpt>
      <trkpt lat="49.54374" lon="3.29464">
        <ele>132.8</ele>
        <time>2016-08-27T07:58:44.000Z</time>
      </trkpt>
      <trkpt lat="49.54377" lon="3.29474">
        <ele>133.1</ele>
        <time>2016-08-27T07:58:49.000Z</time>
      </trkpt>
      <trkpt lat="49.54378" lon="3.29476">
        <ele>133.2</ele>
        <time>2016-08-27T07:58:50.000Z</time>
      </trkpt>
      <trkpt lat="49.54384" lon="3.29485">
        <ele>133.4</ele>
        <time>2016-08-27T07:58:56.000Z</time>
      </trkpt>
      <trkpt lat="49.54385" lon="3.29487">
        <ele>133.4</ele>
        <time>2016-08-27T07:58:57.000Z</time>
      </trkpt>
      <trkpt lat="49.54393" lon="3.29494">
        <ele>134.2</ele>
        <time>2016-08-27T07:59:03.000Z</time>
      </trkpt>
      <trkpt lat="49.54394" lon="3.29495">
        <ele>134.2</ele>
        <time>2016-08-27T07:59:04.000Z</time>
      </trkpt>
      <trkpt lat="49.54402" lon="3.29499">
        <ele>134.9</ele>
        <time>2016-08-27T07:59:10.000Z</time>
      </trkpt>
      <trkpt lat="49.54404" lon="3.295">
        <ele>135</ele>
        <time>2016-08-27T07:59:11.000Z</time>
      </trkpt>
      <trkpt lat="49.54411" lon="3.295">
        <ele>134.7</ele>
        <time>2016-08-27T07:59:16.000Z</time>
      </trkpt>
      <trkpt lat="49.54413" lon="3.295">
        <ele>134.7</ele>
        <time>2016-08-27T07:59:17.000Z</time>
      </trkpt>
      <trkpt lat="49.54421" lon="3.29498">
        <ele>134.9</ele>
        <time>2016-08-27T07:59:23.000Z</time>
      </trkpt>
      <trkpt lat="49.54423" lon="3.29498">
        <ele>134.7</ele>
        <time>2016-08-27T07:59:24.000Z</time>
      </trkpt>
      <trkpt lat="49.5443" lon="3.29498">
        <ele>134.5</ele>
        <time>2016-08-27T07:59:29.000Z</time>
      </trkpt>
      <trkpt lat="49.54432" lon="3.29498">
        <ele>134.3</ele>
        <time>2016-08-27T07:59:30.000Z</time>
      </trkpt>
      <trkpt lat="49.54439" lon="3.29497">
        <ele>133.3</ele>
        <time>2016-08-27T07:59:34.000Z</time>
      </trkpt>
      <trkpt lat="49.54441" lon="3.29497">
        <ele>133.1</ele>
        <time>2016-08-27T07:59:35.000Z</time>
      </trkpt>
      <trkpt lat="49.54449" lon="3.29497">
        <ele>133.4</ele>
        <time>2016-08-27T07:59:39.000Z</time>
      </trkpt>
      <trkpt lat="49.54451" lon="3.29497">
        <ele>133.5</ele>
        <time>2016-08-27T07:59:40.000Z</time>
      </trkpt>
      <trkpt lat="49.54459" lon="3.29498">
        <ele>134.2</ele>
        <time>2016-08-27T07:59:45.000Z</time>
      </trkpt>
      <trkpt lat="49.5446" lon="3.29498">
        <ele>134.3</ele>
        <time>2016-08-27T07:59:46.000Z</time>
      </trkpt>
      <trkpt lat="49.54468" lon="3.29498">
        <ele>134.9</ele>
        <time>2016-08-27T07:59:52.000Z</time>
      </trkpt>
      <trkpt lat="49.5447" lon="3.29498">
        <ele>135</ele>
        <time>2016-08-27T07:59:53.000Z</time>
      </trkpt>
      <trkpt lat="49.54478" lon="3.29498">
        <ele>135.5</ele>
        <time>2016-08-27T07:59:59.000Z</time>
      </trkpt>
      <trkpt lat="49.54479" lon="3.29498">
        <ele>135.5</ele>
        <time>2016-08-27T08:00:00.000Z</time>
      </trkpt>
      <trkpt lat="49.54488" lon="3.29501">
        <ele>136</ele>
        <time>2016-08-27T08:00:07.000Z</time>
      </trkpt>
      <trkpt lat="49.54489" lon="3.29501">
        <ele>136.1</ele>
        <time>2016-08-27T08:00:08.000Z</time>
      </trkpt>
      <trkpt lat="49.54495" lon="3.29503">
        <ele>136.9</ele>
        <time>2016-08-27T08:00:14.000Z</time>
      </trkpt>
      <trkpt lat="49.54495" lon="3.29503">
        <ele>136.8</ele>
        <time>2016-08-27T08:00:15.000Z</time>
      </trkpt>
      <trkpt lat="49.54495" lon="3.29503">
        <ele>136.8</ele>
        <time>2016-08-27T08:00:55.000Z</time>
      </trkpt>
      <trkpt lat="49.54497" lon="3.29506">
        <ele>137.3</ele>
        <time>2016-08-27T08:00:56.000Z</time>
      </trkpt>
      <trkpt lat="49.54502" lon="3.29508">
        <ele>138.2</ele>
        <time>2016-08-27T08:01:50.000Z</time>
      </trkpt>
      <trkpt lat="49.54502" lon="3.29508">
        <ele>138.3</ele>
        <time>2016-08-27T08:01:51.000Z</time>
      </trkpt>
      <trkpt lat="49.54502" lon="3.29508">
        <ele>138.3</ele>
        <time>2016-08-27T08:01:57.000Z</time>
      </trkpt>
      <trkpt lat="49.54503" lon="3.29507">
        <ele>138.3</ele>
        <time>2016-08-27T08:01:58.000Z</time>
      </trkpt>
      <trkpt lat="49.54511" lon="3.29505">
        <ele>138.9</ele>
        <time>2016-08-27T08:02:35.000Z</time>
      </trkpt>
      <trkpt lat="49.54512" lon="3.29504">
        <ele>138.9</ele>
        <time>2016-08-27T08:02:36.000Z</time>
      </trkpt>
      <trkpt lat="49.54521" lon="3.29501">
        <ele>139.4</ele>
        <time>2016-08-27T08:02:43.000Z</time>
      </trkpt>
      <trkpt lat="49.54522" lon="3.29501">
        <ele>139.3</ele>
        <time>2016-08-27T08:02:44.000Z</time>
      </trkpt>
      <trkpt lat="49.5453" lon="3.29499">
        <ele>139.5</ele>
        <time>2016-08-27T08:02:50.000Z</time>
      </trkpt>
      <trkpt lat="49.54531" lon="3.29499">
        <ele>139.5</ele>
        <time>2016-08-27T08:02:51.000Z</time>
      </trkpt>
      <trkpt lat="49.5454" lon="3.29499">
        <ele>140.1</ele>
        <time>2016-08-27T08:02:58.000Z</time>
      </trkpt>
      <trkpt lat="49.54541" lon="3.29499">
        <ele>140.2</ele>
        <time>2016-08-27T08:02:59.000Z</time>
      </trkpt>
      <trkpt lat="49.54548" lon="3.29501">
        <ele>140.4</ele>
        <time>2016-08-27T08:03:04.000Z</time>
      </trkpt>
      <trkpt lat="49.5455" lon="3.29502">
        <ele>140.6</ele>
        <time>2016-08-27T08:03:05.000Z</time>
      </trkpt>
      <trkpt lat="49.54553" lon="3.29502">
        <ele>140.9</ele>
        <time>2016-08-27T08:03:09.000Z</time>
      </trkpt>
      <trkpt lat="49.54554" lon="3.29502">
        <ele>141</ele>
        <time>2016-08-27T08:03:10.000Z</time>
      </trkpt>
      <trkpt lat="49.54554" lon="3.29502">
        <ele>141</ele>
        <time>2016-08-27T08:03:16.000Z</time>
      </trkpt>
      <trkpt lat="49.54554" lon="3.29504">
        <ele>141.6</ele>
        <time>2016-08-27T08:03:17.000Z</time>
      </trkpt>
      <trkpt lat="49.54555" lon="3.29505">
        <ele>141.6</ele>
        <time>2016-08-27T08:03:18.000Z</time>
      </trkpt>
      <trkpt lat="49.54556" lon="3.29504">
        <ele>141.7</ele>
        <time>2016-08-27T08:03:19.000Z</time>
      </trkpt>
      <trkpt lat="49.54564" lon="3.29511">
        <ele>142.8</ele>
        <time>2016-08-27T08:03:37.000Z</time>
      </trkpt>
      <trkpt lat="49.54565" lon="3.29512">
        <ele>142.7</ele>
        <time>2016-08-27T08:03:38.000Z</time>
      </trkpt>
      <trkpt lat="49.54571" lon="3.29517">
        <ele>143.1</ele>
        <time>2016-08-27T08:03:46.000Z</time>
      </trkpt>
      <trkpt lat="49.54573" lon="3.29517">
        <ele>143.2</ele>
        <time>2016-08-27T08:03:47.000Z</time>
      </trkpt>
      <trkpt lat="49.54579" lon="3.29527">
        <ele>143.6</ele>
        <time>2016-08-27T08:03:54.000Z</time>
      </trkpt>
      <trkpt lat="49.5458" lon="3.29528">
        <ele>143.6</ele>
        <time>2016-08-27T08:03:55.000Z</time>
      </trkpt>
      <trkpt lat="49.54586" lon="3.29535">
        <ele>144.6</ele>
        <time>2016-08-27T08:04:11.000Z</time>
      </trkpt>
      <trkpt lat="49.54587" lon="3.29535">
        <ele>144.7</ele>
        <time>2016-08-27T08:04:12.000Z</time>
      </trkpt>
      <trkpt lat="49.54588" lon="3.29537">
        <ele>144.8</ele>
        <time>2016-08-27T08:04:18.000Z</time>
      </trkpt>
      <trkpt lat="49.54595" lon="3.29545">
        <ele>145.4</ele>
        <time>2016-08-27T08:04:19.000Z</time>
      </trkpt>
      <trkpt lat="49.54599" lon="3.29551">
        <ele>146</ele>
        <time>2016-08-27T08:04:23.000Z</time>
      </trkpt>
      <trkpt lat="49.54601" lon="3.29551">
        <ele>146.2</ele>
        <time>2016-08-27T08:04:24.000Z</time>
      </trkpt>
      <trkpt lat="49.54602" lon="3.29553">
        <ele>146.6</ele>
        <time>2016-08-27T08:04:25.000Z</time>
      </trkpt>
      <trkpt lat="49.54605" lon="3.29554">
        <ele>146.3</ele>
        <time>2016-08-27T08:04:26.000Z</time>
      </trkpt>
      <trkpt lat="49.54612" lon="3.29559">
        <ele>146.8</ele>
        <time>2016-08-27T08:04:30.000Z</time>
      </trkpt>
      <trkpt lat="49.54613" lon="3.29561">
        <ele>146.9</ele>
        <time>2016-08-27T08:04:31.000Z</time>
      </trkpt>
      <trkpt lat="49.54619" lon="3.29569">
        <ele>147.7</ele>
        <time>2016-08-27T08:04:35.000Z</time>
      </trkpt>
      <trkpt lat="49.54621" lon="3.29571">
        <ele>148.1</ele>
        <time>2016-08-27T08:04:36.000Z</time>
      </trkpt>
      <trkpt lat="49.54626" lon="3.29578">
        <ele>148.7</ele>
        <time>2016-08-27T08:04:39.000Z</time>
      </trkpt>
      <trkpt lat="49.54628" lon="3.2958">
        <ele>149</ele>
        <time>2016-08-27T08:04:40.000Z</time>
      </trkpt>
      <trkpt lat="49.54634" lon="3.2959">
        <ele>150.3</ele>
        <time>2016-08-27T08:04:44.000Z</time>
      </trkpt>
      <trkpt lat="49.54635" lon="3.29591">
        <ele>150.6</ele>
        <time>2016-08-27T08:04:45.000Z</time>
      </trkpt>
      <trkpt lat="49.54641" lon="3.29598">
        <ele>151.6</ele>
        <time>2016-08-27T08:04:49.000Z</time>
      </trkpt>
      <trkpt lat="49.54642" lon="3.296">
        <ele>151.9</ele>
        <time>2016-08-27T08:04:50.000Z</time>
      </trkpt>
      <trkpt lat="49.54649" lon="3.29605">
        <ele>153.1</ele>
        <time>2016-08-27T08:04:54.000Z</time>
      </trkpt>
      <trkpt lat="49.5465" lon="3.29607">
        <ele>153.2</ele>
        <time>2016-08-27T08:04:55.000Z</time>
      </trkpt>
      <trkpt lat="49.54655" lon="3.29611">
        <ele>152.9</ele>
        <time>2016-08-27T08:04:57.000Z</time>
      </trkpt>
      <trkpt lat="49.54659" lon="3.29613">
        <ele>151.7</ele>
        <time>2016-08-27T08:04:58.000Z</time>
      </trkpt>
      <trkpt lat="49.54667" lon="3.29619">
        <ele>151.6</ele>
        <time>2016-08-27T08:05:02.000Z</time>
      </trkpt>
      <trkpt lat="49.54669" lon="3.2962">
        <ele>151.8</ele>
        <time>2016-08-27T08:05:03.000Z</time>
      </trkpt>
      <trkpt lat="49.54676" lon="3.29628">
        <ele>153.4</ele>
        <time>2016-08-27T08:05:08.000Z</time>
      </trkpt>
      <trkpt lat="49.54677" lon="3.29629">
        <ele>153.7</ele>
        <time>2016-08-27T08:05:09.000Z</time>
      </trkpt>
      <trkpt lat="49.54683" lon="3.29639">
        <ele>155.6</ele>
        <time>2016-08-27T08:05:17.000Z</time>
      </trkpt>
      <trkpt lat="49.54683" lon="3.29641">
        <ele>155.7</ele>
        <time>2016-08-27T08:05:18.000Z</time>
      </trkpt>
      <trkpt lat="49.54687" lon="3.29653">
        <ele>156.8</ele>
        <time>2016-08-27T08:05:24.000Z</time>
      </trkpt>
      <trkpt lat="49.54688" lon="3.29654">
        <ele>157.1</ele>
        <time>2016-08-27T08:05:25.000Z</time>
      </trkpt>
      <trkpt lat="49.5469" lon="3.29662">
        <ele>158.2</ele>
        <time>2016-08-27T08:05:30.000Z</time>
      </trkpt>
      <trkpt lat="49.5469" lon="3.29664">
        <ele>158.6</ele>
        <time>2016-08-27T08:05:31.000Z</time>
      </trkpt>
      <trkpt lat="49.5469" lon="3.29666">
        <ele>159</ele>
        <time>2016-08-27T08:05:32.000Z</time>
      </trkpt>
      <trkpt lat="49.54694" lon="3.29678">
        <ele>159.5</ele>
        <time>2016-08-27T08:05:37.000Z</time>
      </trkpt>
      <trkpt lat="49.54695" lon="3.29681">
        <ele>159.5</ele>
        <time>2016-08-27T08:05:38.000Z</time>
      </trkpt>
      <trkpt lat="49.54698" lon="3.29693">
        <ele>160.9</ele>
        <time>2016-08-27T08:05:44.000Z</time>
      </trkpt>
      <trkpt lat="49.54698" lon="3.29695">
        <ele>161.2</ele>
        <time>2016-08-27T08:05:45.000Z</time>
      </trkpt>
      <trkpt lat="49.54698" lon="3.29701">
        <ele>161.6</ele>
        <time>2016-08-27T08:05:48.000Z</time>
      </trkpt>
      <trkpt lat="49.54698" lon="3.29702">
        <ele>162.1</ele>
        <time>2016-08-27T08:05:49.000Z</time>
      </trkpt>
      <trkpt lat="49.54698" lon="3.29703">
        <ele>162.5</ele>
        <time>2016-08-27T08:05:50.000Z</time>
      </trkpt>
      <trkpt lat="49.54703" lon="3.29713">
        <ele>164.3</ele>
        <time>2016-08-27T08:05:55.000Z</time>
      </trkpt>
      <trkpt lat="49.54704" lon="3.29715">
        <ele>164.7</ele>
        <time>2016-08-27T08:05:56.000Z</time>
      </trkpt>
      <trkpt lat="49.54709" lon="3.29726">
        <ele>166.9</ele>
        <time>2016-08-27T08:06:01.000Z</time>
      </trkpt>
      <trkpt lat="49.54709" lon="3.29728">
        <ele>167.3</ele>
        <time>2016-08-27T08:06:02.000Z</time>
      </trkpt>
      <trkpt lat="49.54711" lon="3.29741">
        <ele>169.2</ele>
        <time>2016-08-27T08:06:08.000Z</time>
      </trkpt>
      <trkpt lat="49.54712" lon="3.29744">
        <ele>169.5</ele>
        <time>2016-08-27T08:06:09.000Z</time>
      </trkpt>
      <trkpt lat="49.54717" lon="3.29754">
        <ele>171</ele>
        <time>2016-08-27T08:06:14.000Z</time>
      </trkpt>
      <trkpt lat="49.54718" lon="3.29755">
        <ele>171.4</ele>
        <time>2016-08-27T08:06:15.000Z</time>
      </trkpt>
      <trkpt lat="49.54722" lon="3.29762">
        <ele>172.8</ele>
        <time>2016-08-27T08:06:19.000Z</time>
      </trkpt>
      <trkpt lat="49.54723" lon="3.29764">
        <ele>173.5</ele>
        <time>2016-08-27T08:06:20.000Z</time>
      </trkpt>
      <trkpt lat="49.54724" lon="3.29766">
        <ele>173.8</ele>
        <time>2016-08-27T08:06:21.000Z</time>
      </trkpt>
      <trkpt lat="49.54729" lon="3.29771">
        <ele>174</ele>
        <time>2016-08-27T08:06:24.000Z</time>
      </trkpt>
      <trkpt lat="49.54732" lon="3.29772">
        <ele>174</ele>
        <time>2016-08-27T08:06:25.000Z</time>
      </trkpt>
      <trkpt lat="49.54738" lon="3.29777">
        <ele>174</ele>
        <time>2016-08-27T08:06:28.000Z</time>
      </trkpt>
      <trkpt lat="49.5474" lon="3.29779">
        <ele>174.2</ele>
        <time>2016-08-27T08:06:29.000Z</time>
      </trkpt>
      <trkpt lat="49.54747" lon="3.29787">
        <ele>175.1</ele>
        <time>2016-08-27T08:06:34.000Z</time>
      </trkpt>
      <trkpt lat="49.54749" lon="3.29788">
        <ele>175.2</ele>
        <time>2016-08-27T08:06:35.000Z</time>
      </trkpt>
      <trkpt lat="49.54755" lon="3.29795">
        <ele>177.2</ele>
        <time>2016-08-27T08:06:41.000Z</time>
      </trkpt>
      <trkpt lat="49.54756" lon="3.29797">
        <ele>178</ele>
        <time>2016-08-27T08:06:42.000Z</time>
      </trkpt>
      <trkpt lat="49.54761" lon="3.29806">
        <ele>179.8</ele>
        <time>2016-08-27T08:06:46.000Z</time>
      </trkpt>
      <trkpt lat="49.54762" lon="3.29809">
        <ele>179.6</ele>
        <time>2016-08-27T08:06:47.000Z</time>
      </trkpt>
      <trkpt lat="49.54766" lon="3.29818">
        <ele>182</ele>
        <time>2016-08-27T08:06:53.000Z</time>
      </trkpt>
      <trkpt lat="49.54766" lon="3.29821">
        <ele>182.4</ele>
        <time>2016-08-27T08:06:54.000Z</time>
      </trkpt>
      <trkpt lat="49.54764" lon="3.29834">
        <ele>182.9</ele>
        <time>2016-08-27T08:06:59.000Z</time>
      </trkpt>
      <trkpt lat="49.54764" lon="3.29835">
        <ele>183.1</ele>
        <time>2016-08-27T08:07:00.000Z</time>
      </trkpt>
      <trkpt lat="49.54768" lon="3.29846">
        <ele>183.2</ele>
        <time>2016-08-27T08:07:09.000Z</time>
      </trkpt>
      <trkpt lat="49.54769" lon="3.29848">
        <ele>183.2</ele>
        <time>2016-08-27T08:07:10.000Z</time>
      </trkpt>
      <trkpt lat="49.54769" lon="3.29849">
        <ele>183.3</ele>
        <time>2016-08-27T08:07:11.000Z</time>
      </trkpt>
      <trkpt lat="49.5477" lon="3.29851">
        <ele>183.5</ele>
        <time>2016-08-27T08:07:12.000Z</time>
      </trkpt>
      <trkpt lat="49.54769" lon="3.29853">
        <ele>183.7</ele>
        <time>2016-08-27T08:07:19.000Z</time>
      </trkpt>
      <trkpt lat="49.54771" lon="3.29862">
        <ele>184</ele>
        <time>2016-08-27T08:07:20.000Z</time>
      </trkpt>
      <trkpt lat="49.54776" lon="3.29872">
        <ele>184.6</ele>
        <time>2016-08-27T08:07:25.000Z</time>
      </trkpt>
      <trkpt lat="49.54776" lon="3.29875">
        <ele>184.5</ele>
        <time>2016-08-27T08:07:26.000Z</time>
      </trkpt>
      <trkpt lat="49.54782" lon="3.29885">
        <ele>184.8</ele>
        <time>2016-08-27T08:07:31.000Z</time>
      </trkpt>
      <trkpt lat="49.54783" lon="3.29887">
        <ele>184.9</ele>
        <time>2016-08-27T08:07:32.000Z</time>
      </trkpt>
      <trkpt lat="49.54788" lon="3.29895">
        <ele>184.4</ele>
        <time>2016-08-27T08:07:36.000Z</time>
      </trkpt>
      <trkpt lat="49.54789" lon="3.29898">
        <ele>184.3</ele>
        <time>2016-08-27T08:07:37.000Z</time>
      </trkpt>
      <trkpt lat="49.54795" lon="3.29907">
        <ele>183.1</ele>
        <time>2016-08-27T08:07:40.000Z</time>
      </trkpt>
      <trkpt lat="49.54796" lon="3.29909">
        <ele>183</ele>
        <time>2016-08-27T08:07:41.000Z</time>
      </trkpt>
      <trkpt lat="49.548" lon="3.29918">
        <ele>182.2</ele>
        <time>2016-08-27T08:07:45.000Z</time>
      </trkpt>
      <trkpt lat="49.54801" lon="3.2992">
        <ele>182</ele>
        <time>2016-08-27T08:07:46.000Z</time>
      </trkpt>
      <trkpt lat="49.54805" lon="3.29931">
        <ele>182.4</ele>
        <time>2016-08-27T08:07:51.000Z</time>
      </trkpt>
      <trkpt lat="49.54805" lon="3.29933">
        <ele>182.6</ele>
        <time>2016-08-27T08:07:52.000Z</time>
      </trkpt>
      <trkpt lat="49.5481" lon="3.29944">
        <ele>182.9</ele>
        <time>2016-08-27T08:07:58.000Z</time>
      </trkpt>
      <trkpt lat="49.54811" lon="3.29946">
        <ele>182.9</ele>
        <time>2016-08-27T08:07:59.000Z</time>
      </trkpt>
      <trkpt lat="49.54815" lon="3.29957">
        <ele>183.7</ele>
        <time>2016-08-27T08:08:06.000Z</time>
      </trkpt>
      <trkpt lat="49.54815" lon="3.29958">
        <ele>183.9</ele>
        <time>2016-08-27T08:08:07.000Z</time>
      </trkpt>
      <trkpt lat="49.54821" lon="3.29967">
        <ele>185.1</ele>
        <time>2016-08-27T08:08:12.000Z</time>
      </trkpt>
      <trkpt lat="49.54822" lon="3.29969">
        <ele>185.2</ele>
        <time>2016-08-27T08:08:13.000Z</time>
      </trkpt>
      <trkpt lat="49.54827" lon="3.29978">
        <ele>185.9</ele>
        <time>2016-08-27T08:08:19.000Z</time>
      </trkpt>
      <trkpt lat="49.54828" lon="3.29981">
        <ele>185.8</ele>
        <time>2016-08-27T08:08:20.000Z</time>
      </trkpt>
      <trkpt lat="49.54832" lon="3.29993">
        <ele>186.2</ele>
        <time>2016-08-27T08:08:27.000Z</time>
      </trkpt>
      <trkpt lat="49.54832" lon="3.29994">
        <ele>186.4</ele>
        <time>2016-08-27T08:08:28.000Z</time>
      </trkpt>
      <trkpt lat="49.54834" lon="3.30005">
        <ele>184.2</ele>
        <time>2016-08-27T08:08:33.000Z</time>
      </trkpt>
      <trkpt lat="49.54835" lon="3.30007">
        <ele>184.3</ele>
        <time>2016-08-27T08:08:34.000Z</time>
      </trkpt>
      <trkpt lat="49.54841" lon="3.30017">
        <ele>185.1</ele>
        <time>2016-08-27T08:08:40.000Z</time>
      </trkpt>
      <trkpt lat="49.54842" lon="3.30019">
        <ele>185</ele>
        <time>2016-08-27T08:08:41.000Z</time>
      </trkpt>
      <trkpt lat="49.54846" lon="3.3003">
        <ele>187.1</ele>
        <time>2016-08-27T08:08:49.000Z</time>
      </trkpt>
      <trkpt lat="49.54847" lon="3.30032">
        <ele>187.2</ele>
        <time>2016-08-27T08:08:50.000Z</time>
      </trkpt>
      <trkpt lat="49.54849" lon="3.30044">
        <ele>188.7</ele>
        <time>2016-08-27T08:08:57.000Z</time>
      </trkpt>
      <trkpt lat="49.5485" lon="3.30046">
        <ele>189</ele>
        <time>2016-08-27T08:08:58.000Z</time>
      </trkpt>
      <trkpt lat="49.54856" lon="3.30055">
        <ele>189.7</ele>
        <time>2016-08-27T08:09:05.000Z</time>
      </trkpt>
      <trkpt lat="49.54857" lon="3.30056">
        <ele>189.7</ele>
        <time>2016-08-27T08:09:06.000Z</time>
      </trkpt>
      <trkpt lat="49.54862" lon="3.30066">
        <ele>189.8</ele>
        <time>2016-08-27T08:09:14.000Z</time>
      </trkpt>
      <trkpt lat="49.54862" lon="3.30068">
        <ele>189.8</ele>
        <time>2016-08-27T08:09:15.000Z</time>
      </trkpt>
      <trkpt lat="49.54866" lon="3.3008">
        <ele>187.2</ele>
        <time>2016-08-27T08:09:19.000Z</time>
      </trkpt>
      <trkpt lat="49.54866" lon="3.30083">
        <ele>185.9</ele>
        <time>2016-08-27T08:09:20.000Z</time>
      </trkpt>
      <trkpt lat="49.54869" lon="3.30095">
        <ele>183.2</ele>
        <time>2016-08-27T08:09:26.000Z</time>
      </trkpt>
      <trkpt lat="49.54869" lon="3.30097">
        <ele>183.4</ele>
        <time>2016-08-27T08:09:27.000Z</time>
      </trkpt>
      <trkpt lat="49.54874" lon="3.30108">
        <ele>184.7</ele>
        <time>2016-08-27T08:09:34.000Z</time>
      </trkpt>
      <trkpt lat="49.54875" lon="3.30111">
        <ele>185</ele>
        <time>2016-08-27T08:09:35.000Z</time>
      </trkpt>
      <trkpt lat="49.5488" lon="3.30121">
        <ele>186.8</ele>
        <time>2016-08-27T08:09:40.000Z</time>
      </trkpt>
      <trkpt lat="49.5488" lon="3.30123">
        <ele>186.9</ele>
        <time>2016-08-27T08:09:41.000Z</time>
      </trkpt>
      <trkpt lat="49.54881" lon="3.30127">
        <ele>187</ele>
        <time>2016-08-27T08:09:43.000Z</time>
      </trkpt>
      <trkpt lat="49.54881" lon="3.30128">
        <ele>187</ele>
        <time>2016-08-27T08:09:44.000Z</time>
      </trkpt>
      <trkpt lat="49.54881" lon="3.30129">
        <ele>187</ele>
        <time>2016-08-27T08:09:45.000Z</time>
      </trkpt>
      <trkpt lat="49.54882" lon="3.30141">
        <ele>186.4</ele>
        <time>2016-08-27T08:09:52.000Z</time>
      </trkpt>
      <trkpt lat="49.54883" lon="3.30143">
        <ele>186.6</ele>
        <time>2016-08-27T08:09:53.000Z</time>
      </trkpt>
      <trkpt lat="49.54887" lon="3.30154">
        <ele>187.8</ele>
        <time>2016-08-27T08:09:59.000Z</time>
      </trkpt>
      <trkpt lat="49.54887" lon="3.30157">
        <ele>187.9</ele>
        <time>2016-08-27T08:10:00.000Z</time>
      </trkpt>
      <trkpt lat="49.5489" lon="3.3017">
        <ele>188.9</ele>
        <time>2016-08-27T08:10:05.000Z</time>
      </trkpt>
      <trkpt lat="49.54891" lon="3.30172">
        <ele>189</ele>
        <time>2016-08-27T08:10:06.000Z</time>
      </trkpt>
      <trkpt lat="49.54894" lon="3.30185">
        <ele>190.3</ele>
        <time>2016-08-27T08:10:12.000Z</time>
      </trkpt>
      <trkpt lat="49.54894" lon="3.30186">
        <ele>190.3</ele>
        <time>2016-08-27T08:10:13.000Z</time>
      </trkpt>
      <trkpt lat="49.549" lon="3.30195">
        <ele>190.3</ele>
        <time>2016-08-27T08:10:18.000Z</time>
      </trkpt>
      <trkpt lat="49.54901" lon="3.30196">
        <ele>190.5</ele>
        <time>2016-08-27T08:10:19.000Z</time>
      </trkpt>
      <trkpt lat="49.54903" lon="3.30208">
        <ele>190.8</ele>
        <time>2016-08-27T08:10:24.000Z</time>
      </trkpt>
      <trkpt lat="49.54904" lon="3.30209">
        <ele>190.8</ele>
        <time>2016-08-27T08:10:25.000Z</time>
      </trkpt>
      <trkpt lat="49.54907" lon="3.30217">
        <ele>190.4</ele>
        <time>2016-08-27T08:10:29.000Z</time>
      </trkpt>
      <trkpt lat="49.5491" lon="3.30221">
        <ele>189.8</ele>
        <time>2016-08-27T08:10:30.000Z</time>
      </trkpt>
      <trkpt lat="49.54914" lon="3.3023">
        <ele>190</ele>
        <time>2016-08-27T08:10:34.000Z</time>
      </trkpt>
      <trkpt lat="49.54915" lon="3.30232">
        <ele>190.2</ele>
        <time>2016-08-27T08:10:35.000Z</time>
      </trkpt>
      <trkpt lat="49.54919" lon="3.30243">
        <ele>189.7</ele>
        <time>2016-08-27T08:10:40.000Z</time>
      </trkpt>
      <trkpt lat="49.5492" lon="3.30245">
        <ele>189.4</ele>
        <time>2016-08-27T08:10:41.000Z</time>
      </trkpt>
      <trkpt lat="49.54921" lon="3.30257">
        <ele>190.4</ele>
        <time>2016-08-27T08:10:47.000Z</time>
      </trkpt>
      <trkpt lat="49.54922" lon="3.30259">
        <ele>190.5</ele>
        <time>2016-08-27T08:10:48.000Z</time>
      </trkpt>
      <trkpt lat="49.54923" lon="3.30271">
        <ele>190.9</ele>
        <time>2016-08-27T08:10:53.000Z</time>
      </trkpt>
      <trkpt lat="49.54923" lon="3.30274">
        <ele>191.2</ele>
        <time>2016-08-27T08:10:54.000Z</time>
      </trkpt>
      <trkpt lat="49.54925" lon="3.30287">
        <ele>191.8</ele>
        <time>2016-08-27T08:11:00.000Z</time>
      </trkpt>
      <trkpt lat="49.54925" lon="3.30289">
        <ele>191.7</ele>
        <time>2016-08-27T08:11:01.000Z</time>
      </trkpt>
      <trkpt lat="49.54926" lon="3.30302">
        <ele>191.2</ele>
        <time>2016-08-27T08:11:07.000Z</time>
      </trkpt>
      <trkpt lat="49.54927" lon="3.30304">
        <ele>191.5</ele>
        <time>2016-08-27T08:11:08.000Z</time>
      </trkpt>
      <trkpt lat="49.54929" lon="3.30317">
        <ele>191.9</ele>
        <time>2016-08-27T08:11:15.000Z</time>
      </trkpt>
      <trkpt lat="49.54929" lon="3.30319">
        <ele>191.9</ele>
        <time>2016-08-27T08:11:16.000Z</time>
      </trkpt>
      <trkpt lat="49.54932" lon="3.3033">
        <ele>192.4</ele>
        <time>2016-08-27T08:11:22.000Z</time>
      </trkpt>
      <trkpt lat="49.54933" lon="3.30332">
        <ele>192.3</ele>
        <time>2016-08-27T08:11:23.000Z</time>
      </trkpt>
      <trkpt lat="49.54938" lon="3.30341">
        <ele>192</ele>
        <time>2016-08-27T08:11:29.000Z</time>
      </trkpt>
      <trkpt lat="49.54939" lon="3.30343">
        <ele>192</ele>
        <time>2016-08-27T08:11:30.000Z</time>
      </trkpt>
      <trkpt lat="49.54941" lon="3.30354">
        <ele>192.6</ele>
        <time>2016-08-27T08:11:35.000Z</time>
      </trkpt>
      <trkpt lat="49.54942" lon="3.30356">
        <ele>192.7</ele>
        <time>2016-08-27T08:11:36.000Z</time>
      </trkpt>
      <trkpt lat="49.54947" lon="3.30365">
        <ele>192.9</ele>
        <time>2016-08-27T08:11:41.000Z</time>
      </trkpt>
      <trkpt lat="49.54948" lon="3.30367">
        <ele>193</ele>
        <time>2016-08-27T08:11:42.000Z</time>
      </trkpt>
      <trkpt lat="49.54951" lon="3.3038">
        <ele>193.1</ele>
        <time>2016-08-27T08:11:48.000Z</time>
      </trkpt>
      <trkpt lat="49.54952" lon="3.30382">
        <ele>192.9</ele>
        <time>2016-08-27T08:11:49.000Z</time>
      </trkpt>
      <trkpt lat="49.54956" lon="3.30393">
        <ele>190.7</ele>
        <time>2016-08-27T08:11:55.000Z</time>
      </trkpt>
      <trkpt lat="49.54956" lon="3.30394">
        <ele>190.5</ele>
        <time>2016-08-27T08:11:56.000Z</time>
      </trkpt>
      <trkpt lat="49.54961" lon="3.30405">
        <ele>189.9</ele>
        <time>2016-08-27T08:12:02.000Z</time>
      </trkpt>
      <trkpt lat="49.54962" lon="3.30406">
        <ele>190.3</ele>
        <time>2016-08-27T08:12:03.000Z</time>
      </trkpt>
      <trkpt lat="49.54962" lon="3.30408">
        <ele>190.6</ele>
        <time>2016-08-27T08:12:04.000Z</time>
      </trkpt>
      <trkpt lat="49.54963" lon="3.30409">
        <ele>190.6</ele>
        <time>2016-08-27T08:12:05.000Z</time>
      </trkpt>
      <trkpt lat="49.54963" lon="3.3041">
        <ele>190.8</ele>
        <time>2016-08-27T08:12:06.000Z</time>
      </trkpt>
      <trkpt lat="49.54964" lon="3.30411">
        <ele>191.1</ele>
        <time>2016-08-27T08:12:07.000Z</time>
      </trkpt>
      <trkpt lat="49.54969" lon="3.30419">
        <ele>191.1</ele>
        <time>2016-08-27T08:12:12.000Z</time>
      </trkpt>
      <trkpt lat="49.54971" lon="3.30423">
        <ele>190.7</ele>
        <time>2016-08-27T08:12:13.000Z</time>
      </trkpt>
      <trkpt lat="49.54978" lon="3.30431">
        <ele>189.6</ele>
        <time>2016-08-27T08:12:17.000Z</time>
      </trkpt>
      <trkpt lat="49.54978" lon="3.30433">
        <ele>189.6</ele>
        <time>2016-08-27T08:12:18.000Z</time>
      </trkpt>
      <trkpt lat="49.54982" lon="3.30445">
        <ele>190</ele>
        <time>2016-08-27T08:12:23.000Z</time>
      </trkpt>
      <trkpt lat="49.54982" lon="3.30447">
        <ele>189.9</ele>
        <time>2016-08-27T08:12:24.000Z</time>
      </trkpt>
      <trkpt lat="49.54987" lon="3.30457">
        <ele>189.8</ele>
        <time>2016-08-27T08:12:29.000Z</time>
      </trkpt>
      <trkpt lat="49.54989" lon="3.30458">
        <ele>189.8</ele>
        <time>2016-08-27T08:12:30.000Z</time>
      </trkpt>
      <trkpt lat="49.54992" lon="3.30467">
        <ele>191.2</ele>
        <time>2016-08-27T08:12:38.000Z</time>
      </trkpt>
      <trkpt lat="49.54993" lon="3.30468">
        <ele>191.5</ele>
        <time>2016-08-27T08:12:39.000Z</time>
      </trkpt>
      <trkpt lat="49.54993" lon="3.30469">
        <ele>191.9</ele>
        <time>2016-08-27T08:12:41.000Z</time>
      </trkpt>
      <trkpt lat="49.54994" lon="3.30472">
        <ele>191.7</ele>
        <time>2016-08-27T08:12:42.000Z</time>
      </trkpt>
      <trkpt lat="49.55" lon="3.30482">
        <ele>193.1</ele>
        <time>2016-08-27T08:12:49.000Z</time>
      </trkpt>
      <trkpt lat="49.55001" lon="3.30483">
        <ele>193.1</ele>
        <time>2016-08-27T08:12:50.000Z</time>
      </trkpt>
      <trkpt lat="49.55007" lon="3.30492">
        <ele>192.8</ele>
        <time>2016-08-27T08:12:56.000Z</time>
      </trkpt>
      <trkpt lat="49.55007" lon="3.30495">
        <ele>192.9</ele>
        <time>2016-08-27T08:12:57.000Z</time>
      </trkpt>
      <trkpt lat="49.5501" lon="3.30507">
        <ele>193.6</ele>
        <time>2016-08-27T08:13:03.000Z</time>
      </trkpt>
      <trkpt lat="49.5501" lon="3.30509">
        <ele>193.8</ele>
        <time>2016-08-27T08:13:04.000Z</time>
      </trkpt>
      <trkpt lat="49.55014" lon="3.3052">
        <ele>194.1</ele>
        <time>2016-08-27T08:13:11.000Z</time>
      </trkpt>
      <trkpt lat="49.55015" lon="3.30523">
        <ele>193.8</ele>
        <time>2016-08-27T08:13:12.000Z</time>
      </trkpt>
      <trkpt lat="49.55021" lon="3.30533">
        <ele>194.2</ele>
        <time>2016-08-27T08:13:18.000Z</time>
      </trkpt>
      <trkpt lat="49.55022" lon="3.30534">
        <ele>194.4</ele>
        <time>2016-08-27T08:13:19.000Z</time>
      </trkpt>
      <trkpt lat="49.55026" lon="3.30544">
        <ele>196</ele>
        <time>2016-08-27T08:13:25.000Z</time>
      </trkpt>
      <trkpt lat="49.55027" lon="3.30546">
        <ele>196.5</ele>
        <time>2016-08-27T08:13:26.000Z</time>
      </trkpt>
      <trkpt lat="49.5503" lon="3.30557">
        <ele>197.3</ele>
        <time>2016-08-27T08:13:31.000Z</time>
      </trkpt>
      <trkpt lat="49.55032" lon="3.3056">
        <ele>197.3</ele>
        <time>2016-08-27T08:13:32.000Z</time>
      </trkpt>
      <trkpt lat="49.55037" lon="3.3057">
        <ele>197.9</ele>
        <time>2016-08-27T08:13:38.000Z</time>
      </trkpt>
      <trkpt lat="49.55038" lon="3.30572">
        <ele>198</ele>
        <time>2016-08-27T08:13:39.000Z</time>
      </trkpt>
      <trkpt lat="49.55044" lon="3.30581">
        <ele>199.2</ele>
        <time>2016-08-27T08:13:44.000Z</time>
      </trkpt>
      <trkpt lat="49.55045" lon="3.30582">
        <ele>199.3</ele>
        <time>2016-08-27T08:13:45.000Z</time>
      </trkpt>
      <trkpt lat="49.55051" lon="3.30593">
        <ele>200.5</ele>
        <time>2016-08-27T08:13:51.000Z</time>
      </trkpt>
      <trkpt lat="49.55052" lon="3.30594">
        <ele>200.7</ele>
        <time>2016-08-27T08:13:52.000Z</time>
      </trkpt>
      <trkpt lat="49.55055" lon="3.30598">
        <ele>200.9</ele>
        <time>2016-08-27T08:13:55.000Z</time>
      </trkpt>
      <trkpt lat="49.55056" lon="3.30598">
        <ele>200.8</ele>
        <time>2016-08-27T08:13:56.000Z</time>
      </trkpt>
      <trkpt lat="49.55057" lon="3.30599">
        <ele>200.7</ele>
        <time>2016-08-27T08:13:57.000Z</time>
      </trkpt>
      <trkpt lat="49.55058" lon="3.30601">
        <ele>200.6</ele>
        <time>2016-08-27T08:13:59.000Z</time>
      </trkpt>
      <trkpt lat="49.55059" lon="3.30602">
        <ele>200.8</ele>
        <time>2016-08-27T08:14:00.000Z</time>
      </trkpt>
      <trkpt lat="49.5506" lon="3.30604">
        <ele>200.7</ele>
        <time>2016-08-27T08:14:02.000Z</time>
      </trkpt>
      <trkpt lat="49.55061" lon="3.30605">
        <ele>200.9</ele>
        <time>2016-08-27T08:14:03.000Z</time>
      </trkpt>
      <trkpt lat="49.55068" lon="3.30609">
        <ele>201.4</ele>
        <time>2016-08-27T08:14:08.000Z</time>
      </trkpt>
      <trkpt lat="49.55069" lon="3.3061">
        <ele>201.4</ele>
        <time>2016-08-27T08:14:09.000Z</time>
      </trkpt>
      <trkpt lat="49.5507" lon="3.30611">
        <ele>201.3</ele>
        <time>2016-08-27T08:14:10.000Z</time>
      </trkpt>
      <trkpt lat="49.55071" lon="3.30611">
        <ele>201.2</ele>
        <time>2016-08-27T08:14:11.000Z</time>
      </trkpt>
      <trkpt lat="49.55071" lon="3.30612">
        <ele>201.2</ele>
        <time>2016-08-27T08:14:17.000Z</time>
      </trkpt>
      <trkpt lat="49.55076" lon="3.30615">
        <ele>201.2</ele>
        <time>2016-08-27T08:14:18.000Z</time>
      </trkpt>
      <trkpt lat="49.55079" lon="3.3062">
        <ele>200.8</ele>
        <time>2016-08-27T08:14:22.000Z</time>
      </trkpt>
      <trkpt lat="49.5508" lon="3.30621">
        <ele>200.7</ele>
        <time>2016-08-27T08:14:23.000Z</time>
      </trkpt>
      <trkpt lat="49.55081" lon="3.30622">
        <ele>200.5</ele>
        <time>2016-08-27T08:14:26.000Z</time>
      </trkpt>
      <trkpt lat="49.55081" lon="3.30624">
        <ele>200.7</ele>
        <time>2016-08-27T08:14:27.000Z</time>
      </trkpt>
      <trkpt lat="49.55084" lon="3.30629">
        <ele>200.8</ele>
        <time>2016-08-27T08:14:34.000Z</time>
      </trkpt>
      <trkpt lat="49.55085" lon="3.30629">
        <ele>201.1</ele>
        <time>2016-08-27T08:14:35.000Z</time>
      </trkpt>
      <trkpt lat="49.55086" lon="3.30629">
        <ele>201.3</ele>
        <time>2016-08-27T08:14:40.000Z</time>
      </trkpt>
      <trkpt lat="49.55094" lon="3.30635">
        <ele>200.1</ele>
        <time>2016-08-27T08:14:41.000Z</time>
      </trkpt>
      <trkpt lat="49.55101" lon="3.3064">
        <ele>199.7</ele>
        <time>2016-08-27T08:14:46.000Z</time>
      </trkpt>
      <trkpt lat="49.55102" lon="3.30641">
        <ele>199.5</ele>
        <time>2016-08-27T08:14:47.000Z</time>
      </trkpt>
      <trkpt lat="49.55108" lon="3.30648">
        <ele>199.3</ele>
        <time>2016-08-27T08:14:52.000Z</time>
      </trkpt>
      <trkpt lat="49.55109" lon="3.30649">
        <ele>199.5</ele>
        <time>2016-08-27T08:14:53.000Z</time>
      </trkpt>
      <trkpt lat="49.55111" lon="3.30651">
        <ele>199.6</ele>
        <time>2016-08-27T08:14:55.000Z</time>
      </trkpt>
      <trkpt lat="49.55112" lon="3.30652">
        <ele>199.4</ele>
        <time>2016-08-27T08:14:56.000Z</time>
      </trkpt>
      <trkpt lat="49.5512" lon="3.30657">
        <ele>199.8</ele>
        <time>2016-08-27T08:15:01.000Z</time>
      </trkpt>
      <trkpt lat="49.55121" lon="3.30659">
        <ele>199.9</ele>
        <time>2016-08-27T08:15:02.000Z</time>
      </trkpt>
      <trkpt lat="49.55129" lon="3.30664">
        <ele>200</ele>
        <time>2016-08-27T08:15:06.000Z</time>
      </trkpt>
      <trkpt lat="49.5513" lon="3.30665">
        <ele>200.1</ele>
        <time>2016-08-27T08:15:07.000Z</time>
      </trkpt>
      <trkpt lat="49.55135" lon="3.30668">
        <ele>198.6</ele>
        <time>2016-08-27T08:15:08.000Z</time>
      </trkpt>
      <trkpt lat="49.55139" lon="3.3067">
        <ele>197.5</ele>
        <time>2016-08-27T08:15:09.000Z</time>
      </trkpt>
      <trkpt lat="49.55146" lon="3.30675">
        <ele>198</ele>
        <time>2016-08-27T08:15:15.000Z</time>
      </trkpt>
      <trkpt lat="49.55148" lon="3.30676">
        <ele>197.9</ele>
        <time>2016-08-27T08:15:16.000Z</time>
      </trkpt>
      <trkpt lat="49.55156" lon="3.30681">
        <ele>198.5</ele>
        <time>2016-08-27T08:15:23.000Z</time>
      </trkpt>
      <trkpt lat="49.55157" lon="3.30682">
        <ele>198.7</ele>
        <time>2016-08-27T08:15:24.000Z</time>
      </trkpt>
      <trkpt lat="49.55158" lon="3.30683">
        <ele>198.8</ele>
        <time>2016-08-27T08:15:25.000Z</time>
      </trkpt>
      <trkpt lat="49.55159" lon="3.30683">
        <ele>198.7</ele>
        <time>2016-08-27T08:15:26.000Z</time>
      </trkpt>
      <trkpt lat="49.5516" lon="3.30683">
        <ele>198.8</ele>
        <time>2016-08-27T08:15:27.000Z</time>
      </trkpt>
      <trkpt lat="49.5516" lon="3.30684">
        <ele>199.1</ele>
        <time>2016-08-27T08:15:28.000Z</time>
      </trkpt>
      <trkpt lat="49.55161" lon="3.30684">
        <ele>199.3</ele>
        <time>2016-08-27T08:15:29.000Z</time>
      </trkpt>
      <trkpt lat="49.55161" lon="3.30685">
        <ele>199.6</ele>
        <time>2016-08-27T08:15:36.000Z</time>
      </trkpt>
      <trkpt lat="49.55167" lon="3.3069">
        <ele>199.9</ele>
        <time>2016-08-27T08:15:37.000Z</time>
      </trkpt>
      <trkpt lat="49.55168" lon="3.3069">
        <ele>199.7</ele>
        <time>2016-08-27T08:15:38.000Z</time>
      </trkpt>
      <trkpt lat="49.55171" lon="3.30692">
        <ele>199.3</ele>
        <time>2016-08-27T08:15:42.000Z</time>
      </trkpt>
      <trkpt lat="49.55175" lon="3.30695">
        <ele>199.4</ele>
        <time>2016-08-27T08:15:43.000Z</time>
      </trkpt>
      <trkpt lat="49.55182" lon="3.30699">
        <ele>198.8</ele>
        <time>2016-08-27T08:15:47.000Z</time>
      </trkpt>
      <trkpt lat="49.55184" lon="3.307">
        <ele>198.8</ele>
        <time>2016-08-27T08:15:48.000Z</time>
      </trkpt>
      <trkpt lat="49.55191" lon="3.30706">
        <ele>198.8</ele>
        <time>2016-08-27T08:15:53.000Z</time>
      </trkpt>
      <trkpt lat="49.55193" lon="3.30707">
        <ele>198.9</ele>
        <time>2016-08-27T08:15:54.000Z</time>
      </trkpt>
      <trkpt lat="49.552" lon="3.3071">
        <ele>198.9</ele>
        <time>2016-08-27T08:15:57.000Z</time>
      </trkpt>
      <trkpt lat="49.55202" lon="3.30711">
        <ele>199</ele>
        <time>2016-08-27T08:15:58.000Z</time>
      </trkpt>
      <trkpt lat="49.55209" lon="3.30715">
        <ele>198.7</ele>
        <time>2016-08-27T08:16:02.000Z</time>
      </trkpt>
      <trkpt lat="49.55212" lon="3.30716">
        <ele>198.8</ele>
        <time>2016-08-27T08:16:03.000Z</time>
      </trkpt>
      <trkpt lat="49.5522" lon="3.30721">
        <ele>199</ele>
        <time>2016-08-27T08:16:07.000Z</time>
      </trkpt>
      <trkpt lat="49.55221" lon="3.30722">
        <ele>199</ele>
        <time>2016-08-27T08:16:08.000Z</time>
      </trkpt>
      <trkpt lat="49.55229" lon="3.30728">
        <ele>198.9</ele>
        <time>2016-08-27T08:16:12.000Z</time>
      </trkpt>
      <trkpt lat="49.55231" lon="3.30729">
        <ele>199</ele>
        <time>2016-08-27T08:16:13.000Z</time>
      </trkpt>
      <trkpt lat="49.55239" lon="3.30735">
        <ele>199.2</ele>
        <time>2016-08-27T08:16:19.000Z</time>
      </trkpt>
      <trkpt lat="49.55241" lon="3.30735">
        <ele>199</ele>
        <time>2016-08-27T08:16:20.000Z</time>
      </trkpt>
      <trkpt lat="49.55249" lon="3.3074">
        <ele>198.7</ele>
        <time>2016-08-27T08:16:29.000Z</time>
      </trkpt>
      <trkpt lat="49.55254" lon="3.30743">
        <ele>198.4</ele>
        <time>2016-08-27T08:16:30.000Z</time>
      </trkpt>
      <trkpt lat="49.5526" lon="3.30747">
        <ele>197.2</ele>
        <time>2016-08-27T08:16:35.000Z</time>
      </trkpt>
      <trkpt lat="49.55263" lon="3.30749">
        <ele>196.6</ele>
        <time>2016-08-27T08:16:36.000Z</time>
      </trkpt>
      <trkpt lat="49.55271" lon="3.30754">
        <ele>195.6</ele>
        <time>2016-08-27T08:16:42.000Z</time>
      </trkpt>
      <trkpt lat="49.55273" lon="3.30755">
        <ele>195.6</ele>
        <time>2016-08-27T08:16:43.000Z</time>
      </trkpt>
      <trkpt lat="49.55281" lon="3.3076">
        <ele>195.9</ele>
        <time>2016-08-27T08:16:48.000Z</time>
      </trkpt>
      <trkpt lat="49.55282" lon="3.30761">
        <ele>196.1</ele>
        <time>2016-08-27T08:16:49.000Z</time>
      </trkpt>
      <trkpt lat="49.5529" lon="3.30766">
        <ele>196.9</ele>
        <time>2016-08-27T08:16:55.000Z</time>
      </trkpt>
      <trkpt lat="49.55291" lon="3.30767">
        <ele>197</ele>
        <time>2016-08-27T08:16:56.000Z</time>
      </trkpt>
      <trkpt lat="49.55299" lon="3.3077">
        <ele>197.5</ele>
        <time>2016-08-27T08:17:01.000Z</time>
      </trkpt>
      <trkpt lat="49.553" lon="3.3077">
        <ele>197.5</ele>
        <time>2016-08-27T08:17:02.000Z</time>
      </trkpt>
      <trkpt lat="49.55308" lon="3.30773">
        <ele>197.7</ele>
        <time>2016-08-27T08:17:07.000Z</time>
      </trkpt>
      <trkpt lat="49.55309" lon="3.30774">
        <ele>197.5</ele>
        <time>2016-08-27T08:17:08.000Z</time>
      </trkpt>
      <trkpt lat="49.55316" lon="3.30777">
        <ele>197</ele>
        <time>2016-08-27T08:17:13.000Z</time>
      </trkpt>
      <trkpt lat="49.5532" lon="3.30779">
        <ele>196.1</ele>
        <time>2016-08-27T08:17:14.000Z</time>
      </trkpt>
      <trkpt lat="49.55327" lon="3.30781">
        <ele>195</ele>
        <time>2016-08-27T08:17:17.000Z</time>
      </trkpt>
      <trkpt lat="49.55329" lon="3.30782">
        <ele>194.8</ele>
        <time>2016-08-27T08:17:18.000Z</time>
      </trkpt>
      <trkpt lat="49.55337" lon="3.30785">
        <ele>194</ele>
        <time>2016-08-27T08:17:23.000Z</time>
      </trkpt>
      <trkpt lat="49.55339" lon="3.30785">
        <ele>194</ele>
        <time>2016-08-27T08:17:24.000Z</time>
      </trkpt>
      <trkpt lat="49.55347" lon="3.30787">
        <ele>193.6</ele>
        <time>2016-08-27T08:17:33.000Z</time>
      </trkpt>
      <trkpt lat="49.55348" lon="3.30787">
        <ele>193.4</ele>
        <time>2016-08-27T08:17:34.000Z</time>
      </trkpt>
      <trkpt lat="49.55356" lon="3.30786">
        <ele>192.5</ele>
        <time>2016-08-27T08:17:38.000Z</time>
      </trkpt>
      <trkpt lat="49.55357" lon="3.30786">
        <ele>192.5</ele>
        <time>2016-08-27T08:17:39.000Z</time>
      </trkpt>
      <trkpt lat="49.55362" lon="3.30784">
        <ele>192.2</ele>
        <time>2016-08-27T08:17:42.000Z</time>
      </trkpt>
      <trkpt lat="49.55363" lon="3.30784">
        <ele>192.1</ele>
        <time>2016-08-27T08:17:43.000Z</time>
      </trkpt>
      <trkpt lat="49.55364" lon="3.30783">
        <ele>192.1</ele>
        <time>2016-08-27T08:17:44.000Z</time>
      </trkpt>
      <trkpt lat="49.5537" lon="3.30775">
        <ele>192.1</ele>
        <time>2016-08-27T08:17:49.000Z</time>
      </trkpt>
      <trkpt lat="49.55371" lon="3.30773">
        <ele>191.9</ele>
        <time>2016-08-27T08:17:50.000Z</time>
      </trkpt>
      <trkpt lat="49.55377" lon="3.30764">
        <ele>192.5</ele>
        <time>2016-08-27T08:17:54.000Z</time>
      </trkpt>
      <trkpt lat="49.55379" lon="3.30762">
        <ele>192.5</ele>
        <time>2016-08-27T08:17:55.000Z</time>
      </trkpt>
      <trkpt lat="49.55384" lon="3.30753">
        <ele>192.8</ele>
        <time>2016-08-27T08:18:00.000Z</time>
      </trkpt>
      <trkpt lat="49.55385" lon="3.30751">
        <ele>192.7</ele>
        <time>2016-08-27T08:18:01.000Z</time>
      </trkpt>
      <trkpt lat="49.55387" lon="3.3074">
        <ele>192.5</ele>
        <time>2016-08-27T08:18:05.000Z</time>
      </trkpt>
      <trkpt lat="49.55388" lon="3.30737">
        <ele>192.3</ele>
        <time>2016-08-27T08:18:06.000Z</time>
      </trkpt>
      <trkpt lat="49.55386" lon="3.30728">
        <ele>192.1</ele>
        <time>2016-08-27T08:18:17.000Z</time>
      </trkpt>
      <trkpt lat="49.55384" lon="3.30719">
        <ele>190.3</ele>
        <time>2016-08-27T08:18:18.000Z</time>
      </trkpt>
      <trkpt lat="49.55377" lon="3.3071">
        <ele>187.1</ele>
        <time>2016-08-27T08:18:23.000Z</time>
      </trkpt>
      <trkpt lat="49.55376" lon="3.3071">
        <ele>187</ele>
        <time>2016-08-27T08:18:24.000Z</time>
      </trkpt>
      <trkpt lat="49.55371" lon="3.30701">
        <ele>186.8</ele>
        <time>2016-08-27T08:18:31.000Z</time>
      </trkpt>
      <trkpt lat="49.5537" lon="3.30698">
        <ele>187</ele>
        <time>2016-08-27T08:18:32.000Z</time>
      </trkpt>
      <trkpt lat="49.5537" lon="3.30685">
        <ele>187.9</ele>
        <time>2016-08-27T08:18:36.000Z</time>
      </trkpt>
      <trkpt lat="49.5537" lon="3.30683">
        <ele>188.2</ele>
        <time>2016-08-27T08:18:37.000Z</time>
      </trkpt>
      <trkpt lat="49.55369" lon="3.30672">
        <ele>190.2</ele>
        <time>2016-08-27T08:18:48.000Z</time>
      </trkpt>
      <trkpt lat="49.55368" lon="3.30662">
        <ele>191.1</ele>
        <time>2016-08-27T08:18:49.000Z</time>
      </trkpt>
      <trkpt lat="49.55369" lon="3.30656">
        <ele>192.2</ele>
        <time>2016-08-27T08:18:52.000Z</time>
      </trkpt>
      <trkpt lat="49.55369" lon="3.30655">
        <ele>192.4</ele>
        <time>2016-08-27T08:18:53.000Z</time>
      </trkpt>
      <trkpt lat="49.55369" lon="3.30653">
        <ele>192.5</ele>
        <time>2016-08-27T08:18:55.000Z</time>
      </trkpt>
      <trkpt lat="49.55369" lon="3.30649">
        <ele>192.5</ele>
        <time>2016-08-27T08:18:56.000Z</time>
      </trkpt>
      <trkpt lat="49.55372" lon="3.30639">
        <ele>192.1</ele>
        <time>2016-08-27T08:19:00.000Z</time>
      </trkpt>
      <trkpt lat="49.55373" lon="3.30636">
        <ele>192.2</ele>
        <time>2016-08-27T08:19:01.000Z</time>
      </trkpt>
      <trkpt lat="49.55374" lon="3.30623">
        <ele>191.9</ele>
        <time>2016-08-27T08:19:08.000Z</time>
      </trkpt>
      <trkpt lat="49.55375" lon="3.30621">
        <ele>191.9</ele>
        <time>2016-08-27T08:19:09.000Z</time>
      </trkpt>
      <trkpt lat="49.55379" lon="3.30611">
        <ele>191.9</ele>
        <time>2016-08-27T08:19:14.000Z</time>
      </trkpt>
      <trkpt lat="49.55379" lon="3.30609">
        <ele>192</ele>
        <time>2016-08-27T08:19:15.000Z</time>
      </trkpt>
      <trkpt lat="49.5538" lon="3.30606">
        <ele>191.9</ele>
        <time>2016-08-27T08:19:16.000Z</time>
      </trkpt>
      <trkpt lat="49.5538" lon="3.30605">
        <ele>192.3</ele>
        <time>2016-08-27T08:19:17.000Z</time>
      </trkpt>
      <trkpt lat="49.5538" lon="3.30603">
        <ele>192.6</ele>
        <time>2016-08-27T08:19:18.000Z</time>
      </trkpt>
      <trkpt lat="49.55379" lon="3.3059">
        <ele>194.4</ele>
        <time>2016-08-27T08:19:26.000Z</time>
      </trkpt>
      <trkpt lat="49.55378" lon="3.30587">
        <ele>194.9</ele>
        <time>2016-08-27T08:19:27.000Z</time>
      </trkpt>
      <trkpt lat="49.5538" lon="3.30574">
        <ele>196.1</ele>
        <time>2016-08-27T08:19:34.000Z</time>
      </trkpt>
      <trkpt lat="49.55381" lon="3.30572">
        <ele>196.4</ele>
        <time>2016-08-27T08:19:35.000Z</time>
      </trkpt>
      <trkpt lat="49.55383" lon="3.3057">
        <ele>197.3</ele>
        <time>2016-08-27T08:19:37.000Z</time>
      </trkpt>
      <trkpt lat="49.55383" lon="3.30569">
        <ele>197.4</ele>
        <time>2016-08-27T08:19:38.000Z</time>
      </trkpt>
      <trkpt lat="49.55385" lon="3.30569">
        <ele>197.4</ele>
        <time>2016-08-27T08:19:39.000Z</time>
      </trkpt>
      <trkpt lat="49.55392" lon="3.30569">
        <ele>197.7</ele>
        <time>2016-08-27T08:19:44.000Z</time>
      </trkpt>
      <trkpt lat="49.55395" lon="3.30569">
        <ele>198</ele>
        <time>2016-08-27T08:19:45.000Z</time>
      </trkpt>
      <trkpt lat="49.55402" lon="3.30568">
        <ele>198.9</ele>
        <time>2016-08-27T08:19:52.000Z</time>
      </trkpt>
      <trkpt lat="49.55405" lon="3.30568">
        <ele>198.5</ele>
        <time>2016-08-27T08:19:53.000Z</time>
      </trkpt>
      <trkpt lat="49.55413" lon="3.30565">
        <ele>198.3</ele>
        <time>2016-08-27T08:19:58.000Z</time>
      </trkpt>
      <trkpt lat="49.55414" lon="3.30564">
        <ele>198.3</ele>
        <time>2016-08-27T08:19:59.000Z</time>
      </trkpt>
      <trkpt lat="49.55419" lon="3.30556">
        <ele>200.5</ele>
        <time>2016-08-27T08:20:03.000Z</time>
      </trkpt>
      <trkpt lat="49.55421" lon="3.30554">
        <ele>200.6</ele>
        <time>2016-08-27T08:20:04.000Z</time>
      </trkpt>
      <trkpt lat="49.55427" lon="3.30546">
        <ele>200.8</ele>
        <time>2016-08-27T08:20:09.000Z</time>
      </trkpt>
      <trkpt lat="49.55428" lon="3.30544">
        <ele>200.8</ele>
        <time>2016-08-27T08:20:10.000Z</time>
      </trkpt>
      <trkpt lat="49.55435" lon="3.30535">
        <ele>201.9</ele>
        <time>2016-08-27T08:20:18.000Z</time>
      </trkpt>
      <trkpt lat="49.55435" lon="3.30535">
        <ele>201.8</ele>
        <time>2016-08-27T08:20:19.000Z</time>
      </trkpt>
      <trkpt lat="49.55443" lon="3.3053">
        <ele>202.1</ele>
        <time>2016-08-27T08:20:25.000Z</time>
      </trkpt>
      <trkpt lat="49.55444" lon="3.30528">
        <ele>202.2</ele>
        <time>2016-08-27T08:20:26.000Z</time>
      </trkpt>
      <trkpt lat="49.5545" lon="3.30521">
        <ele>203.6</ele>
        <time>2016-08-27T08:20:30.000Z</time>
      </trkpt>
      <trkpt lat="49.55452" lon="3.30519">
        <ele>203.7</ele>
        <time>2016-08-27T08:20:31.000Z</time>
      </trkpt>
      <trkpt lat="49.55458" lon="3.30512">
        <ele>203.9</ele>
        <time>2016-08-27T08:20:35.000Z</time>
      </trkpt>
      <trkpt lat="49.5546" lon="3.3051">
        <ele>203.9</ele>
        <time>2016-08-27T08:20:36.000Z</time>
      </trkpt>
      <trkpt lat="49.55466" lon="3.30499">
        <ele>204.6</ele>
        <time>2016-08-27T08:20:43.000Z</time>
      </trkpt>
      <trkpt lat="49.55466" lon="3.30497">
        <ele>204.6</ele>
        <time>2016-08-27T08:20:44.000Z</time>
      </trkpt>
      <trkpt lat="49.55472" lon="3.30489">
        <ele>204.2</ele>
        <time>2016-08-27T08:20:50.000Z</time>
      </trkpt>
      <trkpt lat="49.55473" lon="3.30487">
        <ele>204.3</ele>
        <time>2016-08-27T08:20:51.000Z</time>
      </trkpt>
      <trkpt lat="49.55477" lon="3.30476">
        <ele>205.8</ele>
        <time>2016-08-27T08:20:59.000Z</time>
      </trkpt>
      <trkpt lat="49.55477" lon="3.30475">
        <ele>205.6</ele>
        <time>2016-08-27T08:21:00.000Z</time>
      </trkpt>
      <trkpt lat="49.5548" lon="3.3047">
        <ele>206.2</ele>
        <time>2016-08-27T08:21:05.000Z</time>
      </trkpt>
      <trkpt lat="49.55481" lon="3.3047">
        <ele>206.2</ele>
        <time>2016-08-27T08:21:06.000Z</time>
      </trkpt>
      <trkpt lat="49.55483" lon="3.3047">
        <ele>205.8</ele>
        <time>2016-08-27T08:21:08.000Z</time>
      </trkpt>
      <trkpt lat="49.55484" lon="3.3047">
        <ele>205.9</ele>
        <time>2016-08-27T08:21:09.000Z</time>
      </trkpt>
      <trkpt lat="49.55492" lon="3.30473">
        <ele>206.5</ele>
        <time>2016-08-27T08:21:17.000Z</time>
      </trkpt>
      <trkpt lat="49.55493" lon="3.30474">
        <ele>206.4</ele>
        <time>2016-08-27T08:21:18.000Z</time>
      </trkpt>
      <trkpt lat="49.555" lon="3.30478">
        <ele>206.1</ele>
        <time>2016-08-27T08:21:23.000Z</time>
      </trkpt>
      <trkpt lat="49.55501" lon="3.30478">
        <ele>205.8</ele>
        <time>2016-08-27T08:21:24.000Z</time>
      </trkpt>
      <trkpt lat="49.55509" lon="3.30483">
        <ele>203.6</ele>
        <time>2016-08-27T08:21:27.000Z</time>
      </trkpt>
      <trkpt lat="49.55511" lon="3.30485">
        <ele>203</ele>
        <time>2016-08-27T08:21:28.000Z</time>
      </trkpt>
      <trkpt lat="49.55518" lon="3.3049">
        <ele>202.8</ele>
        <time>2016-08-27T08:21:34.000Z</time>
      </trkpt>
      <trkpt lat="49.55519" lon="3.30492">
        <ele>202.7</ele>
        <time>2016-08-27T08:21:35.000Z</time>
      </trkpt>
      <trkpt lat="49.55522" lon="3.30503">
        <ele>202.8</ele>
        <time>2016-08-27T08:21:40.000Z</time>
      </trkpt>
      <trkpt lat="49.55523" lon="3.30506">
        <ele>203.1</ele>
        <time>2016-08-27T08:21:41.000Z</time>
      </trkpt>
      <trkpt lat="49.55525" lon="3.30517">
        <ele>203.6</ele>
        <time>2016-08-27T08:21:45.000Z</time>
      </trkpt>
      <trkpt lat="49.55526" lon="3.3052">
        <ele>203.8</ele>
        <time>2016-08-27T08:21:46.000Z</time>
      </trkpt>
      <trkpt lat="49.55528" lon="3.30532">
        <ele>205.3</ele>
        <time>2016-08-27T08:21:51.000Z</time>
      </trkpt>
      <trkpt lat="49.55529" lon="3.30534">
        <ele>205.3</ele>
        <time>2016-08-27T08:21:52.000Z</time>
      </trkpt>
      <trkpt lat="49.55532" lon="3.30547">
        <ele>206.8</ele>
        <time>2016-08-27T08:21:57.000Z</time>
      </trkpt>
      <trkpt lat="49.55531" lon="3.30548">
        <ele>206.7</ele>
        <time>2016-08-27T08:21:58.000Z</time>
      </trkpt>
      <trkpt lat="49.55531" lon="3.3056">
        <ele>207.2</ele>
        <time>2016-08-27T08:22:05.000Z</time>
      </trkpt>
      <trkpt lat="49.55531" lon="3.30562">
        <ele>207.2</ele>
        <time>2016-08-27T08:22:06.000Z</time>
      </trkpt>
      <trkpt lat="49.55531" lon="3.30574">
        <ele>207.9</ele>
        <time>2016-08-27T08:22:11.000Z</time>
      </trkpt>
      <trkpt lat="49.55532" lon="3.30577">
        <ele>207.8</ele>
        <time>2016-08-27T08:22:12.000Z</time>
      </trkpt>
      <trkpt lat="49.55537" lon="3.30586">
        <ele>207.2</ele>
        <time>2016-08-27T08:22:19.000Z</time>
      </trkpt>
      <trkpt lat="49.55538" lon="3.30588">
        <ele>207.1</ele>
        <time>2016-08-27T08:22:20.000Z</time>
      </trkpt>
      <trkpt lat="49.55544" lon="3.30597">
        <ele>207.8</ele>
        <time>2016-08-27T08:22:27.000Z</time>
      </trkpt>
      <trkpt lat="49.55545" lon="3.30598">
        <ele>207.8</ele>
        <time>2016-08-27T08:22:28.000Z</time>
      </trkpt>
      <trkpt lat="49.5555" lon="3.30607">
        <ele>207.8</ele>
        <time>2016-08-27T08:22:33.000Z</time>
      </trkpt>
      <trkpt lat="49.55551" lon="3.30609">
        <ele>207.8</ele>
        <time>2016-08-27T08:22:34.000Z</time>
      </trkpt>
      <trkpt lat="49.55557" lon="3.30615">
        <ele>207.8</ele>
        <time>2016-08-27T08:22:38.000Z</time>
      </trkpt>
      <trkpt lat="49.55558" lon="3.30617">
        <ele>206.8</ele>
        <time>2016-08-27T08:22:39.000Z</time>
      </trkpt>
      <trkpt lat="49.55564" lon="3.30627">
        <ele>206.4</ele>
        <time>2016-08-27T08:22:45.000Z</time>
      </trkpt>
      <trkpt lat="49.55565" lon="3.30629">
        <ele>206.5</ele>
        <time>2016-08-27T08:22:46.000Z</time>
      </trkpt>
      <trkpt lat="49.55569" lon="3.30634">
        <ele>207.7</ele>
        <time>2016-08-27T08:22:50.000Z</time>
      </trkpt>
      <trkpt lat="49.5557" lon="3.30635">
        <ele>208.2</ele>
        <time>2016-08-27T08:22:51.000Z</time>
      </trkpt>
      <trkpt lat="49.55571" lon="3.30637">
        <ele>208.3</ele>
        <time>2016-08-27T08:22:52.000Z</time>
      </trkpt>
      <trkpt lat="49.55577" lon="3.30647">
        <ele>208.2</ele>
        <time>2016-08-27T08:22:59.000Z</time>
      </trkpt>
      <trkpt lat="49.55579" lon="3.30648">
        <ele>208.1</ele>
        <time>2016-08-27T08:23:00.000Z</time>
      </trkpt>
      <trkpt lat="49.55584" lon="3.30657">
        <ele>208.4</ele>
        <time>2016-08-27T08:23:04.000Z</time>
      </trkpt>
      <trkpt lat="49.55585" lon="3.30658">
        <ele>208.5</ele>
        <time>2016-08-27T08:23:05.000Z</time>
      </trkpt>
      <trkpt lat="49.55591" lon="3.30669">
        <ele>208.1</ele>
        <time>2016-08-27T08:23:11.000Z</time>
      </trkpt>
      <trkpt lat="49.55591" lon="3.30671">
        <ele>208</ele>
        <time>2016-08-27T08:23:12.000Z</time>
      </trkpt>
      <trkpt lat="49.55596" lon="3.3068">
        <ele>207.3</ele>
        <time>2016-08-27T08:23:16.000Z</time>
      </trkpt>
      <trkpt lat="49.55596" lon="3.30682">
        <ele>207.5</ele>
        <time>2016-08-27T08:23:17.000Z</time>
      </trkpt>
      <trkpt lat="49.55601" lon="3.30693">
        <ele>207</ele>
        <time>2016-08-27T08:23:22.000Z</time>
      </trkpt>
      <trkpt lat="49.55602" lon="3.30694">
        <ele>206.8</ele>
        <time>2016-08-27T08:23:23.000Z</time>
      </trkpt>
      <trkpt lat="49.55604" lon="3.30697">
        <ele>206.2</ele>
        <time>2016-08-27T08:23:25.000Z</time>
      </trkpt>
      <trkpt lat="49.55605" lon="3.30699">
        <ele>206.2</ele>
        <time>2016-08-27T08:23:26.000Z</time>
      </trkpt>
      <trkpt lat="49.55606" lon="3.307">
        <ele>206.2</ele>
        <time>2016-08-27T08:23:28.000Z</time>
      </trkpt>
      <trkpt lat="49.55607" lon="3.30703">
        <ele>206.1</ele>
        <time>2016-08-27T08:23:29.000Z</time>
      </trkpt>
      <trkpt lat="49.55612" lon="3.30714">
        <ele>206.7</ele>
        <time>2016-08-27T08:23:35.000Z</time>
      </trkpt>
      <trkpt lat="49.55613" lon="3.30716">
        <ele>206.9</ele>
        <time>2016-08-27T08:23:36.000Z</time>
      </trkpt>
      <trkpt lat="49.55616" lon="3.30728">
        <ele>205.4</ele>
        <time>2016-08-27T08:23:41.000Z</time>
      </trkpt>
      <trkpt lat="49.55617" lon="3.3073">
        <ele>205.2</ele>
        <time>2016-08-27T08:23:42.000Z</time>
      </trkpt>
      <trkpt lat="49.55622" lon="3.30736">
        <ele>203.5</ele>
        <time>2016-08-27T08:23:45.000Z</time>
      </trkpt>
      <trkpt lat="49.55624" lon="3.30739">
        <ele>202.7</ele>
        <time>2016-08-27T08:23:46.000Z</time>
      </trkpt>
      <trkpt lat="49.55631" lon="3.30748">
        <ele>202.3</ele>
        <time>2016-08-27T08:23:51.000Z</time>
      </trkpt>
      <trkpt lat="49.55633" lon="3.3075">
        <ele>202.3</ele>
        <time>2016-08-27T08:23:52.000Z</time>
      </trkpt>
      <trkpt lat="49.55638" lon="3.30759">
        <ele>201.1</ele>
        <time>2016-08-27T08:23:56.000Z</time>
      </trkpt>
      <trkpt lat="49.55639" lon="3.30761">
        <ele>200.6</ele>
        <time>2016-08-27T08:23:57.000Z</time>
      </trkpt>
      <trkpt lat="49.55641" lon="3.30762">
        <ele>200</ele>
        <time>2016-08-27T08:23:58.000Z</time>
      </trkpt>
      <trkpt lat="49.55642" lon="3.30762">
        <ele>200.1</ele>
        <time>2016-08-27T08:23:59.000Z</time>
      </trkpt>
      <trkpt lat="49.55643" lon="3.30757">
        <ele>198.3</ele>
        <time>2016-08-27T08:24:02.000Z</time>
      </trkpt>
      <trkpt lat="49.55642" lon="3.30753">
        <ele>197</ele>
        <time>2016-08-27T08:24:03.000Z</time>
      </trkpt>
      <trkpt lat="49.55645" lon="3.30741">
        <ele>197.3</ele>
        <time>2016-08-27T08:24:15.000Z</time>
      </trkpt>
      <trkpt lat="49.55646" lon="3.3074">
        <ele>197.6</ele>
        <time>2016-08-27T08:24:16.000Z</time>
      </trkpt>
      <trkpt lat="49.55653" lon="3.30733">
        <ele>198.4</ele>
        <time>2016-08-27T08:24:21.000Z</time>
      </trkpt>
      <trkpt lat="49.55655" lon="3.30732">
        <ele>198.7</ele>
        <time>2016-08-27T08:24:22.000Z</time>
      </trkpt>
      <trkpt lat="49.55662" lon="3.30724">
        <ele>199</ele>
        <time>2016-08-27T08:24:30.000Z</time>
      </trkpt>
      <trkpt lat="49.55663" lon="3.30724">
        <ele>199.1</ele>
        <time>2016-08-27T08:24:31.000Z</time>
      </trkpt>
      <trkpt lat="49.55671" lon="3.30719">
        <ele>199.6</ele>
        <time>2016-08-27T08:24:38.000Z</time>
      </trkpt>
      <trkpt lat="49.55672" lon="3.30719">
        <ele>199.5</ele>
        <time>2016-08-27T08:24:39.000Z</time>
      </trkpt>
      <trkpt lat="49.55681" lon="3.30717">
        <ele>199.3</ele>
        <time>2016-08-27T08:24:45.000Z</time>
      </trkpt>
      <trkpt lat="49.55682" lon="3.30716">
        <ele>199.4</ele>
        <time>2016-08-27T08:24:46.000Z</time>
      </trkpt>
      <trkpt lat="49.55683" lon="3.30714">
        <ele>199.6</ele>
        <time>2016-08-27T08:24:47.000Z</time>
      </trkpt>
      <trkpt lat="49.55685" lon="3.30712">
        <ele>200.2</ele>
        <time>2016-08-27T08:24:55.000Z</time>
      </trkpt>
      <trkpt lat="49.55687" lon="3.30705">
        <ele>200.7</ele>
        <time>2016-08-27T08:24:56.000Z</time>
      </trkpt>
      <trkpt lat="49.55689" lon="3.30701">
        <ele>200.5</ele>
        <time>2016-08-27T08:25:01.000Z</time>
      </trkpt>
      <trkpt lat="49.55689" lon="3.30701">
        <ele>200.3</ele>
        <time>2016-08-27T08:25:02.000Z</time>
      </trkpt>
      <trkpt lat="49.5569" lon="3.307">
        <ele>199.9</ele>
        <time>2016-08-27T08:25:03.000Z</time>
      </trkpt>
      <trkpt lat="49.5569" lon="3.30699">
        <ele>199.8</ele>
        <time>2016-08-27T08:25:04.000Z</time>
      </trkpt>
      <trkpt lat="49.55693" lon="3.30688">
        <ele>199.5</ele>
        <time>2016-08-27T08:25:12.000Z</time>
      </trkpt>
      <trkpt lat="49.55694" lon="3.30688">
        <ele>199.5</ele>
        <time>2016-08-27T08:25:13.000Z</time>
      </trkpt>
      <trkpt lat="49.55694" lon="3.30686">
        <ele>199.4</ele>
        <time>2016-08-27T08:25:17.000Z</time>
      </trkpt>
      <trkpt lat="49.55697" lon="3.30682">
        <ele>199.8</ele>
        <time>2016-08-27T08:25:18.000Z</time>
      </trkpt>
      <trkpt lat="49.55703" lon="3.30674">
        <ele>199.3</ele>
        <time>2016-08-27T08:25:28.000Z</time>
      </trkpt>
      <trkpt lat="49.55704" lon="3.30673">
        <ele>199.2</ele>
        <time>2016-08-27T08:25:29.000Z</time>
      </trkpt>
      <trkpt lat="49.55711" lon="3.30667">
        <ele>198.2</ele>
        <time>2016-08-27T08:25:34.000Z</time>
      </trkpt>
      <trkpt lat="49.55713" lon="3.30667">
        <ele>197.9</ele>
        <time>2016-08-27T08:25:35.000Z</time>
      </trkpt>
      <trkpt lat="49.55719" lon="3.30664">
        <ele>197.2</ele>
        <time>2016-08-27T08:25:39.000Z</time>
      </trkpt>
      <trkpt lat="49.55721" lon="3.30663">
        <ele>197</ele>
        <time>2016-08-27T08:25:40.000Z</time>
      </trkpt>
      <trkpt lat="49.55728" lon="3.30658">
        <ele>197.1</ele>
        <time>2016-08-27T08:25:47.000Z</time>
      </trkpt>
      <trkpt lat="49.55728" lon="3.30658">
        <ele>197</ele>
        <time>2016-08-27T08:25:48.000Z</time>
      </trkpt>
      <trkpt lat="49.55728" lon="3.30657">
        <ele>196.9</ele>
        <time>2016-08-27T08:25:50.000Z</time>
      </trkpt>
      <trkpt lat="49.55729" lon="3.30655">
        <ele>197.2</ele>
        <time>2016-08-27T08:25:51.000Z</time>
      </trkpt>
      <trkpt lat="49.5573" lon="3.30654">
        <ele>197.3</ele>
        <time>2016-08-27T08:25:52.000Z</time>
      </trkpt>
      <trkpt lat="49.5573" lon="3.30653">
        <ele>197.3</ele>
        <time>2016-08-27T08:25:53.000Z</time>
      </trkpt>
      <trkpt lat="49.5573" lon="3.30652">
        <ele>197.3</ele>
        <time>2016-08-27T08:25:54.000Z</time>
      </trkpt>
      <trkpt lat="49.55731" lon="3.3064">
        <ele>197.3</ele>
        <time>2016-08-27T08:26:09.000Z</time>
      </trkpt>
      <trkpt lat="49.55732" lon="3.3064">
        <ele>196.5</ele>
        <time>2016-08-27T08:26:10.000Z</time>
      </trkpt>
      <trkpt lat="49.55732" lon="3.30641">
        <ele>196.3</ele>
        <time>2016-08-27T08:26:12.000Z</time>
      </trkpt>
      <trkpt lat="49.55733" lon="3.30643">
        <ele>195.4</ele>
        <time>2016-08-27T08:26:13.000Z</time>
      </trkpt>
      <trkpt lat="49.55741" lon="3.30636">
        <ele>194</ele>
        <time>2016-08-27T08:26:22.000Z</time>
      </trkpt>
      <trkpt lat="49.55742" lon="3.30635">
        <ele>193.8</ele>
        <time>2016-08-27T08:26:23.000Z</time>
      </trkpt>
      <trkpt lat="49.55751" lon="3.30633">
        <ele>191.9</ele>
        <time>2016-08-27T08:26:35.000Z</time>
      </trkpt>
      <trkpt lat="49.55751" lon="3.30634">
        <ele>191.8</ele>
        <time>2016-08-27T08:26:36.000Z</time>
      </trkpt>
      <trkpt lat="49.55752" lon="3.30634">
        <ele>191.6</ele>
        <time>2016-08-27T08:26:37.000Z</time>
      </trkpt>
      <trkpt lat="49.55753" lon="3.30634">
        <ele>191.4</ele>
        <time>2016-08-27T08:26:41.000Z</time>
      </trkpt>
      <trkpt lat="49.55758" lon="3.30636">
        <ele>191</ele>
        <time>2016-08-27T08:26:42.000Z</time>
      </trkpt>
      <trkpt lat="49.55765" lon="3.3064">
        <ele>190.7</ele>
        <time>2016-08-27T08:26:47.000Z</time>
      </trkpt>
      <trkpt lat="49.55767" lon="3.30641">
        <ele>190.5</ele>
        <time>2016-08-27T08:26:48.000Z</time>
      </trkpt>
      <trkpt lat="49.5577" lon="3.30642">
        <ele>190.4</ele>
        <time>2016-08-27T08:26:51.000Z</time>
      </trkpt>
      <trkpt lat="49.55771" lon="3.30643">
        <ele>190.2</ele>
        <time>2016-08-27T08:26:52.000Z</time>
      </trkpt>
      <trkpt lat="49.55772" lon="3.30643">
        <ele>190.2</ele>
        <time>2016-08-27T08:26:53.000Z</time>
      </trkpt>
      <trkpt lat="49.55779" lon="3.3065">
        <ele>190</ele>
        <time>2016-08-27T08:26:59.000Z</time>
      </trkpt>
      <trkpt lat="49.5578" lon="3.3065">
        <ele>190</ele>
        <time>2016-08-27T08:27:00.000Z</time>
      </trkpt>
      <trkpt lat="49.55781" lon="3.30651">
        <ele>189.9</ele>
        <time>2016-08-27T08:27:01.000Z</time>
      </trkpt>
      <trkpt lat="49.55782" lon="3.30651">
        <ele>189.8</ele>
        <time>2016-08-27T08:27:02.000Z</time>
      </trkpt>
      <trkpt lat="49.55784" lon="3.30652">
        <ele>189.7</ele>
        <time>2016-08-27T08:27:03.000Z</time>
      </trkpt>
      <trkpt lat="49.55785" lon="3.30653">
        <ele>189.5</ele>
        <time>2016-08-27T08:27:04.000Z</time>
      </trkpt>
      <trkpt lat="49.55785" lon="3.30653">
        <ele>189.4</ele>
        <time>2016-08-27T08:27:05.000Z</time>
      </trkpt>
      <trkpt lat="49.55786" lon="3.30654">
        <ele>189.4</ele>
        <time>2016-08-27T08:27:06.000Z</time>
      </trkpt>
      <trkpt lat="49.55787" lon="3.30655">
        <ele>189.2</ele>
        <time>2016-08-27T08:27:07.000Z</time>
      </trkpt>
      <trkpt lat="49.55788" lon="3.30656">
        <ele>188.8</ele>
        <time>2016-08-27T08:27:08.000Z</time>
      </trkpt>
      <trkpt lat="49.55796" lon="3.30659">
        <ele>186.8</ele>
        <time>2016-08-27T08:27:14.000Z</time>
      </trkpt>
      <trkpt lat="49.55798" lon="3.3066">
        <ele>186.7</ele>
        <time>2016-08-27T08:27:15.000Z</time>
      </trkpt>
      <trkpt lat="49.55801" lon="3.30662">
        <ele>186.4</ele>
        <time>2016-08-27T08:27:18.000Z</time>
      </trkpt>
      <trkpt lat="49.55802" lon="3.30663">
        <ele>186.3</ele>
        <time>2016-08-27T08:27:19.000Z</time>
      </trkpt>
      <trkpt lat="49.55804" lon="3.30664">
        <ele>186.3</ele>
        <time>2016-08-27T08:27:20.000Z</time>
      </trkpt>
      <trkpt lat="49.5581" lon="3.30666">
        <ele>185.5</ele>
        <time>2016-08-27T08:27:25.000Z</time>
      </trkpt>
      <trkpt lat="49.55811" lon="3.30667">
        <ele>185.2</ele>
        <time>2016-08-27T08:27:26.000Z</time>
      </trkpt>
      <trkpt lat="49.55813" lon="3.30668">
        <ele>185.1</ele>
        <time>2016-08-27T08:27:27.000Z</time>
      </trkpt>
      <trkpt lat="49.5582" lon="3.30673">
        <ele>185</ele>
        <time>2016-08-27T08:27:33.000Z</time>
      </trkpt>
      <trkpt lat="49.55821" lon="3.30673">
        <ele>185</ele>
        <time>2016-08-27T08:27:34.000Z</time>
      </trkpt>
      <trkpt lat="49.55821" lon="3.30673">
        <ele>185</ele>
        <time>2016-08-27T08:27:35.000Z</time>
      </trkpt>
      <trkpt lat="49.55828" lon="3.30678">
        <ele>184.8</ele>
        <time>2016-08-27T08:27:45.000Z</time>
      </trkpt>
      <trkpt lat="49.5583" lon="3.30679">
        <ele>184.7</ele>
        <time>2016-08-27T08:27:46.000Z</time>
      </trkpt>
      <trkpt lat="49.55831" lon="3.30681">
        <ele>184.7</ele>
        <time>2016-08-27T08:27:47.000Z</time>
      </trkpt>
      <trkpt lat="49.55832" lon="3.30682">
        <ele>184.7</ele>
        <time>2016-08-27T08:27:48.000Z</time>
      </trkpt>
      <trkpt lat="49.55833" lon="3.30683">
        <ele>184.7</ele>
        <time>2016-08-27T08:27:52.000Z</time>
      </trkpt>
      <trkpt lat="49.55835" lon="3.30686">
        <ele>184.6</ele>
        <time>2016-08-27T08:27:53.000Z</time>
      </trkpt>
      <trkpt lat="49.55836" lon="3.30687">
        <ele>184.6</ele>
        <time>2016-08-27T08:27:55.000Z</time>
      </trkpt>
      <trkpt lat="49.55837" lon="3.30687">
        <ele>184.6</ele>
        <time>2016-08-27T08:27:56.000Z</time>
      </trkpt>
      <trkpt lat="49.55838" lon="3.30688">
        <ele>184.5</ele>
        <time>2016-08-27T08:27:57.000Z</time>
      </trkpt>
      <trkpt lat="49.55845" lon="3.30693">
        <ele>183.9</ele>
        <time>2016-08-27T08:28:08.000Z</time>
      </trkpt>
      <trkpt lat="49.55846" lon="3.30693">
        <ele>183.8</ele>
        <time>2016-08-27T08:28:09.000Z</time>
      </trkpt>
      <trkpt lat="49.55846" lon="3.30694">
        <ele>183.8</ele>
        <time>2016-08-27T08:28:10.000Z</time>
      </trkpt>
      <trkpt lat="49.55847" lon="3.30694">
        <ele>183.8</ele>
        <time>2016-08-27T08:28:11.000Z</time>
      </trkpt>
      <trkpt lat="49.55849" lon="3.30696">
        <ele>183.7</ele>
        <time>2016-08-27T08:28:14.000Z</time>
      </trkpt>
      <trkpt lat="49.5585" lon="3.30696">
        <ele>183.4</ele>
        <time>2016-08-27T08:28:15.000Z</time>
      </trkpt>
      <trkpt lat="49.55851" lon="3.30696">
        <ele>183.2</ele>
        <time>2016-08-27T08:28:16.000Z</time>
      </trkpt>
      <trkpt lat="49.55853" lon="3.30697">
        <ele>183.1</ele>
        <time>2016-08-27T08:28:17.000Z</time>
      </trkpt>
      <trkpt lat="49.55857" lon="3.30701">
        <ele>183.2</ele>
        <time>2016-08-27T08:28:22.000Z</time>
      </trkpt>
      <trkpt lat="49.55859" lon="3.30703">
        <ele>183.3</ele>
        <time>2016-08-27T08:28:23.000Z</time>
      </trkpt>
      <trkpt lat="49.5586" lon="3.30704">
        <ele>183.4</ele>
        <time>2016-08-27T08:28:25.000Z</time>
      </trkpt>
      <trkpt lat="49.55863" lon="3.30706">
        <ele>183.2</ele>
        <time>2016-08-27T08:28:26.000Z</time>
      </trkpt>
      <trkpt lat="49.55869" lon="3.30711">
        <ele>183.4</ele>
        <time>2016-08-27T08:28:32.000Z</time>
      </trkpt>
      <trkpt lat="49.5587" lon="3.30715">
        <ele>183</ele>
        <time>2016-08-27T08:28:33.000Z</time>
      </trkpt>
      <trkpt lat="49.55877" lon="3.30722">
        <ele>182.6</ele>
        <time>2016-08-27T08:28:36.000Z</time>
      </trkpt>
      <trkpt lat="49.55881" lon="3.30725">
        <ele>182.6</ele>
        <time>2016-08-27T08:28:37.000Z</time>
      </trkpt>
      <trkpt lat="49.55887" lon="3.30732">
        <ele>182.6</ele>
        <time>2016-08-27T08:28:40.000Z</time>
      </trkpt>
      <trkpt lat="49.55888" lon="3.30734">
        <ele>182.6</ele>
        <time>2016-08-27T08:28:41.000Z</time>
      </trkpt>
      <trkpt lat="49.55893" lon="3.30744">
        <ele>181.7</ele>
        <time>2016-08-27T08:28:45.000Z</time>
      </trkpt>
      <trkpt lat="49.55894" lon="3.30746">
        <ele>181.5</ele>
        <time>2016-08-27T08:28:46.000Z</time>
      </trkpt>
      <trkpt lat="49.559" lon="3.30754">
        <ele>181.6</ele>
        <time>2016-08-27T08:28:50.000Z</time>
      </trkpt>
      <trkpt lat="49.559" lon="3.30756">
        <ele>181.5</ele>
        <time>2016-08-27T08:28:51.000Z</time>
      </trkpt>
      <trkpt lat="49.55905" lon="3.30766">
        <ele>181</ele>
        <time>2016-08-27T08:28:57.000Z</time>
      </trkpt>
      <trkpt lat="49.55906" lon="3.30768">
        <ele>181.1</ele>
        <time>2016-08-27T08:28:58.000Z</time>
      </trkpt>
      <trkpt lat="49.5591" lon="3.30779">
        <ele>181.1</ele>
        <time>2016-08-27T08:29:03.000Z</time>
      </trkpt>
      <trkpt lat="49.55911" lon="3.30781">
        <ele>181.2</ele>
        <time>2016-08-27T08:29:04.000Z</time>
      </trkpt>
      <trkpt lat="49.55913" lon="3.30791">
        <ele>180.3</ele>
        <time>2016-08-27T08:29:08.000Z</time>
      </trkpt>
      <trkpt lat="49.55914" lon="3.30794">
        <ele>180.1</ele>
        <time>2016-08-27T08:29:09.000Z</time>
      </trkpt>
      <trkpt lat="49.55917" lon="3.30807">
        <ele>180.2</ele>
        <time>2016-08-27T08:29:17.000Z</time>
      </trkpt>
      <trkpt lat="49.55917" lon="3.30808">
        <ele>180.3</ele>
        <time>2016-08-27T08:29:18.000Z</time>
      </trkpt>
      <trkpt lat="49.5592" lon="3.30821">
        <ele>180.4</ele>
        <time>2016-08-27T08:29:24.000Z</time>
      </trkpt>
      <trkpt lat="49.5592" lon="3.30824">
        <ele>180.4</ele>
        <time>2016-08-27T08:29:25.000Z</time>
      </trkpt>
      <trkpt lat="49.55926" lon="3.30834">
        <ele>181.3</ele>
        <time>2016-08-27T08:29:32.000Z</time>
      </trkpt>
      <trkpt lat="49.55926" lon="3.30836">
        <ele>181.4</ele>
        <time>2016-08-27T08:29:33.000Z</time>
      </trkpt>
      <trkpt lat="49.55933" lon="3.30844">
        <ele>182.7</ele>
        <time>2016-08-27T08:29:39.000Z</time>
      </trkpt>
      <trkpt lat="49.55934" lon="3.30845">
        <ele>183.1</ele>
        <time>2016-08-27T08:29:40.000Z</time>
      </trkpt>
      <trkpt lat="49.55936" lon="3.30847">
        <ele>184.1</ele>
        <time>2016-08-27T08:29:43.000Z</time>
      </trkpt>
      <trkpt lat="49.55937" lon="3.30848">
        <ele>184.3</ele>
        <time>2016-08-27T08:29:44.000Z</time>
      </trkpt>
      <trkpt lat="49.55938" lon="3.30849">
        <ele>184.5</ele>
        <time>2016-08-27T08:29:45.000Z</time>
      </trkpt>
      <trkpt lat="49.55939" lon="3.3085">
        <ele>184.4</ele>
        <time>2016-08-27T08:29:46.000Z</time>
      </trkpt>
      <trkpt lat="49.55946" lon="3.30855">
        <ele>184.5</ele>
        <time>2016-08-27T08:29:52.000Z</time>
      </trkpt>
      <trkpt lat="49.55947" lon="3.30857">
        <ele>184.8</ele>
        <time>2016-08-27T08:29:53.000Z</time>
      </trkpt>
      <trkpt lat="49.55954" lon="3.3086">
        <ele>185.1</ele>
        <time>2016-08-27T08:29:59.000Z</time>
      </trkpt>
      <trkpt lat="49.55955" lon="3.30861">
        <ele>185.1</ele>
        <time>2016-08-27T08:30:00.000Z</time>
      </trkpt>
      <trkpt lat="49.55961" lon="3.30866">
        <ele>187.1</ele>
        <time>2016-08-27T08:30:05.000Z</time>
      </trkpt>
      <trkpt lat="49.55962" lon="3.30866">
        <ele>187.1</ele>
        <time>2016-08-27T08:30:06.000Z</time>
      </trkpt>
      <trkpt lat="49.55963" lon="3.30867">
        <ele>186.8</ele>
        <time>2016-08-27T08:30:07.000Z</time>
      </trkpt>
      <trkpt lat="49.55966" lon="3.30869">
        <ele>187</ele>
        <time>2016-08-27T08:30:09.000Z</time>
      </trkpt>
      <trkpt lat="49.55967" lon="3.3087">
        <ele>187.1</ele>
        <time>2016-08-27T08:30:10.000Z</time>
      </trkpt>
      <trkpt lat="49.55969" lon="3.30872">
        <ele>187.1</ele>
        <time>2016-08-27T08:30:18.000Z</time>
      </trkpt>
      <trkpt lat="49.55975" lon="3.30874">
        <ele>187.6</ele>
        <time>2016-08-27T08:30:19.000Z</time>
      </trkpt>
      <trkpt lat="49.55979" lon="3.30875">
        <ele>188.1</ele>
        <time>2016-08-27T08:30:24.000Z</time>
      </trkpt>
      <trkpt lat="49.55984" lon="3.30878">
        <ele>188.8</ele>
        <time>2016-08-27T08:30:25.000Z</time>
      </trkpt>
      <trkpt lat="49.55987" lon="3.30878">
        <ele>189.1</ele>
        <time>2016-08-27T08:30:27.000Z</time>
      </trkpt>
      <trkpt lat="49.55988" lon="3.30879">
        <ele>189.2</ele>
        <time>2016-08-27T08:30:28.000Z</time>
      </trkpt>
      <trkpt lat="49.55989" lon="3.30879">
        <ele>189.4</ele>
        <time>2016-08-27T08:30:29.000Z</time>
      </trkpt>
      <trkpt lat="49.55997" lon="3.3088">
        <ele>189.8</ele>
        <time>2016-08-27T08:30:36.000Z</time>
      </trkpt>
      <trkpt lat="49.55999" lon="3.3088">
        <ele>189.9</ele>
        <time>2016-08-27T08:30:37.000Z</time>
      </trkpt>
      <trkpt lat="49.56005" lon="3.3088">
        <ele>190.5</ele>
        <time>2016-08-27T08:30:41.000Z</time>
      </trkpt>
      <trkpt lat="49.56006" lon="3.3088">
        <ele>190.5</ele>
        <time>2016-08-27T08:30:42.000Z</time>
      </trkpt>
      <trkpt lat="49.56007" lon="3.3088">
        <ele>190.6</ele>
        <time>2016-08-27T08:30:43.000Z</time>
      </trkpt>
      <trkpt lat="49.56009" lon="3.30879">
        <ele>190.6</ele>
        <time>2016-08-27T08:30:45.000Z</time>
      </trkpt>
      <trkpt lat="49.5601" lon="3.30878">
        <ele>190.8</ele>
        <time>2016-08-27T08:30:46.000Z</time>
      </trkpt>
      <trkpt lat="49.56012" lon="3.30877">
        <ele>191.2</ele>
        <time>2016-08-27T08:30:49.000Z</time>
      </trkpt>
      <trkpt lat="49.56013" lon="3.30876">
        <ele>191.2</ele>
        <time>2016-08-27T08:30:50.000Z</time>
      </trkpt>
      <trkpt lat="49.56018" lon="3.30866">
        <ele>191.3</ele>
        <time>2016-08-27T08:30:57.000Z</time>
      </trkpt>
      <trkpt lat="49.56019" lon="3.30864">
        <ele>191.4</ele>
        <time>2016-08-27T08:30:58.000Z</time>
      </trkpt>
      <trkpt lat="49.56025" lon="3.30856">
        <ele>191</ele>
        <time>2016-08-27T08:31:06.000Z</time>
      </trkpt>
      <trkpt lat="49.56026" lon="3.30855">
        <ele>191.3</ele>
        <time>2016-08-27T08:31:07.000Z</time>
      </trkpt>
      <trkpt lat="49.56032" lon="3.30848">
        <ele>191.8</ele>
        <time>2016-08-27T08:31:13.000Z</time>
      </trkpt>
      <trkpt lat="49.56034" lon="3.30846">
        <ele>191.5</ele>
        <time>2016-08-27T08:31:14.000Z</time>
      </trkpt>
      <trkpt lat="49.5604" lon="3.30842">
        <ele>191.2</ele>
        <time>2016-08-27T08:31:20.000Z</time>
      </trkpt>
      <trkpt lat="49.56041" lon="3.30841">
        <ele>191.5</ele>
        <time>2016-08-27T08:31:21.000Z</time>
      </trkpt>
      <trkpt lat="49.56042" lon="3.30841">
        <ele>191.4</ele>
        <time>2016-08-27T08:31:22.000Z</time>
      </trkpt>
      <trkpt lat="49.56043" lon="3.30841">
        <ele>191.4</ele>
        <time>2016-08-27T08:31:29.000Z</time>
      </trkpt>
      <trkpt lat="49.56053" lon="3.30841">
        <ele>192.1</ele>
        <time>2016-08-27T08:31:30.000Z</time>
      </trkpt>
      <trkpt lat="49.56055" lon="3.30841">
        <ele>192.2</ele>
        <time>2016-08-27T08:31:31.000Z</time>
      </trkpt>
      <trkpt lat="49.56056" lon="3.3084">
        <ele>192.4</ele>
        <time>2016-08-27T08:31:32.000Z</time>
      </trkpt>
      <trkpt lat="49.56057" lon="3.30841">
        <ele>192.4</ele>
        <time>2016-08-27T08:31:35.000Z</time>
      </trkpt>
      <trkpt lat="49.5606" lon="3.30845">
        <ele>192.6</ele>
        <time>2016-08-27T08:31:36.000Z</time>
      </trkpt>
      <trkpt lat="49.56067" lon="3.30851">
        <ele>193.5</ele>
        <time>2016-08-27T08:31:40.000Z</time>
      </trkpt>
      <trkpt lat="49.56069" lon="3.30853">
        <ele>193.2</ele>
        <time>2016-08-27T08:31:41.000Z</time>
      </trkpt>
      <trkpt lat="49.56075" lon="3.3086">
        <ele>192.7</ele>
        <time>2016-08-27T08:31:45.000Z</time>
      </trkpt>
      <trkpt lat="49.56077" lon="3.30861">
        <ele>192.5</ele>
        <time>2016-08-27T08:31:46.000Z</time>
      </trkpt>
      <trkpt lat="49.56081" lon="3.30864">
        <ele>192.9</ele>
        <time>2016-08-27T08:31:49.000Z</time>
      </trkpt>
      <trkpt lat="49.56082" lon="3.30864">
        <ele>192.6</ele>
        <time>2016-08-27T08:31:50.000Z</time>
      </trkpt>
      <trkpt lat="49.56083" lon="3.30864">
        <ele>192.6</ele>
        <time>2016-08-27T08:31:51.000Z</time>
      </trkpt>
      <trkpt lat="49.56085" lon="3.30864">
        <ele>192.7</ele>
        <time>2016-08-27T08:31:52.000Z</time>
      </trkpt>
      <trkpt lat="49.56091" lon="3.30867">
        <ele>194</ele>
        <time>2016-08-27T08:31:57.000Z</time>
      </trkpt>
      <trkpt lat="49.56092" lon="3.30867">
        <ele>194.3</ele>
        <time>2016-08-27T08:31:58.000Z</time>
      </trkpt>
      <trkpt lat="49.56093" lon="3.30868">
        <ele>194.6</ele>
        <time>2016-08-27T08:32:03.000Z</time>
      </trkpt>
      <trkpt lat="49.56098" lon="3.3087">
        <ele>195.1</ele>
        <time>2016-08-27T08:32:04.000Z</time>
      </trkpt>
      <trkpt lat="49.56104" lon="3.3087">
        <ele>194.7</ele>
        <time>2016-08-27T08:32:12.000Z</time>
      </trkpt>
      <trkpt lat="49.5611" lon="3.30871">
        <ele>194.9</ele>
        <time>2016-08-27T08:32:13.000Z</time>
      </trkpt>
      <trkpt lat="49.56111" lon="3.30871">
        <ele>195</ele>
        <time>2016-08-27T08:32:14.000Z</time>
      </trkpt>
      <trkpt lat="49.56113" lon="3.30871">
        <ele>195.2</ele>
        <time>2016-08-27T08:32:15.000Z</time>
      </trkpt>
      <trkpt lat="49.56114" lon="3.30871">
        <ele>195.4</ele>
        <time>2016-08-27T08:32:20.000Z</time>
      </trkpt>
      <trkpt lat="49.56121" lon="3.30872">
        <ele>196.1</ele>
        <time>2016-08-27T08:32:21.000Z</time>
      </trkpt>
      <trkpt lat="49.56124" lon="3.30872">
        <ele>194</ele>
        <time>2016-08-27T08:32:24.000Z</time>
      </trkpt>
      <trkpt lat="49.56126" lon="3.30871">
        <ele>193.9</ele>
        <time>2016-08-27T08:32:25.000Z</time>
      </trkpt>
      <trkpt lat="49.56128" lon="3.30871">
        <ele>193.5</ele>
        <time>2016-08-27T08:32:31.000Z</time>
      </trkpt>
      <trkpt lat="49.56137" lon="3.30872">
        <ele>193.7</ele>
        <time>2016-08-27T08:32:32.000Z</time>
      </trkpt>
      <trkpt lat="49.56144" lon="3.30864">
        <ele>192.7</ele>
        <time>2016-08-27T08:32:40.000Z</time>
      </trkpt>
      <trkpt lat="49.56145" lon="3.30863">
        <ele>192.9</ele>
        <time>2016-08-27T08:32:41.000Z</time>
      </trkpt>
      <trkpt lat="49.56151" lon="3.30861">
        <ele>194</ele>
        <time>2016-08-27T08:32:45.000Z</time>
      </trkpt>
      <trkpt lat="49.56151" lon="3.30861">
        <ele>194.1</ele>
        <time>2016-08-27T08:32:46.000Z</time>
      </trkpt>
      <trkpt lat="49.56153" lon="3.30858">
        <ele>193.4</ele>
        <time>2016-08-27T08:32:52.000Z</time>
      </trkpt>
      <trkpt lat="49.5616" lon="3.30854">
        <ele>193.4</ele>
        <time>2016-08-27T08:32:53.000Z</time>
      </trkpt>
      <trkpt lat="49.56164" lon="3.30851">
        <ele>194</ele>
        <time>2016-08-27T08:32:57.000Z</time>
      </trkpt>
      <trkpt lat="49.56166" lon="3.30851">
        <ele>194.4</ele>
        <time>2016-08-27T08:32:58.000Z</time>
      </trkpt>
      <trkpt lat="49.56168" lon="3.30851">
        <ele>194.7</ele>
        <time>2016-08-27T08:32:59.000Z</time>
      </trkpt>
      <trkpt lat="49.56175" lon="3.30849">
        <ele>196.1</ele>
        <time>2016-08-27T08:33:03.000Z</time>
      </trkpt>
      <trkpt lat="49.56177" lon="3.30849">
        <ele>196.3</ele>
        <time>2016-08-27T08:33:04.000Z</time>
      </trkpt>
      <trkpt lat="49.56185" lon="3.30844">
        <ele>197.4</ele>
        <time>2016-08-27T08:33:09.000Z</time>
      </trkpt>
      <trkpt lat="49.56186" lon="3.30843">
        <ele>197.6</ele>
        <time>2016-08-27T08:33:10.000Z</time>
      </trkpt>
      <trkpt lat="49.56194" lon="3.30839">
        <ele>196.4</ele>
        <time>2016-08-27T08:33:15.000Z</time>
      </trkpt>
      <trkpt lat="49.56195" lon="3.30838">
        <ele>196.4</ele>
        <time>2016-08-27T08:33:16.000Z</time>
      </trkpt>
      <trkpt lat="49.56203" lon="3.30831">
        <ele>197.2</ele>
        <time>2016-08-27T08:33:23.000Z</time>
      </trkpt>
      <trkpt lat="49.56204" lon="3.3083">
        <ele>197.5</ele>
        <time>2016-08-27T08:33:24.000Z</time>
      </trkpt>
      <trkpt lat="49.5621" lon="3.30821">
        <ele>198.9</ele>
        <time>2016-08-27T08:33:32.000Z</time>
      </trkpt>
      <trkpt lat="49.56211" lon="3.30821">
        <ele>199</ele>
        <time>2016-08-27T08:33:33.000Z</time>
      </trkpt>
      <trkpt lat="49.56212" lon="3.30819">
        <ele>199.2</ele>
        <time>2016-08-27T08:33:34.000Z</time>
      </trkpt>
      <trkpt lat="49.56214" lon="3.30819">
        <ele>199.5</ele>
        <time>2016-08-27T08:33:35.000Z</time>
      </trkpt>
      <trkpt lat="49.56216" lon="3.30818">
        <ele>199.6</ele>
        <time>2016-08-27T08:33:37.000Z</time>
      </trkpt>
      <trkpt lat="49.56218" lon="3.30817">
        <ele>200</ele>
        <time>2016-08-27T08:33:38.000Z</time>
      </trkpt>
      <trkpt lat="49.56226" lon="3.30812">
        <ele>201.8</ele>
        <time>2016-08-27T08:33:44.000Z</time>
      </trkpt>
      <trkpt lat="49.56227" lon="3.30811">
        <ele>201.9</ele>
        <time>2016-08-27T08:33:45.000Z</time>
      </trkpt>
      <trkpt lat="49.56229" lon="3.30809">
        <ele>202.3</ele>
        <time>2016-08-27T08:33:48.000Z</time>
      </trkpt>
      <trkpt lat="49.5623" lon="3.30808">
        <ele>202.6</ele>
        <time>2016-08-27T08:33:49.000Z</time>
      </trkpt>
      <trkpt lat="49.56232" lon="3.30806">
        <ele>202.5</ele>
        <time>2016-08-27T08:33:51.000Z</time>
      </trkpt>
      <trkpt lat="49.56234" lon="3.30805">
        <ele>202.7</ele>
        <time>2016-08-27T08:33:52.000Z</time>
      </trkpt>
      <trkpt lat="49.5624" lon="3.30797">
        <ele>203.5</ele>
        <time>2016-08-27T08:33:57.000Z</time>
      </trkpt>
      <trkpt lat="49.56242" lon="3.30797">
        <ele>203.7</ele>
        <time>2016-08-27T08:33:58.000Z</time>
      </trkpt>
      <trkpt lat="49.56246" lon="3.30796">
        <ele>204.1</ele>
        <time>2016-08-27T08:34:01.000Z</time>
      </trkpt>
      <trkpt lat="49.56247" lon="3.30796">
        <ele>204.2</ele>
        <time>2016-08-27T08:34:02.000Z</time>
      </trkpt>
      <trkpt lat="49.56249" lon="3.30796">
        <ele>204.2</ele>
        <time>2016-08-27T08:34:03.000Z</time>
      </trkpt>
      <trkpt lat="49.5625" lon="3.30796">
        <ele>204.4</ele>
        <time>2016-08-27T08:34:04.000Z</time>
      </trkpt>
      <trkpt lat="49.56252" lon="3.30796">
        <ele>204.6</ele>
        <time>2016-08-27T08:34:05.000Z</time>
      </trkpt>
      <trkpt lat="49.56254" lon="3.30794">
        <ele>204.2</ele>
        <time>2016-08-27T08:34:06.000Z</time>
      </trkpt>
      <trkpt lat="49.56258" lon="3.30791">
        <ele>203.8</ele>
        <time>2016-08-27T08:34:12.000Z</time>
      </trkpt>
      <trkpt lat="49.56262" lon="3.30785">
        <ele>203.6</ele>
        <time>2016-08-27T08:34:13.000Z</time>
      </trkpt>
      <trkpt lat="49.56266" lon="3.30773">
        <ele>204.7</ele>
        <time>2016-08-27T08:34:20.000Z</time>
      </trkpt>
      <trkpt lat="49.56267" lon="3.30772">
        <ele>204.6</ele>
        <time>2016-08-27T08:34:21.000Z</time>
      </trkpt>
      <trkpt lat="49.56273" lon="3.30763">
        <ele>206.4</ele>
        <time>2016-08-27T08:34:25.000Z</time>
      </trkpt>
      <trkpt lat="49.56275" lon="3.30762">
        <ele>206.8</ele>
        <time>2016-08-27T08:34:26.000Z</time>
      </trkpt>
      <trkpt lat="49.56282" lon="3.30756">
        <ele>208</ele>
        <time>2016-08-27T08:34:32.000Z</time>
      </trkpt>
      <trkpt lat="49.56283" lon="3.30755">
        <ele>208.1</ele>
        <time>2016-08-27T08:34:33.000Z</time>
      </trkpt>
      <trkpt lat="49.56289" lon="3.30749">
        <ele>207.1</ele>
        <time>2016-08-27T08:34:37.000Z</time>
      </trkpt>
      <trkpt lat="49.56291" lon="3.30747">
        <ele>206.7</ele>
        <time>2016-08-27T08:34:38.000Z</time>
      </trkpt>
      <trkpt lat="49.56297" lon="3.30741">
        <ele>206.3</ele>
        <time>2016-08-27T08:34:43.000Z</time>
      </trkpt>
      <trkpt lat="49.56298" lon="3.3074">
        <ele>206</ele>
        <time>2016-08-27T08:34:44.000Z</time>
      </trkpt>
      <trkpt lat="49.56305" lon="3.30738">
        <ele>205.4</ele>
        <time>2016-08-27T08:34:50.000Z</time>
      </trkpt>
      <trkpt lat="49.56306" lon="3.30738">
        <ele>205.4</ele>
        <time>2016-08-27T08:34:51.000Z</time>
      </trkpt>
      <trkpt lat="49.56306" lon="3.30738">
        <ele>205.3</ele>
        <time>2016-08-27T08:34:52.000Z</time>
      </trkpt>
      <trkpt lat="49.56308" lon="3.30739">
        <ele>205.6</ele>
        <time>2016-08-27T08:34:53.000Z</time>
      </trkpt>
      <trkpt lat="49.56314" lon="3.30748">
        <ele>206</ele>
        <time>2016-08-27T08:34:59.000Z</time>
      </trkpt>
      <trkpt lat="49.56315" lon="3.30749">
        <ele>206.2</ele>
        <time>2016-08-27T08:35:00.000Z</time>
      </trkpt>
      <trkpt lat="49.56319" lon="3.30759">
        <ele>206.2</ele>
        <time>2016-08-27T08:35:07.000Z</time>
      </trkpt>
      <trkpt lat="49.5632" lon="3.30761">
        <ele>206</ele>
        <time>2016-08-27T08:35:08.000Z</time>
      </trkpt>
      <trkpt lat="49.56324" lon="3.30772">
        <ele>206.3</ele>
        <time>2016-08-27T08:35:14.000Z</time>
      </trkpt>
      <trkpt lat="49.56326" lon="3.30774">
        <ele>206.5</ele>
        <time>2016-08-27T08:35:15.000Z</time>
      </trkpt>
      <trkpt lat="49.5633" lon="3.30785">
        <ele>207.7</ele>
        <time>2016-08-27T08:35:20.000Z</time>
      </trkpt>
      <trkpt lat="49.5633" lon="3.30787">
        <ele>208.1</ele>
        <time>2016-08-27T08:35:21.000Z</time>
      </trkpt>
      <trkpt lat="49.56333" lon="3.30797">
        <ele>209.3</ele>
        <time>2016-08-27T08:35:25.000Z</time>
      </trkpt>
      <trkpt lat="49.56333" lon="3.308">
        <ele>209</ele>
        <time>2016-08-27T08:35:26.000Z</time>
      </trkpt>
      <trkpt lat="49.56337" lon="3.3081">
        <ele>208.9</ele>
        <time>2016-08-27T08:35:28.000Z</time>
      </trkpt>
      <trkpt lat="49.56339" lon="3.30816">
        <ele>206.7</ele>
        <time>2016-08-27T08:35:29.000Z</time>
      </trkpt>
      <trkpt lat="49.56342" lon="3.30827">
        <ele>204.7</ele>
        <time>2016-08-27T08:35:31.000Z</time>
      </trkpt>
      <trkpt lat="49.56344" lon="3.30834">
        <ele>203.6</ele>
        <time>2016-08-27T08:35:32.000Z</time>
      </trkpt>
      <trkpt lat="49.56347" lon="3.30845">
        <ele>203</ele>
        <time>2016-08-27T08:35:34.000Z</time>
      </trkpt>
      <trkpt lat="49.56349" lon="3.30851">
        <ele>202.8</ele>
        <time>2016-08-27T08:35:35.000Z</time>
      </trkpt>
      <trkpt lat="49.56353" lon="3.30861">
        <ele>203.5</ele>
        <time>2016-08-27T08:35:37.000Z</time>
      </trkpt>
      <trkpt lat="49.56355" lon="3.30865">
        <ele>203.8</ele>
        <time>2016-08-27T08:35:38.000Z</time>
      </trkpt>
      <trkpt lat="49.56358" lon="3.30874">
        <ele>204.3</ele>
        <time>2016-08-27T08:35:40.000Z</time>
      </trkpt>
      <trkpt lat="49.5636" lon="3.30879">
        <ele>204.4</ele>
        <time>2016-08-27T08:35:41.000Z</time>
      </trkpt>
      <trkpt lat="49.56364" lon="3.30889">
        <ele>204.4</ele>
        <time>2016-08-27T08:35:43.000Z</time>
      </trkpt>
      <trkpt lat="49.56366" lon="3.30893">
        <ele>204.5</ele>
        <time>2016-08-27T08:35:44.000Z</time>
      </trkpt>
      <trkpt lat="49.5637" lon="3.30903">
        <ele>204.2</ele>
        <time>2016-08-27T08:35:46.000Z</time>
      </trkpt>
      <trkpt lat="49.56372" lon="3.30908">
        <ele>204.4</ele>
        <time>2016-08-27T08:35:47.000Z</time>
      </trkpt>
      <trkpt lat="49.56375" lon="3.3092">
        <ele>204.6</ele>
        <time>2016-08-27T08:35:49.000Z</time>
      </trkpt>
      <trkpt lat="49.56379" lon="3.30929">
        <ele>204.8</ele>
        <time>2016-08-27T08:35:50.000Z</time>
      </trkpt>
      <trkpt lat="49.56383" lon="3.30936">
        <ele>205.1</ele>
        <time>2016-08-27T08:35:51.000Z</time>
      </trkpt>
      <trkpt lat="49.56386" lon="3.30942">
        <ele>205.1</ele>
        <time>2016-08-27T08:35:52.000Z</time>
      </trkpt>
      <trkpt lat="49.5639" lon="3.30948">
        <ele>205.2</ele>
        <time>2016-08-27T08:35:53.000Z</time>
      </trkpt>
      <trkpt lat="49.56393" lon="3.30954">
        <ele>205.5</ele>
        <time>2016-08-27T08:35:54.000Z</time>
      </trkpt>
      <trkpt lat="49.56395" lon="3.3096">
        <ele>206</ele>
        <time>2016-08-27T08:35:55.000Z</time>
      </trkpt>
      <trkpt lat="49.56397" lon="3.30967">
        <ele>206.5</ele>
        <time>2016-08-27T08:35:56.000Z</time>
      </trkpt>
      <trkpt lat="49.56399" lon="3.30973">
        <ele>207</ele>
        <time>2016-08-27T08:35:57.000Z</time>
      </trkpt>
      <trkpt lat="49.56401" lon="3.30979">
        <ele>207.8</ele>
        <time>2016-08-27T08:35:58.000Z</time>
      </trkpt>
      <trkpt lat="49.56405" lon="3.30991">
        <ele>208.7</ele>
        <time>2016-08-27T08:36:00.000Z</time>
      </trkpt>
      <trkpt lat="49.56407" lon="3.30998">
        <ele>209</ele>
        <time>2016-08-27T08:36:01.000Z</time>
      </trkpt>
      <trkpt lat="49.56409" lon="3.31003">
        <ele>209.3</ele>
        <time>2016-08-27T08:36:02.000Z</time>
      </trkpt>
      <trkpt lat="49.56412" lon="3.3101">
        <ele>209.6</ele>
        <time>2016-08-27T08:36:03.000Z</time>
      </trkpt>
      <trkpt lat="49.56415" lon="3.31017">
        <ele>209.9</ele>
        <time>2016-08-27T08:36:04.000Z</time>
      </trkpt>
      <trkpt lat="49.56418" lon="3.31025">
        <ele>210</ele>
        <time>2016-08-27T08:36:05.000Z</time>
      </trkpt>
      <trkpt lat="49.56421" lon="3.31032">
        <ele>210.2</ele>
        <time>2016-08-27T08:36:06.000Z</time>
      </trkpt>
      <trkpt lat="49.56425" lon="3.31039">
        <ele>210.3</ele>
        <time>2016-08-27T08:36:07.000Z</time>
      </trkpt>
      <trkpt lat="49.56428" lon="3.31044">
        <ele>210.5</ele>
        <time>2016-08-27T08:36:08.000Z</time>
      </trkpt>
      <trkpt lat="49.56431" lon="3.31051">
        <ele>210.7</ele>
        <time>2016-08-27T08:36:09.000Z</time>
      </trkpt>
      <trkpt lat="49.56434" lon="3.31059">
        <ele>210.6</ele>
        <time>2016-08-27T08:36:10.000Z</time>
      </trkpt>
      <trkpt lat="49.56437" lon="3.31066">
        <ele>210.2</ele>
        <time>2016-08-27T08:36:11.000Z</time>
      </trkpt>
      <trkpt lat="49.5644" lon="3.31072">
        <ele>210.2</ele>
        <time>2016-08-27T08:36:12.000Z</time>
      </trkpt>
      <trkpt lat="49.56442" lon="3.31079">
        <ele>210.3</ele>
        <time>2016-08-27T08:36:13.000Z</time>
      </trkpt>
      <trkpt lat="49.56446" lon="3.31091">
        <ele>210.5</ele>
        <time>2016-08-27T08:36:15.000Z</time>
      </trkpt>
      <trkpt lat="49.56448" lon="3.31099">
        <ele>210.6</ele>
        <time>2016-08-27T08:36:16.000Z</time>
      </trkpt>
      <trkpt lat="49.56449" lon="3.31107">
        <ele>210.7</ele>
        <time>2016-08-27T08:36:17.000Z</time>
      </trkpt>
      <trkpt lat="49.56452" lon="3.31114">
        <ele>210.8</ele>
        <time>2016-08-27T08:36:18.000Z</time>
      </trkpt>
      <trkpt lat="49.56455" lon="3.31124">
        <ele>210.8</ele>
        <time>2016-08-27T08:36:20.000Z</time>
      </trkpt>
      <trkpt lat="49.56457" lon="3.31128">
        <ele>210.9</ele>
        <time>2016-08-27T08:36:21.000Z</time>
      </trkpt>
      <trkpt lat="49.5646" lon="3.31137">
        <ele>211.1</ele>
        <time>2016-08-27T08:36:23.000Z</time>
      </trkpt>
      <trkpt lat="49.56461" lon="3.31142">
        <ele>211.1</ele>
        <time>2016-08-27T08:36:24.000Z</time>
      </trkpt>
      <trkpt lat="49.56464" lon="3.3115">
        <ele>211.3</ele>
        <time>2016-08-27T08:36:26.000Z</time>
      </trkpt>
      <trkpt lat="49.56466" lon="3.31154">
        <ele>211.4</ele>
        <time>2016-08-27T08:36:27.000Z</time>
      </trkpt>
      <trkpt lat="49.56471" lon="3.31163">
        <ele>211.4</ele>
        <time>2016-08-27T08:36:29.000Z</time>
      </trkpt>
      <trkpt lat="49.56473" lon="3.31167">
        <ele>211.4</ele>
        <time>2016-08-27T08:36:30.000Z</time>
      </trkpt>
      <trkpt lat="49.56479" lon="3.31177">
        <ele>211.3</ele>
        <time>2016-08-27T08:36:33.000Z</time>
      </trkpt>
      <trkpt lat="49.56481" lon="3.3118">
        <ele>211.3</ele>
        <time>2016-08-27T08:36:34.000Z</time>
      </trkpt>
      <trkpt lat="49.56487" lon="3.31188">
        <ele>211.8</ele>
        <time>2016-08-27T08:36:37.000Z</time>
      </trkpt>
      <trkpt lat="49.5649" lon="3.31192">
        <ele>211.7</ele>
        <time>2016-08-27T08:36:38.000Z</time>
      </trkpt>
      <trkpt lat="49.56495" lon="3.31199">
        <ele>211.8</ele>
        <time>2016-08-27T08:36:40.000Z</time>
      </trkpt>
      <trkpt lat="49.56497" lon="3.31202">
        <ele>211.9</ele>
        <time>2016-08-27T08:36:41.000Z</time>
      </trkpt>
      <trkpt lat="49.56502" lon="3.31209">
        <ele>211.9</ele>
        <time>2016-08-27T08:36:43.000Z</time>
      </trkpt>
      <trkpt lat="49.56505" lon="3.31212">
        <ele>212</ele>
        <time>2016-08-27T08:36:44.000Z</time>
      </trkpt>
      <trkpt lat="49.5651" lon="3.31222">
        <ele>212.6</ele>
        <time>2016-08-27T08:36:47.000Z</time>
      </trkpt>
      <trkpt lat="49.56511" lon="3.31226">
        <ele>212.8</ele>
        <time>2016-08-27T08:36:48.000Z</time>
      </trkpt>
      <trkpt lat="49.56514" lon="3.31233">
        <ele>213</ele>
        <time>2016-08-27T08:36:50.000Z</time>
      </trkpt>
      <trkpt lat="49.56516" lon="3.31238">
        <ele>213</ele>
        <time>2016-08-27T08:36:51.000Z</time>
      </trkpt>
      <trkpt lat="49.5652" lon="3.31249">
        <ele>213.4</ele>
        <time>2016-08-27T08:36:54.000Z</time>
      </trkpt>
      <trkpt lat="49.56521" lon="3.31253">
        <ele>213.4</ele>
        <time>2016-08-27T08:36:55.000Z</time>
      </trkpt>
      <trkpt lat="49.56523" lon="3.31262">
        <ele>213.8</ele>
        <time>2016-08-27T08:36:57.000Z</time>
      </trkpt>
      <trkpt lat="49.56524" lon="3.31266">
        <ele>213.9</ele>
        <time>2016-08-27T08:36:58.000Z</time>
      </trkpt>
      <trkpt lat="49.56527" lon="3.31279">
        <ele>214.4</ele>
        <time>2016-08-27T08:37:01.000Z</time>
      </trkpt>
      <trkpt lat="49.56528" lon="3.31282">
        <ele>214.6</ele>
        <time>2016-08-27T08:37:02.000Z</time>
      </trkpt>
      <trkpt lat="49.5653" lon="3.31292">
        <ele>215.1</ele>
        <time>2016-08-27T08:37:04.000Z</time>
      </trkpt>
      <trkpt lat="49.5653" lon="3.31296">
        <ele>215.3</ele>
        <time>2016-08-27T08:37:05.000Z</time>
      </trkpt>
      <trkpt lat="49.56531" lon="3.31308">
        <ele>216.8</ele>
        <time>2016-08-27T08:37:09.000Z</time>
      </trkpt>
      <trkpt lat="49.56531" lon="3.31311">
        <ele>217.2</ele>
        <time>2016-08-27T08:37:10.000Z</time>
      </trkpt>
      <trkpt lat="49.56531" lon="3.31321">
        <ele>218.7</ele>
        <time>2016-08-27T08:37:20.000Z</time>
      </trkpt>
      <trkpt lat="49.56537" lon="3.31324">
        <ele>218.4</ele>
        <time>2016-08-27T08:37:21.000Z</time>
      </trkpt>
      <trkpt lat="49.56538" lon="3.31325">
        <ele>218.9</ele>
        <time>2016-08-27T08:37:22.000Z</time>
      </trkpt>
      <trkpt lat="49.56539" lon="3.31325">
        <ele>219.2</ele>
        <time>2016-08-27T08:37:23.000Z</time>
      </trkpt>
      <trkpt lat="49.5654" lon="3.31326">
        <ele>219.3</ele>
        <time>2016-08-27T08:37:25.000Z</time>
      </trkpt>
      <trkpt lat="49.56542" lon="3.31326">
        <ele>219.3</ele>
        <time>2016-08-27T08:37:26.000Z</time>
      </trkpt>
      <trkpt lat="49.56544" lon="3.31328">
        <ele>219.3</ele>
        <time>2016-08-27T08:37:38.000Z</time>
      </trkpt>
      <trkpt lat="49.56559" lon="3.31329">
        <ele>219.6</ele>
        <time>2016-08-27T08:37:39.000Z</time>
      </trkpt>
      <trkpt lat="49.56566" lon="3.31329">
        <ele>219.4</ele>
        <time>2016-08-27T08:37:43.000Z</time>
      </trkpt>
      <trkpt lat="49.56568" lon="3.31329">
        <ele>219.1</ele>
        <time>2016-08-27T08:37:44.000Z</time>
      </trkpt>
      <trkpt lat="49.56575" lon="3.31328">
        <ele>217.7</ele>
        <time>2016-08-27T08:37:51.000Z</time>
      </trkpt>
      <trkpt lat="49.56578" lon="3.31328">
        <ele>217.6</ele>
        <time>2016-08-27T08:37:52.000Z</time>
      </trkpt>
      <trkpt lat="49.56586" lon="3.31332">
        <ele>217.7</ele>
        <time>2016-08-27T08:37:55.000Z</time>
      </trkpt>
      <trkpt lat="49.56588" lon="3.31332">
        <ele>218</ele>
        <time>2016-08-27T08:37:56.000Z</time>
      </trkpt>
      <trkpt lat="49.56596" lon="3.31332">
        <ele>218</ele>
        <time>2016-08-27T08:38:01.000Z</time>
      </trkpt>
      <trkpt lat="49.56598" lon="3.31332">
        <ele>217.9</ele>
        <time>2016-08-27T08:38:02.000Z</time>
      </trkpt>
      <trkpt lat="49.56605" lon="3.31334">
        <ele>217.7</ele>
        <time>2016-08-27T08:38:06.000Z</time>
      </trkpt>
      <trkpt lat="49.56607" lon="3.31335">
        <ele>218</ele>
        <time>2016-08-27T08:38:07.000Z</time>
      </trkpt>
      <trkpt lat="49.56615" lon="3.31339">
        <ele>218.1</ele>
        <time>2016-08-27T08:38:12.000Z</time>
      </trkpt>
      <trkpt lat="49.56616" lon="3.31339">
        <ele>218.1</ele>
        <time>2016-08-27T08:38:13.000Z</time>
      </trkpt>
      <trkpt lat="49.56623" lon="3.31342">
        <ele>218.4</ele>
        <time>2016-08-27T08:38:18.000Z</time>
      </trkpt>
      <trkpt lat="49.56624" lon="3.31343">
        <ele>218.4</ele>
        <time>2016-08-27T08:38:19.000Z</time>
      </trkpt>
      <trkpt lat="49.56625" lon="3.31345">
        <ele>218.5</ele>
        <time>2016-08-27T08:38:20.000Z</time>
      </trkpt>
      <trkpt lat="49.56632" lon="3.31351">
        <ele>218.9</ele>
        <time>2016-08-27T08:38:27.000Z</time>
      </trkpt>
      <trkpt lat="49.56633" lon="3.31352">
        <ele>219.2</ele>
        <time>2016-08-27T08:38:28.000Z</time>
      </trkpt>
      <trkpt lat="49.56641" lon="3.31356">
        <ele>219.8</ele>
        <time>2016-08-27T08:38:32.000Z</time>
      </trkpt>
      <trkpt lat="49.56643" lon="3.31357">
        <ele>220</ele>
        <time>2016-08-27T08:38:33.000Z</time>
      </trkpt>
      <trkpt lat="49.56647" lon="3.31358">
        <ele>219.6</ele>
        <time>2016-08-27T08:38:35.000Z</time>
      </trkpt>
      <trkpt lat="49.56648" lon="3.31358">
        <ele>219.5</ele>
        <time>2016-08-27T08:38:36.000Z</time>
      </trkpt>
      <trkpt lat="49.5665" lon="3.31358">
        <ele>219.4</ele>
        <time>2016-08-27T08:38:37.000Z</time>
      </trkpt>
      <trkpt lat="49.56651" lon="3.31359">
        <ele>219.4</ele>
        <time>2016-08-27T08:38:38.000Z</time>
      </trkpt>
      <trkpt lat="49.56653" lon="3.3136">
        <ele>219.3</ele>
        <time>2016-08-27T08:38:39.000Z</time>
      </trkpt>
      <trkpt lat="49.56654" lon="3.31362">
        <ele>219</ele>
        <time>2016-08-27T08:38:40.000Z</time>
      </trkpt>
      <trkpt lat="49.56656" lon="3.31373">
        <ele>218</ele>
        <time>2016-08-27T08:38:45.000Z</time>
      </trkpt>
      <trkpt lat="49.56656" lon="3.31375">
        <ele>217.8</ele>
        <time>2016-08-27T08:38:46.000Z</time>
      </trkpt>
      <trkpt lat="49.56655" lon="3.31388">
        <ele>216.9</ele>
        <time>2016-08-27T08:38:52.000Z</time>
      </trkpt>
      <trkpt lat="49.56655" lon="3.3139">
        <ele>217.1</ele>
        <time>2016-08-27T08:38:53.000Z</time>
      </trkpt>
      <trkpt lat="49.56653" lon="3.31402">
        <ele>216.1</ele>
        <time>2016-08-27T08:39:00.000Z</time>
      </trkpt>
      <trkpt lat="49.56652" lon="3.31403">
        <ele>215.8</ele>
        <time>2016-08-27T08:39:01.000Z</time>
      </trkpt>
      <trkpt lat="49.56648" lon="3.31414">
        <ele>215.1</ele>
        <time>2016-08-27T08:39:06.000Z</time>
      </trkpt>
      <trkpt lat="49.56648" lon="3.31416">
        <ele>215.1</ele>
        <time>2016-08-27T08:39:07.000Z</time>
      </trkpt>
      <trkpt lat="49.56645" lon="3.31428">
        <ele>213.1</ele>
        <time>2016-08-27T08:39:14.000Z</time>
      </trkpt>
      <trkpt lat="49.56645" lon="3.31429">
        <ele>212.3</ele>
        <time>2016-08-27T08:39:15.000Z</time>
      </trkpt>
      <trkpt lat="49.56643" lon="3.31442">
        <ele>209.4</ele>
        <time>2016-08-27T08:39:21.000Z</time>
      </trkpt>
      <trkpt lat="49.56642" lon="3.31444">
        <ele>209.5</ele>
        <time>2016-08-27T08:39:22.000Z</time>
      </trkpt>
      <trkpt lat="49.56639" lon="3.31456">
        <ele>210.2</ele>
        <time>2016-08-27T08:39:28.000Z</time>
      </trkpt>
      <trkpt lat="49.56638" lon="3.31459">
        <ele>210.7</ele>
        <time>2016-08-27T08:39:29.000Z</time>
      </trkpt>
      <trkpt lat="49.56635" lon="3.3147">
        <ele>212.2</ele>
        <time>2016-08-27T08:39:35.000Z</time>
      </trkpt>
      <trkpt lat="49.56634" lon="3.31472">
        <ele>212.5</ele>
        <time>2016-08-27T08:39:36.000Z</time>
      </trkpt>
      <trkpt lat="49.5663" lon="3.31482">
        <ele>213.9</ele>
        <time>2016-08-27T08:39:43.000Z</time>
      </trkpt>
      <trkpt lat="49.56629" lon="3.31484">
        <ele>214.1</ele>
        <time>2016-08-27T08:39:44.000Z</time>
      </trkpt>
      <trkpt lat="49.56626" lon="3.31497">
        <ele>215</ele>
        <time>2016-08-27T08:39:52.000Z</time>
      </trkpt>
      <trkpt lat="49.56625" lon="3.31499">
        <ele>215.4</ele>
        <time>2016-08-27T08:39:53.000Z</time>
      </trkpt>
      <trkpt lat="49.56621" lon="3.31511">
        <ele>216.2</ele>
        <time>2016-08-27T08:39:59.000Z</time>
      </trkpt>
      <trkpt lat="49.56621" lon="3.31513">
        <ele>216.4</ele>
        <time>2016-08-27T08:40:00.000Z</time>
      </trkpt>
      <trkpt lat="49.56618" lon="3.31525">
        <ele>217</ele>
        <time>2016-08-27T08:40:05.000Z</time>
      </trkpt>
      <trkpt lat="49.56617" lon="3.31527">
        <ele>217.1</ele>
        <time>2016-08-27T08:40:06.000Z</time>
      </trkpt>
      <trkpt lat="49.56613" lon="3.31539">
        <ele>217.4</ele>
        <time>2016-08-27T08:40:12.000Z</time>
      </trkpt>
      <trkpt lat="49.56612" lon="3.31541">
        <ele>217.4</ele>
        <time>2016-08-27T08:40:13.000Z</time>
      </trkpt>
      <trkpt lat="49.56612" lon="3.31553">
        <ele>217.1</ele>
        <time>2016-08-27T08:40:22.000Z</time>
      </trkpt>
      <trkpt lat="49.56612" lon="3.31555">
        <ele>217.4</ele>
        <time>2016-08-27T08:40:23.000Z</time>
      </trkpt>
      <trkpt lat="49.56609" lon="3.31566">
        <ele>219.1</ele>
        <time>2016-08-27T08:40:28.000Z</time>
      </trkpt>
      <trkpt lat="49.56608" lon="3.31568">
        <ele>219.2</ele>
        <time>2016-08-27T08:40:29.000Z</time>
      </trkpt>
      <trkpt lat="49.56606" lon="3.31579">
        <ele>220.6</ele>
        <time>2016-08-27T08:40:33.000Z</time>
      </trkpt>
      <trkpt lat="49.56605" lon="3.31582">
        <ele>220.6</ele>
        <time>2016-08-27T08:40:34.000Z</time>
      </trkpt>
      <trkpt lat="49.56604" lon="3.31594">
        <ele>221.5</ele>
        <time>2016-08-27T08:40:39.000Z</time>
      </trkpt>
      <trkpt lat="49.56604" lon="3.31596">
        <ele>221.3</ele>
        <time>2016-08-27T08:40:40.000Z</time>
      </trkpt>
      <trkpt lat="49.56605" lon="3.31609">
        <ele>221.5</ele>
        <time>2016-08-27T08:40:46.000Z</time>
      </trkpt>
      <trkpt lat="49.56605" lon="3.31611">
        <ele>221.6</ele>
        <time>2016-08-27T08:40:47.000Z</time>
      </trkpt>
      <trkpt lat="49.56604" lon="3.31624">
        <ele>221.6</ele>
        <time>2016-08-27T08:40:52.000Z</time>
      </trkpt>
      <trkpt lat="49.56604" lon="3.31627">
        <ele>221.7</ele>
        <time>2016-08-27T08:40:53.000Z</time>
      </trkpt>
      <trkpt lat="49.56605" lon="3.3164">
        <ele>222</ele>
        <time>2016-08-27T08:40:59.000Z</time>
      </trkpt>
      <trkpt lat="49.56605" lon="3.31643">
        <ele>222.4</ele>
        <time>2016-08-27T08:41:00.000Z</time>
      </trkpt>
      <trkpt lat="49.56604" lon="3.31654">
        <ele>224</ele>
        <time>2016-08-27T08:41:05.000Z</time>
      </trkpt>
      <trkpt lat="49.56604" lon="3.31656">
        <ele>224</ele>
        <time>2016-08-27T08:41:06.000Z</time>
      </trkpt>
      <trkpt lat="49.56603" lon="3.31669">
        <ele>224.7</ele>
        <time>2016-08-27T08:41:13.000Z</time>
      </trkpt>
      <trkpt lat="49.56603" lon="3.31671">
        <ele>224.8</ele>
        <time>2016-08-27T08:41:14.000Z</time>
      </trkpt>
      <trkpt lat="49.56602" lon="3.3168">
        <ele>225</ele>
        <time>2016-08-27T08:41:19.000Z</time>
      </trkpt>
      <trkpt lat="49.56602" lon="3.3168">
        <ele>225.2</ele>
        <time>2016-08-27T08:41:20.000Z</time>
      </trkpt>
      <trkpt lat="49.56603" lon="3.31683">
        <ele>225.5</ele>
        <time>2016-08-27T08:41:22.000Z</time>
      </trkpt>
      <trkpt lat="49.56603" lon="3.31684">
        <ele>225.7</ele>
        <time>2016-08-27T08:41:23.000Z</time>
      </trkpt>
      <trkpt lat="49.56601" lon="3.31697">
        <ele>226.2</ele>
        <time>2016-08-27T08:41:30.000Z</time>
      </trkpt>
      <trkpt lat="49.56601" lon="3.31699">
        <ele>226.3</ele>
        <time>2016-08-27T08:41:31.000Z</time>
      </trkpt>
      <trkpt lat="49.566" lon="3.31711">
        <ele>226.4</ele>
        <time>2016-08-27T08:41:36.000Z</time>
      </trkpt>
      <trkpt lat="49.566" lon="3.31714">
        <ele>226.4</ele>
        <time>2016-08-27T08:41:37.000Z</time>
      </trkpt>
      <trkpt lat="49.56601" lon="3.31725">
        <ele>224.9</ele>
        <time>2016-08-27T08:41:42.000Z</time>
      </trkpt>
      <trkpt lat="49.56601" lon="3.31728">
        <ele>223.8</ele>
        <time>2016-08-27T08:41:43.000Z</time>
      </trkpt>
      <trkpt lat="49.56606" lon="3.31737">
        <ele>216.8</ele>
        <time>2016-08-27T08:42:11.000Z</time>
      </trkpt>
      <trkpt lat="49.56606" lon="3.31741">
        <ele>214.9</ele>
        <time>2016-08-27T08:42:12.000Z</time>
      </trkpt>
      <trkpt lat="49.56605" lon="3.31752">
        <ele>211.2</ele>
        <time>2016-08-27T08:42:16.000Z</time>
      </trkpt>
      <trkpt lat="49.56604" lon="3.31755">
        <ele>210.6</ele>
        <time>2016-08-27T08:42:17.000Z</time>
      </trkpt>
      <trkpt lat="49.56602" lon="3.31765">
        <ele>208.1</ele>
        <time>2016-08-27T08:42:22.000Z</time>
      </trkpt>
      <trkpt lat="49.56601" lon="3.31767">
        <ele>207.9</ele>
        <time>2016-08-27T08:42:23.000Z</time>
      </trkpt>
      <trkpt lat="49.56598" lon="3.31779">
        <ele>207.3</ele>
        <time>2016-08-27T08:42:28.000Z</time>
      </trkpt>
      <trkpt lat="49.56597" lon="3.31781">
        <ele>207.3</ele>
        <time>2016-08-27T08:42:29.000Z</time>
      </trkpt>
      <trkpt lat="49.56592" lon="3.31792">
        <ele>207.1</ele>
        <time>2016-08-27T08:42:36.000Z</time>
      </trkpt>
      <trkpt lat="49.56592" lon="3.31793">
        <ele>207</ele>
        <time>2016-08-27T08:42:37.000Z</time>
      </trkpt>
      <trkpt lat="49.56586" lon="3.31803">
        <ele>207</ele>
        <time>2016-08-27T08:42:44.000Z</time>
      </trkpt>
      <trkpt lat="49.56585" lon="3.31804">
        <ele>207</ele>
        <time>2016-08-27T08:42:45.000Z</time>
      </trkpt>
      <trkpt lat="49.56579" lon="3.31812">
        <ele>207</ele>
        <time>2016-08-27T08:42:51.000Z</time>
      </trkpt>
      <trkpt lat="49.56578" lon="3.31813">
        <ele>207</ele>
        <time>2016-08-27T08:42:52.000Z</time>
      </trkpt>
      <trkpt lat="49.56571" lon="3.31821">
        <ele>207.4</ele>
        <time>2016-08-27T08:42:58.000Z</time>
      </trkpt>
      <trkpt lat="49.5657" lon="3.31822">
        <ele>207.4</ele>
        <time>2016-08-27T08:42:59.000Z</time>
      </trkpt>
      <trkpt lat="49.56562" lon="3.31829">
        <ele>207.1</ele>
        <time>2016-08-27T08:43:05.000Z</time>
      </trkpt>
      <trkpt lat="49.56561" lon="3.3183">
        <ele>207</ele>
        <time>2016-08-27T08:43:06.000Z</time>
      </trkpt>
      <trkpt lat="49.56554" lon="3.31837">
        <ele>207.1</ele>
        <time>2016-08-27T08:43:12.000Z</time>
      </trkpt>
      <trkpt lat="49.56552" lon="3.31838">
        <ele>207.2</ele>
        <time>2016-08-27T08:43:13.000Z</time>
      </trkpt>
      <trkpt lat="49.56545" lon="3.31845">
        <ele>207.6</ele>
        <time>2016-08-27T08:43:18.000Z</time>
      </trkpt>
      <trkpt lat="49.56544" lon="3.31847">
        <ele>207.7</ele>
        <time>2016-08-27T08:43:19.000Z</time>
      </trkpt>
      <trkpt lat="49.56537" lon="3.31853">
        <ele>208.3</ele>
        <time>2016-08-27T08:43:24.000Z</time>
      </trkpt>
      <trkpt lat="49.56536" lon="3.31854">
        <ele>208.4</ele>
        <time>2016-08-27T08:43:25.000Z</time>
      </trkpt>
      <trkpt lat="49.56528" lon="3.31862">
        <ele>208.4</ele>
        <time>2016-08-27T08:43:31.000Z</time>
      </trkpt>
      <trkpt lat="49.56527" lon="3.31863">
        <ele>208.5</ele>
        <time>2016-08-27T08:43:32.000Z</time>
      </trkpt>
      <trkpt lat="49.56519" lon="3.31869">
        <ele>208.7</ele>
        <time>2016-08-27T08:43:38.000Z</time>
      </trkpt>
      <trkpt lat="49.56518" lon="3.3187">
        <ele>208.7</ele>
        <time>2016-08-27T08:43:39.000Z</time>
      </trkpt>
      <trkpt lat="49.56511" lon="3.31877">
        <ele>208.8</ele>
        <time>2016-08-27T08:43:45.000Z</time>
      </trkpt>
      <trkpt lat="49.5651" lon="3.31878">
        <ele>208.8</ele>
        <time>2016-08-27T08:43:46.000Z</time>
      </trkpt>
      <trkpt lat="49.56502" lon="3.31886">
        <ele>209</ele>
        <time>2016-08-27T08:43:52.000Z</time>
      </trkpt>
      <trkpt lat="49.56501" lon="3.31887">
        <ele>209</ele>
        <time>2016-08-27T08:43:53.000Z</time>
      </trkpt>
      <trkpt lat="49.56494" lon="3.31894">
        <ele>209.1</ele>
        <time>2016-08-27T08:43:59.000Z</time>
      </trkpt>
      <trkpt lat="49.56493" lon="3.31896">
        <ele>209.1</ele>
        <time>2016-08-27T08:44:00.000Z</time>
      </trkpt>
      <trkpt lat="49.56487" lon="3.31902">
        <ele>209.2</ele>
        <time>2016-08-27T08:44:05.000Z</time>
      </trkpt>
      <trkpt lat="49.56486" lon="3.31903">
        <ele>209.2</ele>
        <time>2016-08-27T08:44:06.000Z</time>
      </trkpt>
      <trkpt lat="49.56478" lon="3.31911">
        <ele>209.4</ele>
        <time>2016-08-27T08:44:12.000Z</time>
      </trkpt>
      <trkpt lat="49.56477" lon="3.31912">
        <ele>209.4</ele>
        <time>2016-08-27T08:44:13.000Z</time>
      </trkpt>
      <trkpt lat="49.56471" lon="3.31919">
        <ele>209.3</ele>
        <time>2016-08-27T08:44:18.000Z</time>
      </trkpt>
      <trkpt lat="49.5647" lon="3.3192">
        <ele>209.3</ele>
        <time>2016-08-27T08:44:19.000Z</time>
      </trkpt>
      <trkpt lat="49.56463" lon="3.31926">
        <ele>209.3</ele>
        <time>2016-08-27T08:44:24.000Z</time>
      </trkpt>
      <trkpt lat="49.56462" lon="3.31928">
        <ele>209.3</ele>
        <time>2016-08-27T08:44:25.000Z</time>
      </trkpt>
      <trkpt lat="49.56455" lon="3.31935">
        <ele>209.2</ele>
        <time>2016-08-27T08:44:30.000Z</time>
      </trkpt>
      <trkpt lat="49.56454" lon="3.31936">
        <ele>209.2</ele>
        <time>2016-08-27T08:44:31.000Z</time>
      </trkpt>
      <trkpt lat="49.56447" lon="3.31943">
        <ele>209.1</ele>
        <time>2016-08-27T08:44:36.000Z</time>
      </trkpt>
      <trkpt lat="49.56446" lon="3.31945">
        <ele>209</ele>
        <time>2016-08-27T08:44:37.000Z</time>
      </trkpt>
      <trkpt lat="49.56439" lon="3.31951">
        <ele>208.7</ele>
        <time>2016-08-27T08:44:42.000Z</time>
      </trkpt>
      <trkpt lat="49.56438" lon="3.31952">
        <ele>208.8</ele>
        <time>2016-08-27T08:44:43.000Z</time>
      </trkpt>
      <trkpt lat="49.56431" lon="3.3196">
        <ele>208.7</ele>
        <time>2016-08-27T08:44:49.000Z</time>
      </trkpt>
      <trkpt lat="49.56429" lon="3.31961">
        <ele>208.6</ele>
        <time>2016-08-27T08:44:50.000Z</time>
      </trkpt>
      <trkpt lat="49.56422" lon="3.31969">
        <ele>208.4</ele>
        <time>2016-08-27T08:44:56.000Z</time>
      </trkpt>
      <trkpt lat="49.56421" lon="3.3197">
        <ele>208.4</ele>
        <time>2016-08-27T08:44:57.000Z</time>
      </trkpt>
      <trkpt lat="49.56414" lon="3.31977">
        <ele>208.1</ele>
        <time>2016-08-27T08:45:03.000Z</time>
      </trkpt>
      <trkpt lat="49.56413" lon="3.31978">
        <ele>208.1</ele>
        <time>2016-08-27T08:45:04.000Z</time>
      </trkpt>
      <trkpt lat="49.56406" lon="3.31985">
        <ele>207.6</ele>
        <time>2016-08-27T08:45:10.000Z</time>
      </trkpt>
      <trkpt lat="49.56405" lon="3.31987">
        <ele>207.6</ele>
        <time>2016-08-27T08:45:11.000Z</time>
      </trkpt>
      <trkpt lat="49.56398" lon="3.31995">
        <ele>207.1</ele>
        <time>2016-08-27T08:45:17.000Z</time>
      </trkpt>
      <trkpt lat="49.56397" lon="3.31996">
        <ele>207.1</ele>
        <time>2016-08-27T08:45:18.000Z</time>
      </trkpt>
      <trkpt lat="49.56395" lon="3.31999">
        <ele>207.1</ele>
        <time>2016-08-27T08:45:21.000Z</time>
      </trkpt>
      <trkpt lat="49.56395" lon="3.32">
        <ele>207.1</ele>
        <time>2016-08-27T08:45:22.000Z</time>
      </trkpt>
      <trkpt lat="49.56395" lon="3.32">
        <ele>207.1</ele>
        <time>2016-08-27T08:45:26.000Z</time>
      </trkpt>
      <trkpt lat="49.56395" lon="3.32001">
        <ele>207.2</ele>
        <time>2016-08-27T08:45:27.000Z</time>
      </trkpt>
      <trkpt lat="49.5639" lon="3.32011">
        <ele>207.5</ele>
        <time>2016-08-27T08:45:35.000Z</time>
      </trkpt>
      <trkpt lat="49.56389" lon="3.32012">
        <ele>207.5</ele>
        <time>2016-08-27T08:45:36.000Z</time>
      </trkpt>
      <trkpt lat="49.56383" lon="3.32021">
        <ele>207.2</ele>
        <time>2016-08-27T08:45:42.000Z</time>
      </trkpt>
      <trkpt lat="49.56382" lon="3.32022">
        <ele>207.2</ele>
        <time>2016-08-27T08:45:43.000Z</time>
      </trkpt>
      <trkpt lat="49.56376" lon="3.3203">
        <ele>207.2</ele>
        <time>2016-08-27T08:45:49.000Z</time>
      </trkpt>
      <trkpt lat="49.56375" lon="3.32032">
        <ele>207.3</ele>
        <time>2016-08-27T08:45:50.000Z</time>
      </trkpt>
      <trkpt lat="49.56369" lon="3.3204">
        <ele>207.4</ele>
        <time>2016-08-27T08:45:56.000Z</time>
      </trkpt>
      <trkpt lat="49.56367" lon="3.32042">
        <ele>207.3</ele>
        <time>2016-08-27T08:45:57.000Z</time>
      </trkpt>
      <trkpt lat="49.56361" lon="3.32051">
        <ele>207.5</ele>
        <time>2016-08-27T08:46:03.000Z</time>
      </trkpt>
      <trkpt lat="49.56361" lon="3.32052">
        <ele>207.4</ele>
        <time>2016-08-27T08:46:04.000Z</time>
      </trkpt>
      <trkpt lat="49.56358" lon="3.32065">
        <ele>206.3</ele>
        <time>2016-08-27T08:46:15.000Z</time>
      </trkpt>
      <trkpt lat="49.56357" lon="3.32067">
        <ele>206.3</ele>
        <time>2016-08-27T08:46:16.000Z</time>
      </trkpt>
      <trkpt lat="49.56352" lon="3.32076">
        <ele>206.3</ele>
        <time>2016-08-27T08:46:22.000Z</time>
      </trkpt>
      <trkpt lat="49.56352" lon="3.32078">
        <ele>206.3</ele>
        <time>2016-08-27T08:46:23.000Z</time>
      </trkpt>
      <trkpt lat="49.56347" lon="3.32088">
        <ele>206.1</ele>
        <time>2016-08-27T08:46:29.000Z</time>
      </trkpt>
      <trkpt lat="49.56346" lon="3.3209">
        <ele>206.2</ele>
        <time>2016-08-27T08:46:30.000Z</time>
      </trkpt>
      <trkpt lat="49.56342" lon="3.321">
        <ele>205.6</ele>
        <time>2016-08-27T08:46:36.000Z</time>
      </trkpt>
      <trkpt lat="49.56341" lon="3.32102">
        <ele>205.6</ele>
        <time>2016-08-27T08:46:37.000Z</time>
      </trkpt>
      <trkpt lat="49.56337" lon="3.32112">
        <ele>205.7</ele>
        <time>2016-08-27T08:46:42.000Z</time>
      </trkpt>
      <trkpt lat="49.56337" lon="3.32114">
        <ele>205.8</ele>
        <time>2016-08-27T08:46:43.000Z</time>
      </trkpt>
      <trkpt lat="49.56332" lon="3.32126">
        <ele>205.6</ele>
        <time>2016-08-27T08:46:49.000Z</time>
      </trkpt>
      <trkpt lat="49.56332" lon="3.32128">
        <ele>205.6</ele>
        <time>2016-08-27T08:46:50.000Z</time>
      </trkpt>
      <trkpt lat="49.56328" lon="3.32139">
        <ele>205.1</ele>
        <time>2016-08-27T08:46:56.000Z</time>
      </trkpt>
      <trkpt lat="49.56327" lon="3.32141">
        <ele>205.2</ele>
        <time>2016-08-27T08:46:57.000Z</time>
      </trkpt>
      <trkpt lat="49.56322" lon="3.32151">
        <ele>205.1</ele>
        <time>2016-08-27T08:47:03.000Z</time>
      </trkpt>
      <trkpt lat="49.56321" lon="3.32151">
        <ele>205.1</ele>
        <time>2016-08-27T08:47:04.000Z</time>
      </trkpt>
      <trkpt lat="49.56314" lon="3.32159">
        <ele>205.1</ele>
        <time>2016-08-27T08:47:10.000Z</time>
      </trkpt>
      <trkpt lat="49.56312" lon="3.32161">
        <ele>205.2</ele>
        <time>2016-08-27T08:47:11.000Z</time>
      </trkpt>
      <trkpt lat="49.56307" lon="3.3217">
        <ele>205.5</ele>
        <time>2016-08-27T08:47:16.000Z</time>
      </trkpt>
      <trkpt lat="49.56306" lon="3.32171">
        <ele>205.4</ele>
        <time>2016-08-27T08:47:17.000Z</time>
      </trkpt>
      <trkpt lat="49.56301" lon="3.3218">
        <ele>205.4</ele>
        <time>2016-08-27T08:47:22.000Z</time>
      </trkpt>
      <trkpt lat="49.563" lon="3.32182">
        <ele>205.5</ele>
        <time>2016-08-27T08:47:23.000Z</time>
      </trkpt>
      <trkpt lat="49.56294" lon="3.32191">
        <ele>205.3</ele>
        <time>2016-08-27T08:47:28.000Z</time>
      </trkpt>
      <trkpt lat="49.56293" lon="3.32192">
        <ele>205.2</ele>
        <time>2016-08-27T08:47:29.000Z</time>
      </trkpt>
      <trkpt lat="49.56287" lon="3.32199">
        <ele>204.7</ele>
        <time>2016-08-27T08:47:34.000Z</time>
      </trkpt>
      <trkpt lat="49.56285" lon="3.322">
        <ele>204.5</ele>
        <time>2016-08-27T08:47:35.000Z</time>
      </trkpt>
      <trkpt lat="49.56279" lon="3.32208">
        <ele>204.8</ele>
        <time>2016-08-27T08:47:40.000Z</time>
      </trkpt>
      <trkpt lat="49.56278" lon="3.32209">
        <ele>204.9</ele>
        <time>2016-08-27T08:47:41.000Z</time>
      </trkpt>
      <trkpt lat="49.56271" lon="3.32215">
        <ele>205.1</ele>
        <time>2016-08-27T08:47:46.000Z</time>
      </trkpt>
      <trkpt lat="49.56269" lon="3.32216">
        <ele>205.1</ele>
        <time>2016-08-27T08:47:47.000Z</time>
      </trkpt>
      <trkpt lat="49.56263" lon="3.32223">
        <ele>205.4</ele>
        <time>2016-08-27T08:47:52.000Z</time>
      </trkpt>
      <trkpt lat="49.56262" lon="3.32224">
        <ele>205.4</ele>
        <time>2016-08-27T08:47:53.000Z</time>
      </trkpt>
      <trkpt lat="49.56255" lon="3.3223">
        <ele>204.8</ele>
        <time>2016-08-27T08:47:58.000Z</time>
      </trkpt>
      <trkpt lat="49.56254" lon="3.32231">
        <ele>204.9</ele>
        <time>2016-08-27T08:47:59.000Z</time>
      </trkpt>
      <trkpt lat="49.56247" lon="3.32237">
        <ele>204.7</ele>
        <time>2016-08-27T08:48:04.000Z</time>
      </trkpt>
      <trkpt lat="49.56246" lon="3.32239">
        <ele>204.7</ele>
        <time>2016-08-27T08:48:05.000Z</time>
      </trkpt>
      <trkpt lat="49.56239" lon="3.32245">
        <ele>205.1</ele>
        <time>2016-08-27T08:48:10.000Z</time>
      </trkpt>
      <trkpt lat="49.56238" lon="3.32246">
        <ele>205.2</ele>
        <time>2016-08-27T08:48:11.000Z</time>
      </trkpt>
      <trkpt lat="49.56231" lon="3.32253">
        <ele>205.2</ele>
        <time>2016-08-27T08:48:16.000Z</time>
      </trkpt>
      <trkpt lat="49.5623" lon="3.32254">
        <ele>205.1</ele>
        <time>2016-08-27T08:48:17.000Z</time>
      </trkpt>
      <trkpt lat="49.56224" lon="3.32261">
        <ele>205</ele>
        <time>2016-08-27T08:48:22.000Z</time>
      </trkpt>
      <trkpt lat="49.56223" lon="3.32262">
        <ele>205</ele>
        <time>2016-08-27T08:48:23.000Z</time>
      </trkpt>
      <trkpt lat="49.56217" lon="3.32269">
        <ele>205.3</ele>
        <time>2016-08-27T08:48:28.000Z</time>
      </trkpt>
      <trkpt lat="49.56215" lon="3.32271">
        <ele>205.4</ele>
        <time>2016-08-27T08:48:29.000Z</time>
      </trkpt>
      <trkpt lat="49.56209" lon="3.32277">
        <ele>206</ele>
        <time>2016-08-27T08:48:34.000Z</time>
      </trkpt>
      <trkpt lat="49.56207" lon="3.32278">
        <ele>206</ele>
        <time>2016-08-27T08:48:35.000Z</time>
      </trkpt>
      <trkpt lat="49.56201" lon="3.32284">
        <ele>206.3</ele>
        <time>2016-08-27T08:48:40.000Z</time>
      </trkpt>
      <trkpt lat="49.562" lon="3.32286">
        <ele>206.3</ele>
        <time>2016-08-27T08:48:41.000Z</time>
      </trkpt>
      <trkpt lat="49.56192" lon="3.32294">
        <ele>206.6</ele>
        <time>2016-08-27T08:48:47.000Z</time>
      </trkpt>
      <trkpt lat="49.56191" lon="3.32295">
        <ele>206.7</ele>
        <time>2016-08-27T08:48:48.000Z</time>
      </trkpt>
      <trkpt lat="49.56185" lon="3.32303">
        <ele>206.6</ele>
        <time>2016-08-27T08:48:54.000Z</time>
      </trkpt>
      <trkpt lat="49.56184" lon="3.32305">
        <ele>206.7</ele>
        <time>2016-08-27T08:48:55.000Z</time>
      </trkpt>
      <trkpt lat="49.56178" lon="3.32315">
        <ele>206.8</ele>
        <time>2016-08-27T08:49:01.000Z</time>
      </trkpt>
      <trkpt lat="49.56177" lon="3.32317">
        <ele>206.9</ele>
        <time>2016-08-27T08:49:02.000Z</time>
      </trkpt>
      <trkpt lat="49.56171" lon="3.32327">
        <ele>206.8</ele>
        <time>2016-08-27T08:49:08.000Z</time>
      </trkpt>
      <trkpt lat="49.5617" lon="3.32329">
        <ele>206.7</ele>
        <time>2016-08-27T08:49:09.000Z</time>
      </trkpt>
      <trkpt lat="49.56166" lon="3.32339">
        <ele>206.4</ele>
        <time>2016-08-27T08:49:14.000Z</time>
      </trkpt>
      <trkpt lat="49.56165" lon="3.3234">
        <ele>206.4</ele>
        <time>2016-08-27T08:49:15.000Z</time>
      </trkpt>
      <trkpt lat="49.56161" lon="3.3235">
        <ele>206.1</ele>
        <time>2016-08-27T08:49:20.000Z</time>
      </trkpt>
      <trkpt lat="49.5616" lon="3.32352">
        <ele>206.1</ele>
        <time>2016-08-27T08:49:21.000Z</time>
      </trkpt>
      <trkpt lat="49.56155" lon="3.32363">
        <ele>205.6</ele>
        <time>2016-08-27T08:49:27.000Z</time>
      </trkpt>
      <trkpt lat="49.56154" lon="3.32365">
        <ele>205.5</ele>
        <time>2016-08-27T08:49:28.000Z</time>
      </trkpt>
      <trkpt lat="49.56149" lon="3.32376">
        <ele>205.2</ele>
        <time>2016-08-27T08:49:34.000Z</time>
      </trkpt>
      <trkpt lat="49.56148" lon="3.32378">
        <ele>205.2</ele>
        <time>2016-08-27T08:49:35.000Z</time>
      </trkpt>
      <trkpt lat="49.56144" lon="3.3239">
        <ele>204.9</ele>
        <time>2016-08-27T08:49:41.000Z</time>
      </trkpt>
      <trkpt lat="49.56144" lon="3.32392">
        <ele>204.9</ele>
        <time>2016-08-27T08:49:42.000Z</time>
      </trkpt>
      <trkpt lat="49.5614" lon="3.32404">
        <ele>204.9</ele>
        <time>2016-08-27T08:49:48.000Z</time>
      </trkpt>
      <trkpt lat="49.56139" lon="3.32406">
        <ele>204.9</ele>
        <time>2016-08-27T08:49:49.000Z</time>
      </trkpt>
      <trkpt lat="49.56134" lon="3.32417">
        <ele>205.3</ele>
        <time>2016-08-27T08:49:55.000Z</time>
      </trkpt>
      <trkpt lat="49.56134" lon="3.32419">
        <ele>205.4</ele>
        <time>2016-08-27T08:49:56.000Z</time>
      </trkpt>
      <trkpt lat="49.5613" lon="3.3243">
        <ele>205.6</ele>
        <time>2016-08-27T08:50:02.000Z</time>
      </trkpt>
      <trkpt lat="49.56129" lon="3.32432">
        <ele>205.6</ele>
        <time>2016-08-27T08:50:03.000Z</time>
      </trkpt>
      <trkpt lat="49.56125" lon="3.32444">
        <ele>206.1</ele>
        <time>2016-08-27T08:50:09.000Z</time>
      </trkpt>
      <trkpt lat="49.56125" lon="3.32446">
        <ele>206.2</ele>
        <time>2016-08-27T08:50:10.000Z</time>
      </trkpt>
      <trkpt lat="49.5612" lon="3.32458">
        <ele>206.1</ele>
        <time>2016-08-27T08:50:16.000Z</time>
      </trkpt>
      <trkpt lat="49.56119" lon="3.3246">
        <ele>206.1</ele>
        <time>2016-08-27T08:50:17.000Z</time>
      </trkpt>
      <trkpt lat="49.56115" lon="3.32471">
        <ele>206.3</ele>
        <time>2016-08-27T08:50:23.000Z</time>
      </trkpt>
      <trkpt lat="49.56115" lon="3.32473">
        <ele>206.2</ele>
        <time>2016-08-27T08:50:24.000Z</time>
      </trkpt>
      <trkpt lat="49.5611" lon="3.32484">
        <ele>206</ele>
        <time>2016-08-27T08:50:30.000Z</time>
      </trkpt>
      <trkpt lat="49.56109" lon="3.32486">
        <ele>206</ele>
        <time>2016-08-27T08:50:31.000Z</time>
      </trkpt>
      <trkpt lat="49.56105" lon="3.32498">
        <ele>205.7</ele>
        <time>2016-08-27T08:50:37.000Z</time>
      </trkpt>
      <trkpt lat="49.56104" lon="3.325">
        <ele>205.7</ele>
        <time>2016-08-27T08:50:38.000Z</time>
      </trkpt>
      <trkpt lat="49.561" lon="3.3251">
        <ele>205.6</ele>
        <time>2016-08-27T08:50:44.000Z</time>
      </trkpt>
      <trkpt lat="49.56099" lon="3.32512">
        <ele>205.4</ele>
        <time>2016-08-27T08:50:45.000Z</time>
      </trkpt>
      <trkpt lat="49.56094" lon="3.32523">
        <ele>205</ele>
        <time>2016-08-27T08:50:51.000Z</time>
      </trkpt>
      <trkpt lat="49.56094" lon="3.32525">
        <ele>205.1</ele>
        <time>2016-08-27T08:50:52.000Z</time>
      </trkpt>
      <trkpt lat="49.56089" lon="3.32536">
        <ele>205.7</ele>
        <time>2016-08-27T08:50:58.000Z</time>
      </trkpt>
      <trkpt lat="49.56088" lon="3.32538">
        <ele>205.7</ele>
        <time>2016-08-27T08:50:59.000Z</time>
      </trkpt>
      <trkpt lat="49.56083" lon="3.32549">
        <ele>205.9</ele>
        <time>2016-08-27T08:51:05.000Z</time>
      </trkpt>
      <trkpt lat="49.56083" lon="3.32551">
        <ele>206</ele>
        <time>2016-08-27T08:51:06.000Z</time>
      </trkpt>
      <trkpt lat="49.56078" lon="3.32562">
        <ele>206</ele>
        <time>2016-08-27T08:51:12.000Z</time>
      </trkpt>
      <trkpt lat="49.56077" lon="3.32564">
        <ele>206.1</ele>
        <time>2016-08-27T08:51:13.000Z</time>
      </trkpt>
      <trkpt lat="49.56072" lon="3.32575">
        <ele>206</ele>
        <time>2016-08-27T08:51:19.000Z</time>
      </trkpt>
      <trkpt lat="49.56071" lon="3.32577">
        <ele>206</ele>
        <time>2016-08-27T08:51:20.000Z</time>
      </trkpt>
      <trkpt lat="49.56066" lon="3.32588">
        <ele>206</ele>
        <time>2016-08-27T08:51:26.000Z</time>
      </trkpt>
      <trkpt lat="49.56066" lon="3.3259">
        <ele>206</ele>
        <time>2016-08-27T08:51:27.000Z</time>
      </trkpt>
      <trkpt lat="49.56061" lon="3.32601">
        <ele>205.7</ele>
        <time>2016-08-27T08:51:33.000Z</time>
      </trkpt>
      <trkpt lat="49.5606" lon="3.32603">
        <ele>205.5</ele>
        <time>2016-08-27T08:51:34.000Z</time>
      </trkpt>
      <trkpt lat="49.56054" lon="3.32613">
        <ele>205.5</ele>
        <time>2016-08-27T08:51:40.000Z</time>
      </trkpt>
      <trkpt lat="49.56054" lon="3.32615">
        <ele>205.5</ele>
        <time>2016-08-27T08:51:41.000Z</time>
      </trkpt>
      <trkpt lat="49.56049" lon="3.32627">
        <ele>205.9</ele>
        <time>2016-08-27T08:51:47.000Z</time>
      </trkpt>
      <trkpt lat="49.56048" lon="3.32629">
        <ele>205.9</ele>
        <time>2016-08-27T08:51:48.000Z</time>
      </trkpt>
      <trkpt lat="49.56044" lon="3.3264">
        <ele>205.5</ele>
        <time>2016-08-27T08:51:54.000Z</time>
      </trkpt>
      <trkpt lat="49.56043" lon="3.32641">
        <ele>205.3</ele>
        <time>2016-08-27T08:51:55.000Z</time>
      </trkpt>
      <trkpt lat="49.56039" lon="3.32652">
        <ele>205.5</ele>
        <time>2016-08-27T08:52:01.000Z</time>
      </trkpt>
      <trkpt lat="49.56038" lon="3.32654">
        <ele>205.7</ele>
        <time>2016-08-27T08:52:02.000Z</time>
      </trkpt>
      <trkpt lat="49.56034" lon="3.32665">
        <ele>206.5</ele>
        <time>2016-08-27T08:52:08.000Z</time>
      </trkpt>
      <trkpt lat="49.56033" lon="3.32667">
        <ele>206.5</ele>
        <time>2016-08-27T08:52:09.000Z</time>
      </trkpt>
      <trkpt lat="49.56028" lon="3.32678">
        <ele>206.9</ele>
        <time>2016-08-27T08:52:15.000Z</time>
      </trkpt>
      <trkpt lat="49.56028" lon="3.32679">
        <ele>206.8</ele>
        <time>2016-08-27T08:52:16.000Z</time>
      </trkpt>
      <trkpt lat="49.56023" lon="3.3269">
        <ele>206.9</ele>
        <time>2016-08-27T08:52:22.000Z</time>
      </trkpt>
      <trkpt lat="49.56022" lon="3.32692">
        <ele>206.9</ele>
        <time>2016-08-27T08:52:23.000Z</time>
      </trkpt>
      <trkpt lat="49.56018" lon="3.32704">
        <ele>207.3</ele>
        <time>2016-08-27T08:52:29.000Z</time>
      </trkpt>
      <trkpt lat="49.56018" lon="3.32705">
        <ele>207.2</ele>
        <time>2016-08-27T08:52:30.000Z</time>
      </trkpt>
      <trkpt lat="49.56013" lon="3.32716">
        <ele>207.2</ele>
        <time>2016-08-27T08:52:36.000Z</time>
      </trkpt>
      <trkpt lat="49.56012" lon="3.32717">
        <ele>207.1</ele>
        <time>2016-08-27T08:52:37.000Z</time>
      </trkpt>
      <trkpt lat="49.56008" lon="3.32729">
        <ele>207.1</ele>
        <time>2016-08-27T08:52:43.000Z</time>
      </trkpt>
      <trkpt lat="49.56007" lon="3.32731">
        <ele>207</ele>
        <time>2016-08-27T08:52:44.000Z</time>
      </trkpt>
      <trkpt lat="49.56002" lon="3.32742">
        <ele>206.6</ele>
        <time>2016-08-27T08:52:50.000Z</time>
      </trkpt>
      <trkpt lat="49.56002" lon="3.32744">
        <ele>206.5</ele>
        <time>2016-08-27T08:52:51.000Z</time>
      </trkpt>
      <trkpt lat="49.55997" lon="3.32755">
        <ele>206.2</ele>
        <time>2016-08-27T08:52:57.000Z</time>
      </trkpt>
      <trkpt lat="49.55996" lon="3.32757">
        <ele>206.2</ele>
        <time>2016-08-27T08:52:58.000Z</time>
      </trkpt>
      <trkpt lat="49.55991" lon="3.32766">
        <ele>206.5</ele>
        <time>2016-08-27T08:53:03.000Z</time>
      </trkpt>
      <trkpt lat="49.5599" lon="3.32768">
        <ele>206.6</ele>
        <time>2016-08-27T08:53:04.000Z</time>
      </trkpt>
      <trkpt lat="49.55985" lon="3.3278">
        <ele>206.9</ele>
        <time>2016-08-27T08:53:10.000Z</time>
      </trkpt>
      <trkpt lat="49.55985" lon="3.32782">
        <ele>206.9</ele>
        <time>2016-08-27T08:53:11.000Z</time>
      </trkpt>
      <trkpt lat="49.5598" lon="3.32793">
        <ele>206.8</ele>
        <time>2016-08-27T08:53:17.000Z</time>
      </trkpt>
      <trkpt lat="49.55979" lon="3.32795">
        <ele>206.9</ele>
        <time>2016-08-27T08:53:18.000Z</time>
      </trkpt>
      <trkpt lat="49.55976" lon="3.32805">
        <ele>206.9</ele>
        <time>2016-08-27T08:53:23.000Z</time>
      </trkpt>
      <trkpt lat="49.55975" lon="3.32807">
        <ele>207</ele>
        <time>2016-08-27T08:53:24.000Z</time>
      </trkpt>
      <trkpt lat="49.55971" lon="3.32818">
        <ele>207</ele>
        <time>2016-08-27T08:53:29.000Z</time>
      </trkpt>
      <trkpt lat="49.5597" lon="3.3282">
        <ele>206.9</ele>
        <time>2016-08-27T08:53:30.000Z</time>
      </trkpt>
      <trkpt lat="49.55966" lon="3.3283">
        <ele>207.1</ele>
        <time>2016-08-27T08:53:35.000Z</time>
      </trkpt>
      <trkpt lat="49.55965" lon="3.32832">
        <ele>207.1</ele>
        <time>2016-08-27T08:53:36.000Z</time>
      </trkpt>
      <trkpt lat="49.55961" lon="3.32842">
        <ele>207.4</ele>
        <time>2016-08-27T08:53:41.000Z</time>
      </trkpt>
      <trkpt lat="49.55961" lon="3.32844">
        <ele>207.4</ele>
        <time>2016-08-27T08:53:42.000Z</time>
      </trkpt>
      <trkpt lat="49.55957" lon="3.32854">
        <ele>207.8</ele>
        <time>2016-08-27T08:53:47.000Z</time>
      </trkpt>
      <trkpt lat="49.55956" lon="3.32856">
        <ele>207.8</ele>
        <time>2016-08-27T08:53:48.000Z</time>
      </trkpt>
      <trkpt lat="49.55951" lon="3.32868">
        <ele>207.9</ele>
        <time>2016-08-27T08:53:54.000Z</time>
      </trkpt>
      <trkpt lat="49.5595" lon="3.3287">
        <ele>207.9</ele>
        <time>2016-08-27T08:53:55.000Z</time>
      </trkpt>
      <trkpt lat="49.55946" lon="3.32879">
        <ele>207.7</ele>
        <time>2016-08-27T08:54:00.000Z</time>
      </trkpt>
      <trkpt lat="49.55945" lon="3.32882">
        <ele>207.8</ele>
        <time>2016-08-27T08:54:01.000Z</time>
      </trkpt>
      <trkpt lat="49.55941" lon="3.32892">
        <ele>207.5</ele>
        <time>2016-08-27T08:54:06.000Z</time>
      </trkpt>
      <trkpt lat="49.5594" lon="3.32893">
        <ele>207.5</ele>
        <time>2016-08-27T08:54:07.000Z</time>
      </trkpt>
      <trkpt lat="49.55936" lon="3.32905">
        <ele>207.4</ele>
        <time>2016-08-27T08:54:13.000Z</time>
      </trkpt>
      <trkpt lat="49.55935" lon="3.32907">
        <ele>207.2</ele>
        <time>2016-08-27T08:54:14.000Z</time>
      </trkpt>
      <trkpt lat="49.55931" lon="3.32918">
        <ele>206.5</ele>
        <time>2016-08-27T08:54:19.000Z</time>
      </trkpt>
      <trkpt lat="49.5593" lon="3.3292">
        <ele>206.5</ele>
        <time>2016-08-27T08:54:20.000Z</time>
      </trkpt>
      <trkpt lat="49.55926" lon="3.3293">
        <ele>206.1</ele>
        <time>2016-08-27T08:54:25.000Z</time>
      </trkpt>
      <trkpt lat="49.55926" lon="3.32932">
        <ele>206</ele>
        <time>2016-08-27T08:54:26.000Z</time>
      </trkpt>
      <trkpt lat="49.55922" lon="3.32942">
        <ele>206.2</ele>
        <time>2016-08-27T08:54:31.000Z</time>
      </trkpt>
      <trkpt lat="49.55921" lon="3.32944">
        <ele>206</ele>
        <time>2016-08-27T08:54:32.000Z</time>
      </trkpt>
      <trkpt lat="49.55916" lon="3.32955">
        <ele>205.6</ele>
        <time>2016-08-27T08:54:38.000Z</time>
      </trkpt>
      <trkpt lat="49.55915" lon="3.32957">
        <ele>205.6</ele>
        <time>2016-08-27T08:54:39.000Z</time>
      </trkpt>
      <trkpt lat="49.55911" lon="3.32968">
        <ele>204.8</ele>
        <time>2016-08-27T08:54:45.000Z</time>
      </trkpt>
      <trkpt lat="49.5591" lon="3.3297">
        <ele>204.5</ele>
        <time>2016-08-27T08:54:46.000Z</time>
      </trkpt>
      <trkpt lat="49.55905" lon="3.32982">
        <ele>204.1</ele>
        <time>2016-08-27T08:54:52.000Z</time>
      </trkpt>
      <trkpt lat="49.55904" lon="3.32984">
        <ele>204.1</ele>
        <time>2016-08-27T08:54:53.000Z</time>
      </trkpt>
      <trkpt lat="49.559" lon="3.32994">
        <ele>204.4</ele>
        <time>2016-08-27T08:54:58.000Z</time>
      </trkpt>
      <trkpt lat="49.559" lon="3.32996">
        <ele>204.5</ele>
        <time>2016-08-27T08:54:59.000Z</time>
      </trkpt>
      <trkpt lat="49.55896" lon="3.33006">
        <ele>204.4</ele>
        <time>2016-08-27T08:55:04.000Z</time>
      </trkpt>
      <trkpt lat="49.55895" lon="3.33008">
        <ele>204.4</ele>
        <time>2016-08-27T08:55:05.000Z</time>
      </trkpt>
      <trkpt lat="49.55891" lon="3.33018">
        <ele>204.5</ele>
        <time>2016-08-27T08:55:10.000Z</time>
      </trkpt>
      <trkpt lat="49.5589" lon="3.3302">
        <ele>204.5</ele>
        <time>2016-08-27T08:55:11.000Z</time>
      </trkpt>
      <trkpt lat="49.55886" lon="3.3303">
        <ele>204.4</ele>
        <time>2016-08-27T08:55:16.000Z</time>
      </trkpt>
      <trkpt lat="49.55885" lon="3.33032">
        <ele>204.5</ele>
        <time>2016-08-27T08:55:17.000Z</time>
      </trkpt>
      <trkpt lat="49.55881" lon="3.33042">
        <ele>204.9</ele>
        <time>2016-08-27T08:55:22.000Z</time>
      </trkpt>
      <trkpt lat="49.55881" lon="3.33045">
        <ele>204.9</ele>
        <time>2016-08-27T08:55:23.000Z</time>
      </trkpt>
      <trkpt lat="49.55876" lon="3.33056">
        <ele>205</ele>
        <time>2016-08-27T08:55:29.000Z</time>
      </trkpt>
      <trkpt lat="49.55875" lon="3.33058">
        <ele>205.1</ele>
        <time>2016-08-27T08:55:30.000Z</time>
      </trkpt>
      <trkpt lat="49.55871" lon="3.33068">
        <ele>204.9</ele>
        <time>2016-08-27T08:55:35.000Z</time>
      </trkpt>
      <trkpt lat="49.5587" lon="3.3307">
        <ele>204.9</ele>
        <time>2016-08-27T08:55:36.000Z</time>
      </trkpt>
      <trkpt lat="49.55865" lon="3.33079">
        <ele>204.7</ele>
        <time>2016-08-27T08:55:41.000Z</time>
      </trkpt>
      <trkpt lat="49.55864" lon="3.33081">
        <ele>204.6</ele>
        <time>2016-08-27T08:55:42.000Z</time>
      </trkpt>
      <trkpt lat="49.5586" lon="3.33091">
        <ele>204.6</ele>
        <time>2016-08-27T08:55:47.000Z</time>
      </trkpt>
      <trkpt lat="49.55859" lon="3.33093">
        <ele>204.6</ele>
        <time>2016-08-27T08:55:48.000Z</time>
      </trkpt>
      <trkpt lat="49.55854" lon="3.33104">
        <ele>204.5</ele>
        <time>2016-08-27T08:55:54.000Z</time>
      </trkpt>
      <trkpt lat="49.55853" lon="3.33106">
        <ele>204.5</ele>
        <time>2016-08-27T08:55:55.000Z</time>
      </trkpt>
      <trkpt lat="49.55848" lon="3.33117">
        <ele>204.1</ele>
        <time>2016-08-27T08:56:01.000Z</time>
      </trkpt>
      <trkpt lat="49.55847" lon="3.33118">
        <ele>204.1</ele>
        <time>2016-08-27T08:56:02.000Z</time>
      </trkpt>
      <trkpt lat="49.55843" lon="3.33129">
        <ele>204</ele>
        <time>2016-08-27T08:56:08.000Z</time>
      </trkpt>
      <trkpt lat="49.55842" lon="3.33131">
        <ele>204.1</ele>
        <time>2016-08-27T08:56:09.000Z</time>
      </trkpt>
      <trkpt lat="49.55837" lon="3.33142">
        <ele>204.1</ele>
        <time>2016-08-27T08:56:14.000Z</time>
      </trkpt>
      <trkpt lat="49.55836" lon="3.33144">
        <ele>204.1</ele>
        <time>2016-08-27T08:56:15.000Z</time>
      </trkpt>
      <trkpt lat="49.55832" lon="3.33153">
        <ele>204.1</ele>
        <time>2016-08-27T08:56:20.000Z</time>
      </trkpt>
      <trkpt lat="49.55831" lon="3.33155">
        <ele>203.9</ele>
        <time>2016-08-27T08:56:21.000Z</time>
      </trkpt>
      <trkpt lat="49.55826" lon="3.33165">
        <ele>203.5</ele>
        <time>2016-08-27T08:56:26.000Z</time>
      </trkpt>
      <trkpt lat="49.55826" lon="3.33167">
        <ele>203.6</ele>
        <time>2016-08-27T08:56:27.000Z</time>
      </trkpt>
      <trkpt lat="49.55821" lon="3.33178">
        <ele>203.8</ele>
        <time>2016-08-27T08:56:33.000Z</time>
      </trkpt>
      <trkpt lat="49.5582" lon="3.3318">
        <ele>203.9</ele>
        <time>2016-08-27T08:56:34.000Z</time>
      </trkpt>
      <trkpt lat="49.55815" lon="3.3319">
        <ele>204</ele>
        <time>2016-08-27T08:56:39.000Z</time>
      </trkpt>
      <trkpt lat="49.55814" lon="3.33192">
        <ele>204.1</ele>
        <time>2016-08-27T08:56:40.000Z</time>
      </trkpt>
      <trkpt lat="49.55811" lon="3.33202">
        <ele>204.2</ele>
        <time>2016-08-27T08:56:45.000Z</time>
      </trkpt>
      <trkpt lat="49.5581" lon="3.33205">
        <ele>204.2</ele>
        <time>2016-08-27T08:56:46.000Z</time>
      </trkpt>
      <trkpt lat="49.55806" lon="3.33214">
        <ele>204.1</ele>
        <time>2016-08-27T08:56:51.000Z</time>
      </trkpt>
      <trkpt lat="49.55805" lon="3.33216">
        <ele>204</ele>
        <time>2016-08-27T08:56:52.000Z</time>
      </trkpt>
      <trkpt lat="49.55799" lon="3.33224">
        <ele>203.5</ele>
        <time>2016-08-27T08:56:57.000Z</time>
      </trkpt>
      <trkpt lat="49.55798" lon="3.33226">
        <ele>203.4</ele>
        <time>2016-08-27T08:56:58.000Z</time>
      </trkpt>
      <trkpt lat="49.55792" lon="3.33235">
        <ele>203.2</ele>
        <time>2016-08-27T08:57:02.000Z</time>
      </trkpt>
      <trkpt lat="49.55791" lon="3.33238">
        <ele>203.2</ele>
        <time>2016-08-27T08:57:03.000Z</time>
      </trkpt>
      <trkpt lat="49.55785" lon="3.33248">
        <ele>202.7</ele>
        <time>2016-08-27T08:57:08.000Z</time>
      </trkpt>
      <trkpt lat="49.55784" lon="3.33249">
        <ele>202.6</ele>
        <time>2016-08-27T08:57:09.000Z</time>
      </trkpt>
      <trkpt lat="49.55778" lon="3.33258">
        <ele>202.5</ele>
        <time>2016-08-27T08:57:14.000Z</time>
      </trkpt>
      <trkpt lat="49.55777" lon="3.3326">
        <ele>202.4</ele>
        <time>2016-08-27T08:57:15.000Z</time>
      </trkpt>
      <trkpt lat="49.55771" lon="3.33268">
        <ele>202.4</ele>
        <time>2016-08-27T08:57:20.000Z</time>
      </trkpt>
      <trkpt lat="49.5577" lon="3.3327">
        <ele>202.6</ele>
        <time>2016-08-27T08:57:21.000Z</time>
      </trkpt>
      <trkpt lat="49.55765" lon="3.33279">
        <ele>203.4</ele>
        <time>2016-08-27T08:57:26.000Z</time>
      </trkpt>
      <trkpt lat="49.55764" lon="3.3328">
        <ele>203.5</ele>
        <time>2016-08-27T08:57:27.000Z</time>
      </trkpt>
      <trkpt lat="49.55759" lon="3.33289">
        <ele>203.4</ele>
        <time>2016-08-27T08:57:32.000Z</time>
      </trkpt>
      <trkpt lat="49.55758" lon="3.3329">
        <ele>203.5</ele>
        <time>2016-08-27T08:57:33.000Z</time>
      </trkpt>
      <trkpt lat="49.55752" lon="3.33299">
        <ele>203.4</ele>
        <time>2016-08-27T08:57:38.000Z</time>
      </trkpt>
      <trkpt lat="49.55751" lon="3.333">
        <ele>203.5</ele>
        <time>2016-08-27T08:57:39.000Z</time>
      </trkpt>
      <trkpt lat="49.55746" lon="3.3331">
        <ele>203.9</ele>
        <time>2016-08-27T08:57:45.000Z</time>
      </trkpt>
      <trkpt lat="49.55745" lon="3.33312">
        <ele>203.9</ele>
        <time>2016-08-27T08:57:46.000Z</time>
      </trkpt>
      <trkpt lat="49.55739" lon="3.33322">
        <ele>204.2</ele>
        <time>2016-08-27T08:57:52.000Z</time>
      </trkpt>
      <trkpt lat="49.55738" lon="3.33324">
        <ele>204.2</ele>
        <time>2016-08-27T08:57:53.000Z</time>
      </trkpt>
      <trkpt lat="49.55732" lon="3.33334">
        <ele>203.5</ele>
        <time>2016-08-27T08:57:59.000Z</time>
      </trkpt>
      <trkpt lat="49.55731" lon="3.33335">
        <ele>203.4</ele>
        <time>2016-08-27T08:58:00.000Z</time>
      </trkpt>
      <trkpt lat="49.55725" lon="3.33346">
        <ele>203.7</ele>
        <time>2016-08-27T08:58:06.000Z</time>
      </trkpt>
      <trkpt lat="49.55724" lon="3.33347">
        <ele>203.7</ele>
        <time>2016-08-27T08:58:07.000Z</time>
      </trkpt>
      <trkpt lat="49.55719" lon="3.33356">
        <ele>204</ele>
        <time>2016-08-27T08:58:12.000Z</time>
      </trkpt>
      <trkpt lat="49.55718" lon="3.33357">
        <ele>204.1</ele>
        <time>2016-08-27T08:58:13.000Z</time>
      </trkpt>
      <trkpt lat="49.55712" lon="3.33367">
        <ele>203.4</ele>
        <time>2016-08-27T08:58:19.000Z</time>
      </trkpt>
      <trkpt lat="49.55711" lon="3.33369">
        <ele>203.4</ele>
        <time>2016-08-27T08:58:20.000Z</time>
      </trkpt>
      <trkpt lat="49.55706" lon="3.33377">
        <ele>203.8</ele>
        <time>2016-08-27T08:58:25.000Z</time>
      </trkpt>
      <trkpt lat="49.55704" lon="3.33379">
        <ele>204</ele>
        <time>2016-08-27T08:58:26.000Z</time>
      </trkpt>
      <trkpt lat="49.55699" lon="3.33387">
        <ele>205</ele>
        <time>2016-08-27T08:58:31.000Z</time>
      </trkpt>
      <trkpt lat="49.55698" lon="3.33389">
        <ele>205.1</ele>
        <time>2016-08-27T08:58:32.000Z</time>
      </trkpt>
      <trkpt lat="49.55692" lon="3.33396">
        <ele>205.8</ele>
        <time>2016-08-27T08:58:37.000Z</time>
      </trkpt>
      <trkpt lat="49.55691" lon="3.33397">
        <ele>205.8</ele>
        <time>2016-08-27T08:58:38.000Z</time>
      </trkpt>
      <trkpt lat="49.55684" lon="3.33404">
        <ele>205.7</ele>
        <time>2016-08-27T08:58:43.000Z</time>
      </trkpt>
      <trkpt lat="49.55683" lon="3.33407">
        <ele>206</ele>
        <time>2016-08-27T08:58:44.000Z</time>
      </trkpt>
      <trkpt lat="49.55676" lon="3.33416">
        <ele>206.1</ele>
        <time>2016-08-27T08:58:47.000Z</time>
      </trkpt>
      <trkpt lat="49.55674" lon="3.33419">
        <ele>206.1</ele>
        <time>2016-08-27T08:58:48.000Z</time>
      </trkpt>
      <trkpt lat="49.55669" lon="3.33424">
        <ele>206.4</ele>
        <time>2016-08-27T08:58:50.000Z</time>
      </trkpt>
      <trkpt lat="49.55666" lon="3.33427">
        <ele>206.2</ele>
        <time>2016-08-27T08:58:51.000Z</time>
      </trkpt>
      <trkpt lat="49.5566" lon="3.33434">
        <ele>205.8</ele>
        <time>2016-08-27T08:58:53.000Z</time>
      </trkpt>
      <trkpt lat="49.55657" lon="3.33437">
        <ele>205.7</ele>
        <time>2016-08-27T08:58:54.000Z</time>
      </trkpt>
      <trkpt lat="49.55652" lon="3.33444">
        <ele>205.9</ele>
        <time>2016-08-27T08:58:56.000Z</time>
      </trkpt>
      <trkpt lat="49.55649" lon="3.33448">
        <ele>206.1</ele>
        <time>2016-08-27T08:58:57.000Z</time>
      </trkpt>
      <trkpt lat="49.55643" lon="3.33456">
        <ele>206.3</ele>
        <time>2016-08-27T08:58:59.000Z</time>
      </trkpt>
      <trkpt lat="49.5564" lon="3.3346">
        <ele>206.2</ele>
        <time>2016-08-27T08:59:00.000Z</time>
      </trkpt>
      <trkpt lat="49.55634" lon="3.33468">
        <ele>206.2</ele>
        <time>2016-08-27T08:59:02.000Z</time>
      </trkpt>
      <trkpt lat="49.55631" lon="3.33472">
        <ele>206.2</ele>
        <time>2016-08-27T08:59:03.000Z</time>
      </trkpt>
      <trkpt lat="49.55626" lon="3.33481">
        <ele>206.5</ele>
        <time>2016-08-27T08:59:05.000Z</time>
      </trkpt>
      <trkpt lat="49.55623" lon="3.33485">
        <ele>206.7</ele>
        <time>2016-08-27T08:59:06.000Z</time>
      </trkpt>
      <trkpt lat="49.55618" lon="3.33495">
        <ele>206.8</ele>
        <time>2016-08-27T08:59:08.000Z</time>
      </trkpt>
      <trkpt lat="49.55615" lon="3.33499">
        <ele>206.8</ele>
        <time>2016-08-27T08:59:09.000Z</time>
      </trkpt>
      <trkpt lat="49.55609" lon="3.33508">
        <ele>206.9</ele>
        <time>2016-08-27T08:59:11.000Z</time>
      </trkpt>
      <trkpt lat="49.55607" lon="3.33513">
        <ele>207</ele>
        <time>2016-08-27T08:59:12.000Z</time>
      </trkpt>
      <trkpt lat="49.55601" lon="3.33523">
        <ele>207.5</ele>
        <time>2016-08-27T08:59:14.000Z</time>
      </trkpt>
      <trkpt lat="49.55599" lon="3.33527">
        <ele>207.7</ele>
        <time>2016-08-27T08:59:15.000Z</time>
      </trkpt>
      <trkpt lat="49.55594" lon="3.33537">
        <ele>208.7</ele>
        <time>2016-08-27T08:59:17.000Z</time>
      </trkpt>
      <trkpt lat="49.55591" lon="3.33542">
        <ele>208.9</ele>
        <time>2016-08-27T08:59:18.000Z</time>
      </trkpt>
      <trkpt lat="49.55586" lon="3.33553">
        <ele>208.7</ele>
        <time>2016-08-27T08:59:20.000Z</time>
      </trkpt>
      <trkpt lat="49.55583" lon="3.33558">
        <ele>208.7</ele>
        <time>2016-08-27T08:59:21.000Z</time>
      </trkpt>
      <trkpt lat="49.55578" lon="3.33569">
        <ele>208.4</ele>
        <time>2016-08-27T08:59:23.000Z</time>
      </trkpt>
      <trkpt lat="49.55575" lon="3.33574">
        <ele>208.4</ele>
        <time>2016-08-27T08:59:24.000Z</time>
      </trkpt>
      <trkpt lat="49.55571" lon="3.33584">
        <ele>208.4</ele>
        <time>2016-08-27T08:59:26.000Z</time>
      </trkpt>
      <trkpt lat="49.55568" lon="3.33589">
        <ele>208.7</ele>
        <time>2016-08-27T08:59:27.000Z</time>
      </trkpt>
      <trkpt lat="49.55563" lon="3.33598">
        <ele>209.3</ele>
        <time>2016-08-27T08:59:29.000Z</time>
      </trkpt>
      <trkpt lat="49.55561" lon="3.33603">
        <ele>209.6</ele>
        <time>2016-08-27T08:59:30.000Z</time>
      </trkpt>
      <trkpt lat="49.55557" lon="3.33612">
        <ele>210</ele>
        <time>2016-08-27T08:59:32.000Z</time>
      </trkpt>
      <trkpt lat="49.55556" lon="3.33617">
        <ele>210.2</ele>
        <time>2016-08-27T08:59:33.000Z</time>
      </trkpt>
      <trkpt lat="49.55552" lon="3.33626">
        <ele>210.4</ele>
        <time>2016-08-27T08:59:35.000Z</time>
      </trkpt>
      <trkpt lat="49.5555" lon="3.3363">
        <ele>210.5</ele>
        <time>2016-08-27T08:59:36.000Z</time>
      </trkpt>
      <trkpt lat="49.55547" lon="3.33639">
        <ele>210.8</ele>
        <time>2016-08-27T08:59:38.000Z</time>
      </trkpt>
      <trkpt lat="49.55545" lon="3.33643">
        <ele>211</ele>
        <time>2016-08-27T08:59:39.000Z</time>
      </trkpt>
      <trkpt lat="49.5554" lon="3.33652">
        <ele>211.5</ele>
        <time>2016-08-27T08:59:43.000Z</time>
      </trkpt>
      <trkpt lat="49.55538" lon="3.33654">
        <ele>211.8</ele>
        <time>2016-08-27T08:59:44.000Z</time>
      </trkpt>
      <trkpt lat="49.55531" lon="3.3366">
        <ele>212.7</ele>
        <time>2016-08-27T08:59:49.000Z</time>
      </trkpt>
      <trkpt lat="49.5553" lon="3.33661">
        <ele>212.7</ele>
        <time>2016-08-27T08:59:50.000Z</time>
      </trkpt>
      <trkpt lat="49.55523" lon="3.33667">
        <ele>213.7</ele>
        <time>2016-08-27T08:59:55.000Z</time>
      </trkpt>
      <trkpt lat="49.55521" lon="3.33668">
        <ele>213.8</ele>
        <time>2016-08-27T08:59:56.000Z</time>
      </trkpt>
      <trkpt lat="49.55514" lon="3.33671">
        <ele>214.3</ele>
        <time>2016-08-27T09:00:01.000Z</time>
      </trkpt>
      <trkpt lat="49.55513" lon="3.33672">
        <ele>214.3</ele>
        <time>2016-08-27T09:00:02.000Z</time>
      </trkpt>
      <trkpt lat="49.55505" lon="3.33676">
        <ele>215.2</ele>
        <time>2016-08-27T09:00:07.000Z</time>
      </trkpt>
      <trkpt lat="49.55504" lon="3.33676">
        <ele>215.2</ele>
        <time>2016-08-27T09:00:08.000Z</time>
      </trkpt>
      <trkpt lat="49.55496" lon="3.3368">
        <ele>215.4</ele>
        <time>2016-08-27T09:00:13.000Z</time>
      </trkpt>
      <trkpt lat="49.55495" lon="3.33681">
        <ele>215.4</ele>
        <time>2016-08-27T09:00:14.000Z</time>
      </trkpt>
      <trkpt lat="49.55487" lon="3.33686">
        <ele>214.8</ele>
        <time>2016-08-27T09:00:19.000Z</time>
      </trkpt>
      <trkpt lat="49.55486" lon="3.33687">
        <ele>214.7</ele>
        <time>2016-08-27T09:00:20.000Z</time>
      </trkpt>
      <trkpt lat="49.55478" lon="3.33692">
        <ele>215.2</ele>
        <time>2016-08-27T09:00:26.000Z</time>
      </trkpt>
      <trkpt lat="49.55477" lon="3.33693">
        <ele>215.4</ele>
        <time>2016-08-27T09:00:27.000Z</time>
      </trkpt>
      <trkpt lat="49.55468" lon="3.33697">
        <ele>215.9</ele>
        <time>2016-08-27T09:00:33.000Z</time>
      </trkpt>
      <trkpt lat="49.55467" lon="3.33698">
        <ele>216.1</ele>
        <time>2016-08-27T09:00:34.000Z</time>
      </trkpt>
      <trkpt lat="49.5546" lon="3.33703">
        <ele>216.4</ele>
        <time>2016-08-27T09:00:40.000Z</time>
      </trkpt>
      <trkpt lat="49.55458" lon="3.33703">
        <ele>216.5</ele>
        <time>2016-08-27T09:00:41.000Z</time>
      </trkpt>
      <trkpt lat="49.55451" lon="3.33707">
        <ele>216.6</ele>
        <time>2016-08-27T09:00:46.000Z</time>
      </trkpt>
      <trkpt lat="49.5545" lon="3.33707">
        <ele>216.5</ele>
        <time>2016-08-27T09:00:47.000Z</time>
      </trkpt>
      <trkpt lat="49.55442" lon="3.33711">
        <ele>216.2</ele>
        <time>2016-08-27T09:00:52.000Z</time>
      </trkpt>
      <trkpt lat="49.55441" lon="3.33712">
        <ele>216.3</ele>
        <time>2016-08-27T09:00:53.000Z</time>
      </trkpt>
      <trkpt lat="49.55432" lon="3.33717">
        <ele>216.4</ele>
        <time>2016-08-27T09:00:59.000Z</time>
      </trkpt>
      <trkpt lat="49.55431" lon="3.33717">
        <ele>216.2</ele>
        <time>2016-08-27T09:01:00.000Z</time>
      </trkpt>
      <trkpt lat="49.55422" lon="3.33721">
        <ele>216.7</ele>
        <time>2016-08-27T09:01:06.000Z</time>
      </trkpt>
      <trkpt lat="49.55421" lon="3.33721">
        <ele>217</ele>
        <time>2016-08-27T09:01:07.000Z</time>
      </trkpt>
      <trkpt lat="49.55413" lon="3.33723">
        <ele>216.8</ele>
        <time>2016-08-27T09:01:12.000Z</time>
      </trkpt>
      <trkpt lat="49.55412" lon="3.33723">
        <ele>216.7</ele>
        <time>2016-08-27T09:01:13.000Z</time>
      </trkpt>
      <trkpt lat="49.55404" lon="3.33724">
        <ele>216.1</ele>
        <time>2016-08-27T09:01:18.000Z</time>
      </trkpt>
      <trkpt lat="49.55402" lon="3.33725">
        <ele>216.1</ele>
        <time>2016-08-27T09:01:19.000Z</time>
      </trkpt>
      <trkpt lat="49.55394" lon="3.33728">
        <ele>216.4</ele>
        <time>2016-08-27T09:01:25.000Z</time>
      </trkpt>
      <trkpt lat="49.55392" lon="3.33729">
        <ele>216.3</ele>
        <time>2016-08-27T09:01:26.000Z</time>
      </trkpt>
      <trkpt lat="49.55383" lon="3.33731">
        <ele>216.8</ele>
        <time>2016-08-27T09:01:32.000Z</time>
      </trkpt>
      <trkpt lat="49.55382" lon="3.33732">
        <ele>216.9</ele>
        <time>2016-08-27T09:01:33.000Z</time>
      </trkpt>
      <trkpt lat="49.55374" lon="3.33734">
        <ele>217.3</ele>
        <time>2016-08-27T09:01:38.000Z</time>
      </trkpt>
      <trkpt lat="49.55373" lon="3.33735">
        <ele>217.3</ele>
        <time>2016-08-27T09:01:39.000Z</time>
      </trkpt>
      <trkpt lat="49.55365" lon="3.33737">
        <ele>217.4</ele>
        <time>2016-08-27T09:01:44.000Z</time>
      </trkpt>
      <trkpt lat="49.55363" lon="3.33736">
        <ele>217.5</ele>
        <time>2016-08-27T09:01:45.000Z</time>
      </trkpt>
      <trkpt lat="49.55355" lon="3.33739">
        <ele>217.5</ele>
        <time>2016-08-27T09:01:50.000Z</time>
      </trkpt>
      <trkpt lat="49.55354" lon="3.3374">
        <ele>217.6</ele>
        <time>2016-08-27T09:01:51.000Z</time>
      </trkpt>
      <trkpt lat="49.55346" lon="3.33742">
        <ele>217.5</ele>
        <time>2016-08-27T09:01:56.000Z</time>
      </trkpt>
      <trkpt lat="49.55344" lon="3.33742">
        <ele>217.6</ele>
        <time>2016-08-27T09:01:57.000Z</time>
      </trkpt>
      <trkpt lat="49.55337" lon="3.33745">
        <ele>218</ele>
        <time>2016-08-27T09:02:02.000Z</time>
      </trkpt>
      <trkpt lat="49.55335" lon="3.33745">
        <ele>218.1</ele>
        <time>2016-08-27T09:02:03.000Z</time>
      </trkpt>
      <trkpt lat="49.55328" lon="3.33748">
        <ele>218.7</ele>
        <time>2016-08-27T09:02:08.000Z</time>
      </trkpt>
      <trkpt lat="49.55326" lon="3.33748">
        <ele>218.6</ele>
        <time>2016-08-27T09:02:09.000Z</time>
      </trkpt>
      <trkpt lat="49.55319" lon="3.33751">
        <ele>219.1</ele>
        <time>2016-08-27T09:02:14.000Z</time>
      </trkpt>
      <trkpt lat="49.55317" lon="3.33751">
        <ele>219</ele>
        <time>2016-08-27T09:02:15.000Z</time>
      </trkpt>
      <trkpt lat="49.55309" lon="3.33752">
        <ele>218.1</ele>
        <time>2016-08-27T09:02:20.000Z</time>
      </trkpt>
      <trkpt lat="49.55308" lon="3.33753">
        <ele>218</ele>
        <time>2016-08-27T09:02:21.000Z</time>
      </trkpt>
      <trkpt lat="49.553" lon="3.33755">
        <ele>217.7</ele>
        <time>2016-08-27T09:02:26.000Z</time>
      </trkpt>
      <trkpt lat="49.55298" lon="3.33755">
        <ele>217.7</ele>
        <time>2016-08-27T09:02:27.000Z</time>
      </trkpt>
      <trkpt lat="49.5529" lon="3.33757">
        <ele>217.7</ele>
        <time>2016-08-27T09:02:33.000Z</time>
      </trkpt>
      <trkpt lat="49.55288" lon="3.33757">
        <ele>217.7</ele>
        <time>2016-08-27T09:02:34.000Z</time>
      </trkpt>
      <trkpt lat="49.55279" lon="3.33759">
        <ele>218.1</ele>
        <time>2016-08-27T09:02:40.000Z</time>
      </trkpt>
      <trkpt lat="49.55278" lon="3.3376">
        <ele>218</ele>
        <time>2016-08-27T09:02:41.000Z</time>
      </trkpt>
      <trkpt lat="49.5527" lon="3.33763">
        <ele>218.2</ele>
        <time>2016-08-27T09:02:46.000Z</time>
      </trkpt>
      <trkpt lat="49.55269" lon="3.33763">
        <ele>218</ele>
        <time>2016-08-27T09:02:47.000Z</time>
      </trkpt>
      <trkpt lat="49.5526" lon="3.33766">
        <ele>217.6</ele>
        <time>2016-08-27T09:02:53.000Z</time>
      </trkpt>
      <trkpt lat="49.55259" lon="3.33766">
        <ele>217.5</ele>
        <time>2016-08-27T09:02:54.000Z</time>
      </trkpt>
      <trkpt lat="49.5525" lon="3.33767">
        <ele>216</ele>
        <time>2016-08-27T09:03:00.000Z</time>
      </trkpt>
      <trkpt lat="49.55249" lon="3.33768">
        <ele>215.9</ele>
        <time>2016-08-27T09:03:01.000Z</time>
      </trkpt>
      <trkpt lat="49.55241" lon="3.3377">
        <ele>215.7</ele>
        <time>2016-08-27T09:03:06.000Z</time>
      </trkpt>
      <trkpt lat="49.5524" lon="3.3377">
        <ele>215.7</ele>
        <time>2016-08-27T09:03:07.000Z</time>
      </trkpt>
      <trkpt lat="49.55232" lon="3.33773">
        <ele>216</ele>
        <time>2016-08-27T09:03:13.000Z</time>
      </trkpt>
      <trkpt lat="49.5523" lon="3.33773">
        <ele>216.1</ele>
        <time>2016-08-27T09:03:14.000Z</time>
      </trkpt>
      <trkpt lat="49.55222" lon="3.33775">
        <ele>216.3</ele>
        <time>2016-08-27T09:03:20.000Z</time>
      </trkpt>
      <trkpt lat="49.5522" lon="3.33776">
        <ele>216.4</ele>
        <time>2016-08-27T09:03:21.000Z</time>
      </trkpt>
      <trkpt lat="49.55211" lon="3.33778">
        <ele>217.1</ele>
        <time>2016-08-27T09:03:27.000Z</time>
      </trkpt>
      <trkpt lat="49.5521" lon="3.33779">
        <ele>217.1</ele>
        <time>2016-08-27T09:03:28.000Z</time>
      </trkpt>
      <trkpt lat="49.55202" lon="3.33779">
        <ele>216.6</ele>
        <time>2016-08-27T09:03:33.000Z</time>
      </trkpt>
      <trkpt lat="49.55201" lon="3.33779">
        <ele>216.4</ele>
        <time>2016-08-27T09:03:34.000Z</time>
      </trkpt>
      <trkpt lat="49.55192" lon="3.33781">
        <ele>216.1</ele>
        <time>2016-08-27T09:03:39.000Z</time>
      </trkpt>
      <trkpt lat="49.55191" lon="3.33781">
        <ele>216.2</ele>
        <time>2016-08-27T09:03:40.000Z</time>
      </trkpt>
      <trkpt lat="49.55183" lon="3.33781">
        <ele>215.7</ele>
        <time>2016-08-27T09:03:45.000Z</time>
      </trkpt>
      <trkpt lat="49.55181" lon="3.33781">
        <ele>215.6</ele>
        <time>2016-08-27T09:03:46.000Z</time>
      </trkpt>
      <trkpt lat="49.55173" lon="3.33782">
        <ele>216</ele>
        <time>2016-08-27T09:03:51.000Z</time>
      </trkpt>
      <trkpt lat="49.55172" lon="3.33783">
        <ele>216.1</ele>
        <time>2016-08-27T09:03:52.000Z</time>
      </trkpt>
      <trkpt lat="49.55163" lon="3.33785">
        <ele>215.4</ele>
        <time>2016-08-27T09:03:58.000Z</time>
      </trkpt>
      <trkpt lat="49.55162" lon="3.33785">
        <ele>215.5</ele>
        <time>2016-08-27T09:03:59.000Z</time>
      </trkpt>
      <trkpt lat="49.55161" lon="3.33788">
        <ele>211.3</ele>
        <time>2016-08-27T09:04:11.000Z</time>
      </trkpt>
      <trkpt lat="49.55161" lon="3.33789">
        <ele>210.9</ele>
        <time>2016-08-27T09:04:12.000Z</time>
      </trkpt>
      <trkpt lat="49.5516" lon="3.33788">
        <ele>211</ele>
        <time>2016-08-27T09:04:13.000Z</time>
      </trkpt>
      <trkpt lat="49.55152" lon="3.33787">
        <ele>210.1</ele>
        <time>2016-08-27T09:04:19.000Z</time>
      </trkpt>
      <trkpt lat="49.5515" lon="3.33787">
        <ele>210.1</ele>
        <time>2016-08-27T09:04:20.000Z</time>
      </trkpt>
      <trkpt lat="49.55142" lon="3.33786">
        <ele>210.3</ele>
        <time>2016-08-27T09:04:25.000Z</time>
      </trkpt>
      <trkpt lat="49.55141" lon="3.33786">
        <ele>210.4</ele>
        <time>2016-08-27T09:04:26.000Z</time>
      </trkpt>
      <trkpt lat="49.55132" lon="3.33786">
        <ele>210.5</ele>
        <time>2016-08-27T09:04:32.000Z</time>
      </trkpt>
      <trkpt lat="49.5513" lon="3.33786">
        <ele>210.4</ele>
        <time>2016-08-27T09:04:33.000Z</time>
      </trkpt>
      <trkpt lat="49.55122" lon="3.33787">
        <ele>210.8</ele>
        <time>2016-08-27T09:04:38.000Z</time>
      </trkpt>
      <trkpt lat="49.55121" lon="3.33787">
        <ele>210.8</ele>
        <time>2016-08-27T09:04:39.000Z</time>
      </trkpt>
      <trkpt lat="49.55113" lon="3.33788">
        <ele>210.8</ele>
        <time>2016-08-27T09:04:44.000Z</time>
      </trkpt>
      <trkpt lat="49.55111" lon="3.33788">
        <ele>210.9</ele>
        <time>2016-08-27T09:04:45.000Z</time>
      </trkpt>
      <trkpt lat="49.55104" lon="3.33788">
        <ele>211</ele>
        <time>2016-08-27T09:04:50.000Z</time>
      </trkpt>
      <trkpt lat="49.55102" lon="3.33788">
        <ele>211.2</ele>
        <time>2016-08-27T09:04:51.000Z</time>
      </trkpt>
      <trkpt lat="49.55094" lon="3.33788">
        <ele>211.7</ele>
        <time>2016-08-27T09:04:56.000Z</time>
      </trkpt>
      <trkpt lat="49.55093" lon="3.33788">
        <ele>211.7</ele>
        <time>2016-08-27T09:04:57.000Z</time>
      </trkpt>
      <trkpt lat="49.55084" lon="3.33788">
        <ele>212.6</ele>
        <time>2016-08-27T09:05:03.000Z</time>
      </trkpt>
      <trkpt lat="49.55082" lon="3.33788">
        <ele>212.7</ele>
        <time>2016-08-27T09:05:04.000Z</time>
      </trkpt>
      <trkpt lat="49.55075" lon="3.33788">
        <ele>212.8</ele>
        <time>2016-08-27T09:05:09.000Z</time>
      </trkpt>
      <trkpt lat="49.55073" lon="3.33789">
        <ele>213</ele>
        <time>2016-08-27T09:05:10.000Z</time>
      </trkpt>
      <trkpt lat="49.55065" lon="3.33788">
        <ele>212.7</ele>
        <time>2016-08-27T09:05:15.000Z</time>
      </trkpt>
      <trkpt lat="49.55063" lon="3.33788">
        <ele>212.7</ele>
        <time>2016-08-27T09:05:16.000Z</time>
      </trkpt>
      <trkpt lat="49.55055" lon="3.33787">
        <ele>212.5</ele>
        <time>2016-08-27T09:05:21.000Z</time>
      </trkpt>
      <trkpt lat="49.55054" lon="3.33787">
        <ele>212.5</ele>
        <time>2016-08-27T09:05:22.000Z</time>
      </trkpt>
      <trkpt lat="49.55046" lon="3.33785">
        <ele>211.9</ele>
        <time>2016-08-27T09:05:27.000Z</time>
      </trkpt>
      <trkpt lat="49.55045" lon="3.33785">
        <ele>212</ele>
        <time>2016-08-27T09:05:28.000Z</time>
      </trkpt>
      <trkpt lat="49.55037" lon="3.33785">
        <ele>212.3</ele>
        <time>2016-08-27T09:05:33.000Z</time>
      </trkpt>
      <trkpt lat="49.55036" lon="3.33784">
        <ele>212.4</ele>
        <time>2016-08-27T09:05:34.000Z</time>
      </trkpt>
      <trkpt lat="49.55028" lon="3.33786">
        <ele>212.8</ele>
        <time>2016-08-27T09:05:40.000Z</time>
      </trkpt>
      <trkpt lat="49.55026" lon="3.33786">
        <ele>212.9</ele>
        <time>2016-08-27T09:05:41.000Z</time>
      </trkpt>
      <trkpt lat="49.55018" lon="3.33786">
        <ele>212.7</ele>
        <time>2016-08-27T09:05:46.000Z</time>
      </trkpt>
      <trkpt lat="49.55016" lon="3.33785">
        <ele>212.6</ele>
        <time>2016-08-27T09:05:47.000Z</time>
      </trkpt>
      <trkpt lat="49.55008" lon="3.33781">
        <ele>212.2</ele>
        <time>2016-08-27T09:05:53.000Z</time>
      </trkpt>
      <trkpt lat="49.55007" lon="3.3378">
        <ele>212.3</ele>
        <time>2016-08-27T09:05:54.000Z</time>
      </trkpt>
      <trkpt lat="49.55002" lon="3.3377">
        <ele>212.2</ele>
        <time>2016-08-27T09:06:00.000Z</time>
      </trkpt>
      <trkpt lat="49.55001" lon="3.33768">
        <ele>212.2</ele>
        <time>2016-08-27T09:06:01.000Z</time>
      </trkpt>
      <trkpt lat="49.54997" lon="3.33758">
        <ele>212.7</ele>
        <time>2016-08-27T09:06:06.000Z</time>
      </trkpt>
      <trkpt lat="49.54997" lon="3.33755">
        <ele>212.7</ele>
        <time>2016-08-27T09:06:07.000Z</time>
      </trkpt>
      <trkpt lat="49.54996" lon="3.33743">
        <ele>212.4</ele>
        <time>2016-08-27T09:06:12.000Z</time>
      </trkpt>
      <trkpt lat="49.54996" lon="3.3374">
        <ele>212.4</ele>
        <time>2016-08-27T09:06:13.000Z</time>
      </trkpt>
      <trkpt lat="49.54997" lon="3.33728">
        <ele>212.4</ele>
        <time>2016-08-27T09:06:19.000Z</time>
      </trkpt>
      <trkpt lat="49.54997" lon="3.33725">
        <ele>212.3</ele>
        <time>2016-08-27T09:06:20.000Z</time>
      </trkpt>
      <trkpt lat="49.54996" lon="3.33713">
        <ele>211.6</ele>
        <time>2016-08-27T09:06:25.000Z</time>
      </trkpt>
      <trkpt lat="49.54996" lon="3.33711">
        <ele>211.5</ele>
        <time>2016-08-27T09:06:26.000Z</time>
      </trkpt>
      <trkpt lat="49.54997" lon="3.33698">
        <ele>210.4</ele>
        <time>2016-08-27T09:06:32.000Z</time>
      </trkpt>
      <trkpt lat="49.54998" lon="3.33696">
        <ele>210.2</ele>
        <time>2016-08-27T09:06:33.000Z</time>
      </trkpt>
      <trkpt lat="49.54999" lon="3.33684">
        <ele>210.2</ele>
        <time>2016-08-27T09:06:38.000Z</time>
      </trkpt>
      <trkpt lat="49.54999" lon="3.33681">
        <ele>210.1</ele>
        <time>2016-08-27T09:06:39.000Z</time>
      </trkpt>
      <trkpt lat="49.55" lon="3.3367">
        <ele>209.8</ele>
        <time>2016-08-27T09:06:44.000Z</time>
      </trkpt>
      <trkpt lat="49.55" lon="3.33667">
        <ele>209.7</ele>
        <time>2016-08-27T09:06:45.000Z</time>
      </trkpt>
      <trkpt lat="49.55" lon="3.33655">
        <ele>209</ele>
        <time>2016-08-27T09:06:50.000Z</time>
      </trkpt>
      <trkpt lat="49.55" lon="3.33653">
        <ele>208.9</ele>
        <time>2016-08-27T09:06:51.000Z</time>
      </trkpt>
      <trkpt lat="49.55002" lon="3.33639">
        <ele>208.6</ele>
        <time>2016-08-27T09:06:57.000Z</time>
      </trkpt>
      <trkpt lat="49.55002" lon="3.33637">
        <ele>208.5</ele>
        <time>2016-08-27T09:06:58.000Z</time>
      </trkpt>
      <trkpt lat="49.55003" lon="3.33624">
        <ele>208.4</ele>
        <time>2016-08-27T09:07:03.000Z</time>
      </trkpt>
      <trkpt lat="49.55003" lon="3.33622">
        <ele>208.4</ele>
        <time>2016-08-27T09:07:04.000Z</time>
      </trkpt>
      <trkpt lat="49.55004" lon="3.3361">
        <ele>208.6</ele>
        <time>2016-08-27T09:07:10.000Z</time>
      </trkpt>
      <trkpt lat="49.55004" lon="3.33608">
        <ele>208.5</ele>
        <time>2016-08-27T09:07:11.000Z</time>
      </trkpt>
      <trkpt lat="49.55005" lon="3.33596">
        <ele>208.1</ele>
        <time>2016-08-27T09:07:16.000Z</time>
      </trkpt>
      <trkpt lat="49.55005" lon="3.33594">
        <ele>207.9</ele>
        <time>2016-08-27T09:07:17.000Z</time>
      </trkpt>
      <trkpt lat="49.55006" lon="3.33581">
        <ele>207.2</ele>
        <time>2016-08-27T09:07:22.000Z</time>
      </trkpt>
      <trkpt lat="49.55006" lon="3.33579">
        <ele>207.1</ele>
        <time>2016-08-27T09:07:23.000Z</time>
      </trkpt>
      <trkpt lat="49.55007" lon="3.33567">
        <ele>206.4</ele>
        <time>2016-08-27T09:07:28.000Z</time>
      </trkpt>
      <trkpt lat="49.55008" lon="3.33565">
        <ele>206.3</ele>
        <time>2016-08-27T09:07:29.000Z</time>
      </trkpt>
      <trkpt lat="49.55008" lon="3.33553">
        <ele>205.7</ele>
        <time>2016-08-27T09:07:34.000Z</time>
      </trkpt>
      <trkpt lat="49.55009" lon="3.33551">
        <ele>205.6</ele>
        <time>2016-08-27T09:07:35.000Z</time>
      </trkpt>
      <trkpt lat="49.55011" lon="3.33539">
        <ele>205.1</ele>
        <time>2016-08-27T09:07:41.000Z</time>
      </trkpt>
      <trkpt lat="49.55011" lon="3.33536">
        <ele>204.8</ele>
        <time>2016-08-27T09:07:42.000Z</time>
      </trkpt>
      <trkpt lat="49.55012" lon="3.33525">
        <ele>204.4</ele>
        <time>2016-08-27T09:07:47.000Z</time>
      </trkpt>
      <trkpt lat="49.55013" lon="3.33522">
        <ele>204.3</ele>
        <time>2016-08-27T09:07:48.000Z</time>
      </trkpt>
      <trkpt lat="49.55014" lon="3.3351">
        <ele>203.8</ele>
        <time>2016-08-27T09:07:53.000Z</time>
      </trkpt>
      <trkpt lat="49.55015" lon="3.33507">
        <ele>203.9</ele>
        <time>2016-08-27T09:07:54.000Z</time>
      </trkpt>
      <trkpt lat="49.55018" lon="3.33496">
        <ele>203.4</ele>
        <time>2016-08-27T09:07:59.000Z</time>
      </trkpt>
      <trkpt lat="49.55019" lon="3.33493">
        <ele>203.2</ele>
        <time>2016-08-27T09:08:00.000Z</time>
      </trkpt>
      <trkpt lat="49.55024" lon="3.33483">
        <ele>202.6</ele>
        <time>2016-08-27T09:08:05.000Z</time>
      </trkpt>
      <trkpt lat="49.55024" lon="3.33481">
        <ele>202.3</ele>
        <time>2016-08-27T09:08:06.000Z</time>
      </trkpt>
      <trkpt lat="49.55029" lon="3.33472">
        <ele>201.4</ele>
        <time>2016-08-27T09:08:11.000Z</time>
      </trkpt>
      <trkpt lat="49.5503" lon="3.3347">
        <ele>201.3</ele>
        <time>2016-08-27T09:08:12.000Z</time>
      </trkpt>
      <trkpt lat="49.55036" lon="3.33462">
        <ele>200.3</ele>
        <time>2016-08-27T09:08:17.000Z</time>
      </trkpt>
      <trkpt lat="49.55037" lon="3.33461">
        <ele>200</ele>
        <time>2016-08-27T09:08:18.000Z</time>
      </trkpt>
      <trkpt lat="49.55043" lon="3.33453">
        <ele>199.6</ele>
        <time>2016-08-27T09:08:23.000Z</time>
      </trkpt>
      <trkpt lat="49.55044" lon="3.33451">
        <ele>199.6</ele>
        <time>2016-08-27T09:08:24.000Z</time>
      </trkpt>
      <trkpt lat="49.5505" lon="3.33443">
        <ele>199.5</ele>
        <time>2016-08-27T09:08:29.000Z</time>
      </trkpt>
      <trkpt lat="49.55051" lon="3.33442">
        <ele>199.5</ele>
        <time>2016-08-27T09:08:30.000Z</time>
      </trkpt>
      <trkpt lat="49.55057" lon="3.33433">
        <ele>198.7</ele>
        <time>2016-08-27T09:08:35.000Z</time>
      </trkpt>
      <trkpt lat="49.55058" lon="3.33432">
        <ele>198.5</ele>
        <time>2016-08-27T09:08:36.000Z</time>
      </trkpt>
      <trkpt lat="49.55065" lon="3.33424">
        <ele>197.5</ele>
        <time>2016-08-27T09:08:41.000Z</time>
      </trkpt>
      <trkpt lat="49.55066" lon="3.33423">
        <ele>197.2</ele>
        <time>2016-08-27T09:08:42.000Z</time>
      </trkpt>
      <trkpt lat="49.55072" lon="3.33414">
        <ele>195.7</ele>
        <time>2016-08-27T09:08:48.000Z</time>
      </trkpt>
      <trkpt lat="49.55073" lon="3.33412">
        <ele>195.5</ele>
        <time>2016-08-27T09:08:49.000Z</time>
      </trkpt>
      <trkpt lat="49.55077" lon="3.334">
        <ele>192.9</ele>
        <time>2016-08-27T09:08:58.000Z</time>
      </trkpt>
      <trkpt lat="49.55076" lon="3.33399">
        <ele>192.8</ele>
        <time>2016-08-27T09:08:59.000Z</time>
      </trkpt>
      <trkpt lat="49.55067" lon="3.334">
        <ele>192.1</ele>
        <time>2016-08-27T09:09:10.000Z</time>
      </trkpt>
      <trkpt lat="49.55066" lon="3.334">
        <ele>192</ele>
        <time>2016-08-27T09:09:11.000Z</time>
      </trkpt>
      <trkpt lat="49.55065" lon="3.33401">
        <ele>191.8</ele>
        <time>2016-08-27T09:09:12.000Z</time>
      </trkpt>
      <trkpt lat="49.55065" lon="3.334">
        <ele>191.8</ele>
        <time>2016-08-27T09:09:13.000Z</time>
      </trkpt>
      <trkpt lat="49.55065" lon="3.334">
        <ele>191.7</ele>
        <time>2016-08-27T09:09:14.000Z</time>
      </trkpt>
      <trkpt lat="49.55065" lon="3.33401">
        <ele>191.6</ele>
        <time>2016-08-27T09:09:15.000Z</time>
      </trkpt>
      <trkpt lat="49.55065" lon="3.33401">
        <ele>191.6</ele>
        <time>2016-08-27T09:09:16.000Z</time>
      </trkpt>
      <trkpt lat="49.55064" lon="3.334">
        <ele>191.5</ele>
        <time>2016-08-27T09:09:17.000Z</time>
      </trkpt>
      <trkpt lat="49.55063" lon="3.334">
        <ele>191.5</ele>
        <time>2016-08-27T09:09:19.000Z</time>
      </trkpt>
      <trkpt lat="49.55062" lon="3.334">
        <ele>191.5</ele>
        <time>2016-08-27T09:09:20.000Z</time>
      </trkpt>
      <trkpt lat="49.55062" lon="3.334">
        <ele>191.4</ele>
        <time>2016-08-27T09:09:21.000Z</time>
      </trkpt>
      <trkpt lat="49.55061" lon="3.334">
        <ele>191.4</ele>
        <time>2016-08-27T09:09:22.000Z</time>
      </trkpt>
      <trkpt lat="49.55061" lon="3.334">
        <ele>191.2</ele>
        <time>2016-08-27T09:09:23.000Z</time>
      </trkpt>
      <trkpt lat="49.5506" lon="3.33399">
        <ele>191.2</ele>
        <time>2016-08-27T09:09:24.000Z</time>
      </trkpt>
      <trkpt lat="49.55053" lon="3.33395">
        <ele>190.8</ele>
        <time>2016-08-27T09:09:30.000Z</time>
      </trkpt>
      <trkpt lat="49.55051" lon="3.33395">
        <ele>190.7</ele>
        <time>2016-08-27T09:09:31.000Z</time>
      </trkpt>
      <trkpt lat="49.55044" lon="3.33394">
        <ele>190.2</ele>
        <time>2016-08-27T09:09:35.000Z</time>
      </trkpt>
      <trkpt lat="49.55042" lon="3.33394">
        <ele>190.1</ele>
        <time>2016-08-27T09:09:36.000Z</time>
      </trkpt>
      <trkpt lat="49.55041" lon="3.33392">
        <ele>190</ele>
        <time>2016-08-27T09:09:38.000Z</time>
      </trkpt>
      <trkpt lat="49.55041" lon="3.33391">
        <ele>190</ele>
        <time>2016-08-27T09:09:39.000Z</time>
      </trkpt>
      <trkpt lat="49.5504" lon="3.3339">
        <ele>190.1</ele>
        <time>2016-08-27T09:09:40.000Z</time>
      </trkpt>
      <trkpt lat="49.55038" lon="3.33387">
        <ele>190.1</ele>
        <time>2016-08-27T09:09:42.000Z</time>
      </trkpt>
      <trkpt lat="49.55037" lon="3.33387">
        <ele>190</ele>
        <time>2016-08-27T09:09:43.000Z</time>
      </trkpt>
      <trkpt lat="49.55035" lon="3.33385">
        <ele>189.8</ele>
        <time>2016-08-27T09:09:44.000Z</time>
      </trkpt>
      <trkpt lat="49.55032" lon="3.33384">
        <ele>189.6</ele>
        <time>2016-08-27T09:09:45.000Z</time>
      </trkpt>
      <trkpt lat="49.55025" lon="3.33379">
        <ele>189.4</ele>
        <time>2016-08-27T09:09:48.000Z</time>
      </trkpt>
      <trkpt lat="49.55022" lon="3.33378">
        <ele>189.3</ele>
        <time>2016-08-27T09:09:49.000Z</time>
      </trkpt>
      <trkpt lat="49.55015" lon="3.33373">
        <ele>188.8</ele>
        <time>2016-08-27T09:09:51.000Z</time>
      </trkpt>
      <trkpt lat="49.55012" lon="3.33371">
        <ele>188.5</ele>
        <time>2016-08-27T09:09:52.000Z</time>
      </trkpt>
      <trkpt lat="49.55005" lon="3.33363">
        <ele>187.7</ele>
        <time>2016-08-27T09:09:56.000Z</time>
      </trkpt>
      <trkpt lat="49.55003" lon="3.33362">
        <ele>187.5</ele>
        <time>2016-08-27T09:09:57.000Z</time>
      </trkpt>
      <trkpt lat="49.54996" lon="3.33356">
        <ele>186.9</ele>
        <time>2016-08-27T09:10:02.000Z</time>
      </trkpt>
      <trkpt lat="49.54994" lon="3.33355">
        <ele>186.9</ele>
        <time>2016-08-27T09:10:03.000Z</time>
      </trkpt>
      <trkpt lat="49.54986" lon="3.33349">
        <ele>186.8</ele>
        <time>2016-08-27T09:10:09.000Z</time>
      </trkpt>
      <trkpt lat="49.54985" lon="3.33349">
        <ele>186.7</ele>
        <time>2016-08-27T09:10:10.000Z</time>
      </trkpt>
      <trkpt lat="49.5498" lon="3.3334">
        <ele>185.7</ele>
        <time>2016-08-27T09:10:15.000Z</time>
      </trkpt>
      <trkpt lat="49.54978" lon="3.33339">
        <ele>185.6</ele>
        <time>2016-08-27T09:10:16.000Z</time>
      </trkpt>
      <trkpt lat="49.54973" lon="3.33329">
        <ele>185.4</ele>
        <time>2016-08-27T09:10:23.000Z</time>
      </trkpt>
      <trkpt lat="49.54973" lon="3.33327">
        <ele>185.4</ele>
        <time>2016-08-27T09:10:24.000Z</time>
      </trkpt>
      <trkpt lat="49.54969" lon="3.33317">
        <ele>184.6</ele>
        <time>2016-08-27T09:10:30.000Z</time>
      </trkpt>
      <trkpt lat="49.54968" lon="3.33314">
        <ele>183.6</ele>
        <time>2016-08-27T09:10:31.000Z</time>
      </trkpt>
      <trkpt lat="49.54967" lon="3.33308">
        <ele>182.4</ele>
        <time>2016-08-27T09:10:34.000Z</time>
      </trkpt>
      <trkpt lat="49.54967" lon="3.33307">
        <ele>182.4</ele>
        <time>2016-08-27T09:10:35.000Z</time>
      </trkpt>
      <trkpt lat="49.54966" lon="3.33304">
        <ele>182.4</ele>
        <time>2016-08-27T09:10:36.000Z</time>
      </trkpt>
      <trkpt lat="49.54963" lon="3.33292">
        <ele>182.9</ele>
        <time>2016-08-27T09:10:41.000Z</time>
      </trkpt>
      <trkpt lat="49.54963" lon="3.33291">
        <ele>183</ele>
        <time>2016-08-27T09:10:42.000Z</time>
      </trkpt>
      <trkpt lat="49.54964" lon="3.33277">
        <ele>181.3</ele>
        <time>2016-08-27T09:10:48.000Z</time>
      </trkpt>
      <trkpt lat="49.54964" lon="3.33276">
        <ele>181.5</ele>
        <time>2016-08-27T09:10:49.000Z</time>
      </trkpt>
      <trkpt lat="49.54964" lon="3.33262">
        <ele>182</ele>
        <time>2016-08-27T09:10:57.000Z</time>
      </trkpt>
      <trkpt lat="49.54965" lon="3.3326">
        <ele>182.1</ele>
        <time>2016-08-27T09:10:58.000Z</time>
      </trkpt>
      <trkpt lat="49.54966" lon="3.33248">
        <ele>182.9</ele>
        <time>2016-08-27T09:11:03.000Z</time>
      </trkpt>
      <trkpt lat="49.54965" lon="3.33246">
        <ele>183.1</ele>
        <time>2016-08-27T09:11:04.000Z</time>
      </trkpt>
      <trkpt lat="49.54965" lon="3.33234">
        <ele>183.6</ele>
        <time>2016-08-27T09:11:09.000Z</time>
      </trkpt>
      <trkpt lat="49.54965" lon="3.33231">
        <ele>183.6</ele>
        <time>2016-08-27T09:11:10.000Z</time>
      </trkpt>
      <trkpt lat="49.54965" lon="3.33219">
        <ele>180.8</ele>
        <time>2016-08-27T09:11:15.000Z</time>
      </trkpt>
      <trkpt lat="49.54965" lon="3.33218">
        <ele>180.8</ele>
        <time>2016-08-27T09:11:16.000Z</time>
      </trkpt>
      <trkpt lat="49.54965" lon="3.33205">
        <ele>179.4</ele>
        <time>2016-08-27T09:11:21.000Z</time>
      </trkpt>
      <trkpt lat="49.54964" lon="3.33202">
        <ele>179.5</ele>
        <time>2016-08-27T09:11:22.000Z</time>
      </trkpt>
      <trkpt lat="49.54965" lon="3.33188">
        <ele>177.9</ele>
        <time>2016-08-27T09:11:27.000Z</time>
      </trkpt>
      <trkpt lat="49.54964" lon="3.33186">
        <ele>177.7</ele>
        <time>2016-08-27T09:11:28.000Z</time>
      </trkpt>
      <trkpt lat="49.54962" lon="3.33175">
        <ele>176.1</ele>
        <time>2016-08-27T09:11:32.000Z</time>
      </trkpt>
      <trkpt lat="49.54962" lon="3.33172">
        <ele>175.7</ele>
        <time>2016-08-27T09:11:33.000Z</time>
      </trkpt>
      <trkpt lat="49.54961" lon="3.33158">
        <ele>172.2</ele>
        <time>2016-08-27T09:11:38.000Z</time>
      </trkpt>
      <trkpt lat="49.54961" lon="3.33156">
        <ele>171.8</ele>
        <time>2016-08-27T09:11:39.000Z</time>
      </trkpt>
      <trkpt lat="49.54959" lon="3.33143">
        <ele>172.9</ele>
        <time>2016-08-27T09:11:45.000Z</time>
      </trkpt>
      <trkpt lat="49.54959" lon="3.33141">
        <ele>173.1</ele>
        <time>2016-08-27T09:11:46.000Z</time>
      </trkpt>
      <trkpt lat="49.54959" lon="3.33127">
        <ele>173.5</ele>
        <time>2016-08-27T09:11:53.000Z</time>
      </trkpt>
      <trkpt lat="49.54958" lon="3.33125">
        <ele>173.6</ele>
        <time>2016-08-27T09:11:54.000Z</time>
      </trkpt>
      <trkpt lat="49.54957" lon="3.33119">
        <ele>173.7</ele>
        <time>2016-08-27T09:11:57.000Z</time>
      </trkpt>
      <trkpt lat="49.54957" lon="3.33117">
        <ele>173.6</ele>
        <time>2016-08-27T09:11:58.000Z</time>
      </trkpt>
      <trkpt lat="49.54956" lon="3.33116">
        <ele>173.6</ele>
        <time>2016-08-27T09:11:59.000Z</time>
      </trkpt>
      <trkpt lat="49.54956" lon="3.33114">
        <ele>173.6</ele>
        <time>2016-08-27T09:12:00.000Z</time>
      </trkpt>
      <trkpt lat="49.54955" lon="3.33113">
        <ele>173.6</ele>
        <time>2016-08-27T09:12:01.000Z</time>
      </trkpt>
      <trkpt lat="49.54953" lon="3.331">
        <ele>170.7</ele>
        <time>2016-08-27T09:12:08.000Z</time>
      </trkpt>
      <trkpt lat="49.54954" lon="3.33098">
        <ele>170.2</ele>
        <time>2016-08-27T09:12:09.000Z</time>
      </trkpt>
      <trkpt lat="49.54951" lon="3.33086">
        <ele>168.8</ele>
        <time>2016-08-27T09:12:15.000Z</time>
      </trkpt>
      <trkpt lat="49.5495" lon="3.33083">
        <ele>168.7</ele>
        <time>2016-08-27T09:12:16.000Z</time>
      </trkpt>
      <trkpt lat="49.54947" lon="3.33071">
        <ele>167</ele>
        <time>2016-08-27T09:12:21.000Z</time>
      </trkpt>
      <trkpt lat="49.54947" lon="3.33069">
        <ele>166.6</ele>
        <time>2016-08-27T09:12:22.000Z</time>
      </trkpt>
      <trkpt lat="49.54945" lon="3.33058">
        <ele>165.4</ele>
        <time>2016-08-27T09:12:27.000Z</time>
      </trkpt>
      <trkpt lat="49.54945" lon="3.33055">
        <ele>165</ele>
        <time>2016-08-27T09:12:28.000Z</time>
      </trkpt>
      <trkpt lat="49.54945" lon="3.33049">
        <ele>164.3</ele>
        <time>2016-08-27T09:12:31.000Z</time>
      </trkpt>
      <trkpt lat="49.54945" lon="3.33047">
        <ele>164</ele>
        <time>2016-08-27T09:12:32.000Z</time>
      </trkpt>
      <trkpt lat="49.54944" lon="3.33046">
        <ele>164</ele>
        <time>2016-08-27T09:12:35.000Z</time>
      </trkpt>
      <trkpt lat="49.54943" lon="3.33041">
        <ele>163.5</ele>
        <time>2016-08-27T09:12:36.000Z</time>
      </trkpt>
      <trkpt lat="49.54941" lon="3.33028">
        <ele>162.6</ele>
        <time>2016-08-27T09:12:43.000Z</time>
      </trkpt>
      <trkpt lat="49.5494" lon="3.33025">
        <ele>162.2</ele>
        <time>2016-08-27T09:12:44.000Z</time>
      </trkpt>
      <trkpt lat="49.54936" lon="3.33015">
        <ele>161</ele>
        <time>2016-08-27T09:12:47.000Z</time>
      </trkpt>
      <trkpt lat="49.54934" lon="3.33012">
        <ele>161.1</ele>
        <time>2016-08-27T09:12:48.000Z</time>
      </trkpt>
      <trkpt lat="49.54928" lon="3.33004">
        <ele>161</ele>
        <time>2016-08-27T09:12:52.000Z</time>
      </trkpt>
      <trkpt lat="49.54927" lon="3.33002">
        <ele>160.9</ele>
        <time>2016-08-27T09:12:53.000Z</time>
      </trkpt>
      <trkpt lat="49.54924" lon="3.3299">
        <ele>159.5</ele>
        <time>2016-08-27T09:13:01.000Z</time>
      </trkpt>
      <trkpt lat="49.54923" lon="3.32988">
        <ele>159.3</ele>
        <time>2016-08-27T09:13:02.000Z</time>
      </trkpt>
      <trkpt lat="49.54916" lon="3.32979">
        <ele>158.4</ele>
        <time>2016-08-27T09:13:07.000Z</time>
      </trkpt>
      <trkpt lat="49.54915" lon="3.32977">
        <ele>158.3</ele>
        <time>2016-08-27T09:13:08.000Z</time>
      </trkpt>
      <trkpt lat="49.54909" lon="3.32971">
        <ele>157.4</ele>
        <time>2016-08-27T09:13:12.000Z</time>
      </trkpt>
      <trkpt lat="49.54907" lon="3.3297">
        <ele>157.4</ele>
        <time>2016-08-27T09:13:13.000Z</time>
      </trkpt>
      <trkpt lat="49.549" lon="3.32962">
        <ele>157.4</ele>
        <time>2016-08-27T09:13:18.000Z</time>
      </trkpt>
      <trkpt lat="49.54899" lon="3.3296">
        <ele>157.5</ele>
        <time>2016-08-27T09:13:19.000Z</time>
      </trkpt>
      <trkpt lat="49.54892" lon="3.32953">
        <ele>157.2</ele>
        <time>2016-08-27T09:13:24.000Z</time>
      </trkpt>
      <trkpt lat="49.54891" lon="3.32952">
        <ele>156.9</ele>
        <time>2016-08-27T09:13:25.000Z</time>
      </trkpt>
      <trkpt lat="49.54883" lon="3.32947">
        <ele>156.8</ele>
        <time>2016-08-27T09:13:30.000Z</time>
      </trkpt>
      <trkpt lat="49.54882" lon="3.32946">
        <ele>156.8</ele>
        <time>2016-08-27T09:13:31.000Z</time>
      </trkpt>
      <trkpt lat="49.54874" lon="3.32943">
        <ele>156.2</ele>
        <time>2016-08-27T09:13:36.000Z</time>
      </trkpt>
      <trkpt lat="49.54873" lon="3.32943">
        <ele>156.1</ele>
        <time>2016-08-27T09:13:37.000Z</time>
      </trkpt>
      <trkpt lat="49.54865" lon="3.32937">
        <ele>155.7</ele>
        <time>2016-08-27T09:13:45.000Z</time>
      </trkpt>
      <trkpt lat="49.54863" lon="3.32934">
        <ele>155.4</ele>
        <time>2016-08-27T09:13:46.000Z</time>
      </trkpt>
      <trkpt lat="49.54856" lon="3.3293">
        <ele>155.3</ele>
        <time>2016-08-27T09:13:51.000Z</time>
      </trkpt>
      <trkpt lat="49.54854" lon="3.32928">
        <ele>155.2</ele>
        <time>2016-08-27T09:13:52.000Z</time>
      </trkpt>
      <trkpt lat="49.54849" lon="3.32923">
        <ele>154.9</ele>
        <time>2016-08-27T09:13:54.000Z</time>
      </trkpt>
      <trkpt lat="49.54847" lon="3.32919">
        <ele>154.8</ele>
        <time>2016-08-27T09:13:55.000Z</time>
      </trkpt>
      <trkpt lat="49.54842" lon="3.32911">
        <ele>154.9</ele>
        <time>2016-08-27T09:13:58.000Z</time>
      </trkpt>
      <trkpt lat="49.5484" lon="3.32909">
        <ele>155</ele>
        <time>2016-08-27T09:13:59.000Z</time>
      </trkpt>
      <trkpt lat="49.54834" lon="3.32898">
        <ele>155.4</ele>
        <time>2016-08-27T09:14:02.000Z</time>
      </trkpt>
      <trkpt lat="49.54832" lon="3.32895">
        <ele>155.5</ele>
        <time>2016-08-27T09:14:03.000Z</time>
      </trkpt>
      <trkpt lat="49.54827" lon="3.32887">
        <ele>154.8</ele>
        <time>2016-08-27T09:14:07.000Z</time>
      </trkpt>
      <trkpt lat="49.54826" lon="3.32884">
        <ele>154.4</ele>
        <time>2016-08-27T09:14:08.000Z</time>
      </trkpt>
      <trkpt lat="49.5482" lon="3.32873">
        <ele>153.2</ele>
        <time>2016-08-27T09:14:12.000Z</time>
      </trkpt>
      <trkpt lat="49.54819" lon="3.32872">
        <ele>152.9</ele>
        <time>2016-08-27T09:14:13.000Z</time>
      </trkpt>
      <trkpt lat="49.54813" lon="3.32866">
        <ele>152.5</ele>
        <time>2016-08-27T09:14:16.000Z</time>
      </trkpt>
      <trkpt lat="49.54812" lon="3.32863">
        <ele>152.4</ele>
        <time>2016-08-27T09:14:17.000Z</time>
      </trkpt>
      <trkpt lat="49.54804" lon="3.32858">
        <ele>152.5</ele>
        <time>2016-08-27T09:14:25.000Z</time>
      </trkpt>
      <trkpt lat="49.54803" lon="3.32858">
        <ele>152.4</ele>
        <time>2016-08-27T09:14:26.000Z</time>
      </trkpt>
      <trkpt lat="49.54795" lon="3.32851">
        <ele>151.8</ele>
        <time>2016-08-27T09:14:32.000Z</time>
      </trkpt>
      <trkpt lat="49.54794" lon="3.32849">
        <ele>151.1</ele>
        <time>2016-08-27T09:14:33.000Z</time>
      </trkpt>
      <trkpt lat="49.54786" lon="3.32843">
        <ele>150.1</ele>
        <time>2016-08-27T09:14:39.000Z</time>
      </trkpt>
      <trkpt lat="49.54785" lon="3.32842">
        <ele>150.2</ele>
        <time>2016-08-27T09:14:40.000Z</time>
      </trkpt>
      <trkpt lat="49.54778" lon="3.32836">
        <ele>150.1</ele>
        <time>2016-08-27T09:14:46.000Z</time>
      </trkpt>
      <trkpt lat="49.54776" lon="3.32835">
        <ele>149.9</ele>
        <time>2016-08-27T09:14:47.000Z</time>
      </trkpt>
      <trkpt lat="49.54769" lon="3.32829">
        <ele>150</ele>
        <time>2016-08-27T09:14:53.000Z</time>
      </trkpt>
      <trkpt lat="49.54767" lon="3.32828">
        <ele>150</ele>
        <time>2016-08-27T09:14:54.000Z</time>
      </trkpt>
      <trkpt lat="49.54759" lon="3.32824">
        <ele>150</ele>
        <time>2016-08-27T09:15:00.000Z</time>
      </trkpt>
      <trkpt lat="49.54758" lon="3.32824">
        <ele>150.1</ele>
        <time>2016-08-27T09:15:01.000Z</time>
      </trkpt>
      <trkpt lat="49.54749" lon="3.32822">
        <ele>150.3</ele>
        <time>2016-08-27T09:15:07.000Z</time>
      </trkpt>
      <trkpt lat="49.54748" lon="3.32822">
        <ele>150.4</ele>
        <time>2016-08-27T09:15:08.000Z</time>
      </trkpt>
      <trkpt lat="49.54739" lon="3.32823">
        <ele>151</ele>
        <time>2016-08-27T09:15:15.000Z</time>
      </trkpt>
      <trkpt lat="49.54738" lon="3.32823">
        <ele>151.1</ele>
        <time>2016-08-27T09:15:16.000Z</time>
      </trkpt>
      <trkpt lat="49.5473" lon="3.32822">
        <ele>151.5</ele>
        <time>2016-08-27T09:15:22.000Z</time>
      </trkpt>
      <trkpt lat="49.54729" lon="3.32822">
        <ele>151.5</ele>
        <time>2016-08-27T09:15:23.000Z</time>
      </trkpt>
      <trkpt lat="49.54722" lon="3.32822">
        <ele>151.7</ele>
        <time>2016-08-27T09:15:28.000Z</time>
      </trkpt>
      <trkpt lat="49.54719" lon="3.32821">
        <ele>151.4</ele>
        <time>2016-08-27T09:15:29.000Z</time>
      </trkpt>
      <trkpt lat="49.54711" lon="3.32819">
        <ele>149.7</ele>
        <time>2016-08-27T09:15:35.000Z</time>
      </trkpt>
      <trkpt lat="49.5471" lon="3.32818">
        <ele>149.3</ele>
        <time>2016-08-27T09:15:36.000Z</time>
      </trkpt>
      <trkpt lat="49.54706" lon="3.32807">
        <ele>145.9</ele>
        <time>2016-08-27T09:15:44.000Z</time>
      </trkpt>
      <trkpt lat="49.54705" lon="3.32803">
        <ele>145.7</ele>
        <time>2016-08-27T09:15:45.000Z</time>
      </trkpt>
      <trkpt lat="49.54707" lon="3.32791">
        <ele>145.8</ele>
        <time>2016-08-27T09:15:49.000Z</time>
      </trkpt>
      <trkpt lat="49.54707" lon="3.32789">
        <ele>145.8</ele>
        <time>2016-08-27T09:15:50.000Z</time>
      </trkpt>
      <trkpt lat="49.54709" lon="3.32778">
        <ele>145.5</ele>
        <time>2016-08-27T09:15:54.000Z</time>
      </trkpt>
      <trkpt lat="49.5471" lon="3.32775">
        <ele>145.4</ele>
        <time>2016-08-27T09:15:55.000Z</time>
      </trkpt>
      <trkpt lat="49.54714" lon="3.32763">
        <ele>145.5</ele>
        <time>2016-08-27T09:16:00.000Z</time>
      </trkpt>
      <trkpt lat="49.54715" lon="3.32761">
        <ele>145.4</ele>
        <time>2016-08-27T09:16:01.000Z</time>
      </trkpt>
      <trkpt lat="49.54718" lon="3.32749">
        <ele>144.1</ele>
        <time>2016-08-27T09:16:07.000Z</time>
      </trkpt>
      <trkpt lat="49.54719" lon="3.32747">
        <ele>144</ele>
        <time>2016-08-27T09:16:08.000Z</time>
      </trkpt>
      <trkpt lat="49.54723" lon="3.32735">
        <ele>143.4</ele>
        <time>2016-08-27T09:16:14.000Z</time>
      </trkpt>
      <trkpt lat="49.54724" lon="3.32733">
        <ele>143.5</ele>
        <time>2016-08-27T09:16:15.000Z</time>
      </trkpt>
      <trkpt lat="49.54728" lon="3.32723">
        <ele>143.9</ele>
        <time>2016-08-27T09:16:20.000Z</time>
      </trkpt>
      <trkpt lat="49.54729" lon="3.32721">
        <ele>143.9</ele>
        <time>2016-08-27T09:16:21.000Z</time>
      </trkpt>
      <trkpt lat="49.54733" lon="3.3271">
        <ele>144.2</ele>
        <time>2016-08-27T09:16:26.000Z</time>
      </trkpt>
      <trkpt lat="49.54734" lon="3.32708">
        <ele>144.3</ele>
        <time>2016-08-27T09:16:27.000Z</time>
      </trkpt>
      <trkpt lat="49.54739" lon="3.32699">
        <ele>144.2</ele>
        <time>2016-08-27T09:16:32.000Z</time>
      </trkpt>
      <trkpt lat="49.5474" lon="3.32697">
        <ele>144.4</ele>
        <time>2016-08-27T09:16:33.000Z</time>
      </trkpt>
      <trkpt lat="49.54744" lon="3.32687">
        <ele>144.4</ele>
        <time>2016-08-27T09:16:38.000Z</time>
      </trkpt>
      <trkpt lat="49.54745" lon="3.32685">
        <ele>144.5</ele>
        <time>2016-08-27T09:16:39.000Z</time>
      </trkpt>
      <trkpt lat="49.54749" lon="3.32673">
        <ele>144.6</ele>
        <time>2016-08-27T09:16:45.000Z</time>
      </trkpt>
      <trkpt lat="49.5475" lon="3.32671">
        <ele>144.8</ele>
        <time>2016-08-27T09:16:46.000Z</time>
      </trkpt>
      <trkpt lat="49.54754" lon="3.32661">
        <ele>145</ele>
        <time>2016-08-27T09:16:51.000Z</time>
      </trkpt>
      <trkpt lat="49.54755" lon="3.32659">
        <ele>144.7</ele>
        <time>2016-08-27T09:16:52.000Z</time>
      </trkpt>
      <trkpt lat="49.54759" lon="3.32649">
        <ele>144.7</ele>
        <time>2016-08-27T09:16:57.000Z</time>
      </trkpt>
      <trkpt lat="49.5476" lon="3.32646">
        <ele>144.8</ele>
        <time>2016-08-27T09:16:58.000Z</time>
      </trkpt>
      <trkpt lat="49.54764" lon="3.32636">
        <ele>145.6</ele>
        <time>2016-08-27T09:17:03.000Z</time>
      </trkpt>
      <trkpt lat="49.54765" lon="3.32634">
        <ele>145.8</ele>
        <time>2016-08-27T09:17:04.000Z</time>
      </trkpt>
      <trkpt lat="49.5477" lon="3.32623">
        <ele>147</ele>
        <time>2016-08-27T09:17:10.000Z</time>
      </trkpt>
      <trkpt lat="49.54771" lon="3.32621">
        <ele>147.1</ele>
        <time>2016-08-27T09:17:11.000Z</time>
      </trkpt>
      <trkpt lat="49.54775" lon="3.32611">
        <ele>148.2</ele>
        <time>2016-08-27T09:17:17.000Z</time>
      </trkpt>
      <trkpt lat="49.54776" lon="3.32609">
        <ele>148.5</ele>
        <time>2016-08-27T09:17:18.000Z</time>
      </trkpt>
      <trkpt lat="49.5478" lon="3.32597">
        <ele>149.3</ele>
        <time>2016-08-27T09:17:24.000Z</time>
      </trkpt>
      <trkpt lat="49.5478" lon="3.32595">
        <ele>149.3</ele>
        <time>2016-08-27T09:17:25.000Z</time>
      </trkpt>
      <trkpt lat="49.54779" lon="3.32583">
        <ele>148</ele>
        <time>2016-08-27T09:17:32.000Z</time>
      </trkpt>
      <trkpt lat="49.54777" lon="3.32582">
        <ele>147.8</ele>
        <time>2016-08-27T09:17:33.000Z</time>
      </trkpt>
      <trkpt lat="49.54771" lon="3.32574">
        <ele>146.4</ele>
        <time>2016-08-27T09:17:37.000Z</time>
      </trkpt>
      <trkpt lat="49.54769" lon="3.32572">
        <ele>146.1</ele>
        <time>2016-08-27T09:17:38.000Z</time>
      </trkpt>
      <trkpt lat="49.54763" lon="3.32563">
        <ele>145.5</ele>
        <time>2016-08-27T09:17:42.000Z</time>
      </trkpt>
      <trkpt lat="49.54762" lon="3.32561">
        <ele>145.6</ele>
        <time>2016-08-27T09:17:43.000Z</time>
      </trkpt>
      <trkpt lat="49.54757" lon="3.32553">
        <ele>145.7</ele>
        <time>2016-08-27T09:17:48.000Z</time>
      </trkpt>
      <trkpt lat="49.54755" lon="3.32551">
        <ele>145.6</ele>
        <time>2016-08-27T09:17:49.000Z</time>
      </trkpt>
      <trkpt lat="49.5475" lon="3.32542">
        <ele>145.4</ele>
        <time>2016-08-27T09:17:54.000Z</time>
      </trkpt>
      <trkpt lat="49.54749" lon="3.3254">
        <ele>145.5</ele>
        <time>2016-08-27T09:17:55.000Z</time>
      </trkpt>
      <trkpt lat="49.54744" lon="3.32531">
        <ele>145.3</ele>
        <time>2016-08-27T09:18:00.000Z</time>
      </trkpt>
      <trkpt lat="49.54743" lon="3.32529">
        <ele>145.2</ele>
        <time>2016-08-27T09:18:01.000Z</time>
      </trkpt>
      <trkpt lat="49.54739" lon="3.32519">
        <ele>144.9</ele>
        <time>2016-08-27T09:18:07.000Z</time>
      </trkpt>
      <trkpt lat="49.54738" lon="3.32517">
        <ele>144.9</ele>
        <time>2016-08-27T09:18:08.000Z</time>
      </trkpt>
      <trkpt lat="49.54735" lon="3.32505">
        <ele>145.4</ele>
        <time>2016-08-27T09:18:16.000Z</time>
      </trkpt>
      <trkpt lat="49.54734" lon="3.32504">
        <ele>145.4</ele>
        <time>2016-08-27T09:18:17.000Z</time>
      </trkpt>
      <trkpt lat="49.54729" lon="3.32494">
        <ele>145.6</ele>
        <time>2016-08-27T09:18:23.000Z</time>
      </trkpt>
      <trkpt lat="49.54729" lon="3.32492">
        <ele>145.8</ele>
        <time>2016-08-27T09:18:24.000Z</time>
      </trkpt>
      <trkpt lat="49.54723" lon="3.32483">
        <ele>146.1</ele>
        <time>2016-08-27T09:18:30.000Z</time>
      </trkpt>
      <trkpt lat="49.54722" lon="3.32482">
        <ele>146.1</ele>
        <time>2016-08-27T09:18:31.000Z</time>
      </trkpt>
      <trkpt lat="49.54717" lon="3.32471">
        <ele>146.5</ele>
        <time>2016-08-27T09:18:39.000Z</time>
      </trkpt>
      <trkpt lat="49.54716" lon="3.32469">
        <ele>146.5</ele>
        <time>2016-08-27T09:18:40.000Z</time>
      </trkpt>
      <trkpt lat="49.5471" lon="3.32461">
        <ele>146.1</ele>
        <time>2016-08-27T09:18:45.000Z</time>
      </trkpt>
      <trkpt lat="49.5471" lon="3.32459">
        <ele>146.1</ele>
        <time>2016-08-27T09:18:46.000Z</time>
      </trkpt>
      <trkpt lat="49.54704" lon="3.32451">
        <ele>146.2</ele>
        <time>2016-08-27T09:18:50.000Z</time>
      </trkpt>
      <trkpt lat="49.54703" lon="3.32448">
        <ele>146.1</ele>
        <time>2016-08-27T09:18:51.000Z</time>
      </trkpt>
      <trkpt lat="49.54698" lon="3.32439">
        <ele>146.6</ele>
        <time>2016-08-27T09:18:56.000Z</time>
      </trkpt>
      <trkpt lat="49.54697" lon="3.32437">
        <ele>146.6</ele>
        <time>2016-08-27T09:18:57.000Z</time>
      </trkpt>
      <trkpt lat="49.54691" lon="3.32428">
        <ele>146</ele>
        <time>2016-08-27T09:19:02.000Z</time>
      </trkpt>
      <trkpt lat="49.5469" lon="3.32427">
        <ele>145.9</ele>
        <time>2016-08-27T09:19:03.000Z</time>
      </trkpt>
      <trkpt lat="49.54685" lon="3.32415">
        <ele>146.3</ele>
        <time>2016-08-27T09:19:10.000Z</time>
      </trkpt>
      <trkpt lat="49.54685" lon="3.32413">
        <ele>146.5</ele>
        <time>2016-08-27T09:19:11.000Z</time>
      </trkpt>
      <trkpt lat="49.54681" lon="3.32402">
        <ele>147.3</ele>
        <time>2016-08-27T09:19:16.000Z</time>
      </trkpt>
      <trkpt lat="49.5468" lon="3.324">
        <ele>147.2</ele>
        <time>2016-08-27T09:19:17.000Z</time>
      </trkpt>
      <trkpt lat="49.54674" lon="3.3239">
        <ele>146.8</ele>
        <time>2016-08-27T09:19:21.000Z</time>
      </trkpt>
      <trkpt lat="49.54672" lon="3.32389">
        <ele>146.7</ele>
        <time>2016-08-27T09:19:22.000Z</time>
      </trkpt>
      <trkpt lat="49.54667" lon="3.32378">
        <ele>147.8</ele>
        <time>2016-08-27T09:19:28.000Z</time>
      </trkpt>
      <trkpt lat="49.54666" lon="3.32376">
        <ele>147.7</ele>
        <time>2016-08-27T09:19:29.000Z</time>
      </trkpt>
      <trkpt lat="49.54661" lon="3.32365">
        <ele>147.1</ele>
        <time>2016-08-27T09:19:35.000Z</time>
      </trkpt>
      <trkpt lat="49.54661" lon="3.32364">
        <ele>147.2</ele>
        <time>2016-08-27T09:19:36.000Z</time>
      </trkpt>
      <trkpt lat="49.54657" lon="3.32354">
        <ele>149.7</ele>
        <time>2016-08-27T09:19:41.000Z</time>
      </trkpt>
      <trkpt lat="49.54656" lon="3.32352">
        <ele>149.9</ele>
        <time>2016-08-27T09:19:42.000Z</time>
      </trkpt>
      <trkpt lat="49.54656" lon="3.32348">
        <ele>150.1</ele>
        <time>2016-08-27T09:19:44.000Z</time>
      </trkpt>
      <trkpt lat="49.54656" lon="3.32347">
        <ele>150.3</ele>
        <time>2016-08-27T09:19:45.000Z</time>
      </trkpt>
      <trkpt lat="49.54655" lon="3.32347">
        <ele>150.5</ele>
        <time>2016-08-27T09:19:46.000Z</time>
      </trkpt>
      <trkpt lat="49.54652" lon="3.32338">
        <ele>150.2</ele>
        <time>2016-08-27T09:19:54.000Z</time>
      </trkpt>
      <trkpt lat="49.54651" lon="3.32337">
        <ele>149.9</ele>
        <time>2016-08-27T09:19:55.000Z</time>
      </trkpt>
      <trkpt lat="49.5465" lon="3.32336">
        <ele>149.7</ele>
        <time>2016-08-27T09:19:56.000Z</time>
      </trkpt>
      <trkpt lat="49.54644" lon="3.32327">
        <ele>148.5</ele>
        <time>2016-08-27T09:20:04.000Z</time>
      </trkpt>
      <trkpt lat="49.54643" lon="3.32325">
        <ele>148.6</ele>
        <time>2016-08-27T09:20:05.000Z</time>
      </trkpt>
      <trkpt lat="49.54638" lon="3.32318">
        <ele>148.6</ele>
        <time>2016-08-27T09:20:10.000Z</time>
      </trkpt>
      <trkpt lat="49.54636" lon="3.32317">
        <ele>148.6</ele>
        <time>2016-08-27T09:20:11.000Z</time>
      </trkpt>
      <trkpt lat="49.54629" lon="3.32308">
        <ele>148.8</ele>
        <time>2016-08-27T09:20:16.000Z</time>
      </trkpt>
      <trkpt lat="49.54628" lon="3.32306">
        <ele>148.8</ele>
        <time>2016-08-27T09:20:17.000Z</time>
      </trkpt>
      <trkpt lat="49.54621" lon="3.32297">
        <ele>149</ele>
        <time>2016-08-27T09:20:25.000Z</time>
      </trkpt>
      <trkpt lat="49.5462" lon="3.32295">
        <ele>148.9</ele>
        <time>2016-08-27T09:20:26.000Z</time>
      </trkpt>
      <trkpt lat="49.54614" lon="3.32287">
        <ele>147.8</ele>
        <time>2016-08-27T09:20:30.000Z</time>
      </trkpt>
      <trkpt lat="49.54612" lon="3.32284">
        <ele>147.5</ele>
        <time>2016-08-27T09:20:31.000Z</time>
      </trkpt>
      <trkpt lat="49.54606" lon="3.32275">
        <ele>146.5</ele>
        <time>2016-08-27T09:20:36.000Z</time>
      </trkpt>
      <trkpt lat="49.54605" lon="3.32274">
        <ele>146.2</ele>
        <time>2016-08-27T09:20:37.000Z</time>
      </trkpt>
      <trkpt lat="49.54598" lon="3.32265">
        <ele>146.7</ele>
        <time>2016-08-27T09:20:44.000Z</time>
      </trkpt>
      <trkpt lat="49.54597" lon="3.32264">
        <ele>146.9</ele>
        <time>2016-08-27T09:20:45.000Z</time>
      </trkpt>
      <trkpt lat="49.54592" lon="3.32257">
        <ele>146.5</ele>
        <time>2016-08-27T09:20:49.000Z</time>
      </trkpt>
      <trkpt lat="49.54591" lon="3.32254">
        <ele>146.3</ele>
        <time>2016-08-27T09:20:50.000Z</time>
      </trkpt>
      <trkpt lat="49.54585" lon="3.32245">
        <ele>146.1</ele>
        <time>2016-08-27T09:20:55.000Z</time>
      </trkpt>
      <trkpt lat="49.54583" lon="3.32243">
        <ele>146</ele>
        <time>2016-08-27T09:20:56.000Z</time>
      </trkpt>
      <trkpt lat="49.54578" lon="3.32234">
        <ele>147.1</ele>
        <time>2016-08-27T09:21:01.000Z</time>
      </trkpt>
      <trkpt lat="49.54577" lon="3.32231">
        <ele>147</ele>
        <time>2016-08-27T09:21:02.000Z</time>
      </trkpt>
      <trkpt lat="49.5457" lon="3.32223">
        <ele>146.2</ele>
        <time>2016-08-27T09:21:07.000Z</time>
      </trkpt>
      <trkpt lat="49.54568" lon="3.32221">
        <ele>146.2</ele>
        <time>2016-08-27T09:21:08.000Z</time>
      </trkpt>
      <trkpt lat="49.54564" lon="3.32211">
        <ele>146.7</ele>
        <time>2016-08-27T09:21:14.000Z</time>
      </trkpt>
      <trkpt lat="49.54563" lon="3.32209">
        <ele>146.7</ele>
        <time>2016-08-27T09:21:15.000Z</time>
      </trkpt>
      <trkpt lat="49.54558" lon="3.32199">
        <ele>146.5</ele>
        <time>2016-08-27T09:21:21.000Z</time>
      </trkpt>
      <trkpt lat="49.54557" lon="3.32198">
        <ele>146.6</ele>
        <time>2016-08-27T09:21:22.000Z</time>
      </trkpt>
      <trkpt lat="49.54552" lon="3.32189">
        <ele>146.2</ele>
        <time>2016-08-27T09:21:27.000Z</time>
      </trkpt>
      <trkpt lat="49.54551" lon="3.32187">
        <ele>146.1</ele>
        <time>2016-08-27T09:21:28.000Z</time>
      </trkpt>
      <trkpt lat="49.54545" lon="3.32176">
        <ele>146.1</ele>
        <time>2016-08-27T09:21:34.000Z</time>
      </trkpt>
      <trkpt lat="49.54544" lon="3.32174">
        <ele>146.2</ele>
        <time>2016-08-27T09:21:35.000Z</time>
      </trkpt>
      <trkpt lat="49.54541" lon="3.32169">
        <ele>146.8</ele>
        <time>2016-08-27T09:21:39.000Z</time>
      </trkpt>
      <trkpt lat="49.54541" lon="3.32167">
        <ele>147</ele>
        <time>2016-08-27T09:21:40.000Z</time>
      </trkpt>
      <trkpt lat="49.54541" lon="3.32166">
        <ele>147.2</ele>
        <time>2016-08-27T09:21:41.000Z</time>
      </trkpt>
      <trkpt lat="49.54534" lon="3.32158">
        <ele>147.6</ele>
        <time>2016-08-27T09:21:47.000Z</time>
      </trkpt>
      <trkpt lat="49.54533" lon="3.32157">
        <ele>147.7</ele>
        <time>2016-08-27T09:21:48.000Z</time>
      </trkpt>
      <trkpt lat="49.54528" lon="3.32149">
        <ele>147.6</ele>
        <time>2016-08-27T09:21:53.000Z</time>
      </trkpt>
      <trkpt lat="49.54526" lon="3.32147">
        <ele>147.5</ele>
        <time>2016-08-27T09:21:54.000Z</time>
      </trkpt>
      <trkpt lat="49.5452" lon="3.3214">
        <ele>147.3</ele>
        <time>2016-08-27T09:21:58.000Z</time>
      </trkpt>
      <trkpt lat="49.54519" lon="3.32138">
        <ele>147.2</ele>
        <time>2016-08-27T09:21:59.000Z</time>
      </trkpt>
      <trkpt lat="49.54514" lon="3.32128">
        <ele>146.6</ele>
        <time>2016-08-27T09:22:07.000Z</time>
      </trkpt>
      <trkpt lat="49.54513" lon="3.32126">
        <ele>146.3</ele>
        <time>2016-08-27T09:22:08.000Z</time>
      </trkpt>
      <trkpt lat="49.54508" lon="3.32115">
        <ele>144.9</ele>
        <time>2016-08-27T09:22:14.000Z</time>
      </trkpt>
      <trkpt lat="49.54507" lon="3.32113">
        <ele>144.7</ele>
        <time>2016-08-27T09:22:15.000Z</time>
      </trkpt>
      <trkpt lat="49.54506" lon="3.3211">
        <ele>144.8</ele>
        <time>2016-08-27T09:22:17.000Z</time>
      </trkpt>
      <trkpt lat="49.54505" lon="3.32108">
        <ele>144.9</ele>
        <time>2016-08-27T09:22:18.000Z</time>
      </trkpt>
      <trkpt lat="49.54505" lon="3.32107">
        <ele>145.1</ele>
        <time>2016-08-27T09:22:19.000Z</time>
      </trkpt>
      <trkpt lat="49.54499" lon="3.32096">
        <ele>146.1</ele>
        <time>2016-08-27T09:22:25.000Z</time>
      </trkpt>
      <trkpt lat="49.54498" lon="3.32095">
        <ele>146.2</ele>
        <time>2016-08-27T09:22:26.000Z</time>
      </trkpt>
      <trkpt lat="49.54493" lon="3.32085">
        <ele>146</ele>
        <time>2016-08-27T09:22:30.000Z</time>
      </trkpt>
      <trkpt lat="49.54492" lon="3.32083">
        <ele>146.1</ele>
        <time>2016-08-27T09:22:31.000Z</time>
      </trkpt>
      <trkpt lat="49.54486" lon="3.32073">
        <ele>145.5</ele>
        <time>2016-08-27T09:22:38.000Z</time>
      </trkpt>
      <trkpt lat="49.54485" lon="3.32072">
        <ele>145.4</ele>
        <time>2016-08-27T09:22:39.000Z</time>
      </trkpt>
      <trkpt lat="49.54478" lon="3.32066">
        <ele>145</ele>
        <time>2016-08-27T09:22:44.000Z</time>
      </trkpt>
      <trkpt lat="49.54477" lon="3.32064">
        <ele>144.9</ele>
        <time>2016-08-27T09:22:45.000Z</time>
      </trkpt>
      <trkpt lat="49.54471" lon="3.32055">
        <ele>144.4</ele>
        <time>2016-08-27T09:22:50.000Z</time>
      </trkpt>
      <trkpt lat="49.5447" lon="3.32053">
        <ele>144.4</ele>
        <time>2016-08-27T09:22:51.000Z</time>
      </trkpt>
      <trkpt lat="49.54464" lon="3.32044">
        <ele>143.1</ele>
        <time>2016-08-27T09:22:54.000Z</time>
      </trkpt>
      <trkpt lat="49.54463" lon="3.32041">
        <ele>142.7</ele>
        <time>2016-08-27T09:22:55.000Z</time>
      </trkpt>
      <trkpt lat="49.54456" lon="3.32032">
        <ele>141.9</ele>
        <time>2016-08-27T09:22:59.000Z</time>
      </trkpt>
      <trkpt lat="49.54455" lon="3.32031">
        <ele>142</ele>
        <time>2016-08-27T09:23:00.000Z</time>
      </trkpt>
      <trkpt lat="49.5445" lon="3.32021">
        <ele>142.4</ele>
        <time>2016-08-27T09:23:06.000Z</time>
      </trkpt>
      <trkpt lat="49.54449" lon="3.32019">
        <ele>142.1</ele>
        <time>2016-08-27T09:23:07.000Z</time>
      </trkpt>
      <trkpt lat="49.54443" lon="3.32011">
        <ele>143</ele>
        <time>2016-08-27T09:23:12.000Z</time>
      </trkpt>
      <trkpt lat="49.54442" lon="3.32009">
        <ele>143.2</ele>
        <time>2016-08-27T09:23:13.000Z</time>
      </trkpt>
      <trkpt lat="49.54437" lon="3.31999">
        <ele>143.4</ele>
        <time>2016-08-27T09:23:18.000Z</time>
      </trkpt>
      <trkpt lat="49.54436" lon="3.31997">
        <ele>143.3</ele>
        <time>2016-08-27T09:23:19.000Z</time>
      </trkpt>
      <trkpt lat="49.54431" lon="3.31987">
        <ele>142.8</ele>
        <time>2016-08-27T09:23:24.000Z</time>
      </trkpt>
      <trkpt lat="49.5443" lon="3.31985">
        <ele>142.7</ele>
        <time>2016-08-27T09:23:25.000Z</time>
      </trkpt>
      <trkpt lat="49.54423" lon="3.31975">
        <ele>143.2</ele>
        <time>2016-08-27T09:23:32.000Z</time>
      </trkpt>
      <trkpt lat="49.54422" lon="3.31974">
        <ele>143.6</ele>
        <time>2016-08-27T09:23:33.000Z</time>
      </trkpt>
      <trkpt lat="49.54416" lon="3.31965">
        <ele>144</ele>
        <time>2016-08-27T09:23:38.000Z</time>
      </trkpt>
      <trkpt lat="49.54416" lon="3.31963">
        <ele>144.3</ele>
        <time>2016-08-27T09:23:39.000Z</time>
      </trkpt>
      <trkpt lat="49.54411" lon="3.31952">
        <ele>144.6</ele>
        <time>2016-08-27T09:23:45.000Z</time>
      </trkpt>
      <trkpt lat="49.5441" lon="3.3195">
        <ele>144.5</ele>
        <time>2016-08-27T09:23:46.000Z</time>
      </trkpt>
      <trkpt lat="49.54405" lon="3.31942">
        <ele>144.3</ele>
        <time>2016-08-27T09:23:53.000Z</time>
      </trkpt>
      <trkpt lat="49.54403" lon="3.3194">
        <ele>143.9</ele>
        <time>2016-08-27T09:23:54.000Z</time>
      </trkpt>
      <trkpt lat="49.54397" lon="3.3193">
        <ele>143.6</ele>
        <time>2016-08-27T09:24:00.000Z</time>
      </trkpt>
      <trkpt lat="49.54397" lon="3.31928">
        <ele>143.5</ele>
        <time>2016-08-27T09:24:01.000Z</time>
      </trkpt>
      <trkpt lat="49.54392" lon="3.31917">
        <ele>143.4</ele>
        <time>2016-08-27T09:24:08.000Z</time>
      </trkpt>
      <trkpt lat="49.54391" lon="3.31915">
        <ele>143.2</ele>
        <time>2016-08-27T09:24:09.000Z</time>
      </trkpt>
      <trkpt lat="49.54385" lon="3.31904">
        <ele>143</ele>
        <time>2016-08-27T09:24:15.000Z</time>
      </trkpt>
      <trkpt lat="49.54384" lon="3.31902">
        <ele>142.8</ele>
        <time>2016-08-27T09:24:16.000Z</time>
      </trkpt>
      <trkpt lat="49.54381" lon="3.31891">
        <ele>142.7</ele>
        <time>2016-08-27T09:24:23.000Z</time>
      </trkpt>
      <trkpt lat="49.54381" lon="3.31889">
        <ele>142.2</ele>
        <time>2016-08-27T09:24:24.000Z</time>
      </trkpt>
      <trkpt lat="49.54379" lon="3.31876">
        <ele>137.9</ele>
        <time>2016-08-27T09:24:32.000Z</time>
      </trkpt>
      <trkpt lat="49.54379" lon="3.31874">
        <ele>136.3</ele>
        <time>2016-08-27T09:24:33.000Z</time>
      </trkpt>
      <trkpt lat="49.54376" lon="3.31864">
        <ele>131.2</ele>
        <time>2016-08-27T09:24:38.000Z</time>
      </trkpt>
      <trkpt lat="49.54375" lon="3.31861">
        <ele>130.4</ele>
        <time>2016-08-27T09:24:39.000Z</time>
      </trkpt>
      <trkpt lat="49.5437" lon="3.31853">
        <ele>128.3</ele>
        <time>2016-08-27T09:24:43.000Z</time>
      </trkpt>
      <trkpt lat="49.54367" lon="3.31851">
        <ele>127.9</ele>
        <time>2016-08-27T09:24:44.000Z</time>
      </trkpt>
      <trkpt lat="49.54361" lon="3.31845">
        <ele>127</ele>
        <time>2016-08-27T09:24:47.000Z</time>
      </trkpt>
      <trkpt lat="49.54359" lon="3.31844">
        <ele>126.6</ele>
        <time>2016-08-27T09:24:48.000Z</time>
      </trkpt>
      <trkpt lat="49.54351" lon="3.31839">
        <ele>125</ele>
        <time>2016-08-27T09:24:53.000Z</time>
      </trkpt>
      <trkpt lat="49.54349" lon="3.31838">
        <ele>124.6</ele>
        <time>2016-08-27T09:24:54.000Z</time>
      </trkpt>
      <trkpt lat="49.54341" lon="3.31832">
        <ele>124</ele>
        <time>2016-08-27T09:25:00.000Z</time>
      </trkpt>
      <trkpt lat="49.5434" lon="3.31832">
        <ele>124.6</ele>
        <time>2016-08-27T09:25:01.000Z</time>
      </trkpt>
      <trkpt lat="49.54333" lon="3.31826">
        <ele>126.2</ele>
        <time>2016-08-27T09:25:07.000Z</time>
      </trkpt>
      <trkpt lat="49.54331" lon="3.31825">
        <ele>126.2</ele>
        <time>2016-08-27T09:25:08.000Z</time>
      </trkpt>
      <trkpt lat="49.54324" lon="3.31819">
        <ele>126.2</ele>
        <time>2016-08-27T09:25:13.000Z</time>
      </trkpt>
      <trkpt lat="49.54323" lon="3.31817">
        <ele>126.2</ele>
        <time>2016-08-27T09:25:14.000Z</time>
      </trkpt>
      <trkpt lat="49.54315" lon="3.31811">
        <ele>127.1</ele>
        <time>2016-08-27T09:25:20.000Z</time>
      </trkpt>
      <trkpt lat="49.54314" lon="3.3181">
        <ele>127.1</ele>
        <time>2016-08-27T09:25:21.000Z</time>
      </trkpt>
      <trkpt lat="49.54307" lon="3.31805">
        <ele>127.4</ele>
        <time>2016-08-27T09:25:27.000Z</time>
      </trkpt>
      <trkpt lat="49.54305" lon="3.31803">
        <ele>127.3</ele>
        <time>2016-08-27T09:25:28.000Z</time>
      </trkpt>
      <trkpt lat="49.54299" lon="3.31794">
        <ele>127.2</ele>
        <time>2016-08-27T09:25:35.000Z</time>
      </trkpt>
      <trkpt lat="49.54298" lon="3.31792">
        <ele>127.2</ele>
        <time>2016-08-27T09:25:36.000Z</time>
      </trkpt>
      <trkpt lat="49.54295" lon="3.31782">
        <ele>128.2</ele>
        <time>2016-08-27T09:25:41.000Z</time>
      </trkpt>
      <trkpt lat="49.54294" lon="3.31779">
        <ele>128.3</ele>
        <time>2016-08-27T09:25:42.000Z</time>
      </trkpt>
      <trkpt lat="49.5429" lon="3.31767">
        <ele>128.9</ele>
        <time>2016-08-27T09:25:48.000Z</time>
      </trkpt>
      <trkpt lat="49.5429" lon="3.31766">
        <ele>129</ele>
        <time>2016-08-27T09:25:49.000Z</time>
      </trkpt>
      <trkpt lat="49.54283" lon="3.31757">
        <ele>130.1</ele>
        <time>2016-08-27T09:25:56.000Z</time>
      </trkpt>
      <trkpt lat="49.54281" lon="3.31756">
        <ele>130.2</ele>
        <time>2016-08-27T09:25:57.000Z</time>
      </trkpt>
      <trkpt lat="49.54273" lon="3.31752">
        <ele>129.6</ele>
        <time>2016-08-27T09:26:01.000Z</time>
      </trkpt>
      <trkpt lat="49.54271" lon="3.31752">
        <ele>129.4</ele>
        <time>2016-08-27T09:26:02.000Z</time>
      </trkpt>
      <trkpt lat="49.54263" lon="3.31751">
        <ele>129.4</ele>
        <time>2016-08-27T09:26:07.000Z</time>
      </trkpt>
      <trkpt lat="49.54262" lon="3.31751">
        <ele>129.5</ele>
        <time>2016-08-27T09:26:08.000Z</time>
      </trkpt>
      <trkpt lat="49.54254" lon="3.31755">
        <ele>131.2</ele>
        <time>2016-08-27T09:26:14.000Z</time>
      </trkpt>
      <trkpt lat="49.54252" lon="3.31755">
        <ele>131.8</ele>
        <time>2016-08-27T09:26:15.000Z</time>
      </trkpt>
      <trkpt lat="49.54243" lon="3.31758">
        <ele>134.6</ele>
        <time>2016-08-27T09:26:21.000Z</time>
      </trkpt>
      <trkpt lat="49.54242" lon="3.31758">
        <ele>134.6</ele>
        <time>2016-08-27T09:26:22.000Z</time>
      </trkpt>
      <trkpt lat="49.54233" lon="3.31759">
        <ele>133.7</ele>
        <time>2016-08-27T09:26:29.000Z</time>
      </trkpt>
      <trkpt lat="49.54232" lon="3.3176">
        <ele>133.8</ele>
        <time>2016-08-27T09:26:30.000Z</time>
      </trkpt>
      <trkpt lat="49.54223" lon="3.31759">
        <ele>134.1</ele>
        <time>2016-08-27T09:26:35.000Z</time>
      </trkpt>
      <trkpt lat="49.54222" lon="3.31759">
        <ele>134.3</ele>
        <time>2016-08-27T09:26:36.000Z</time>
      </trkpt>
      <trkpt lat="49.54214" lon="3.31759">
        <ele>134.6</ele>
        <time>2016-08-27T09:26:41.000Z</time>
      </trkpt>
      <trkpt lat="49.54212" lon="3.31759">
        <ele>134.5</ele>
        <time>2016-08-27T09:26:42.000Z</time>
      </trkpt>
      <trkpt lat="49.54204" lon="3.31762">
        <ele>133.6</ele>
        <time>2016-08-27T09:26:48.000Z</time>
      </trkpt>
      <trkpt lat="49.54203" lon="3.31763">
        <ele>133.7</ele>
        <time>2016-08-27T09:26:49.000Z</time>
      </trkpt>
      <trkpt lat="49.54196" lon="3.31767">
        <ele>133.3</ele>
        <time>2016-08-27T09:26:55.000Z</time>
      </trkpt>
      <trkpt lat="49.54194" lon="3.31768">
        <ele>133.2</ele>
        <time>2016-08-27T09:26:56.000Z</time>
      </trkpt>
      <trkpt lat="49.54187" lon="3.31773">
        <ele>132.5</ele>
        <time>2016-08-27T09:27:01.000Z</time>
      </trkpt>
      <trkpt lat="49.54185" lon="3.31773">
        <ele>132.4</ele>
        <time>2016-08-27T09:27:02.000Z</time>
      </trkpt>
      <trkpt lat="49.54179" lon="3.31781">
        <ele>131.7</ele>
        <time>2016-08-27T09:27:09.000Z</time>
      </trkpt>
      <trkpt lat="49.54178" lon="3.31784">
        <ele>131.7</ele>
        <time>2016-08-27T09:27:10.000Z</time>
      </trkpt>
      <trkpt lat="49.54173" lon="3.31794">
        <ele>130.7</ele>
        <time>2016-08-27T09:27:14.000Z</time>
      </trkpt>
      <trkpt lat="49.54172" lon="3.31797">
        <ele>130.5</ele>
        <time>2016-08-27T09:27:15.000Z</time>
      </trkpt>
      <trkpt lat="49.54167" lon="3.31805">
        <ele>130.2</ele>
        <time>2016-08-27T09:27:20.000Z</time>
      </trkpt>
      <trkpt lat="49.54166" lon="3.31807">
        <ele>130.7</ele>
        <time>2016-08-27T09:27:21.000Z</time>
      </trkpt>
      <trkpt lat="49.54159" lon="3.31816">
        <ele>131.1</ele>
        <time>2016-08-27T09:27:26.000Z</time>
      </trkpt>
      <trkpt lat="49.54158" lon="3.31817">
        <ele>130.8</ele>
        <time>2016-08-27T09:27:27.000Z</time>
      </trkpt>
      <trkpt lat="49.54152" lon="3.31824">
        <ele>130.6</ele>
        <time>2016-08-27T09:27:31.000Z</time>
      </trkpt>
      <trkpt lat="49.5415" lon="3.31826">
        <ele>130.8</ele>
        <time>2016-08-27T09:27:32.000Z</time>
      </trkpt>
      <trkpt lat="49.54143" lon="3.31835">
        <ele>131.5</ele>
        <time>2016-08-27T09:27:38.000Z</time>
      </trkpt>
      <trkpt lat="49.54142" lon="3.31837">
        <ele>131.7</ele>
        <time>2016-08-27T09:27:39.000Z</time>
      </trkpt>
      <trkpt lat="49.54135" lon="3.31844">
        <ele>132.1</ele>
        <time>2016-08-27T09:27:44.000Z</time>
      </trkpt>
      <trkpt lat="49.54134" lon="3.31846">
        <ele>132.2</ele>
        <time>2016-08-27T09:27:45.000Z</time>
      </trkpt>
      <trkpt lat="49.54127" lon="3.31855">
        <ele>132.5</ele>
        <time>2016-08-27T09:27:51.000Z</time>
      </trkpt>
      <trkpt lat="49.54126" lon="3.31856">
        <ele>132.4</ele>
        <time>2016-08-27T09:27:52.000Z</time>
      </trkpt>
      <trkpt lat="49.5412" lon="3.31865">
        <ele>133.2</ele>
        <time>2016-08-27T09:27:58.000Z</time>
      </trkpt>
      <trkpt lat="49.54119" lon="3.31866">
        <ele>133.4</ele>
        <time>2016-08-27T09:27:59.000Z</time>
      </trkpt>
      <trkpt lat="49.54112" lon="3.31874">
        <ele>133.8</ele>
        <time>2016-08-27T09:28:05.000Z</time>
      </trkpt>
      <trkpt lat="49.54111" lon="3.31876">
        <ele>133.9</ele>
        <time>2016-08-27T09:28:06.000Z</time>
      </trkpt>
      <trkpt lat="49.54104" lon="3.31884">
        <ele>132.5</ele>
        <time>2016-08-27T09:28:12.000Z</time>
      </trkpt>
      <trkpt lat="49.54103" lon="3.31886">
        <ele>131.7</ele>
        <time>2016-08-27T09:28:13.000Z</time>
      </trkpt>
      <trkpt lat="49.54096" lon="3.31893">
        <ele>131.1</ele>
        <time>2016-08-27T09:28:18.000Z</time>
      </trkpt>
      <trkpt lat="49.54095" lon="3.31894">
        <ele>131.2</ele>
        <time>2016-08-27T09:28:19.000Z</time>
      </trkpt>
      <trkpt lat="49.54089" lon="3.31902">
        <ele>132.4</ele>
        <time>2016-08-27T09:28:25.000Z</time>
      </trkpt>
      <trkpt lat="49.54088" lon="3.31904">
        <ele>132.6</ele>
        <time>2016-08-27T09:28:26.000Z</time>
      </trkpt>
      <trkpt lat="49.54081" lon="3.31911">
        <ele>133.5</ele>
        <time>2016-08-27T09:28:32.000Z</time>
      </trkpt>
      <trkpt lat="49.5408" lon="3.31913">
        <ele>133.6</ele>
        <time>2016-08-27T09:28:33.000Z</time>
      </trkpt>
      <trkpt lat="49.54073" lon="3.3192">
        <ele>134.1</ele>
        <time>2016-08-27T09:28:40.000Z</time>
      </trkpt>
      <trkpt lat="49.54072" lon="3.31921">
        <ele>134.2</ele>
        <time>2016-08-27T09:28:41.000Z</time>
      </trkpt>
      <trkpt lat="49.54064" lon="3.31925">
        <ele>134.3</ele>
        <time>2016-08-27T09:28:47.000Z</time>
      </trkpt>
      <trkpt lat="49.54062" lon="3.31926">
        <ele>134.3</ele>
        <time>2016-08-27T09:28:48.000Z</time>
      </trkpt>
      <trkpt lat="49.54054" lon="3.31926">
        <ele>133.8</ele>
        <time>2016-08-27T09:28:54.000Z</time>
      </trkpt>
      <trkpt lat="49.54052" lon="3.31925">
        <ele>133.8</ele>
        <time>2016-08-27T09:28:55.000Z</time>
      </trkpt>
      <trkpt lat="49.54044" lon="3.31921">
        <ele>134.4</ele>
        <time>2016-08-27T09:29:01.000Z</time>
      </trkpt>
      <trkpt lat="49.54042" lon="3.3192">
        <ele>134.2</ele>
        <time>2016-08-27T09:29:02.000Z</time>
      </trkpt>
      <trkpt lat="49.54035" lon="3.31914">
        <ele>134.1</ele>
        <time>2016-08-27T09:29:07.000Z</time>
      </trkpt>
      <trkpt lat="49.54034" lon="3.31914">
        <ele>134.2</ele>
        <time>2016-08-27T09:29:08.000Z</time>
      </trkpt>
      <trkpt lat="49.54026" lon="3.31907">
        <ele>134.6</ele>
        <time>2016-08-27T09:29:14.000Z</time>
      </trkpt>
      <trkpt lat="49.54025" lon="3.31906">
        <ele>134.8</ele>
        <time>2016-08-27T09:29:15.000Z</time>
      </trkpt>
      <trkpt lat="49.54017" lon="3.31901">
        <ele>134.7</ele>
        <time>2016-08-27T09:29:21.000Z</time>
      </trkpt>
      <trkpt lat="49.54015" lon="3.319">
        <ele>134.4</ele>
        <time>2016-08-27T09:29:22.000Z</time>
      </trkpt>
      <trkpt lat="49.54007" lon="3.31896">
        <ele>134.6</ele>
        <time>2016-08-27T09:29:30.000Z</time>
      </trkpt>
      <trkpt lat="49.54006" lon="3.31895">
        <ele>134.7</ele>
        <time>2016-08-27T09:29:31.000Z</time>
      </trkpt>
      <trkpt lat="49.53998" lon="3.31893">
        <ele>135</ele>
        <time>2016-08-27T09:29:42.000Z</time>
      </trkpt>
      <trkpt lat="49.53997" lon="3.31892">
        <ele>135.1</ele>
        <time>2016-08-27T09:29:43.000Z</time>
      </trkpt>
      <trkpt lat="49.53989" lon="3.31887">
        <ele>135.6</ele>
        <time>2016-08-27T09:29:49.000Z</time>
      </trkpt>
      <trkpt lat="49.53987" lon="3.31886">
        <ele>136</ele>
        <time>2016-08-27T09:29:50.000Z</time>
      </trkpt>
      <trkpt lat="49.5398" lon="3.31882">
        <ele>136</ele>
        <time>2016-08-27T09:29:55.000Z</time>
      </trkpt>
      <trkpt lat="49.53979" lon="3.31881">
        <ele>135.9</ele>
        <time>2016-08-27T09:29:56.000Z</time>
      </trkpt>
      <trkpt lat="49.53971" lon="3.31875">
        <ele>135.6</ele>
        <time>2016-08-27T09:30:01.000Z</time>
      </trkpt>
      <trkpt lat="49.53969" lon="3.31873">
        <ele>135.6</ele>
        <time>2016-08-27T09:30:02.000Z</time>
      </trkpt>
      <trkpt lat="49.53962" lon="3.31869">
        <ele>135.4</ele>
        <time>2016-08-27T09:30:06.000Z</time>
      </trkpt>
      <trkpt lat="49.53961" lon="3.31868">
        <ele>135.4</ele>
        <time>2016-08-27T09:30:07.000Z</time>
      </trkpt>
      <trkpt lat="49.53952" lon="3.31866">
        <ele>139.3</ele>
        <time>2016-08-27T09:30:14.000Z</time>
      </trkpt>
      <trkpt lat="49.53951" lon="3.31866">
        <ele>140.2</ele>
        <time>2016-08-27T09:30:15.000Z</time>
      </trkpt>
      <trkpt lat="49.53943" lon="3.31865">
        <ele>141.8</ele>
        <time>2016-08-27T09:30:24.000Z</time>
      </trkpt>
      <trkpt lat="49.53942" lon="3.31864">
        <ele>141.9</ele>
        <time>2016-08-27T09:30:25.000Z</time>
      </trkpt>
      <trkpt lat="49.53935" lon="3.31858">
        <ele>141.9</ele>
        <time>2016-08-27T09:30:31.000Z</time>
      </trkpt>
      <trkpt lat="49.53934" lon="3.31857">
        <ele>141.9</ele>
        <time>2016-08-27T09:30:32.000Z</time>
      </trkpt>
      <trkpt lat="49.53926" lon="3.31851">
        <ele>141.9</ele>
        <time>2016-08-27T09:30:39.000Z</time>
      </trkpt>
      <trkpt lat="49.53925" lon="3.3185">
        <ele>141.7</ele>
        <time>2016-08-27T09:30:40.000Z</time>
      </trkpt>
      <trkpt lat="49.53917" lon="3.31846">
        <ele>141.4</ele>
        <time>2016-08-27T09:30:47.000Z</time>
      </trkpt>
      <trkpt lat="49.53916" lon="3.31845">
        <ele>141.4</ele>
        <time>2016-08-27T09:30:48.000Z</time>
      </trkpt>
      <trkpt lat="49.53909" lon="3.31841">
        <ele>141.3</ele>
        <time>2016-08-27T09:30:53.000Z</time>
      </trkpt>
      <trkpt lat="49.53907" lon="3.3184">
        <ele>141.4</ele>
        <time>2016-08-27T09:30:54.000Z</time>
      </trkpt>
      <trkpt lat="49.53899" lon="3.31834">
        <ele>141.2</ele>
        <time>2016-08-27T09:31:00.000Z</time>
      </trkpt>
      <trkpt lat="49.53898" lon="3.31833">
        <ele>141.1</ele>
        <time>2016-08-27T09:31:01.000Z</time>
      </trkpt>
      <trkpt lat="49.5389" lon="3.31828">
        <ele>140.5</ele>
        <time>2016-08-27T09:31:08.000Z</time>
      </trkpt>
      <trkpt lat="49.53888" lon="3.31827">
        <ele>140.5</ele>
        <time>2016-08-27T09:31:09.000Z</time>
      </trkpt>
      <trkpt lat="49.5388" lon="3.31824">
        <ele>140.6</ele>
        <time>2016-08-27T09:31:15.000Z</time>
      </trkpt>
      <trkpt lat="49.53879" lon="3.31823">
        <ele>140.4</ele>
        <time>2016-08-27T09:31:16.000Z</time>
      </trkpt>
      <trkpt lat="49.53871" lon="3.31817">
        <ele>140.3</ele>
        <time>2016-08-27T09:31:23.000Z</time>
      </trkpt>
      <trkpt lat="49.5387" lon="3.31816">
        <ele>140.2</ele>
        <time>2016-08-27T09:31:24.000Z</time>
      </trkpt>
      <trkpt lat="49.53863" lon="3.31812">
        <ele>139.9</ele>
        <time>2016-08-27T09:31:29.000Z</time>
      </trkpt>
      <trkpt lat="49.53861" lon="3.3181">
        <ele>139.6</ele>
        <time>2016-08-27T09:31:30.000Z</time>
      </trkpt>
      <trkpt lat="49.53854" lon="3.31806">
        <ele>139.1</ele>
        <time>2016-08-27T09:31:34.000Z</time>
      </trkpt>
      <trkpt lat="49.53852" lon="3.31805">
        <ele>139</ele>
        <time>2016-08-27T09:31:35.000Z</time>
      </trkpt>
      <trkpt lat="49.53844" lon="3.31804">
        <ele>140.6</ele>
        <time>2016-08-27T09:31:40.000Z</time>
      </trkpt>
      <trkpt lat="49.53842" lon="3.31803">
        <ele>140.5</ele>
        <time>2016-08-27T09:31:41.000Z</time>
      </trkpt>
      <trkpt lat="49.53835" lon="3.31806">
        <ele>144.2</ele>
        <time>2016-08-27T09:31:44.000Z</time>
      </trkpt>
      <trkpt lat="49.53833" lon="3.31806">
        <ele>145.2</ele>
        <time>2016-08-27T09:31:45.000Z</time>
      </trkpt>
      <trkpt lat="49.53825" lon="3.31809">
        <ele>148.1</ele>
        <time>2016-08-27T09:31:49.000Z</time>
      </trkpt>
      <trkpt lat="49.53823" lon="3.31809">
        <ele>148.5</ele>
        <time>2016-08-27T09:31:50.000Z</time>
      </trkpt>
      <trkpt lat="49.53814" lon="3.31812">
        <ele>149.5</ele>
        <time>2016-08-27T09:31:55.000Z</time>
      </trkpt>
      <trkpt lat="49.53813" lon="3.31813">
        <ele>149.2</ele>
        <time>2016-08-27T09:31:56.000Z</time>
      </trkpt>
      <trkpt lat="49.53805" lon="3.31815">
        <ele>148.4</ele>
        <time>2016-08-27T09:32:01.000Z</time>
      </trkpt>
      <trkpt lat="49.53803" lon="3.31816">
        <ele>148.6</ele>
        <time>2016-08-27T09:32:02.000Z</time>
      </trkpt>
      <trkpt lat="49.53796" lon="3.3182">
        <ele>150.3</ele>
        <time>2016-08-27T09:32:07.000Z</time>
      </trkpt>
      <trkpt lat="49.53795" lon="3.31821">
        <ele>150.6</ele>
        <time>2016-08-27T09:32:08.000Z</time>
      </trkpt>
      <trkpt lat="49.53787" lon="3.31827">
        <ele>150.9</ele>
        <time>2016-08-27T09:32:14.000Z</time>
      </trkpt>
      <trkpt lat="49.53786" lon="3.31828">
        <ele>150.8</ele>
        <time>2016-08-27T09:32:15.000Z</time>
      </trkpt>
      <trkpt lat="49.53778" lon="3.31831">
        <ele>149.6</ele>
        <time>2016-08-27T09:32:22.000Z</time>
      </trkpt>
      <trkpt lat="49.53777" lon="3.31832">
        <ele>149.4</ele>
        <time>2016-08-27T09:32:23.000Z</time>
      </trkpt>
      <trkpt lat="49.53768" lon="3.31835">
        <ele>147.7</ele>
        <time>2016-08-27T09:32:30.000Z</time>
      </trkpt>
      <trkpt lat="49.53767" lon="3.31836">
        <ele>147.5</ele>
        <time>2016-08-27T09:32:31.000Z</time>
      </trkpt>
      <trkpt lat="49.53759" lon="3.31842">
        <ele>149</ele>
        <time>2016-08-27T09:32:36.000Z</time>
      </trkpt>
      <trkpt lat="49.53758" lon="3.31843">
        <ele>149.2</ele>
        <time>2016-08-27T09:32:37.000Z</time>
      </trkpt>
      <trkpt lat="49.5375" lon="3.31849">
        <ele>149.9</ele>
        <time>2016-08-27T09:32:43.000Z</time>
      </trkpt>
      <trkpt lat="49.53748" lon="3.3185">
        <ele>149.6</ele>
        <time>2016-08-27T09:32:44.000Z</time>
      </trkpt>
      <trkpt lat="49.5374" lon="3.31855">
        <ele>147.7</ele>
        <time>2016-08-27T09:32:50.000Z</time>
      </trkpt>
      <trkpt lat="49.53739" lon="3.31856">
        <ele>147.5</ele>
        <time>2016-08-27T09:32:51.000Z</time>
      </trkpt>
      <trkpt lat="49.53732" lon="3.31862">
        <ele>147.7</ele>
        <time>2016-08-27T09:32:56.000Z</time>
      </trkpt>
      <trkpt lat="49.53731" lon="3.31864">
        <ele>147.8</ele>
        <time>2016-08-27T09:32:57.000Z</time>
      </trkpt>
      <trkpt lat="49.53724" lon="3.3187">
        <ele>147.7</ele>
        <time>2016-08-27T09:33:02.000Z</time>
      </trkpt>
      <trkpt lat="49.53723" lon="3.31871">
        <ele>147.2</ele>
        <time>2016-08-27T09:33:03.000Z</time>
      </trkpt>
      <trkpt lat="49.53715" lon="3.31877">
        <ele>144.6</ele>
        <time>2016-08-27T09:33:10.000Z</time>
      </trkpt>
      <trkpt lat="49.53714" lon="3.31878">
        <ele>144.5</ele>
        <time>2016-08-27T09:33:11.000Z</time>
      </trkpt>
      <trkpt lat="49.53708" lon="3.31885">
        <ele>143.4</ele>
        <time>2016-08-27T09:33:17.000Z</time>
      </trkpt>
      <trkpt lat="49.53707" lon="3.31885">
        <ele>142.9</ele>
        <time>2016-08-27T09:33:18.000Z</time>
      </trkpt>
      <trkpt lat="49.53698" lon="3.31889">
        <ele>140.3</ele>
        <time>2016-08-27T09:33:24.000Z</time>
      </trkpt>
      <trkpt lat="49.53697" lon="3.3189">
        <ele>140.1</ele>
        <time>2016-08-27T09:33:25.000Z</time>
      </trkpt>
      <trkpt lat="49.5369" lon="3.31896">
        <ele>138.7</ele>
        <time>2016-08-27T09:33:30.000Z</time>
      </trkpt>
      <trkpt lat="49.53689" lon="3.31897">
        <ele>138.5</ele>
        <time>2016-08-27T09:33:31.000Z</time>
      </trkpt>
      <trkpt lat="49.53682" lon="3.31902">
        <ele>137.4</ele>
        <time>2016-08-27T09:33:36.000Z</time>
      </trkpt>
      <trkpt lat="49.5368" lon="3.31903">
        <ele>137.1</ele>
        <time>2016-08-27T09:33:37.000Z</time>
      </trkpt>
      <trkpt lat="49.53674" lon="3.31909">
        <ele>136.2</ele>
        <time>2016-08-27T09:33:42.000Z</time>
      </trkpt>
      <trkpt lat="49.53672" lon="3.3191">
        <ele>136.2</ele>
        <time>2016-08-27T09:33:43.000Z</time>
      </trkpt>
      <trkpt lat="49.53665" lon="3.31917">
        <ele>135.3</ele>
        <time>2016-08-27T09:33:49.000Z</time>
      </trkpt>
      <trkpt lat="49.53664" lon="3.31918">
        <ele>135.1</ele>
        <time>2016-08-27T09:33:50.000Z</time>
      </trkpt>
      <trkpt lat="49.53658" lon="3.31925">
        <ele>134.4</ele>
        <time>2016-08-27T09:33:55.000Z</time>
      </trkpt>
      <trkpt lat="49.53656" lon="3.31926">
        <ele>134.3</ele>
        <time>2016-08-27T09:33:56.000Z</time>
      </trkpt>
      <trkpt lat="49.53649" lon="3.31932">
        <ele>133.6</ele>
        <time>2016-08-27T09:34:01.000Z</time>
      </trkpt>
      <trkpt lat="49.53648" lon="3.31933">
        <ele>133.5</ele>
        <time>2016-08-27T09:34:02.000Z</time>
      </trkpt>
      <trkpt lat="49.53642" lon="3.3194">
        <ele>133.6</ele>
        <time>2016-08-27T09:34:05.000Z</time>
      </trkpt>
      <trkpt lat="49.5364" lon="3.31942">
        <ele>133.6</ele>
        <time>2016-08-27T09:34:06.000Z</time>
      </trkpt>
      <trkpt lat="49.53634" lon="3.31948">
        <ele>133.5</ele>
        <time>2016-08-27T09:34:09.000Z</time>
      </trkpt>
      <trkpt lat="49.53632" lon="3.3195">
        <ele>133.4</ele>
        <time>2016-08-27T09:34:10.000Z</time>
      </trkpt>
      <trkpt lat="49.53626" lon="3.31957">
        <ele>133.4</ele>
        <time>2016-08-27T09:34:13.000Z</time>
      </trkpt>
      <trkpt lat="49.53624" lon="3.3196">
        <ele>133.3</ele>
        <time>2016-08-27T09:34:14.000Z</time>
      </trkpt>
      <trkpt lat="49.53619" lon="3.31966">
        <ele>132.9</ele>
        <time>2016-08-27T09:34:16.000Z</time>
      </trkpt>
      <trkpt lat="49.53617" lon="3.31969">
        <ele>132.8</ele>
        <time>2016-08-27T09:34:17.000Z</time>
      </trkpt>
      <trkpt lat="49.53612" lon="3.31976">
        <ele>132.4</ele>
        <time>2016-08-27T09:34:19.000Z</time>
      </trkpt>
      <trkpt lat="49.53609" lon="3.3198">
        <ele>132.3</ele>
        <time>2016-08-27T09:34:20.000Z</time>
      </trkpt>
      <trkpt lat="49.53604" lon="3.31986">
        <ele>131.6</ele>
        <time>2016-08-27T09:34:22.000Z</time>
      </trkpt>
      <trkpt lat="49.53601" lon="3.3199">
        <ele>131.3</ele>
        <time>2016-08-27T09:34:23.000Z</time>
      </trkpt>
      <trkpt lat="49.53595" lon="3.31996">
        <ele>130.9</ele>
        <time>2016-08-27T09:34:25.000Z</time>
      </trkpt>
      <trkpt lat="49.53593" lon="3.31999">
        <ele>130.8</ele>
        <time>2016-08-27T09:34:26.000Z</time>
      </trkpt>
      <trkpt lat="49.53587" lon="3.32006">
        <ele>130.5</ele>
        <time>2016-08-27T09:34:28.000Z</time>
      </trkpt>
      <trkpt lat="49.53584" lon="3.32009">
        <ele>130.5</ele>
        <time>2016-08-27T09:34:29.000Z</time>
      </trkpt>
      <trkpt lat="49.53578" lon="3.32016">
        <ele>130.2</ele>
        <time>2016-08-27T09:34:31.000Z</time>
      </trkpt>
      <trkpt lat="49.53576" lon="3.32019">
        <ele>130.1</ele>
        <time>2016-08-27T09:34:32.000Z</time>
      </trkpt>
      <trkpt lat="49.5357" lon="3.32026">
        <ele>130.2</ele>
        <time>2016-08-27T09:34:34.000Z</time>
      </trkpt>
      <trkpt lat="49.53568" lon="3.3203">
        <ele>130.1</ele>
        <time>2016-08-27T09:34:35.000Z</time>
      </trkpt>
      <trkpt lat="49.53563" lon="3.32037">
        <ele>130.2</ele>
        <time>2016-08-27T09:34:37.000Z</time>
      </trkpt>
      <trkpt lat="49.53561" lon="3.3204">
        <ele>130.3</ele>
        <time>2016-08-27T09:34:38.000Z</time>
      </trkpt>
      <trkpt lat="49.53557" lon="3.32049">
        <ele>130.2</ele>
        <time>2016-08-27T09:34:40.000Z</time>
      </trkpt>
      <trkpt lat="49.53555" lon="3.32053">
        <ele>130.1</ele>
        <time>2016-08-27T09:34:41.000Z</time>
      </trkpt>
      <trkpt lat="49.53552" lon="3.32063">
        <ele>130</ele>
        <time>2016-08-27T09:34:43.000Z</time>
      </trkpt>
      <trkpt lat="49.5355" lon="3.32067">
        <ele>129.9</ele>
        <time>2016-08-27T09:34:44.000Z</time>
      </trkpt>
      <trkpt lat="49.53547" lon="3.32076">
        <ele>129.8</ele>
        <time>2016-08-27T09:34:46.000Z</time>
      </trkpt>
      <trkpt lat="49.53546" lon="3.32081">
        <ele>129.6</ele>
        <time>2016-08-27T09:34:47.000Z</time>
      </trkpt>
      <trkpt lat="49.53544" lon="3.32091">
        <ele>129.2</ele>
        <time>2016-08-27T09:34:49.000Z</time>
      </trkpt>
      <trkpt lat="49.53543" lon="3.32096">
        <ele>129</ele>
        <time>2016-08-27T09:34:50.000Z</time>
      </trkpt>
      <trkpt lat="49.53541" lon="3.32106">
        <ele>129.2</ele>
        <time>2016-08-27T09:34:52.000Z</time>
      </trkpt>
      <trkpt lat="49.5354" lon="3.32111">
        <ele>129.3</ele>
        <time>2016-08-27T09:34:53.000Z</time>
      </trkpt>
      <trkpt lat="49.53538" lon="3.32121">
        <ele>129</ele>
        <time>2016-08-27T09:34:55.000Z</time>
      </trkpt>
      <trkpt lat="49.53538" lon="3.32126">
        <ele>128.8</ele>
        <time>2016-08-27T09:34:56.000Z</time>
      </trkpt>
      <trkpt lat="49.53536" lon="3.32137">
        <ele>128.4</ele>
        <time>2016-08-27T09:34:58.000Z</time>
      </trkpt>
      <trkpt lat="49.53536" lon="3.32142">
        <ele>128</ele>
        <time>2016-08-27T09:34:59.000Z</time>
      </trkpt>
      <trkpt lat="49.53535" lon="3.32153">
        <ele>127.4</ele>
        <time>2016-08-27T09:35:01.000Z</time>
      </trkpt>
      <trkpt lat="49.53535" lon="3.32159">
        <ele>127.2</ele>
        <time>2016-08-27T09:35:02.000Z</time>
      </trkpt>
      <trkpt lat="49.53534" lon="3.3217">
        <ele>126.8</ele>
        <time>2016-08-27T09:35:04.000Z</time>
      </trkpt>
      <trkpt lat="49.53534" lon="3.32176">
        <ele>126.8</ele>
        <time>2016-08-27T09:35:05.000Z</time>
      </trkpt>
      <trkpt lat="49.53533" lon="3.32188">
        <ele>126.6</ele>
        <time>2016-08-27T09:35:07.000Z</time>
      </trkpt>
      <trkpt lat="49.53533" lon="3.32194">
        <ele>126.5</ele>
        <time>2016-08-27T09:35:08.000Z</time>
      </trkpt>
      <trkpt lat="49.53532" lon="3.32206">
        <ele>126.2</ele>
        <time>2016-08-27T09:35:10.000Z</time>
      </trkpt>
      <trkpt lat="49.53531" lon="3.32213">
        <ele>126</ele>
        <time>2016-08-27T09:35:11.000Z</time>
      </trkpt>
      <trkpt lat="49.53529" lon="3.32226">
        <ele>125.9</ele>
        <time>2016-08-27T09:35:13.000Z</time>
      </trkpt>
      <trkpt lat="49.53528" lon="3.32232">
        <ele>126</ele>
        <time>2016-08-27T09:35:14.000Z</time>
      </trkpt>
      <trkpt lat="49.53525" lon="3.32244">
        <ele>125.7</ele>
        <time>2016-08-27T09:35:16.000Z</time>
      </trkpt>
      <trkpt lat="49.53524" lon="3.3225">
        <ele>125.8</ele>
        <time>2016-08-27T09:35:17.000Z</time>
      </trkpt>
      <trkpt lat="49.53522" lon="3.3226">
        <ele>125.5</ele>
        <time>2016-08-27T09:35:19.000Z</time>
      </trkpt>
      <trkpt lat="49.5352" lon="3.32265">
        <ele>125.4</ele>
        <time>2016-08-27T09:35:20.000Z</time>
      </trkpt>
      <trkpt lat="49.53517" lon="3.32273">
        <ele>125.2</ele>
        <time>2016-08-27T09:35:22.000Z</time>
      </trkpt>
      <trkpt lat="49.53515" lon="3.32278">
        <ele>125</ele>
        <time>2016-08-27T09:35:23.000Z</time>
      </trkpt>
      <trkpt lat="49.53512" lon="3.32288">
        <ele>124.7</ele>
        <time>2016-08-27T09:35:25.000Z</time>
      </trkpt>
      <trkpt lat="49.5351" lon="3.32293">
        <ele>124.5</ele>
        <time>2016-08-27T09:35:26.000Z</time>
      </trkpt>
      <trkpt lat="49.53507" lon="3.32303">
        <ele>124.1</ele>
        <time>2016-08-27T09:35:28.000Z</time>
      </trkpt>
      <trkpt lat="49.53505" lon="3.32308">
        <ele>124</ele>
        <time>2016-08-27T09:35:29.000Z</time>
      </trkpt>
      <trkpt lat="49.53501" lon="3.32318">
        <ele>124</ele>
        <time>2016-08-27T09:35:31.000Z</time>
      </trkpt>
      <trkpt lat="49.535" lon="3.32323">
        <ele>124</ele>
        <time>2016-08-27T09:35:32.000Z</time>
      </trkpt>
      <trkpt lat="49.53497" lon="3.32334">
        <ele>123.7</ele>
        <time>2016-08-27T09:35:34.000Z</time>
      </trkpt>
      <trkpt lat="49.53496" lon="3.3234">
        <ele>123.8</ele>
        <time>2016-08-27T09:35:35.000Z</time>
      </trkpt>
      <trkpt lat="49.53495" lon="3.32351">
        <ele>123.8</ele>
        <time>2016-08-27T09:35:37.000Z</time>
      </trkpt>
      <trkpt lat="49.53495" lon="3.32357">
        <ele>124</ele>
        <time>2016-08-27T09:35:38.000Z</time>
      </trkpt>
      <trkpt lat="49.53493" lon="3.32369">
        <ele>124.3</ele>
        <time>2016-08-27T09:35:40.000Z</time>
      </trkpt>
      <trkpt lat="49.53492" lon="3.32376">
        <ele>124.5</ele>
        <time>2016-08-27T09:35:41.000Z</time>
      </trkpt>
      <trkpt lat="49.5349" lon="3.32388">
        <ele>125</ele>
        <time>2016-08-27T09:35:43.000Z</time>
      </trkpt>
      <trkpt lat="49.53489" lon="3.32395">
        <ele>125</ele>
        <time>2016-08-27T09:35:44.000Z</time>
      </trkpt>
      <trkpt lat="49.53486" lon="3.32407">
        <ele>125</ele>
        <time>2016-08-27T09:35:46.000Z</time>
      </trkpt>
      <trkpt lat="49.53484" lon="3.32413">
        <ele>124.9</ele>
        <time>2016-08-27T09:35:47.000Z</time>
      </trkpt>
      <trkpt lat="49.53481" lon="3.32424">
        <ele>124.5</ele>
        <time>2016-08-27T09:35:49.000Z</time>
      </trkpt>
      <trkpt lat="49.53479" lon="3.32429">
        <ele>124.3</ele>
        <time>2016-08-27T09:35:50.000Z</time>
      </trkpt>
      <trkpt lat="49.53475" lon="3.32439">
        <ele>124.1</ele>
        <time>2016-08-27T09:35:52.000Z</time>
      </trkpt>
      <trkpt lat="49.53472" lon="3.32444">
        <ele>124.1</ele>
        <time>2016-08-27T09:35:53.000Z</time>
      </trkpt>
      <trkpt lat="49.53467" lon="3.32451">
        <ele>123.3</ele>
        <time>2016-08-27T09:35:55.000Z</time>
      </trkpt>
      <trkpt lat="49.53464" lon="3.32454">
        <ele>123</ele>
        <time>2016-08-27T09:35:56.000Z</time>
      </trkpt>
      <trkpt lat="49.53458" lon="3.32459">
        <ele>122.6</ele>
        <time>2016-08-27T09:35:58.000Z</time>
      </trkpt>
      <trkpt lat="49.53454" lon="3.32461">
        <ele>122.6</ele>
        <time>2016-08-27T09:35:59.000Z</time>
      </trkpt>
      <trkpt lat="49.53448" lon="3.32463">
        <ele>122.6</ele>
        <time>2016-08-27T09:36:01.000Z</time>
      </trkpt>
      <trkpt lat="49.53444" lon="3.32463">
        <ele>122.6</ele>
        <time>2016-08-27T09:36:02.000Z</time>
      </trkpt>
      <trkpt lat="49.53437" lon="3.32462">
        <ele>122</ele>
        <time>2016-08-27T09:36:04.000Z</time>
      </trkpt>
      <trkpt lat="49.53432" lon="3.32462">
        <ele>121.9</ele>
        <time>2016-08-27T09:36:05.000Z</time>
      </trkpt>
      <trkpt lat="49.53424" lon="3.32461">
        <ele>121.6</ele>
        <time>2016-08-27T09:36:07.000Z</time>
      </trkpt>
      <trkpt lat="49.53419" lon="3.32461">
        <ele>121.3</ele>
        <time>2016-08-27T09:36:08.000Z</time>
      </trkpt>
      <trkpt lat="49.5341" lon="3.32463">
        <ele>121.1</ele>
        <time>2016-08-27T09:36:10.000Z</time>
      </trkpt>
      <trkpt lat="49.53407" lon="3.32464">
        <ele>121.1</ele>
        <time>2016-08-27T09:36:11.000Z</time>
      </trkpt>
      <trkpt lat="49.53399" lon="3.32465">
        <ele>120.9</ele>
        <time>2016-08-27T09:36:13.000Z</time>
      </trkpt>
      <trkpt lat="49.53395" lon="3.32466">
        <ele>120.8</ele>
        <time>2016-08-27T09:36:14.000Z</time>
      </trkpt>
      <trkpt lat="49.53387" lon="3.32468">
        <ele>120.7</ele>
        <time>2016-08-27T09:36:16.000Z</time>
      </trkpt>
      <trkpt lat="49.53383" lon="3.32469">
        <ele>120.7</ele>
        <time>2016-08-27T09:36:17.000Z</time>
      </trkpt>
      <trkpt lat="49.53375" lon="3.32471">
        <ele>120.9</ele>
        <time>2016-08-27T09:36:19.000Z</time>
      </trkpt>
      <trkpt lat="49.53371" lon="3.32473">
        <ele>120.9</ele>
        <time>2016-08-27T09:36:20.000Z</time>
      </trkpt>
      <trkpt lat="49.53363" lon="3.32475">
        <ele>121.3</ele>
        <time>2016-08-27T09:36:22.000Z</time>
      </trkpt>
      <trkpt lat="49.5336" lon="3.32476">
        <ele>121.3</ele>
        <time>2016-08-27T09:36:23.000Z</time>
      </trkpt>
      <trkpt lat="49.53352" lon="3.32476">
        <ele>121</ele>
        <time>2016-08-27T09:36:26.000Z</time>
      </trkpt>
      <trkpt lat="49.5335" lon="3.32476">
        <ele>121.3</ele>
        <time>2016-08-27T09:36:27.000Z</time>
      </trkpt>
      <trkpt lat="49.53341" lon="3.32475">
        <ele>122.3</ele>
        <time>2016-08-27T09:36:30.000Z</time>
      </trkpt>
      <trkpt lat="49.53338" lon="3.32475">
        <ele>122.1</ele>
        <time>2016-08-27T09:36:31.000Z</time>
      </trkpt>
      <trkpt lat="49.53331" lon="3.32473">
        <ele>121.7</ele>
        <time>2016-08-27T09:36:33.000Z</time>
      </trkpt>
      <trkpt lat="49.53326" lon="3.32472">
        <ele>121.5</ele>
        <time>2016-08-27T09:36:34.000Z</time>
      </trkpt>
      <trkpt lat="49.53322" lon="3.32471">
        <ele>121.5</ele>
        <time>2016-08-27T09:36:35.000Z</time>
      </trkpt>
      <trkpt lat="49.53317" lon="3.32468">
        <ele>121.6</ele>
        <time>2016-08-27T09:36:36.000Z</time>
      </trkpt>
      <trkpt lat="49.53312" lon="3.32466">
        <ele>121.5</ele>
        <time>2016-08-27T09:36:37.000Z</time>
      </trkpt>
      <trkpt lat="49.53308" lon="3.32463">
        <ele>121.7</ele>
        <time>2016-08-27T09:36:38.000Z</time>
      </trkpt>
      <trkpt lat="49.53304" lon="3.32461">
        <ele>121.7</ele>
        <time>2016-08-27T09:36:39.000Z</time>
      </trkpt>
      <trkpt lat="49.53299" lon="3.32459">
        <ele>121.8</ele>
        <time>2016-08-27T09:36:40.000Z</time>
      </trkpt>
      <trkpt lat="49.53294" lon="3.32457">
        <ele>121.9</ele>
        <time>2016-08-27T09:36:41.000Z</time>
      </trkpt>
      <trkpt lat="49.5329" lon="3.32456">
        <ele>122</ele>
        <time>2016-08-27T09:36:42.000Z</time>
      </trkpt>
      <trkpt lat="49.53281" lon="3.32452">
        <ele>122.8</ele>
        <time>2016-08-27T09:36:44.000Z</time>
      </trkpt>
      <trkpt lat="49.53277" lon="3.32451">
        <ele>123</ele>
        <time>2016-08-27T09:36:45.000Z</time>
      </trkpt>
      <trkpt lat="49.53271" lon="3.3245">
        <ele>123.1</ele>
        <time>2016-08-27T09:36:47.000Z</time>
      </trkpt>
      <trkpt lat="49.53268" lon="3.32449">
        <ele>122.9</ele>
        <time>2016-08-27T09:36:48.000Z</time>
      </trkpt>
      <trkpt lat="49.5326" lon="3.32445">
        <ele>122.7</ele>
        <time>2016-08-27T09:36:51.000Z</time>
      </trkpt>
      <trkpt lat="49.53257" lon="3.32444">
        <ele>122.7</ele>
        <time>2016-08-27T09:36:52.000Z</time>
      </trkpt>
      <trkpt lat="49.53251" lon="3.32442">
        <ele>122.9</ele>
        <time>2016-08-27T09:36:54.000Z</time>
      </trkpt>
      <trkpt lat="49.53248" lon="3.3244">
        <ele>123</ele>
        <time>2016-08-27T09:36:55.000Z</time>
      </trkpt>
      <trkpt lat="49.53241" lon="3.32437">
        <ele>123.5</ele>
        <time>2016-08-27T09:36:58.000Z</time>
      </trkpt>
      <trkpt lat="49.53239" lon="3.32436">
        <ele>123.6</ele>
        <time>2016-08-27T09:36:59.000Z</time>
      </trkpt>
      <trkpt lat="49.53231" lon="3.32432">
        <ele>124.4</ele>
        <time>2016-08-27T09:37:05.000Z</time>
      </trkpt>
      <trkpt lat="49.5323" lon="3.32431">
        <ele>124.4</ele>
        <time>2016-08-27T09:37:06.000Z</time>
      </trkpt>
      <trkpt lat="49.53221" lon="3.32428">
        <ele>124.1</ele>
        <time>2016-08-27T09:37:12.000Z</time>
      </trkpt>
      <trkpt lat="49.5322" lon="3.32428">
        <ele>124.1</ele>
        <time>2016-08-27T09:37:13.000Z</time>
      </trkpt>
      <trkpt lat="49.53212" lon="3.32424">
        <ele>123.8</ele>
        <time>2016-08-27T09:37:19.000Z</time>
      </trkpt>
      <trkpt lat="49.5321" lon="3.32423">
        <ele>123.8</ele>
        <time>2016-08-27T09:37:20.000Z</time>
      </trkpt>
      <trkpt lat="49.53202" lon="3.32421">
        <ele>124</ele>
        <time>2016-08-27T09:37:26.000Z</time>
      </trkpt>
      <trkpt lat="49.532" lon="3.3242">
        <ele>124.3</ele>
        <time>2016-08-27T09:37:27.000Z</time>
      </trkpt>
      <trkpt lat="49.53192" lon="3.32416">
        <ele>125.6</ele>
        <time>2016-08-27T09:37:32.000Z</time>
      </trkpt>
      <trkpt lat="49.5319" lon="3.32416">
        <ele>125.7</ele>
        <time>2016-08-27T09:37:33.000Z</time>
      </trkpt>
      <trkpt lat="49.53182" lon="3.32412">
        <ele>125.4</ele>
        <time>2016-08-27T09:37:39.000Z</time>
      </trkpt>
      <trkpt lat="49.53181" lon="3.32411">
        <ele>125.4</ele>
        <time>2016-08-27T09:37:40.000Z</time>
      </trkpt>
      <trkpt lat="49.53173" lon="3.32403">
        <ele>125.2</ele>
        <time>2016-08-27T09:37:46.000Z</time>
      </trkpt>
      <trkpt lat="49.53172" lon="3.32402">
        <ele>125.2</ele>
        <time>2016-08-27T09:37:47.000Z</time>
      </trkpt>
      <trkpt lat="49.53168" lon="3.32392">
        <ele>125.9</ele>
        <time>2016-08-27T09:37:53.000Z</time>
      </trkpt>
      <trkpt lat="49.53167" lon="3.32391">
        <ele>126</ele>
        <time>2016-08-27T09:37:54.000Z</time>
      </trkpt>
      <trkpt lat="49.53158" lon="3.32386">
        <ele>124.8</ele>
        <time>2016-08-27T09:38:01.000Z</time>
      </trkpt>
      <trkpt lat="49.53157" lon="3.32386">
        <ele>124.6</ele>
        <time>2016-08-27T09:38:02.000Z</time>
      </trkpt>
      <trkpt lat="49.53149" lon="3.3239">
        <ele>124.2</ele>
        <time>2016-08-27T09:38:06.000Z</time>
      </trkpt>
      <trkpt lat="49.53147" lon="3.32391">
        <ele>124.1</ele>
        <time>2016-08-27T09:38:07.000Z</time>
      </trkpt>
      <trkpt lat="49.5314" lon="3.32394">
        <ele>123.6</ele>
        <time>2016-08-27T09:38:13.000Z</time>
      </trkpt>
      <trkpt lat="49.53138" lon="3.32394">
        <ele>123.5</ele>
        <time>2016-08-27T09:38:14.000Z</time>
      </trkpt>
      <trkpt lat="49.5313" lon="3.32399">
        <ele>122.4</ele>
        <time>2016-08-27T09:38:20.000Z</time>
      </trkpt>
      <trkpt lat="49.53129" lon="3.324">
        <ele>122.3</ele>
        <time>2016-08-27T09:38:21.000Z</time>
      </trkpt>
      <trkpt lat="49.53121" lon="3.32406">
        <ele>121.2</ele>
        <time>2016-08-27T09:38:27.000Z</time>
      </trkpt>
      <trkpt lat="49.5312" lon="3.32407">
        <ele>121.1</ele>
        <time>2016-08-27T09:38:28.000Z</time>
      </trkpt>
      <trkpt lat="49.53112" lon="3.32413">
        <ele>120.2</ele>
        <time>2016-08-27T09:38:37.000Z</time>
      </trkpt>
      <trkpt lat="49.53112" lon="3.32414">
        <ele>120.1</ele>
        <time>2016-08-27T09:38:38.000Z</time>
      </trkpt>
      <trkpt lat="49.53104" lon="3.32418">
        <ele>119.3</ele>
        <time>2016-08-27T09:38:47.000Z</time>
      </trkpt>
      <trkpt lat="49.53103" lon="3.32419">
        <ele>119</ele>
        <time>2016-08-27T09:38:48.000Z</time>
      </trkpt>
      <trkpt lat="49.53095" lon="3.32425">
        <ele>117.7</ele>
        <time>2016-08-27T09:38:54.000Z</time>
      </trkpt>
      <trkpt lat="49.53094" lon="3.32426">
        <ele>117.6</ele>
        <time>2016-08-27T09:38:55.000Z</time>
      </trkpt>
      <trkpt lat="49.53085" lon="3.3243">
        <ele>119.1</ele>
        <time>2016-08-27T09:39:04.000Z</time>
      </trkpt>
      <trkpt lat="49.53084" lon="3.32431">
        <ele>119</ele>
        <time>2016-08-27T09:39:05.000Z</time>
      </trkpt>
      <trkpt lat="49.53076" lon="3.32432">
        <ele>118.3</ele>
        <time>2016-08-27T09:39:11.000Z</time>
      </trkpt>
      <trkpt lat="49.53073" lon="3.32433">
        <ele>118</ele>
        <time>2016-08-27T09:39:12.000Z</time>
      </trkpt>
      <trkpt lat="49.53066" lon="3.32434">
        <ele>118.2</ele>
        <time>2016-08-27T09:39:15.000Z</time>
      </trkpt>
      <trkpt lat="49.53063" lon="3.32435">
        <ele>118.3</ele>
        <time>2016-08-27T09:39:16.000Z</time>
      </trkpt>
      <trkpt lat="49.53055" lon="3.32435">
        <ele>118.3</ele>
        <time>2016-08-27T09:39:20.000Z</time>
      </trkpt>
      <trkpt lat="49.53053" lon="3.32434">
        <ele>118.3</ele>
        <time>2016-08-27T09:39:21.000Z</time>
      </trkpt>
      <trkpt lat="49.53045" lon="3.32437">
        <ele>118.8</ele>
        <time>2016-08-27T09:39:26.000Z</time>
      </trkpt>
      <trkpt lat="49.53044" lon="3.32438">
        <ele>118.9</ele>
        <time>2016-08-27T09:39:27.000Z</time>
      </trkpt>
      <trkpt lat="49.53037" lon="3.32447">
        <ele>118.6</ele>
        <time>2016-08-27T09:39:34.000Z</time>
      </trkpt>
      <trkpt lat="49.53035" lon="3.32448">
        <ele>118.2</ele>
        <time>2016-08-27T09:39:35.000Z</time>
      </trkpt>
      <trkpt lat="49.5303" lon="3.32457">
        <ele>117.1</ele>
        <time>2016-08-27T09:39:40.000Z</time>
      </trkpt>
      <trkpt lat="49.53028" lon="3.32458">
        <ele>116.8</ele>
        <time>2016-08-27T09:39:41.000Z</time>
      </trkpt>
      <trkpt lat="49.53022" lon="3.32467">
        <ele>116</ele>
        <time>2016-08-27T09:39:47.000Z</time>
      </trkpt>
      <trkpt lat="49.53021" lon="3.32468">
        <ele>116</ele>
        <time>2016-08-27T09:39:48.000Z</time>
      </trkpt>
      <trkpt lat="49.53015" lon="3.32475">
        <ele>115.4</ele>
        <time>2016-08-27T09:39:53.000Z</time>
      </trkpt>
      <trkpt lat="49.53013" lon="3.32477">
        <ele>115.3</ele>
        <time>2016-08-27T09:39:54.000Z</time>
      </trkpt>
      <trkpt lat="49.53007" lon="3.32483">
        <ele>115.3</ele>
        <time>2016-08-27T09:39:59.000Z</time>
      </trkpt>
      <trkpt lat="49.53005" lon="3.32484">
        <ele>115.2</ele>
        <time>2016-08-27T09:40:00.000Z</time>
      </trkpt>
      <trkpt lat="49.52999" lon="3.32491">
        <ele>115.8</ele>
        <time>2016-08-27T09:40:05.000Z</time>
      </trkpt>
      <trkpt lat="49.52997" lon="3.32493">
        <ele>116</ele>
        <time>2016-08-27T09:40:06.000Z</time>
      </trkpt>
      <trkpt lat="49.5299" lon="3.32501">
        <ele>116.3</ele>
        <time>2016-08-27T09:40:11.000Z</time>
      </trkpt>
      <trkpt lat="49.52989" lon="3.32502">
        <ele>116.3</ele>
        <time>2016-08-27T09:40:12.000Z</time>
      </trkpt>
      <trkpt lat="49.52983" lon="3.3251">
        <ele>116</ele>
        <time>2016-08-27T09:40:17.000Z</time>
      </trkpt>
      <trkpt lat="49.52982" lon="3.32512">
        <ele>115.9</ele>
        <time>2016-08-27T09:40:18.000Z</time>
      </trkpt>
      <trkpt lat="49.52976" lon="3.3252">
        <ele>115.6</ele>
        <time>2016-08-27T09:40:23.000Z</time>
      </trkpt>
      <trkpt lat="49.52975" lon="3.32521">
        <ele>115.5</ele>
        <time>2016-08-27T09:40:24.000Z</time>
      </trkpt>
      <trkpt lat="49.52969" lon="3.32531">
        <ele>115.2</ele>
        <time>2016-08-27T09:40:30.000Z</time>
      </trkpt>
      <trkpt lat="49.52968" lon="3.32533">
        <ele>115.2</ele>
        <time>2016-08-27T09:40:31.000Z</time>
      </trkpt>
      <trkpt lat="49.52964" lon="3.32542">
        <ele>114.6</ele>
        <time>2016-08-27T09:40:36.000Z</time>
      </trkpt>
      <trkpt lat="49.52963" lon="3.32544">
        <ele>114.6</ele>
        <time>2016-08-27T09:40:37.000Z</time>
      </trkpt>
      <trkpt lat="49.52958" lon="3.32554">
        <ele>114.5</ele>
        <time>2016-08-27T09:40:42.000Z</time>
      </trkpt>
      <trkpt lat="49.52957" lon="3.32556">
        <ele>114.5</ele>
        <time>2016-08-27T09:40:43.000Z</time>
      </trkpt>
      <trkpt lat="49.52953" lon="3.32564">
        <ele>114.5</ele>
        <time>2016-08-27T09:40:47.000Z</time>
      </trkpt>
      <trkpt lat="49.52952" lon="3.32567">
        <ele>114.4</ele>
        <time>2016-08-27T09:40:48.000Z</time>
      </trkpt>
      <trkpt lat="49.52949" lon="3.32578">
        <ele>114.4</ele>
        <time>2016-08-27T09:40:51.000Z</time>
      </trkpt>
      <trkpt lat="49.52947" lon="3.32582">
        <ele>114.4</ele>
        <time>2016-08-27T09:40:52.000Z</time>
      </trkpt>
      <trkpt lat="49.52945" lon="3.32591">
        <ele>114.3</ele>
        <time>2016-08-27T09:40:54.000Z</time>
      </trkpt>
      <trkpt lat="49.52943" lon="3.32595">
        <ele>114.2</ele>
        <time>2016-08-27T09:40:55.000Z</time>
      </trkpt>
      <trkpt lat="49.5294" lon="3.32607">
        <ele>114.1</ele>
        <time>2016-08-27T09:40:58.000Z</time>
      </trkpt>
      <trkpt lat="49.52939" lon="3.3261">
        <ele>114</ele>
        <time>2016-08-27T09:40:59.000Z</time>
      </trkpt>
      <trkpt lat="49.52936" lon="3.32621">
        <ele>113.7</ele>
        <time>2016-08-27T09:41:05.000Z</time>
      </trkpt>
      <trkpt lat="49.52935" lon="3.32623">
        <ele>113.7</ele>
        <time>2016-08-27T09:41:06.000Z</time>
      </trkpt>
      <trkpt lat="49.52932" lon="3.32635">
        <ele>112.6</ele>
        <time>2016-08-27T09:41:12.000Z</time>
      </trkpt>
      <trkpt lat="49.52931" lon="3.32636">
        <ele>112.6</ele>
        <time>2016-08-27T09:41:13.000Z</time>
      </trkpt>
      <trkpt lat="49.52924" lon="3.3264">
        <ele>113.8</ele>
        <time>2016-08-27T09:41:19.000Z</time>
      </trkpt>
      <trkpt lat="49.52922" lon="3.3264">
        <ele>113.9</ele>
        <time>2016-08-27T09:41:20.000Z</time>
      </trkpt>
      <trkpt lat="49.52916" lon="3.32638">
        <ele>114.2</ele>
        <time>2016-08-27T09:41:24.000Z</time>
      </trkpt>
      <trkpt lat="49.52913" lon="3.32637">
        <ele>114.3</ele>
        <time>2016-08-27T09:41:25.000Z</time>
      </trkpt>
      <trkpt lat="49.52906" lon="3.32633">
        <ele>114.5</ele>
        <time>2016-08-27T09:41:28.000Z</time>
      </trkpt>
      <trkpt lat="49.52903" lon="3.32632">
        <ele>114.5</ele>
        <time>2016-08-27T09:41:29.000Z</time>
      </trkpt>
      <trkpt lat="49.52895" lon="3.32626">
        <ele>114.7</ele>
        <time>2016-08-27T09:41:32.000Z</time>
      </trkpt>
      <trkpt lat="49.52892" lon="3.32624">
        <ele>114.8</ele>
        <time>2016-08-27T09:41:33.000Z</time>
      </trkpt>
      <trkpt lat="49.52884" lon="3.32621">
        <ele>115.2</ele>
        <time>2016-08-27T09:41:35.000Z</time>
      </trkpt>
      <trkpt lat="49.5288" lon="3.32619">
        <ele>115.4</ele>
        <time>2016-08-27T09:41:36.000Z</time>
      </trkpt>
      <trkpt lat="49.52872" lon="3.32618">
        <ele>116</ele>
        <time>2016-08-27T09:41:39.000Z</time>
      </trkpt>
      <trkpt lat="49.5287" lon="3.32619">
        <ele>116.3</ele>
        <time>2016-08-27T09:41:40.000Z</time>
      </trkpt>
      <trkpt lat="49.52863" lon="3.32625">
        <ele>117.4</ele>
        <time>2016-08-27T09:41:45.000Z</time>
      </trkpt>
      <trkpt lat="49.5286" lon="3.32627">
        <ele>117.6</ele>
        <time>2016-08-27T09:41:46.000Z</time>
      </trkpt>
      <trkpt lat="49.52853" lon="3.32633">
        <ele>118.2</ele>
        <time>2016-08-27T09:41:50.000Z</time>
      </trkpt>
      <trkpt lat="49.52851" lon="3.32634">
        <ele>118.4</ele>
        <time>2016-08-27T09:41:51.000Z</time>
      </trkpt>
      <trkpt lat="49.52843" lon="3.32638">
        <ele>118.7</ele>
        <time>2016-08-27T09:41:54.000Z</time>
      </trkpt>
      <trkpt lat="49.5284" lon="3.32639">
        <ele>118.8</ele>
        <time>2016-08-27T09:41:55.000Z</time>
      </trkpt>
      <trkpt lat="49.52835" lon="3.32643">
        <ele>119</ele>
        <time>2016-08-27T09:41:57.000Z</time>
      </trkpt>
      <trkpt lat="49.52832" lon="3.32645">
        <ele>119.1</ele>
        <time>2016-08-27T09:41:58.000Z</time>
      </trkpt>
      <trkpt lat="49.52824" lon="3.3265">
        <ele>119.3</ele>
        <time>2016-08-27T09:42:01.000Z</time>
      </trkpt>
      <trkpt lat="49.52822" lon="3.32651">
        <ele>119.4</ele>
        <time>2016-08-27T09:42:02.000Z</time>
      </trkpt>
      <trkpt lat="49.52813" lon="3.32654">
        <ele>119.3</ele>
        <time>2016-08-27T09:42:05.000Z</time>
      </trkpt>
      <trkpt lat="49.52811" lon="3.32655">
        <ele>119.4</ele>
        <time>2016-08-27T09:42:06.000Z</time>
      </trkpt>
      <trkpt lat="49.52805" lon="3.3266">
        <ele>119.6</ele>
        <time>2016-08-27T09:42:09.000Z</time>
      </trkpt>
      <trkpt lat="49.52802" lon="3.32664">
        <ele>119.7</ele>
        <time>2016-08-27T09:42:10.000Z</time>
      </trkpt>
      <trkpt lat="49.52797" lon="3.3267">
        <ele>119.6</ele>
        <time>2016-08-27T09:42:12.000Z</time>
      </trkpt>
      <trkpt lat="49.52794" lon="3.32673">
        <ele>119.6</ele>
        <time>2016-08-27T09:42:13.000Z</time>
      </trkpt>
      <trkpt lat="49.5279" lon="3.32681">
        <ele>119.5</ele>
        <time>2016-08-27T09:42:15.000Z</time>
      </trkpt>
      <trkpt lat="49.52788" lon="3.32684">
        <ele>119.6</ele>
        <time>2016-08-27T09:42:16.000Z</time>
      </trkpt>
      <trkpt lat="49.52783" lon="3.32688">
        <ele>119.6</ele>
        <time>2016-08-27T09:42:18.000Z</time>
      </trkpt>
      <trkpt lat="49.5278" lon="3.32691">
        <ele>119.7</ele>
        <time>2016-08-27T09:42:19.000Z</time>
      </trkpt>
      <trkpt lat="49.52772" lon="3.32698">
        <ele>120.3</ele>
        <time>2016-08-27T09:42:21.000Z</time>
      </trkpt>
      <trkpt lat="49.52769" lon="3.32702">
        <ele>120.5</ele>
        <time>2016-08-27T09:42:22.000Z</time>
      </trkpt>
      <trkpt lat="49.52762" lon="3.32709">
        <ele>120.4</ele>
        <time>2016-08-27T09:42:24.000Z</time>
      </trkpt>
      <trkpt lat="49.5276" lon="3.32712">
        <ele>120.3</ele>
        <time>2016-08-27T09:42:25.000Z</time>
      </trkpt>
      <trkpt lat="49.52754" lon="3.32718">
        <ele>120.3</ele>
        <time>2016-08-27T09:42:27.000Z</time>
      </trkpt>
      <trkpt lat="49.5275" lon="3.32722">
        <ele>120.5</ele>
        <time>2016-08-27T09:42:28.000Z</time>
      </trkpt>
      <trkpt lat="49.52744" lon="3.32728">
        <ele>120.8</ele>
        <time>2016-08-27T09:42:30.000Z</time>
      </trkpt>
      <trkpt lat="49.52741" lon="3.32731">
        <ele>120.6</ele>
        <time>2016-08-27T09:42:31.000Z</time>
      </trkpt>
      <trkpt lat="49.52736" lon="3.32734">
        <ele>120.6</ele>
        <time>2016-08-27T09:42:32.000Z</time>
      </trkpt>
      <trkpt lat="49.52733" lon="3.32737">
        <ele>120.7</ele>
        <time>2016-08-27T09:42:33.000Z</time>
      </trkpt>
      <trkpt lat="49.52725" lon="3.32743">
        <ele>120.9</ele>
        <time>2016-08-27T09:42:35.000Z</time>
      </trkpt>
      <trkpt lat="49.52721" lon="3.32745">
        <ele>121</ele>
        <time>2016-08-27T09:42:36.000Z</time>
      </trkpt>
      <trkpt lat="49.52715" lon="3.32749">
        <ele>121.3</ele>
        <time>2016-08-27T09:42:38.000Z</time>
      </trkpt>
      <trkpt lat="49.52712" lon="3.32751">
        <ele>121.5</ele>
        <time>2016-08-27T09:42:39.000Z</time>
      </trkpt>
      <trkpt lat="49.52705" lon="3.32758">
        <ele>122.2</ele>
        <time>2016-08-27T09:42:42.000Z</time>
      </trkpt>
      <trkpt lat="49.52704" lon="3.32759">
        <ele>122.4</ele>
        <time>2016-08-27T09:42:43.000Z</time>
      </trkpt>
      <trkpt lat="49.52697" lon="3.32763">
        <ele>123.2</ele>
        <time>2016-08-27T09:42:46.000Z</time>
      </trkpt>
      <trkpt lat="49.52695" lon="3.32766">
        <ele>123.5</ele>
        <time>2016-08-27T09:42:47.000Z</time>
      </trkpt>
      <trkpt lat="49.52689" lon="3.32772">
        <ele>124.3</ele>
        <time>2016-08-27T09:42:49.000Z</time>
      </trkpt>
      <trkpt lat="49.52686" lon="3.32774">
        <ele>124.8</ele>
        <time>2016-08-27T09:42:50.000Z</time>
      </trkpt>
      <trkpt lat="49.5268" lon="3.32779">
        <ele>125.7</ele>
        <time>2016-08-27T09:42:52.000Z</time>
      </trkpt>
      <trkpt lat="49.52677" lon="3.3278">
        <ele>125.9</ele>
        <time>2016-08-27T09:42:53.000Z</time>
      </trkpt>
      <trkpt lat="49.52669" lon="3.32786">
        <ele>126.5</ele>
        <time>2016-08-27T09:42:56.000Z</time>
      </trkpt>
      <trkpt lat="49.52666" lon="3.32787">
        <ele>126.8</ele>
        <time>2016-08-27T09:42:57.000Z</time>
      </trkpt>
      <trkpt lat="49.52658" lon="3.3279">
        <ele>127.4</ele>
        <time>2016-08-27T09:43:00.000Z</time>
      </trkpt>
      <trkpt lat="49.52656" lon="3.32792">
        <ele>127.8</ele>
        <time>2016-08-27T09:43:01.000Z</time>
      </trkpt>
      <trkpt lat="49.5265" lon="3.32793">
        <ele>128.5</ele>
        <time>2016-08-27T09:43:03.000Z</time>
      </trkpt>
      <trkpt lat="49.52646" lon="3.32794">
        <ele>128.9</ele>
        <time>2016-08-27T09:43:04.000Z</time>
      </trkpt>
      <trkpt lat="49.5264" lon="3.32796">
        <ele>130.7</ele>
        <time>2016-08-27T09:43:06.000Z</time>
      </trkpt>
      <trkpt lat="49.52637" lon="3.32797">
        <ele>131.5</ele>
        <time>2016-08-27T09:43:07.000Z</time>
      </trkpt>
      <trkpt lat="49.52629" lon="3.32801">
        <ele>133.1</ele>
        <time>2016-08-27T09:43:10.000Z</time>
      </trkpt>
      <trkpt lat="49.52627" lon="3.32803">
        <ele>133.8</ele>
        <time>2016-08-27T09:43:11.000Z</time>
      </trkpt>
      <trkpt lat="49.5262" lon="3.3281">
        <ele>135.2</ele>
        <time>2016-08-27T09:43:14.000Z</time>
      </trkpt>
      <trkpt lat="49.52617" lon="3.32812">
        <ele>135.7</ele>
        <time>2016-08-27T09:43:15.000Z</time>
      </trkpt>
      <trkpt lat="49.52609" lon="3.32818">
        <ele>138.4</ele>
        <time>2016-08-27T09:43:17.000Z</time>
      </trkpt>
      <trkpt lat="49.52605" lon="3.32821">
        <ele>139.4</ele>
        <time>2016-08-27T09:43:18.000Z</time>
      </trkpt>
      <trkpt lat="49.52599" lon="3.32829">
        <ele>142.4</ele>
        <time>2016-08-27T09:43:22.000Z</time>
      </trkpt>
      <trkpt lat="49.52597" lon="3.3283">
        <ele>142.8</ele>
        <time>2016-08-27T09:43:23.000Z</time>
      </trkpt>
      <trkpt lat="49.5259" lon="3.32836">
        <ele>144.2</ele>
        <time>2016-08-27T09:43:35.000Z</time>
      </trkpt>
      <trkpt lat="49.52589" lon="3.32837">
        <ele>144.4</ele>
        <time>2016-08-27T09:43:36.000Z</time>
      </trkpt>
      <trkpt lat="49.52589" lon="3.32837">
        <ele>144.8</ele>
        <time>2016-08-27T09:43:38.000Z</time>
      </trkpt>
      <trkpt lat="49.52588" lon="3.32837">
        <ele>144.9</ele>
        <time>2016-08-27T09:43:39.000Z</time>
      </trkpt>
      <trkpt lat="49.52587" lon="3.32838">
        <ele>145.1</ele>
        <time>2016-08-27T09:43:43.000Z</time>
      </trkpt>
      <trkpt lat="49.52586" lon="3.32839">
        <ele>145.8</ele>
        <time>2016-08-27T09:43:44.000Z</time>
      </trkpt>
      <trkpt lat="49.52582" lon="3.32841">
        <ele>147.3</ele>
        <time>2016-08-27T09:43:48.000Z</time>
      </trkpt>
      <trkpt lat="49.52582" lon="3.32841">
        <ele>147.7</ele>
        <time>2016-08-27T09:43:49.000Z</time>
      </trkpt>
      <trkpt lat="49.52581" lon="3.32841">
        <ele>148.1</ele>
        <time>2016-08-27T09:43:50.000Z</time>
      </trkpt>
      <trkpt lat="49.52581" lon="3.32842">
        <ele>148.5</ele>
        <time>2016-08-27T09:43:51.000Z</time>
      </trkpt>
      <trkpt lat="49.52578" lon="3.32845">
        <ele>152.3</ele>
        <time>2016-08-27T09:44:08.000Z</time>
      </trkpt>
      <trkpt lat="49.52578" lon="3.32845">
        <ele>152.3</ele>
        <time>2016-08-27T09:44:09.000Z</time>
      </trkpt>
      <trkpt lat="49.52578" lon="3.32845">
        <ele>152.3</ele>
        <time>2016-08-27T09:44:14.000Z</time>
      </trkpt>
      <trkpt lat="49.52579" lon="3.32845">
        <ele>151.3</ele>
        <time>2016-08-27T09:44:15.000Z</time>
      </trkpt>
      <trkpt lat="49.5257" lon="3.32846">
        <ele>163.5</ele>
        <time>2016-08-27T09:45:54.000Z</time>
      </trkpt>
      <trkpt lat="49.52568" lon="3.32847">
        <ele>163.6</ele>
        <time>2016-08-27T09:45:55.000Z</time>
      </trkpt>
      <trkpt lat="49.52561" lon="3.32851">
        <ele>164.5</ele>
        <time>2016-08-27T09:46:00.000Z</time>
      </trkpt>
      <trkpt lat="49.52559" lon="3.32851">
        <ele>164.5</ele>
        <time>2016-08-27T09:46:01.000Z</time>
      </trkpt>
      <trkpt lat="49.52552" lon="3.32855">
        <ele>165.2</ele>
        <time>2016-08-27T09:46:06.000Z</time>
      </trkpt>
      <trkpt lat="49.5255" lon="3.32855">
        <ele>165.2</ele>
        <time>2016-08-27T09:46:07.000Z</time>
      </trkpt>
      <trkpt lat="49.52542" lon="3.32858">
        <ele>165.9</ele>
        <time>2016-08-27T09:46:12.000Z</time>
      </trkpt>
      <trkpt lat="49.52541" lon="3.32858">
        <ele>165.9</ele>
        <time>2016-08-27T09:46:13.000Z</time>
      </trkpt>
      <trkpt lat="49.52532" lon="3.32859">
        <ele>166.1</ele>
        <time>2016-08-27T09:46:18.000Z</time>
      </trkpt>
      <trkpt lat="49.52531" lon="3.32859">
        <ele>166.1</ele>
        <time>2016-08-27T09:46:19.000Z</time>
      </trkpt>
      <trkpt lat="49.52523" lon="3.32859">
        <ele>167.2</ele>
        <time>2016-08-27T09:46:24.000Z</time>
      </trkpt>
      <trkpt lat="49.52522" lon="3.32859">
        <ele>167.3</ele>
        <time>2016-08-27T09:46:25.000Z</time>
      </trkpt>
      <trkpt lat="49.52514" lon="3.32859">
        <ele>167.8</ele>
        <time>2016-08-27T09:46:30.000Z</time>
      </trkpt>
      <trkpt lat="49.52512" lon="3.32858">
        <ele>167.9</ele>
        <time>2016-08-27T09:46:31.000Z</time>
      </trkpt>
      <trkpt lat="49.52503" lon="3.32857">
        <ele>168.3</ele>
        <time>2016-08-27T09:46:37.000Z</time>
      </trkpt>
      <trkpt lat="49.52502" lon="3.32857">
        <ele>168.3</ele>
        <time>2016-08-27T09:46:38.000Z</time>
      </trkpt>
      <trkpt lat="49.52493" lon="3.32855">
        <ele>169</ele>
        <time>2016-08-27T09:46:45.000Z</time>
      </trkpt>
      <trkpt lat="49.52491" lon="3.32855">
        <ele>169</ele>
        <time>2016-08-27T09:46:46.000Z</time>
      </trkpt>
      <trkpt lat="49.52483" lon="3.32855">
        <ele>169.1</ele>
        <time>2016-08-27T09:46:52.000Z</time>
      </trkpt>
      <trkpt lat="49.52482" lon="3.32854">
        <ele>169.2</ele>
        <time>2016-08-27T09:46:53.000Z</time>
      </trkpt>
      <trkpt lat="49.52473" lon="3.32853">
        <ele>169.5</ele>
        <time>2016-08-27T09:47:00.000Z</time>
      </trkpt>
      <trkpt lat="49.52472" lon="3.32853">
        <ele>169.6</ele>
        <time>2016-08-27T09:47:01.000Z</time>
      </trkpt>
      <trkpt lat="49.52463" lon="3.32854">
        <ele>169.7</ele>
        <time>2016-08-27T09:47:08.000Z</time>
      </trkpt>
      <trkpt lat="49.52461" lon="3.32854">
        <ele>169.6</ele>
        <time>2016-08-27T09:47:09.000Z</time>
      </trkpt>
      <trkpt lat="49.52454" lon="3.32852">
        <ele>169.9</ele>
        <time>2016-08-27T09:47:14.000Z</time>
      </trkpt>
      <trkpt lat="49.52452" lon="3.32852">
        <ele>170.1</ele>
        <time>2016-08-27T09:47:15.000Z</time>
      </trkpt>
      <trkpt lat="49.52444" lon="3.3285">
        <ele>171.1</ele>
        <time>2016-08-27T09:47:20.000Z</time>
      </trkpt>
      <trkpt lat="49.52442" lon="3.3285">
        <ele>171.3</ele>
        <time>2016-08-27T09:47:21.000Z</time>
      </trkpt>
      <trkpt lat="49.52434" lon="3.32849">
        <ele>171.9</ele>
        <time>2016-08-27T09:47:27.000Z</time>
      </trkpt>
      <trkpt lat="49.52432" lon="3.32849">
        <ele>171.9</ele>
        <time>2016-08-27T09:47:28.000Z</time>
      </trkpt>
      <trkpt lat="49.52425" lon="3.32847">
        <ele>171.3</ele>
        <time>2016-08-27T09:47:33.000Z</time>
      </trkpt>
      <trkpt lat="49.52423" lon="3.32847">
        <ele>171.2</ele>
        <time>2016-08-27T09:47:34.000Z</time>
      </trkpt>
      <trkpt lat="49.52414" lon="3.32845">
        <ele>171.8</ele>
        <time>2016-08-27T09:47:41.000Z</time>
      </trkpt>
      <trkpt lat="49.52413" lon="3.32845">
        <ele>172</ele>
        <time>2016-08-27T09:47:42.000Z</time>
      </trkpt>
      <trkpt lat="49.52405" lon="3.32843">
        <ele>171.9</ele>
        <time>2016-08-27T09:47:48.000Z</time>
      </trkpt>
      <trkpt lat="49.52404" lon="3.32842">
        <ele>171.9</ele>
        <time>2016-08-27T09:47:49.000Z</time>
      </trkpt>
      <trkpt lat="49.52396" lon="3.3284">
        <ele>171.9</ele>
        <time>2016-08-27T09:47:56.000Z</time>
      </trkpt>
      <trkpt lat="49.52394" lon="3.32839">
        <ele>171.9</ele>
        <time>2016-08-27T09:47:57.000Z</time>
      </trkpt>
      <trkpt lat="49.52385" lon="3.32839">
        <ele>172.2</ele>
        <time>2016-08-27T09:48:04.000Z</time>
      </trkpt>
      <trkpt lat="49.52384" lon="3.32838">
        <ele>172.1</ele>
        <time>2016-08-27T09:48:05.000Z</time>
      </trkpt>
      <trkpt lat="49.52376" lon="3.32836">
        <ele>172</ele>
        <time>2016-08-27T09:48:10.000Z</time>
      </trkpt>
      <trkpt lat="49.52374" lon="3.32836">
        <ele>172.1</ele>
        <time>2016-08-27T09:48:11.000Z</time>
      </trkpt>
      <trkpt lat="49.52366" lon="3.32832">
        <ele>172.4</ele>
        <time>2016-08-27T09:48:17.000Z</time>
      </trkpt>
      <trkpt lat="49.52365" lon="3.32832">
        <ele>172.3</ele>
        <time>2016-08-27T09:48:18.000Z</time>
      </trkpt>
      <trkpt lat="49.52356" lon="3.32831">
        <ele>172.2</ele>
        <time>2016-08-27T09:48:24.000Z</time>
      </trkpt>
      <trkpt lat="49.52355" lon="3.32831">
        <ele>172.1</ele>
        <time>2016-08-27T09:48:25.000Z</time>
      </trkpt>
      <trkpt lat="49.52347" lon="3.32829">
        <ele>172.7</ele>
        <time>2016-08-27T09:48:31.000Z</time>
      </trkpt>
      <trkpt lat="49.52345" lon="3.32827">
        <ele>172.6</ele>
        <time>2016-08-27T09:48:32.000Z</time>
      </trkpt>
      <trkpt lat="49.52338" lon="3.32821">
        <ele>172.6</ele>
        <time>2016-08-27T09:48:39.000Z</time>
      </trkpt>
      <trkpt lat="49.52337" lon="3.32819">
        <ele>172.5</ele>
        <time>2016-08-27T09:48:40.000Z</time>
      </trkpt>
      <trkpt lat="49.5233" lon="3.3281">
        <ele>171.7</ele>
        <time>2016-08-27T09:48:45.000Z</time>
      </trkpt>
      <trkpt lat="49.52329" lon="3.32807">
        <ele>171.6</ele>
        <time>2016-08-27T09:48:46.000Z</time>
      </trkpt>
      <trkpt lat="49.52324" lon="3.32797">
        <ele>171.8</ele>
        <time>2016-08-27T09:48:52.000Z</time>
      </trkpt>
      <trkpt lat="49.52324" lon="3.32795">
        <ele>171.7</ele>
        <time>2016-08-27T09:48:53.000Z</time>
      </trkpt>
      <trkpt lat="49.52317" lon="3.32786">
        <ele>171.4</ele>
        <time>2016-08-27T09:49:00.000Z</time>
      </trkpt>
      <trkpt lat="49.52316" lon="3.32784">
        <ele>171.5</ele>
        <time>2016-08-27T09:49:01.000Z</time>
      </trkpt>
      <trkpt lat="49.52309" lon="3.3278">
        <ele>171.3</ele>
        <time>2016-08-27T09:49:07.000Z</time>
      </trkpt>
      <trkpt lat="49.52307" lon="3.32779">
        <ele>171.3</ele>
        <time>2016-08-27T09:49:08.000Z</time>
      </trkpt>
      <trkpt lat="49.52302" lon="3.32771">
        <ele>171.3</ele>
        <time>2016-08-27T09:49:13.000Z</time>
      </trkpt>
      <trkpt lat="49.523" lon="3.32769">
        <ele>171.3</ele>
        <time>2016-08-27T09:49:14.000Z</time>
      </trkpt>
      <trkpt lat="49.52294" lon="3.32762">
        <ele>171.2</ele>
        <time>2016-08-27T09:49:19.000Z</time>
      </trkpt>
      <trkpt lat="49.52292" lon="3.3276">
        <ele>171.3</ele>
        <time>2016-08-27T09:49:20.000Z</time>
      </trkpt>
      <trkpt lat="49.52285" lon="3.32758">
        <ele>171.7</ele>
        <time>2016-08-27T09:49:25.000Z</time>
      </trkpt>
      <trkpt lat="49.52283" lon="3.32758">
        <ele>171.5</ele>
        <time>2016-08-27T09:49:26.000Z</time>
      </trkpt>
      <trkpt lat="49.52275" lon="3.3276">
        <ele>171.5</ele>
        <time>2016-08-27T09:49:32.000Z</time>
      </trkpt>
      <trkpt lat="49.52273" lon="3.32761">
        <ele>171.5</ele>
        <time>2016-08-27T09:49:33.000Z</time>
      </trkpt>
      <trkpt lat="49.52266" lon="3.32768">
        <ele>170.6</ele>
        <time>2016-08-27T09:49:40.000Z</time>
      </trkpt>
      <trkpt lat="49.52264" lon="3.32769">
        <ele>170.4</ele>
        <time>2016-08-27T09:49:41.000Z</time>
      </trkpt>
      <trkpt lat="49.52257" lon="3.32773">
        <ele>169.9</ele>
        <time>2016-08-27T09:49:47.000Z</time>
      </trkpt>
      <trkpt lat="49.52256" lon="3.32774">
        <ele>169.5</ele>
        <time>2016-08-27T09:49:48.000Z</time>
      </trkpt>
      <trkpt lat="49.52248" lon="3.32779">
        <ele>169</ele>
        <time>2016-08-27T09:49:55.000Z</time>
      </trkpt>
      <trkpt lat="49.52247" lon="3.3278">
        <ele>169</ele>
        <time>2016-08-27T09:49:56.000Z</time>
      </trkpt>
      <trkpt lat="49.5224" lon="3.32783">
        <ele>168.8</ele>
        <time>2016-08-27T09:50:00.000Z</time>
      </trkpt>
      <trkpt lat="49.52238" lon="3.32783">
        <ele>168.9</ele>
        <time>2016-08-27T09:50:01.000Z</time>
      </trkpt>
      <trkpt lat="49.52229" lon="3.32785">
        <ele>169.1</ele>
        <time>2016-08-27T09:50:06.000Z</time>
      </trkpt>
      <trkpt lat="49.52228" lon="3.32786">
        <ele>169</ele>
        <time>2016-08-27T09:50:07.000Z</time>
      </trkpt>
      <trkpt lat="49.5222" lon="3.32788">
        <ele>168.6</ele>
        <time>2016-08-27T09:50:12.000Z</time>
      </trkpt>
      <trkpt lat="49.52218" lon="3.32788">
        <ele>168.6</ele>
        <time>2016-08-27T09:50:13.000Z</time>
      </trkpt>
      <trkpt lat="49.5221" lon="3.32785">
        <ele>168.2</ele>
        <time>2016-08-27T09:50:18.000Z</time>
      </trkpt>
      <trkpt lat="49.52209" lon="3.32784">
        <ele>167.9</ele>
        <time>2016-08-27T09:50:19.000Z</time>
      </trkpt>
      <trkpt lat="49.522" lon="3.32782">
        <ele>168.2</ele>
        <time>2016-08-27T09:50:25.000Z</time>
      </trkpt>
      <trkpt lat="49.52198" lon="3.32782">
        <ele>168.1</ele>
        <time>2016-08-27T09:50:26.000Z</time>
      </trkpt>
      <trkpt lat="49.52191" lon="3.32774">
        <ele>166.2</ele>
        <time>2016-08-27T09:50:32.000Z</time>
      </trkpt>
      <trkpt lat="49.52189" lon="3.32772">
        <ele>166.1</ele>
        <time>2016-08-27T09:50:33.000Z</time>
      </trkpt>
      <trkpt lat="49.52182" lon="3.32766">
        <ele>165.1</ele>
        <time>2016-08-27T09:50:38.000Z</time>
      </trkpt>
      <trkpt lat="49.5218" lon="3.32764">
        <ele>165</ele>
        <time>2016-08-27T09:50:39.000Z</time>
      </trkpt>
      <trkpt lat="49.52173" lon="3.32758">
        <ele>165.2</ele>
        <time>2016-08-27T09:50:43.000Z</time>
      </trkpt>
      <trkpt lat="49.52172" lon="3.32757">
        <ele>165.2</ele>
        <time>2016-08-27T09:50:44.000Z</time>
      </trkpt>
      <trkpt lat="49.52164" lon="3.32753">
        <ele>164.7</ele>
        <time>2016-08-27T09:50:50.000Z</time>
      </trkpt>
      <trkpt lat="49.52163" lon="3.32753">
        <ele>164.4</ele>
        <time>2016-08-27T09:50:51.000Z</time>
      </trkpt>
      <trkpt lat="49.52155" lon="3.32748">
        <ele>163.6</ele>
        <time>2016-08-27T09:51:02.000Z</time>
      </trkpt>
      <trkpt lat="49.52154" lon="3.32747">
        <ele>163.6</ele>
        <time>2016-08-27T09:51:03.000Z</time>
      </trkpt>
      <trkpt lat="49.52147" lon="3.32741">
        <ele>163.6</ele>
        <time>2016-08-27T09:51:08.000Z</time>
      </trkpt>
      <trkpt lat="49.52146" lon="3.3274">
        <ele>163.5</ele>
        <time>2016-08-27T09:51:09.000Z</time>
      </trkpt>
      <trkpt lat="49.52141" lon="3.3273">
        <ele>162.5</ele>
        <time>2016-08-27T09:51:17.000Z</time>
      </trkpt>
      <trkpt lat="49.5214" lon="3.32728">
        <ele>162.8</ele>
        <time>2016-08-27T09:51:18.000Z</time>
      </trkpt>
      <trkpt lat="49.52136" lon="3.32719">
        <ele>160.8</ele>
        <time>2016-08-27T09:51:23.000Z</time>
      </trkpt>
      <trkpt lat="49.52135" lon="3.32716">
        <ele>160.5</ele>
        <time>2016-08-27T09:51:24.000Z</time>
      </trkpt>
      <trkpt lat="49.5213" lon="3.32706">
        <ele>159.7</ele>
        <time>2016-08-27T09:51:29.000Z</time>
      </trkpt>
      <trkpt lat="49.52129" lon="3.32704">
        <ele>159.7</ele>
        <time>2016-08-27T09:51:30.000Z</time>
      </trkpt>
      <trkpt lat="49.52124" lon="3.32696">
        <ele>159.9</ele>
        <time>2016-08-27T09:51:34.000Z</time>
      </trkpt>
      <trkpt lat="49.52122" lon="3.32694">
        <ele>159.9</ele>
        <time>2016-08-27T09:51:35.000Z</time>
      </trkpt>
      <trkpt lat="49.52115" lon="3.3269">
        <ele>160.1</ele>
        <time>2016-08-27T09:51:39.000Z</time>
      </trkpt>
      <trkpt lat="49.52113" lon="3.32689">
        <ele>160.2</ele>
        <time>2016-08-27T09:51:40.000Z</time>
      </trkpt>
      <trkpt lat="49.52105" lon="3.32685">
        <ele>160.6</ele>
        <time>2016-08-27T09:51:45.000Z</time>
      </trkpt>
      <trkpt lat="49.52103" lon="3.32684">
        <ele>160.8</ele>
        <time>2016-08-27T09:51:46.000Z</time>
      </trkpt>
      <trkpt lat="49.52095" lon="3.32681">
        <ele>161.3</ele>
        <time>2016-08-27T09:51:51.000Z</time>
      </trkpt>
      <trkpt lat="49.52094" lon="3.32681">
        <ele>161.5</ele>
        <time>2016-08-27T09:51:52.000Z</time>
      </trkpt>
      <trkpt lat="49.52087" lon="3.32676">
        <ele>163.5</ele>
        <time>2016-08-27T09:52:00.000Z</time>
      </trkpt>
      <trkpt lat="49.52085" lon="3.32674">
        <ele>163.6</ele>
        <time>2016-08-27T09:52:01.000Z</time>
      </trkpt>
      <trkpt lat="49.52078" lon="3.32667">
        <ele>163.6</ele>
        <time>2016-08-27T09:52:07.000Z</time>
      </trkpt>
      <trkpt lat="49.52076" lon="3.32666">
        <ele>163.6</ele>
        <time>2016-08-27T09:52:08.000Z</time>
      </trkpt>
      <trkpt lat="49.52071" lon="3.32658">
        <ele>163.3</ele>
        <time>2016-08-27T09:52:13.000Z</time>
      </trkpt>
      <trkpt lat="49.52069" lon="3.32657">
        <ele>163.1</ele>
        <time>2016-08-27T09:52:14.000Z</time>
      </trkpt>
      <trkpt lat="49.52061" lon="3.32653">
        <ele>163.1</ele>
        <time>2016-08-27T09:52:21.000Z</time>
      </trkpt>
      <trkpt lat="49.5206" lon="3.32653">
        <ele>163.5</ele>
        <time>2016-08-27T09:52:22.000Z</time>
      </trkpt>
      <trkpt lat="49.52052" lon="3.32648">
        <ele>164.1</ele>
        <time>2016-08-27T09:52:28.000Z</time>
      </trkpt>
      <trkpt lat="49.52051" lon="3.32647">
        <ele>164.1</ele>
        <time>2016-08-27T09:52:29.000Z</time>
      </trkpt>
      <trkpt lat="49.52049" lon="3.32634">
        <ele>162.3</ele>
        <time>2016-08-27T09:52:39.000Z</time>
      </trkpt>
      <trkpt lat="49.52048" lon="3.32633">
        <ele>162.4</ele>
        <time>2016-08-27T09:52:40.000Z</time>
      </trkpt>
      <trkpt lat="49.52041" lon="3.32627">
        <ele>164</ele>
        <time>2016-08-27T09:52:47.000Z</time>
      </trkpt>
      <trkpt lat="49.5204" lon="3.32626">
        <ele>164.1</ele>
        <time>2016-08-27T09:52:48.000Z</time>
      </trkpt>
      <trkpt lat="49.52032" lon="3.3262">
        <ele>164.1</ele>
        <time>2016-08-27T09:52:53.000Z</time>
      </trkpt>
      <trkpt lat="49.5203" lon="3.32619">
        <ele>164.2</ele>
        <time>2016-08-27T09:52:54.000Z</time>
      </trkpt>
      <trkpt lat="49.52022" lon="3.32614">
        <ele>164.1</ele>
        <time>2016-08-27T09:52:58.000Z</time>
      </trkpt>
      <trkpt lat="49.52021" lon="3.32613">
        <ele>164.2</ele>
        <time>2016-08-27T09:52:59.000Z</time>
      </trkpt>
      <trkpt lat="49.52013" lon="3.3261">
        <ele>164.5</ele>
        <time>2016-08-27T09:53:04.000Z</time>
      </trkpt>
      <trkpt lat="49.52011" lon="3.32609">
        <ele>164.6</ele>
        <time>2016-08-27T09:53:05.000Z</time>
      </trkpt>
      <trkpt lat="49.52003" lon="3.32605">
        <ele>165.3</ele>
        <time>2016-08-27T09:53:10.000Z</time>
      </trkpt>
      <trkpt lat="49.52001" lon="3.32603">
        <ele>165.4</ele>
        <time>2016-08-27T09:53:11.000Z</time>
      </trkpt>
      <trkpt lat="49.51993" lon="3.32599">
        <ele>166.7</ele>
        <time>2016-08-27T09:53:16.000Z</time>
      </trkpt>
      <trkpt lat="49.51992" lon="3.32598">
        <ele>166.9</ele>
        <time>2016-08-27T09:53:17.000Z</time>
      </trkpt>
      <trkpt lat="49.51984" lon="3.32595">
        <ele>167.7</ele>
        <time>2016-08-27T09:53:22.000Z</time>
      </trkpt>
      <trkpt lat="49.51983" lon="3.32595">
        <ele>167.9</ele>
        <time>2016-08-27T09:53:23.000Z</time>
      </trkpt>
      <trkpt lat="49.51976" lon="3.32587">
        <ele>168.5</ele>
        <time>2016-08-27T09:53:30.000Z</time>
      </trkpt>
      <trkpt lat="49.51975" lon="3.32585">
        <ele>168.2</ele>
        <time>2016-08-27T09:53:31.000Z</time>
      </trkpt>
      <trkpt lat="49.51969" lon="3.32577">
        <ele>168.6</ele>
        <time>2016-08-27T09:53:36.000Z</time>
      </trkpt>
      <trkpt lat="49.51968" lon="3.32575">
        <ele>168.9</ele>
        <time>2016-08-27T09:53:37.000Z</time>
      </trkpt>
      <trkpt lat="49.51963" lon="3.32565">
        <ele>169.6</ele>
        <time>2016-08-27T09:53:43.000Z</time>
      </trkpt>
      <trkpt lat="49.51962" lon="3.32564">
        <ele>169.8</ele>
        <time>2016-08-27T09:53:44.000Z</time>
      </trkpt>
      <trkpt lat="49.51956" lon="3.32556">
        <ele>169.8</ele>
        <time>2016-08-27T09:53:50.000Z</time>
      </trkpt>
      <trkpt lat="49.51955" lon="3.32555">
        <ele>169.9</ele>
        <time>2016-08-27T09:53:51.000Z</time>
      </trkpt>
      <trkpt lat="49.51947" lon="3.32551">
        <ele>170.4</ele>
        <time>2016-08-27T09:53:56.000Z</time>
      </trkpt>
      <trkpt lat="49.51946" lon="3.32551">
        <ele>170.4</ele>
        <time>2016-08-27T09:53:57.000Z</time>
      </trkpt>
      <trkpt lat="49.51937" lon="3.32549">
        <ele>170.1</ele>
        <time>2016-08-27T09:54:03.000Z</time>
      </trkpt>
      <trkpt lat="49.51936" lon="3.32549">
        <ele>170.1</ele>
        <time>2016-08-27T09:54:04.000Z</time>
      </trkpt>
      <trkpt lat="49.51928" lon="3.32548">
        <ele>170</ele>
        <time>2016-08-27T09:54:10.000Z</time>
      </trkpt>
      <trkpt lat="49.51926" lon="3.32548">
        <ele>169.9</ele>
        <time>2016-08-27T09:54:11.000Z</time>
      </trkpt>
      <trkpt lat="49.51919" lon="3.32552">
        <ele>169.6</ele>
        <time>2016-08-27T09:54:17.000Z</time>
      </trkpt>
      <trkpt lat="49.51917" lon="3.32552">
        <ele>169.6</ele>
        <time>2016-08-27T09:54:18.000Z</time>
      </trkpt>
      <trkpt lat="49.5191" lon="3.32557">
        <ele>169.9</ele>
        <time>2016-08-27T09:54:24.000Z</time>
      </trkpt>
      <trkpt lat="49.51909" lon="3.32558">
        <ele>169.8</ele>
        <time>2016-08-27T09:54:25.000Z</time>
      </trkpt>
      <trkpt lat="49.51902" lon="3.32565">
        <ele>169.8</ele>
        <time>2016-08-27T09:54:31.000Z</time>
      </trkpt>
      <trkpt lat="49.51901" lon="3.32566">
        <ele>169.6</ele>
        <time>2016-08-27T09:54:32.000Z</time>
      </trkpt>
      <trkpt lat="49.51895" lon="3.32574">
        <ele>169</ele>
        <time>2016-08-27T09:54:38.000Z</time>
      </trkpt>
      <trkpt lat="49.51893" lon="3.32575">
        <ele>168.8</ele>
        <time>2016-08-27T09:54:39.000Z</time>
      </trkpt>
      <trkpt lat="49.51885" lon="3.32575">
        <ele>167.1</ele>
        <time>2016-08-27T09:54:46.000Z</time>
      </trkpt>
      <trkpt lat="49.51884" lon="3.32574">
        <ele>167</ele>
        <time>2016-08-27T09:54:47.000Z</time>
      </trkpt>
      <trkpt lat="49.51877" lon="3.32567">
        <ele>166.2</ele>
        <time>2016-08-27T09:54:52.000Z</time>
      </trkpt>
      <trkpt lat="49.51876" lon="3.32565">
        <ele>166</ele>
        <time>2016-08-27T09:54:53.000Z</time>
      </trkpt>
      <trkpt lat="49.51873" lon="3.32552">
        <ele>166.1</ele>
        <time>2016-08-27T09:55:00.000Z</time>
      </trkpt>
      <trkpt lat="49.51873" lon="3.3255">
        <ele>166.1</ele>
        <time>2016-08-27T09:55:01.000Z</time>
      </trkpt>
      <trkpt lat="49.51873" lon="3.32537">
        <ele>165.6</ele>
        <time>2016-08-27T09:55:08.000Z</time>
      </trkpt>
      <trkpt lat="49.51874" lon="3.32535">
        <ele>164.9</ele>
        <time>2016-08-27T09:55:09.000Z</time>
      </trkpt>
      <trkpt lat="49.51875" lon="3.32523">
        <ele>163.9</ele>
        <time>2016-08-27T09:55:16.000Z</time>
      </trkpt>
      <trkpt lat="49.51875" lon="3.32521">
        <ele>163.5</ele>
        <time>2016-08-27T09:55:17.000Z</time>
      </trkpt>
      <trkpt lat="49.51875" lon="3.32508">
        <ele>162.4</ele>
        <time>2016-08-27T09:55:22.000Z</time>
      </trkpt>
      <trkpt lat="49.51875" lon="3.32506">
        <ele>162.3</ele>
        <time>2016-08-27T09:55:23.000Z</time>
      </trkpt>
      <trkpt lat="49.51877" lon="3.32493">
        <ele>161.7</ele>
        <time>2016-08-27T09:55:28.000Z</time>
      </trkpt>
      <trkpt lat="49.51877" lon="3.32491">
        <ele>162.2</ele>
        <time>2016-08-27T09:55:29.000Z</time>
      </trkpt>
      <trkpt lat="49.51882" lon="3.32481">
        <ele>162.5</ele>
        <time>2016-08-27T09:55:35.000Z</time>
      </trkpt>
      <trkpt lat="49.51882" lon="3.32479">
        <ele>162.6</ele>
        <time>2016-08-27T09:55:36.000Z</time>
      </trkpt>
      <trkpt lat="49.51882" lon="3.32466">
        <ele>163.2</ele>
        <time>2016-08-27T09:55:44.000Z</time>
      </trkpt>
      <trkpt lat="49.51881" lon="3.32464">
        <ele>163.3</ele>
        <time>2016-08-27T09:55:45.000Z</time>
      </trkpt>
      <trkpt lat="49.51876" lon="3.32455">
        <ele>163.9</ele>
        <time>2016-08-27T09:55:51.000Z</time>
      </trkpt>
      <trkpt lat="49.51876" lon="3.32453">
        <ele>164.3</ele>
        <time>2016-08-27T09:55:52.000Z</time>
      </trkpt>
      <trkpt lat="49.51874" lon="3.32441">
        <ele>165.4</ele>
        <time>2016-08-27T09:55:57.000Z</time>
      </trkpt>
      <trkpt lat="49.51874" lon="3.32438">
        <ele>165.6</ele>
        <time>2016-08-27T09:55:58.000Z</time>
      </trkpt>
      <trkpt lat="49.51876" lon="3.32425">
        <ele>166.3</ele>
        <time>2016-08-27T09:56:05.000Z</time>
      </trkpt>
      <trkpt lat="49.51876" lon="3.32423">
        <ele>166.4</ele>
        <time>2016-08-27T09:56:06.000Z</time>
      </trkpt>
      <trkpt lat="49.51881" lon="3.32413">
        <ele>166.5</ele>
        <time>2016-08-27T09:56:13.000Z</time>
      </trkpt>
      <trkpt lat="49.51881" lon="3.32411">
        <ele>166.7</ele>
        <time>2016-08-27T09:56:14.000Z</time>
      </trkpt>
      <trkpt lat="49.51885" lon="3.32399">
        <ele>166.8</ele>
        <time>2016-08-27T09:56:20.000Z</time>
      </trkpt>
      <trkpt lat="49.51886" lon="3.32397">
        <ele>166.9</ele>
        <time>2016-08-27T09:56:21.000Z</time>
      </trkpt>
      <trkpt lat="49.51892" lon="3.32388">
        <ele>168.4</ele>
        <time>2016-08-27T09:56:26.000Z</time>
      </trkpt>
      <trkpt lat="49.51894" lon="3.32387">
        <ele>168.4</ele>
        <time>2016-08-27T09:56:27.000Z</time>
      </trkpt>
      <trkpt lat="49.51899" lon="3.32376">
        <ele>169.1</ele>
        <time>2016-08-27T09:56:32.000Z</time>
      </trkpt>
      <trkpt lat="49.519" lon="3.32374">
        <ele>169.4</ele>
        <time>2016-08-27T09:56:33.000Z</time>
      </trkpt>
      <trkpt lat="49.51903" lon="3.32362">
        <ele>170.7</ele>
        <time>2016-08-27T09:56:40.000Z</time>
      </trkpt>
      <trkpt lat="49.51903" lon="3.3236">
        <ele>170.4</ele>
        <time>2016-08-27T09:56:41.000Z</time>
      </trkpt>
      <trkpt lat="49.51906" lon="3.32349">
        <ele>169.7</ele>
        <time>2016-08-27T09:56:47.000Z</time>
      </trkpt>
      <trkpt lat="49.51907" lon="3.32347">
        <ele>169.8</ele>
        <time>2016-08-27T09:56:48.000Z</time>
      </trkpt>
      <trkpt lat="49.51912" lon="3.32336">
        <ele>169.2</ele>
        <time>2016-08-27T09:56:53.000Z</time>
      </trkpt>
      <trkpt lat="49.51913" lon="3.32334">
        <ele>169</ele>
        <time>2016-08-27T09:56:54.000Z</time>
      </trkpt>
      <trkpt lat="49.51917" lon="3.32323">
        <ele>168.3</ele>
        <time>2016-08-27T09:56:59.000Z</time>
      </trkpt>
      <trkpt lat="49.51918" lon="3.32321">
        <ele>168.4</ele>
        <time>2016-08-27T09:57:00.000Z</time>
      </trkpt>
      <trkpt lat="49.51921" lon="3.32309">
        <ele>168.3</ele>
        <time>2016-08-27T09:57:07.000Z</time>
      </trkpt>
      <trkpt lat="49.51922" lon="3.32307">
        <ele>168.4</ele>
        <time>2016-08-27T09:57:08.000Z</time>
      </trkpt>
      <trkpt lat="49.51923" lon="3.32294">
        <ele>168.2</ele>
        <time>2016-08-27T09:57:15.000Z</time>
      </trkpt>
      <trkpt lat="49.51923" lon="3.32292">
        <ele>168</ele>
        <time>2016-08-27T09:57:16.000Z</time>
      </trkpt>
      <trkpt lat="49.51927" lon="3.32281">
        <ele>167.2</ele>
        <time>2016-08-27T09:57:21.000Z</time>
      </trkpt>
      <trkpt lat="49.51928" lon="3.32279">
        <ele>167.1</ele>
        <time>2016-08-27T09:57:22.000Z</time>
      </trkpt>
      <trkpt lat="49.5193" lon="3.32267">
        <ele>166.2</ele>
        <time>2016-08-27T09:57:27.000Z</time>
      </trkpt>
      <trkpt lat="49.5193" lon="3.32264">
        <ele>166.5</ele>
        <time>2016-08-27T09:57:28.000Z</time>
      </trkpt>
      <trkpt lat="49.51934" lon="3.32252">
        <ele>166.8</ele>
        <time>2016-08-27T09:57:34.000Z</time>
      </trkpt>
      <trkpt lat="49.51934" lon="3.3225">
        <ele>166.9</ele>
        <time>2016-08-27T09:57:35.000Z</time>
      </trkpt>
      <trkpt lat="49.51937" lon="3.32237">
        <ele>165.8</ele>
        <time>2016-08-27T09:57:41.000Z</time>
      </trkpt>
      <trkpt lat="49.51937" lon="3.32235">
        <ele>165.8</ele>
        <time>2016-08-27T09:57:42.000Z</time>
      </trkpt>
      <trkpt lat="49.51941" lon="3.32224">
        <ele>165.2</ele>
        <time>2016-08-27T09:57:48.000Z</time>
      </trkpt>
      <trkpt lat="49.51941" lon="3.32222">
        <ele>164.8</ele>
        <time>2016-08-27T09:57:49.000Z</time>
      </trkpt>
      <trkpt lat="49.51941" lon="3.32209">
        <ele>162.6</ele>
        <time>2016-08-27T09:57:54.000Z</time>
      </trkpt>
      <trkpt lat="49.51941" lon="3.32207">
        <ele>162.3</ele>
        <time>2016-08-27T09:57:55.000Z</time>
      </trkpt>
      <trkpt lat="49.51944" lon="3.32194">
        <ele>161.9</ele>
        <time>2016-08-27T09:58:01.000Z</time>
      </trkpt>
      <trkpt lat="49.51945" lon="3.32193">
        <ele>161.8</ele>
        <time>2016-08-27T09:58:02.000Z</time>
      </trkpt>
      <trkpt lat="49.51949" lon="3.32182">
        <ele>161</ele>
        <time>2016-08-27T09:58:08.000Z</time>
      </trkpt>
      <trkpt lat="49.5195" lon="3.3218">
        <ele>160.9</ele>
        <time>2016-08-27T09:58:09.000Z</time>
      </trkpt>
      <trkpt lat="49.51951" lon="3.32167">
        <ele>159.5</ele>
        <time>2016-08-27T09:58:15.000Z</time>
      </trkpt>
      <trkpt lat="49.51952" lon="3.32165">
        <ele>159.4</ele>
        <time>2016-08-27T09:58:16.000Z</time>
      </trkpt>
      <trkpt lat="49.51953" lon="3.32151">
        <ele>159.2</ele>
        <time>2016-08-27T09:58:22.000Z</time>
      </trkpt>
      <trkpt lat="49.51953" lon="3.32148">
        <ele>158.8</ele>
        <time>2016-08-27T09:58:23.000Z</time>
      </trkpt>
      <trkpt lat="49.51955" lon="3.32136">
        <ele>157.8</ele>
        <time>2016-08-27T09:58:29.000Z</time>
      </trkpt>
      <trkpt lat="49.51955" lon="3.32134">
        <ele>157.7</ele>
        <time>2016-08-27T09:58:30.000Z</time>
      </trkpt>
      <trkpt lat="49.51954" lon="3.32121">
        <ele>156.7</ele>
        <time>2016-08-27T09:58:35.000Z</time>
      </trkpt>
      <trkpt lat="49.51954" lon="3.32118">
        <ele>156.7</ele>
        <time>2016-08-27T09:58:36.000Z</time>
      </trkpt>
      <trkpt lat="49.51952" lon="3.32105">
        <ele>156.9</ele>
        <time>2016-08-27T09:58:40.000Z</time>
      </trkpt>
      <trkpt lat="49.51952" lon="3.32103">
        <ele>156.9</ele>
        <time>2016-08-27T09:58:41.000Z</time>
      </trkpt>
      <trkpt lat="49.51955" lon="3.3209">
        <ele>155.7</ele>
        <time>2016-08-27T09:58:49.000Z</time>
      </trkpt>
      <trkpt lat="49.51955" lon="3.32088">
        <ele>155.7</ele>
        <time>2016-08-27T09:58:50.000Z</time>
      </trkpt>
      <trkpt lat="49.51958" lon="3.32076">
        <ele>155.3</ele>
        <time>2016-08-27T09:58:57.000Z</time>
      </trkpt>
      <trkpt lat="49.51958" lon="3.32075">
        <ele>155.1</ele>
        <time>2016-08-27T09:58:58.000Z</time>
      </trkpt>
      <trkpt lat="49.51959" lon="3.32062">
        <ele>153.9</ele>
        <time>2016-08-27T09:59:04.000Z</time>
      </trkpt>
      <trkpt lat="49.51959" lon="3.3206">
        <ele>153.7</ele>
        <time>2016-08-27T09:59:05.000Z</time>
      </trkpt>
      <trkpt lat="49.5196" lon="3.32048">
        <ele>153.3</ele>
        <time>2016-08-27T09:59:12.000Z</time>
      </trkpt>
      <trkpt lat="49.5196" lon="3.32046">
        <ele>153.2</ele>
        <time>2016-08-27T09:59:13.000Z</time>
      </trkpt>
      <trkpt lat="49.5196" lon="3.32032">
        <ele>153</ele>
        <time>2016-08-27T09:59:20.000Z</time>
      </trkpt>
      <trkpt lat="49.5196" lon="3.32029">
        <ele>152.8</ele>
        <time>2016-08-27T09:59:21.000Z</time>
      </trkpt>
      <trkpt lat="49.51957" lon="3.32017">
        <ele>152</ele>
        <time>2016-08-27T09:59:26.000Z</time>
      </trkpt>
      <trkpt lat="49.51956" lon="3.32015">
        <ele>151.9</ele>
        <time>2016-08-27T09:59:27.000Z</time>
      </trkpt>
      <trkpt lat="49.51951" lon="3.32005">
        <ele>152</ele>
        <time>2016-08-27T09:59:33.000Z</time>
      </trkpt>
      <trkpt lat="49.5195" lon="3.32003">
        <ele>152</ele>
        <time>2016-08-27T09:59:34.000Z</time>
      </trkpt>
      <trkpt lat="49.51942" lon="3.31999">
        <ele>151.9</ele>
        <time>2016-08-27T09:59:41.000Z</time>
      </trkpt>
      <trkpt lat="49.5194" lon="3.31999">
        <ele>151.8</ele>
        <time>2016-08-27T09:59:42.000Z</time>
      </trkpt>
      <trkpt lat="49.51932" lon="3.31999">
        <ele>151.5</ele>
        <time>2016-08-27T09:59:48.000Z</time>
      </trkpt>
      <trkpt lat="49.51931" lon="3.31998">
        <ele>151.5</ele>
        <time>2016-08-27T09:59:49.000Z</time>
      </trkpt>
      <trkpt lat="49.51926" lon="3.31988">
        <ele>151.2</ele>
        <time>2016-08-27T09:59:57.000Z</time>
      </trkpt>
      <trkpt lat="49.51925" lon="3.31987">
        <ele>151.3</ele>
        <time>2016-08-27T09:59:58.000Z</time>
      </trkpt>
      <trkpt lat="49.51918" lon="3.31979">
        <ele>149.7</ele>
        <time>2016-08-27T10:00:05.000Z</time>
      </trkpt>
      <trkpt lat="49.51916" lon="3.31979">
        <ele>149.5</ele>
        <time>2016-08-27T10:00:06.000Z</time>
      </trkpt>
      <trkpt lat="49.51908" lon="3.31976">
        <ele>147.6</ele>
        <time>2016-08-27T10:00:13.000Z</time>
      </trkpt>
      <trkpt lat="49.51907" lon="3.31975">
        <ele>147.6</ele>
        <time>2016-08-27T10:00:14.000Z</time>
      </trkpt>
      <trkpt lat="49.51903" lon="3.31964">
        <ele>146.6</ele>
        <time>2016-08-27T10:00:20.000Z</time>
      </trkpt>
      <trkpt lat="49.51903" lon="3.31962">
        <ele>146.4</ele>
        <time>2016-08-27T10:00:21.000Z</time>
      </trkpt>
      <trkpt lat="49.51904" lon="3.3195">
        <ele>145.9</ele>
        <time>2016-08-27T10:00:28.000Z</time>
      </trkpt>
      <trkpt lat="49.51904" lon="3.31948">
        <ele>145.8</ele>
        <time>2016-08-27T10:00:29.000Z</time>
      </trkpt>
      <trkpt lat="49.51909" lon="3.31936">
        <ele>144.2</ele>
        <time>2016-08-27T10:00:36.000Z</time>
      </trkpt>
      <trkpt lat="49.51909" lon="3.31934">
        <ele>143.9</ele>
        <time>2016-08-27T10:00:37.000Z</time>
      </trkpt>
      <trkpt lat="49.51911" lon="3.31922">
        <ele>143</ele>
        <time>2016-08-27T10:00:42.000Z</time>
      </trkpt>
      <trkpt lat="49.51911" lon="3.3192">
        <ele>143.1</ele>
        <time>2016-08-27T10:00:43.000Z</time>
      </trkpt>
      <trkpt lat="49.51911" lon="3.31908">
        <ele>142.8</ele>
        <time>2016-08-27T10:00:48.000Z</time>
      </trkpt>
      <trkpt lat="49.51911" lon="3.31906">
        <ele>143</ele>
        <time>2016-08-27T10:00:49.000Z</time>
      </trkpt>
      <trkpt lat="49.51912" lon="3.31894">
        <ele>144.1</ele>
        <time>2016-08-27T10:00:54.000Z</time>
      </trkpt>
      <trkpt lat="49.51912" lon="3.31891">
        <ele>144.4</ele>
        <time>2016-08-27T10:00:55.000Z</time>
      </trkpt>
      <trkpt lat="49.51915" lon="3.3188">
        <ele>144.5</ele>
        <time>2016-08-27T10:01:02.000Z</time>
      </trkpt>
      <trkpt lat="49.51915" lon="3.31877">
        <ele>144.2</ele>
        <time>2016-08-27T10:01:03.000Z</time>
      </trkpt>
      <trkpt lat="49.51914" lon="3.31864">
        <ele>142.4</ele>
        <time>2016-08-27T10:01:08.000Z</time>
      </trkpt>
      <trkpt lat="49.51915" lon="3.31861">
        <ele>142.3</ele>
        <time>2016-08-27T10:01:09.000Z</time>
      </trkpt>
      <trkpt lat="49.51919" lon="3.31849">
        <ele>142.2</ele>
        <time>2016-08-27T10:01:14.000Z</time>
      </trkpt>
      <trkpt lat="49.5192" lon="3.31847">
        <ele>142.2</ele>
        <time>2016-08-27T10:01:15.000Z</time>
      </trkpt>
      <trkpt lat="49.51923" lon="3.31836">
        <ele>142.3</ele>
        <time>2016-08-27T10:01:22.000Z</time>
      </trkpt>
      <trkpt lat="49.51924" lon="3.31834">
        <ele>142.2</ele>
        <time>2016-08-27T10:01:23.000Z</time>
      </trkpt>
      <trkpt lat="49.51926" lon="3.31822">
        <ele>141.7</ele>
        <time>2016-08-27T10:01:28.000Z</time>
      </trkpt>
      <trkpt lat="49.51927" lon="3.3182">
        <ele>141.6</ele>
        <time>2016-08-27T10:01:29.000Z</time>
      </trkpt>
      <trkpt lat="49.51929" lon="3.31807">
        <ele>141.6</ele>
        <time>2016-08-27T10:01:35.000Z</time>
      </trkpt>
      <trkpt lat="49.51929" lon="3.31805">
        <ele>141.7</ele>
        <time>2016-08-27T10:01:36.000Z</time>
      </trkpt>
      <trkpt lat="49.51929" lon="3.31793">
        <ele>140.8</ele>
        <time>2016-08-27T10:01:42.000Z</time>
      </trkpt>
      <trkpt lat="49.5193" lon="3.3179">
        <ele>140.7</ele>
        <time>2016-08-27T10:01:43.000Z</time>
      </trkpt>
      <trkpt lat="49.51931" lon="3.31778">
        <ele>139.6</ele>
        <time>2016-08-27T10:01:49.000Z</time>
      </trkpt>
      <trkpt lat="49.51932" lon="3.31776">
        <ele>139.1</ele>
        <time>2016-08-27T10:01:50.000Z</time>
      </trkpt>
      <trkpt lat="49.51934" lon="3.31768">
        <ele>138.2</ele>
        <time>2016-08-27T10:01:54.000Z</time>
      </trkpt>
      <trkpt lat="49.51934" lon="3.31767">
        <ele>138</ele>
        <time>2016-08-27T10:01:55.000Z</time>
      </trkpt>
      <trkpt lat="49.51934" lon="3.31767">
        <ele>137.8</ele>
        <time>2016-08-27T10:02:11.000Z</time>
      </trkpt>
      <trkpt lat="49.51933" lon="3.31761">
        <ele>136.4</ele>
        <time>2016-08-27T10:02:12.000Z</time>
      </trkpt>
      <trkpt lat="49.51937" lon="3.31749">
        <ele>135.7</ele>
        <time>2016-08-27T10:02:21.000Z</time>
      </trkpt>
      <trkpt lat="49.51938" lon="3.31748">
        <ele>135.6</ele>
        <time>2016-08-27T10:02:22.000Z</time>
      </trkpt>
      <trkpt lat="49.51947" lon="3.31747">
        <ele>133.9</ele>
        <time>2016-08-27T10:02:30.000Z</time>
      </trkpt>
      <trkpt lat="49.51948" lon="3.31747">
        <ele>133.7</ele>
        <time>2016-08-27T10:02:31.000Z</time>
      </trkpt>
      <trkpt lat="49.51956" lon="3.31746">
        <ele>132.9</ele>
        <time>2016-08-27T10:02:35.000Z</time>
      </trkpt>
      <trkpt lat="49.51958" lon="3.31746">
        <ele>132.9</ele>
        <time>2016-08-27T10:02:36.000Z</time>
      </trkpt>
      <trkpt lat="49.51965" lon="3.31742">
        <ele>133</ele>
        <time>2016-08-27T10:02:44.000Z</time>
      </trkpt>
      <trkpt lat="49.51967" lon="3.31741">
        <ele>133</ele>
        <time>2016-08-27T10:02:45.000Z</time>
      </trkpt>
      <trkpt lat="49.51975" lon="3.31738">
        <ele>133.3</ele>
        <time>2016-08-27T10:02:51.000Z</time>
      </trkpt>
      <trkpt lat="49.51976" lon="3.31738">
        <ele>133.5</ele>
        <time>2016-08-27T10:02:52.000Z</time>
      </trkpt>
      <trkpt lat="49.51985" lon="3.31736">
        <ele>133.6</ele>
        <time>2016-08-27T10:02:59.000Z</time>
      </trkpt>
      <trkpt lat="49.51986" lon="3.31735">
        <ele>133.7</ele>
        <time>2016-08-27T10:03:00.000Z</time>
      </trkpt>
      <trkpt lat="49.51995" lon="3.31734">
        <ele>133.6</ele>
        <time>2016-08-27T10:03:06.000Z</time>
      </trkpt>
      <trkpt lat="49.51996" lon="3.31734">
        <ele>133.7</ele>
        <time>2016-08-27T10:03:07.000Z</time>
      </trkpt>
      <trkpt lat="49.52004" lon="3.31732">
        <ele>133.7</ele>
        <time>2016-08-27T10:03:14.000Z</time>
      </trkpt>
      <trkpt lat="49.52005" lon="3.31731">
        <ele>133.7</ele>
        <time>2016-08-27T10:03:15.000Z</time>
      </trkpt>
      <trkpt lat="49.52014" lon="3.31728">
        <ele>133.3</ele>
        <time>2016-08-27T10:03:20.000Z</time>
      </trkpt>
      <trkpt lat="49.52015" lon="3.31728">
        <ele>133.1</ele>
        <time>2016-08-27T10:03:21.000Z</time>
      </trkpt>
      <trkpt lat="49.52023" lon="3.31726">
        <ele>133.3</ele>
        <time>2016-08-27T10:03:27.000Z</time>
      </trkpt>
      <trkpt lat="49.52025" lon="3.31725">
        <ele>133.2</ele>
        <time>2016-08-27T10:03:28.000Z</time>
      </trkpt>
      <trkpt lat="49.52033" lon="3.31725">
        <ele>133.4</ele>
        <time>2016-08-27T10:03:33.000Z</time>
      </trkpt>
      <trkpt lat="49.52034" lon="3.31724">
        <ele>133.2</ele>
        <time>2016-08-27T10:03:34.000Z</time>
      </trkpt>
      <trkpt lat="49.52042" lon="3.31724">
        <ele>134.1</ele>
        <time>2016-08-27T10:03:40.000Z</time>
      </trkpt>
      <trkpt lat="49.52044" lon="3.31724">
        <ele>134.2</ele>
        <time>2016-08-27T10:03:41.000Z</time>
      </trkpt>
      <trkpt lat="49.52052" lon="3.31723">
        <ele>134.8</ele>
        <time>2016-08-27T10:03:46.000Z</time>
      </trkpt>
      <trkpt lat="49.52054" lon="3.31723">
        <ele>135</ele>
        <time>2016-08-27T10:03:47.000Z</time>
      </trkpt>
      <trkpt lat="49.52062" lon="3.31722">
        <ele>135.1</ele>
        <time>2016-08-27T10:03:52.000Z</time>
      </trkpt>
      <trkpt lat="49.52063" lon="3.31722">
        <ele>135.1</ele>
        <time>2016-08-27T10:03:53.000Z</time>
      </trkpt>
      <trkpt lat="49.52071" lon="3.31721">
        <ele>135.5</ele>
        <time>2016-08-27T10:03:58.000Z</time>
      </trkpt>
      <trkpt lat="49.52073" lon="3.31721">
        <ele>135.7</ele>
        <time>2016-08-27T10:03:59.000Z</time>
      </trkpt>
      <trkpt lat="49.52081" lon="3.3172">
        <ele>135.9</ele>
        <time>2016-08-27T10:04:05.000Z</time>
      </trkpt>
      <trkpt lat="49.52082" lon="3.3172">
        <ele>135.8</ele>
        <time>2016-08-27T10:04:06.000Z</time>
      </trkpt>
      <trkpt lat="49.52091" lon="3.3172">
        <ele>135.6</ele>
        <time>2016-08-27T10:04:12.000Z</time>
      </trkpt>
      <trkpt lat="49.52093" lon="3.3172">
        <ele>135.5</ele>
        <time>2016-08-27T10:04:13.000Z</time>
      </trkpt>
      <trkpt lat="49.521" lon="3.31717">
        <ele>135.6</ele>
        <time>2016-08-27T10:04:19.000Z</time>
      </trkpt>
      <trkpt lat="49.52102" lon="3.31717">
        <ele>135.6</ele>
        <time>2016-08-27T10:04:20.000Z</time>
      </trkpt>
      <trkpt lat="49.5211" lon="3.31717">
        <ele>135.9</ele>
        <time>2016-08-27T10:04:27.000Z</time>
      </trkpt>
      <trkpt lat="49.52111" lon="3.31717">
        <ele>136.1</ele>
        <time>2016-08-27T10:04:28.000Z</time>
      </trkpt>
      <trkpt lat="49.5212" lon="3.31716">
        <ele>136.6</ele>
        <time>2016-08-27T10:04:33.000Z</time>
      </trkpt>
      <trkpt lat="49.52121" lon="3.31716">
        <ele>136.7</ele>
        <time>2016-08-27T10:04:34.000Z</time>
      </trkpt>
      <trkpt lat="49.5213" lon="3.31717">
        <ele>136.7</ele>
        <time>2016-08-27T10:04:40.000Z</time>
      </trkpt>
      <trkpt lat="49.52132" lon="3.31717">
        <ele>136.8</ele>
        <time>2016-08-27T10:04:41.000Z</time>
      </trkpt>
      <trkpt lat="49.52134" lon="3.31717">
        <ele>136.6</ele>
        <time>2016-08-27T10:04:44.000Z</time>
      </trkpt>
      <trkpt lat="49.52134" lon="3.31717">
        <ele>136.9</ele>
        <time>2016-08-27T10:04:45.000Z</time>
      </trkpt>
      <trkpt lat="49.52135" lon="3.31717">
        <ele>137</ele>
        <time>2016-08-27T10:04:46.000Z</time>
      </trkpt>
      <trkpt lat="49.52143" lon="3.31717">
        <ele>137.3</ele>
        <time>2016-08-27T10:04:52.000Z</time>
      </trkpt>
      <trkpt lat="49.52144" lon="3.31717">
        <ele>137.5</ele>
        <time>2016-08-27T10:04:53.000Z</time>
      </trkpt>
      <trkpt lat="49.52153" lon="3.31717">
        <ele>137.8</ele>
        <time>2016-08-27T10:05:00.000Z</time>
      </trkpt>
      <trkpt lat="49.52154" lon="3.31717">
        <ele>137.8</ele>
        <time>2016-08-27T10:05:01.000Z</time>
      </trkpt>
      <trkpt lat="49.52162" lon="3.31717">
        <ele>138.4</ele>
        <time>2016-08-27T10:05:09.000Z</time>
      </trkpt>
      <trkpt lat="49.52164" lon="3.31718">
        <ele>138.5</ele>
        <time>2016-08-27T10:05:10.000Z</time>
      </trkpt>
      <trkpt lat="49.52171" lon="3.31721">
        <ele>139</ele>
        <time>2016-08-27T10:05:13.000Z</time>
      </trkpt>
      <trkpt lat="49.52173" lon="3.31721">
        <ele>139.5</ele>
        <time>2016-08-27T10:05:14.000Z</time>
      </trkpt>
      <trkpt lat="49.5218" lon="3.31721">
        <ele>139.7</ele>
        <time>2016-08-27T10:05:17.000Z</time>
      </trkpt>
      <trkpt lat="49.52183" lon="3.31721">
        <ele>139.7</ele>
        <time>2016-08-27T10:05:18.000Z</time>
      </trkpt>
      <trkpt lat="49.52191" lon="3.31723">
        <ele>139.2</ele>
        <time>2016-08-27T10:05:23.000Z</time>
      </trkpt>
      <trkpt lat="49.52193" lon="3.31723">
        <ele>139.1</ele>
        <time>2016-08-27T10:05:24.000Z</time>
      </trkpt>
      <trkpt lat="49.52201" lon="3.31723">
        <ele>138.9</ele>
        <time>2016-08-27T10:05:28.000Z</time>
      </trkpt>
      <trkpt lat="49.52202" lon="3.31724">
        <ele>139</ele>
        <time>2016-08-27T10:05:29.000Z</time>
      </trkpt>
      <trkpt lat="49.52211" lon="3.31728">
        <ele>140.7</ele>
        <time>2016-08-27T10:05:34.000Z</time>
      </trkpt>
      <trkpt lat="49.52212" lon="3.3173">
        <ele>141.1</ele>
        <time>2016-08-27T10:05:35.000Z</time>
      </trkpt>
      <trkpt lat="49.5222" lon="3.31736">
        <ele>142.8</ele>
        <time>2016-08-27T10:05:40.000Z</time>
      </trkpt>
      <trkpt lat="49.52221" lon="3.31737">
        <ele>143.1</ele>
        <time>2016-08-27T10:05:41.000Z</time>
      </trkpt>
      <trkpt lat="49.52228" lon="3.31744">
        <ele>144.5</ele>
        <time>2016-08-27T10:05:47.000Z</time>
      </trkpt>
      <trkpt lat="49.52229" lon="3.31746">
        <ele>144.5</ele>
        <time>2016-08-27T10:05:48.000Z</time>
      </trkpt>
      <trkpt lat="49.52236" lon="3.31753">
        <ele>144.1</ele>
        <time>2016-08-27T10:05:54.000Z</time>
      </trkpt>
      <trkpt lat="49.52237" lon="3.31754">
        <ele>143.7</ele>
        <time>2016-08-27T10:05:55.000Z</time>
      </trkpt>
      <trkpt lat="49.52243" lon="3.31762">
        <ele>143.7</ele>
        <time>2016-08-27T10:06:00.000Z</time>
      </trkpt>
      <trkpt lat="49.52244" lon="3.31763">
        <ele>143.7</ele>
        <time>2016-08-27T10:06:01.000Z</time>
      </trkpt>
      <trkpt lat="49.5225" lon="3.31772">
        <ele>143.3</ele>
        <time>2016-08-27T10:06:07.000Z</time>
      </trkpt>
      <trkpt lat="49.52251" lon="3.31774">
        <ele>143.5</ele>
        <time>2016-08-27T10:06:08.000Z</time>
      </trkpt>
      <trkpt lat="49.52257" lon="3.31784">
        <ele>143.9</ele>
        <time>2016-08-27T10:06:14.000Z</time>
      </trkpt>
      <trkpt lat="49.52258" lon="3.31786">
        <ele>143.9</ele>
        <time>2016-08-27T10:06:15.000Z</time>
      </trkpt>
      <trkpt lat="49.52263" lon="3.31795">
        <ele>143.9</ele>
        <time>2016-08-27T10:06:20.000Z</time>
      </trkpt>
      <trkpt lat="49.52264" lon="3.31797">
        <ele>143.9</ele>
        <time>2016-08-27T10:06:21.000Z</time>
      </trkpt>
      <trkpt lat="49.52267" lon="3.31808">
        <ele>143.9</ele>
        <time>2016-08-27T10:06:26.000Z</time>
      </trkpt>
      <trkpt lat="49.52267" lon="3.3181">
        <ele>143.9</ele>
        <time>2016-08-27T10:06:27.000Z</time>
      </trkpt>
      <trkpt lat="49.5227" lon="3.31821">
        <ele>143.5</ele>
        <time>2016-08-27T10:06:32.000Z</time>
      </trkpt>
      <trkpt lat="49.52271" lon="3.31823">
        <ele>143.3</ele>
        <time>2016-08-27T10:06:33.000Z</time>
      </trkpt>
      <trkpt lat="49.52277" lon="3.31833">
        <ele>144.5</ele>
        <time>2016-08-27T10:06:38.000Z</time>
      </trkpt>
      <trkpt lat="49.52277" lon="3.31835">
        <ele>144.4</ele>
        <time>2016-08-27T10:06:39.000Z</time>
      </trkpt>
      <trkpt lat="49.52281" lon="3.31847">
        <ele>143.7</ele>
        <time>2016-08-27T10:06:45.000Z</time>
      </trkpt>
      <trkpt lat="49.52281" lon="3.31848">
        <ele>143.2</ele>
        <time>2016-08-27T10:06:46.000Z</time>
      </trkpt>
      <trkpt lat="49.5228" lon="3.31861">
        <ele>141.4</ele>
        <time>2016-08-27T10:06:54.000Z</time>
      </trkpt>
      <trkpt lat="49.52279" lon="3.31863">
        <ele>141.1</ele>
        <time>2016-08-27T10:06:55.000Z</time>
      </trkpt>
      <trkpt lat="49.52277" lon="3.31875">
        <ele>139.3</ele>
        <time>2016-08-27T10:07:01.000Z</time>
      </trkpt>
      <trkpt lat="49.52277" lon="3.31877">
        <ele>139</ele>
        <time>2016-08-27T10:07:02.000Z</time>
      </trkpt>
      <trkpt lat="49.52274" lon="3.31888">
        <ele>138.4</ele>
        <time>2016-08-27T10:07:06.000Z</time>
      </trkpt>
      <trkpt lat="49.52273" lon="3.3189">
        <ele>138.5</ele>
        <time>2016-08-27T10:07:07.000Z</time>
      </trkpt>
      <trkpt lat="49.52268" lon="3.319">
        <ele>137.5</ele>
        <time>2016-08-27T10:07:13.000Z</time>
      </trkpt>
      <trkpt lat="49.52267" lon="3.31901">
        <ele>137.4</ele>
        <time>2016-08-27T10:07:14.000Z</time>
      </trkpt>
      <trkpt lat="49.52263" lon="3.3191">
        <ele>138</ele>
        <time>2016-08-27T10:07:21.000Z</time>
      </trkpt>
      <trkpt lat="49.52263" lon="3.3191">
        <ele>138</ele>
        <time>2016-08-27T10:07:22.000Z</time>
      </trkpt>
      <trkpt lat="49.52263" lon="3.31911">
        <ele>138.2</ele>
        <time>2016-08-27T10:07:34.000Z</time>
      </trkpt>
      <trkpt lat="49.52262" lon="3.31912">
        <ele>138.4</ele>
        <time>2016-08-27T10:07:35.000Z</time>
      </trkpt>
      <trkpt lat="49.52256" lon="3.31921">
        <ele>137.9</ele>
        <time>2016-08-27T10:07:42.000Z</time>
      </trkpt>
      <trkpt lat="49.52255" lon="3.31922">
        <ele>137.8</ele>
        <time>2016-08-27T10:07:43.000Z</time>
      </trkpt>
      <trkpt lat="49.52248" lon="3.31929">
        <ele>137</ele>
        <time>2016-08-27T10:07:49.000Z</time>
      </trkpt>
      <trkpt lat="49.52247" lon="3.3193">
        <ele>137</ele>
        <time>2016-08-27T10:07:50.000Z</time>
      </trkpt>
      <trkpt lat="49.52242" lon="3.31941">
        <ele>137.1</ele>
        <time>2016-08-27T10:07:59.000Z</time>
      </trkpt>
      <trkpt lat="49.52242" lon="3.31943">
        <ele>137.2</ele>
        <time>2016-08-27T10:08:00.000Z</time>
      </trkpt>
      <trkpt lat="49.52251" lon="3.31947">
        <ele>136.9</ele>
        <time>2016-08-27T10:08:11.000Z</time>
      </trkpt>
      <trkpt lat="49.52252" lon="3.31946">
        <ele>136.5</ele>
        <time>2016-08-27T10:08:12.000Z</time>
      </trkpt>
      <trkpt lat="49.52259" lon="3.31939">
        <ele>136.3</ele>
        <time>2016-08-27T10:08:19.000Z</time>
      </trkpt>
      <trkpt lat="49.5226" lon="3.31938">
        <ele>136.2</ele>
        <time>2016-08-27T10:08:20.000Z</time>
      </trkpt>
      <trkpt lat="49.52264" lon="3.31937">
        <ele>136.1</ele>
        <time>2016-08-27T10:08:23.000Z</time>
      </trkpt>
      <trkpt lat="49.52264" lon="3.31936">
        <ele>136.1</ele>
        <time>2016-08-27T10:08:24.000Z</time>
      </trkpt>
      <trkpt lat="49.52264" lon="3.31936">
        <ele>136</ele>
        <time>2016-08-27T10:08:25.000Z</time>
      </trkpt>
      <trkpt lat="49.52264" lon="3.31936">
        <ele>136</ele>
        <time>2016-08-27T10:08:26.000Z</time>
      </trkpt>
      <trkpt lat="49.52272" lon="3.3193">
        <ele>134.9</ele>
        <time>2016-08-27T10:08:38.000Z</time>
      </trkpt>
      <trkpt lat="49.52273" lon="3.31929">
        <ele>135.2</ele>
        <time>2016-08-27T10:08:39.000Z</time>
      </trkpt>
      <trkpt lat="49.52277" lon="3.31929">
        <ele>135.4</ele>
        <time>2016-08-27T10:08:46.000Z</time>
      </trkpt>
      <trkpt lat="49.52277" lon="3.31929">
        <ele>135.5</ele>
        <time>2016-08-27T10:08:47.000Z</time>
      </trkpt>
      <trkpt lat="49.52277" lon="3.31929">
        <ele>135.3</ele>
        <time>2016-08-27T10:08:48.000Z</time>
      </trkpt>
      <trkpt lat="49.52277" lon="3.31929">
        <ele>135.2</ele>
        <time>2016-08-27T10:08:49.000Z</time>
      </trkpt>
      <trkpt lat="49.52277" lon="3.31925">
        <ele>134.7</ele>
        <time>2016-08-27T10:08:52.000Z</time>
      </trkpt>
      <trkpt lat="49.52278" lon="3.31924">
        <ele>134.9</ele>
        <time>2016-08-27T10:08:53.000Z</time>
      </trkpt>
      <trkpt lat="49.52278" lon="3.31924">
        <ele>134.7</ele>
        <time>2016-08-27T10:08:56.000Z</time>
      </trkpt>
      <trkpt lat="49.52277" lon="3.31924">
        <ele>134.9</ele>
        <time>2016-08-27T10:08:57.000Z</time>
      </trkpt>
      <trkpt lat="49.52278" lon="3.31926">
        <ele>134.7</ele>
        <time>2016-08-27T10:09:00.000Z</time>
      </trkpt>
      <trkpt lat="49.52279" lon="3.31926">
        <ele>134.6</ele>
        <time>2016-08-27T10:09:01.000Z</time>
      </trkpt>
      <trkpt lat="49.52279" lon="3.31926">
        <ele>134.5</ele>
        <time>2016-08-27T10:09:02.000Z</time>
      </trkpt>
      <trkpt lat="49.52285" lon="3.31916">
        <ele>134.6</ele>
        <time>2016-08-27T10:09:09.000Z</time>
      </trkpt>
      <trkpt lat="49.52285" lon="3.31915">
        <ele>134.6</ele>
        <time>2016-08-27T10:09:10.000Z</time>
      </trkpt>
      <trkpt lat="49.52291" lon="3.31907">
        <ele>134.5</ele>
        <time>2016-08-27T10:09:16.000Z</time>
      </trkpt>
      <trkpt lat="49.52293" lon="3.31907">
        <ele>134.6</ele>
        <time>2016-08-27T10:09:17.000Z</time>
      </trkpt>
      <trkpt lat="49.523" lon="3.319">
        <ele>134.3</ele>
        <time>2016-08-27T10:09:24.000Z</time>
      </trkpt>
      <trkpt lat="49.523" lon="3.31899">
        <ele>134.2</ele>
        <time>2016-08-27T10:09:25.000Z</time>
      </trkpt>
      <trkpt lat="49.52306" lon="3.3189">
        <ele>134.2</ele>
        <time>2016-08-27T10:09:31.000Z</time>
      </trkpt>
      <trkpt lat="49.52308" lon="3.31889">
        <ele>134.2</ele>
        <time>2016-08-27T10:09:32.000Z</time>
      </trkpt>
      <trkpt lat="49.52308" lon="3.31888">
        <ele>134.2</ele>
        <time>2016-08-27T10:09:33.000Z</time>
      </trkpt>
      <trkpt lat="49.52308" lon="3.31888">
        <ele>134.1</ele>
        <time>2016-08-27T10:09:34.000Z</time>
      </trkpt>
      <trkpt lat="49.52315" lon="3.31883">
        <ele>132.6</ele>
        <time>2016-08-27T10:09:44.000Z</time>
      </trkpt>
      <trkpt lat="49.52316" lon="3.31881">
        <ele>132.3</ele>
        <time>2016-08-27T10:09:45.000Z</time>
      </trkpt>
      <trkpt lat="49.52321" lon="3.31871">
        <ele>131.6</ele>
        <time>2016-08-27T10:09:51.000Z</time>
      </trkpt>
      <trkpt lat="49.52322" lon="3.31869">
        <ele>131.3</ele>
        <time>2016-08-27T10:09:52.000Z</time>
      </trkpt>
      <trkpt lat="49.52328" lon="3.31863">
        <ele>131.2</ele>
        <time>2016-08-27T10:09:57.000Z</time>
      </trkpt>
      <trkpt lat="49.5233" lon="3.31862">
        <ele>131.8</ele>
        <time>2016-08-27T10:09:58.000Z</time>
      </trkpt>
      <trkpt lat="49.52337" lon="3.31856">
        <ele>131.7</ele>
        <time>2016-08-27T10:10:04.000Z</time>
      </trkpt>
      <trkpt lat="49.52337" lon="3.31854">
        <ele>131.2</ele>
        <time>2016-08-27T10:10:05.000Z</time>
      </trkpt>
      <trkpt lat="49.52342" lon="3.31843">
        <ele>129.9</ele>
        <time>2016-08-27T10:10:12.000Z</time>
      </trkpt>
      <trkpt lat="49.52342" lon="3.31842">
        <ele>129.7</ele>
        <time>2016-08-27T10:10:13.000Z</time>
      </trkpt>
      <trkpt lat="49.52346" lon="3.31831">
        <ele>128.6</ele>
        <time>2016-08-27T10:10:20.000Z</time>
      </trkpt>
      <trkpt lat="49.52347" lon="3.31829">
        <ele>128.5</ele>
        <time>2016-08-27T10:10:21.000Z</time>
      </trkpt>
      <trkpt lat="49.52352" lon="3.31818">
        <ele>127.9</ele>
        <time>2016-08-27T10:10:28.000Z</time>
      </trkpt>
      <trkpt lat="49.52352" lon="3.31817">
        <ele>127.7</ele>
        <time>2016-08-27T10:10:29.000Z</time>
      </trkpt>
      <trkpt lat="49.52357" lon="3.31809">
        <ele>126.8</ele>
        <time>2016-08-27T10:10:35.000Z</time>
      </trkpt>
      <trkpt lat="49.52358" lon="3.31807">
        <ele>126.7</ele>
        <time>2016-08-27T10:10:36.000Z</time>
      </trkpt>
      <trkpt lat="49.52366" lon="3.318">
        <ele>124.5</ele>
        <time>2016-08-27T10:10:41.000Z</time>
      </trkpt>
      <trkpt lat="49.52367" lon="3.31799">
        <ele>124.3</ele>
        <time>2016-08-27T10:10:42.000Z</time>
      </trkpt>
      <trkpt lat="49.52374" lon="3.31791">
        <ele>123.2</ele>
        <time>2016-08-27T10:10:47.000Z</time>
      </trkpt>
      <trkpt lat="49.52375" lon="3.3179">
        <ele>123</ele>
        <time>2016-08-27T10:10:48.000Z</time>
      </trkpt>
      <trkpt lat="49.52382" lon="3.31782">
        <ele>121.7</ele>
        <time>2016-08-27T10:10:54.000Z</time>
      </trkpt>
      <trkpt lat="49.52383" lon="3.31781">
        <ele>121.7</ele>
        <time>2016-08-27T10:10:55.000Z</time>
      </trkpt>
      <trkpt lat="49.5239" lon="3.31774">
        <ele>121.2</ele>
        <time>2016-08-27T10:11:01.000Z</time>
      </trkpt>
      <trkpt lat="49.52392" lon="3.31772">
        <ele>121.1</ele>
        <time>2016-08-27T10:11:02.000Z</time>
      </trkpt>
      <trkpt lat="49.52398" lon="3.31767">
        <ele>120.5</ele>
        <time>2016-08-27T10:11:07.000Z</time>
      </trkpt>
      <trkpt lat="49.524" lon="3.31766">
        <ele>120.5</ele>
        <time>2016-08-27T10:11:08.000Z</time>
      </trkpt>
      <trkpt lat="49.52407" lon="3.31761">
        <ele>120.7</ele>
        <time>2016-08-27T10:11:13.000Z</time>
      </trkpt>
      <trkpt lat="49.52409" lon="3.3176">
        <ele>120.5</ele>
        <time>2016-08-27T10:11:14.000Z</time>
      </trkpt>
      <trkpt lat="49.52416" lon="3.31755">
        <ele>120.7</ele>
        <time>2016-08-27T10:11:19.000Z</time>
      </trkpt>
      <trkpt lat="49.52418" lon="3.31754">
        <ele>120.7</ele>
        <time>2016-08-27T10:11:20.000Z</time>
      </trkpt>
      <trkpt lat="49.52425" lon="3.3175">
        <ele>120.5</ele>
        <time>2016-08-27T10:11:25.000Z</time>
      </trkpt>
      <trkpt lat="49.52426" lon="3.31749">
        <ele>120.4</ele>
        <time>2016-08-27T10:11:26.000Z</time>
      </trkpt>
      <trkpt lat="49.52434" lon="3.31744">
        <ele>120.5</ele>
        <time>2016-08-27T10:11:32.000Z</time>
      </trkpt>
      <trkpt lat="49.52435" lon="3.31743">
        <ele>120.4</ele>
        <time>2016-08-27T10:11:33.000Z</time>
      </trkpt>
      <trkpt lat="49.52443" lon="3.31739">
        <ele>120.4</ele>
        <time>2016-08-27T10:11:38.000Z</time>
      </trkpt>
      <trkpt lat="49.52444" lon="3.31738">
        <ele>120.3</ele>
        <time>2016-08-27T10:11:39.000Z</time>
      </trkpt>
      <trkpt lat="49.52452" lon="3.31735">
        <ele>120.3</ele>
        <time>2016-08-27T10:11:45.000Z</time>
      </trkpt>
      <trkpt lat="49.52454" lon="3.31734">
        <ele>119.9</ele>
        <time>2016-08-27T10:11:46.000Z</time>
      </trkpt>
      <trkpt lat="49.52462" lon="3.3173">
        <ele>117.9</ele>
        <time>2016-08-27T10:11:53.000Z</time>
      </trkpt>
      <trkpt lat="49.52463" lon="3.31729">
        <ele>117.6</ele>
        <time>2016-08-27T10:11:54.000Z</time>
      </trkpt>
      <trkpt lat="49.52464" lon="3.31728">
        <ele>117.1</ele>
        <time>2016-08-27T10:11:56.000Z</time>
      </trkpt>
      <trkpt lat="49.52464" lon="3.31728">
        <ele>116.7</ele>
        <time>2016-08-27T10:11:57.000Z</time>
      </trkpt>
      <trkpt lat="49.52464" lon="3.31727">
        <ele>116.1</ele>
        <time>2016-08-27T10:12:00.000Z</time>
      </trkpt>
      <trkpt lat="49.52464" lon="3.31727">
        <ele>115.8</ele>
        <time>2016-08-27T10:12:01.000Z</time>
      </trkpt>
      <trkpt lat="49.52472" lon="3.31725">
        <ele>115.3</ele>
        <time>2016-08-27T10:12:08.000Z</time>
      </trkpt>
      <trkpt lat="49.52473" lon="3.31725">
        <ele>115.2</ele>
        <time>2016-08-27T10:12:09.000Z</time>
      </trkpt>
      <trkpt lat="49.52482" lon="3.31726">
        <ele>114.9</ele>
        <time>2016-08-27T10:12:15.000Z</time>
      </trkpt>
      <trkpt lat="49.52483" lon="3.31727">
        <ele>114.8</ele>
        <time>2016-08-27T10:12:16.000Z</time>
      </trkpt>
      <trkpt lat="49.52488" lon="3.31737">
        <ele>113.6</ele>
        <time>2016-08-27T10:12:22.000Z</time>
      </trkpt>
      <trkpt lat="49.52489" lon="3.3174">
        <ele>113.2</ele>
        <time>2016-08-27T10:12:23.000Z</time>
      </trkpt>
      <trkpt lat="49.52492" lon="3.31751">
        <ele>113.1</ele>
        <time>2016-08-27T10:12:28.000Z</time>
      </trkpt>
      <trkpt lat="49.52493" lon="3.31753">
        <ele>112.9</ele>
        <time>2016-08-27T10:12:29.000Z</time>
      </trkpt>
      <trkpt lat="49.52493" lon="3.31766">
        <ele>111.8</ele>
        <time>2016-08-27T10:12:36.000Z</time>
      </trkpt>
      <trkpt lat="49.52493" lon="3.31768">
        <ele>111.8</ele>
        <time>2016-08-27T10:12:37.000Z</time>
      </trkpt>
      <trkpt lat="49.52491" lon="3.31781">
        <ele>111.9</ele>
        <time>2016-08-27T10:12:43.000Z</time>
      </trkpt>
      <trkpt lat="49.52491" lon="3.31783">
        <ele>111.8</ele>
        <time>2016-08-27T10:12:44.000Z</time>
      </trkpt>
      <trkpt lat="49.5249" lon="3.31796">
        <ele>111.6</ele>
        <time>2016-08-27T10:12:51.000Z</time>
      </trkpt>
      <trkpt lat="49.5249" lon="3.31797">
        <ele>111.5</ele>
        <time>2016-08-27T10:12:52.000Z</time>
      </trkpt>
      <trkpt lat="49.52489" lon="3.31808">
        <ele>110.6</ele>
        <time>2016-08-27T10:12:58.000Z</time>
      </trkpt>
      <trkpt lat="49.52489" lon="3.31811">
        <ele>111.1</ele>
        <time>2016-08-27T10:12:59.000Z</time>
      </trkpt>
      <trkpt lat="49.52494" lon="3.31816">
        <ele>111</ele>
        <time>2016-08-27T10:13:23.000Z</time>
      </trkpt>
      <trkpt lat="49.52494" lon="3.31817">
        <ele>111</ele>
        <time>2016-08-27T10:13:24.000Z</time>
      </trkpt>
      <trkpt lat="49.52494" lon="3.31817">
        <ele>111</ele>
        <time>2016-08-27T10:13:29.000Z</time>
      </trkpt>
      <trkpt lat="49.52494" lon="3.31817">
        <ele>110.9</ele>
        <time>2016-08-27T10:13:30.000Z</time>
      </trkpt>
      <trkpt lat="49.52492" lon="3.31815">
        <ele>111</ele>
        <time>2016-08-27T10:13:48.000Z</time>
      </trkpt>
      <trkpt lat="49.52492" lon="3.31815">
        <ele>110.9</ele>
        <time>2016-08-27T10:13:49.000Z</time>
      </trkpt>
      <trkpt lat="49.52492" lon="3.31814">
        <ele>110.8</ele>
        <time>2016-08-27T10:13:56.000Z</time>
      </trkpt>
      <trkpt lat="49.52493" lon="3.31815">
        <ele>110.5</ele>
        <time>2016-08-27T10:13:57.000Z</time>
      </trkpt>
      <trkpt lat="49.52495" lon="3.31818">
        <ele>110</ele>
        <time>2016-08-27T10:14:02.000Z</time>
      </trkpt>
      <trkpt lat="49.52495" lon="3.31819">
        <ele>110</ele>
        <time>2016-08-27T10:14:03.000Z</time>
      </trkpt>
      <trkpt lat="49.52495" lon="3.3182">
        <ele>110</ele>
        <time>2016-08-27T10:14:07.000Z</time>
      </trkpt>
      <trkpt lat="49.52496" lon="3.31821">
        <ele>109.9</ele>
        <time>2016-08-27T10:14:08.000Z</time>
      </trkpt>
      <trkpt lat="49.52496" lon="3.31821">
        <ele>109.8</ele>
        <time>2016-08-27T10:14:09.000Z</time>
      </trkpt>
      <trkpt lat="49.52496" lon="3.31821">
        <ele>109.8</ele>
        <time>2016-08-27T10:14:10.000Z</time>
      </trkpt>
      <trkpt lat="49.52496" lon="3.31821">
        <ele>109.8</ele>
        <time>2016-08-27T10:14:28.000Z</time>
      </trkpt>
      <trkpt lat="49.52496" lon="3.31822">
        <ele>108.5</ele>
        <time>2016-08-27T10:14:29.000Z</time>
      </trkpt>
      <trkpt lat="49.52497" lon="3.31824">
        <ele>108</ele>
        <time>2016-08-27T10:14:35.000Z</time>
      </trkpt>
      <trkpt lat="49.52497" lon="3.31824">
        <ele>108</ele>
        <time>2016-08-27T10:14:36.000Z</time>
      </trkpt>
      <trkpt lat="49.52497" lon="3.31824">
        <ele>108</ele>
        <time>2016-08-27T10:14:40.000Z</time>
      </trkpt>
      <trkpt lat="49.52497" lon="3.31824">
        <ele>108</ele>
        <time>2016-08-27T10:14:41.000Z</time>
      </trkpt>
      <trkpt lat="49.52498" lon="3.31822">
        <ele>107.9</ele>
        <time>2016-08-27T10:14:45.000Z</time>
      </trkpt>
      <trkpt lat="49.52498" lon="3.31822">
        <ele>107.9</ele>
        <time>2016-08-27T10:14:46.000Z</time>
      </trkpt>
      <trkpt lat="49.52498" lon="3.31823">
        <ele>108</ele>
        <time>2016-08-27T10:14:53.000Z</time>
      </trkpt>
      <trkpt lat="49.52498" lon="3.31824">
        <ele>107.9</ele>
        <time>2016-08-27T10:14:54.000Z</time>
      </trkpt>
      <trkpt lat="49.52497" lon="3.31824">
        <ele>107.3</ele>
        <time>2016-08-27T10:15:14.000Z</time>
      </trkpt>
      <trkpt lat="49.52497" lon="3.31823">
        <ele>107.3</ele>
        <time>2016-08-27T10:15:15.000Z</time>
      </trkpt>
      <trkpt lat="49.52497" lon="3.31823">
        <ele>107.3</ele>
        <time>2016-08-27T10:15:17.000Z</time>
      </trkpt>
      <trkpt lat="49.52499" lon="3.31822">
        <ele>107.4</ele>
        <time>2016-08-27T10:15:18.000Z</time>
      </trkpt>
      <trkpt lat="49.52499" lon="3.31821">
        <ele>107.2</ele>
        <time>2016-08-27T10:15:21.000Z</time>
      </trkpt>
      <trkpt lat="49.52499" lon="3.31821">
        <ele>107.2</ele>
        <time>2016-08-27T10:15:22.000Z</time>
      </trkpt>
      <trkpt lat="49.52499" lon="3.31821">
        <ele>107.2</ele>
        <time>2016-08-27T10:15:23.000Z</time>
      </trkpt>
      <trkpt lat="49.52499" lon="3.31822">
        <ele>107.1</ele>
        <time>2016-08-27T10:15:24.000Z</time>
      </trkpt>
      <trkpt lat="49.525" lon="3.31818">
        <ele>106.8</ele>
        <time>2016-08-27T10:15:31.000Z</time>
      </trkpt>
      <trkpt lat="49.525" lon="3.31818">
        <ele>106.8</ele>
        <time>2016-08-27T10:15:32.000Z</time>
      </trkpt>
      <trkpt lat="49.525" lon="3.31818">
        <ele>106.6</ele>
        <time>2016-08-27T10:15:40.000Z</time>
      </trkpt>
      <trkpt lat="49.52501" lon="3.31818">
        <ele>106.9</ele>
        <time>2016-08-27T10:15:41.000Z</time>
      </trkpt>
      <trkpt lat="49.52507" lon="3.31827">
        <ele>107.6</ele>
        <time>2016-08-27T10:15:55.000Z</time>
      </trkpt>
      <trkpt lat="49.52508" lon="3.31828">
        <ele>108.1</ele>
        <time>2016-08-27T10:15:56.000Z</time>
      </trkpt>
      <trkpt lat="49.52507" lon="3.31828">
        <ele>108.4</ele>
        <time>2016-08-27T10:15:58.000Z</time>
      </trkpt>
      <trkpt lat="49.52507" lon="3.31827">
        <ele>109.3</ele>
        <time>2016-08-27T10:15:59.000Z</time>
      </trkpt>
      <trkpt lat="49.52507" lon="3.31825">
        <ele>108.5</ele>
        <time>2016-08-27T10:16:00.000Z</time>
      </trkpt>
      <trkpt lat="49.52508" lon="3.31825">
        <ele>108.3</ele>
        <time>2016-08-27T10:16:01.000Z</time>
      </trkpt>
      <trkpt lat="49.52508" lon="3.31825">
        <ele>107</ele>
        <time>2016-08-27T10:16:02.000Z</time>
      </trkpt>
      <trkpt lat="49.52509" lon="3.31824">
        <ele>106.1</ele>
        <time>2016-08-27T10:16:04.000Z</time>
      </trkpt>
      <trkpt lat="49.52509" lon="3.31824">
        <ele>105.7</ele>
        <time>2016-08-27T10:16:05.000Z</time>
      </trkpt>
      <trkpt lat="49.52509" lon="3.31824">
        <ele>105.3</ele>
        <time>2016-08-27T10:16:13.000Z</time>
      </trkpt>
      <trkpt lat="49.52508" lon="3.31827">
        <ele>104.6</ele>
        <time>2016-08-27T10:16:14.000Z</time>
      </trkpt>
      <trkpt lat="49.52507" lon="3.31827">
        <ele>104.4</ele>
        <time>2016-08-27T10:16:15.000Z</time>
      </trkpt>
      <trkpt lat="49.52507" lon="3.31827">
        <ele>104.3</ele>
        <time>2016-08-27T10:16:16.000Z</time>
      </trkpt>
      <trkpt lat="49.52508" lon="3.31828">
        <ele>105</ele>
        <time>2016-08-27T10:16:24.000Z</time>
      </trkpt>
      <trkpt lat="49.52508" lon="3.31827">
        <ele>105</ele>
        <time>2016-08-27T10:16:25.000Z</time>
      </trkpt>
      <trkpt lat="49.52508" lon="3.31827">
        <ele>105.1</ele>
        <time>2016-08-27T10:16:26.000Z</time>
      </trkpt>
      <trkpt lat="49.52507" lon="3.31824">
        <ele>106</ele>
        <time>2016-08-27T10:16:30.000Z</time>
      </trkpt>
      <trkpt lat="49.52506" lon="3.31824">
        <ele>106.2</ele>
        <time>2016-08-27T10:16:31.000Z</time>
      </trkpt>
      <trkpt lat="49.52506" lon="3.31824">
        <ele>106.4</ele>
        <time>2016-08-27T10:16:32.000Z</time>
      </trkpt>
      <trkpt lat="49.52505" lon="3.31822">
        <ele>107.2</ele>
        <time>2016-08-27T10:16:35.000Z</time>
      </trkpt>
      <trkpt lat="49.52503" lon="3.31823">
        <ele>107.6</ele>
        <time>2016-08-27T10:16:36.000Z</time>
      </trkpt>
      <trkpt lat="49.52501" lon="3.31825">
        <ele>108.8</ele>
        <time>2016-08-27T10:16:51.000Z</time>
      </trkpt>
      <trkpt lat="49.52502" lon="3.31823">
        <ele>109.3</ele>
        <time>2016-08-27T10:16:52.000Z</time>
      </trkpt>
      <trkpt lat="49.52503" lon="3.31822">
        <ele>106.2</ele>
        <time>2016-08-27T10:17:08.000Z</time>
      </trkpt>
      <trkpt lat="49.52503" lon="3.31822">
        <ele>106.1</ele>
        <time>2016-08-27T10:17:09.000Z</time>
      </trkpt>
      <trkpt lat="49.52503" lon="3.31822">
        <ele>106</ele>
        <time>2016-08-27T10:17:10.000Z</time>
      </trkpt>
      <trkpt lat="49.52503" lon="3.31826">
        <ele>104.2</ele>
        <time>2016-08-27T10:17:31.000Z</time>
      </trkpt>
      <trkpt lat="49.52503" lon="3.31826">
        <ele>104.1</ele>
        <time>2016-08-27T10:17:32.000Z</time>
      </trkpt>
      <trkpt lat="49.52503" lon="3.31826">
        <ele>104</ele>
        <time>2016-08-27T10:17:37.000Z</time>
      </trkpt>
      <trkpt lat="49.52502" lon="3.31825">
        <ele>103.9</ele>
        <time>2016-08-27T10:17:38.000Z</time>
      </trkpt>
      <trkpt lat="49.52502" lon="3.31822">
        <ele>103</ele>
        <time>2016-08-27T10:17:41.000Z</time>
      </trkpt>
      <trkpt lat="49.52502" lon="3.31822">
        <ele>102.7</ele>
        <time>2016-08-27T10:17:42.000Z</time>
      </trkpt>
      <trkpt lat="49.52502" lon="3.31822">
        <ele>102.6</ele>
        <time>2016-08-27T10:17:43.000Z</time>
      </trkpt>
      <trkpt lat="49.52502" lon="3.31821">
        <ele>102.2</ele>
        <time>2016-08-27T10:17:44.000Z</time>
      </trkpt>
      <trkpt lat="49.52503" lon="3.31821">
        <ele>102</ele>
        <time>2016-08-27T10:17:45.000Z</time>
      </trkpt>
      <trkpt lat="49.52503" lon="3.3182">
        <ele>101.7</ele>
        <time>2016-08-27T10:18:04.000Z</time>
      </trkpt>
      <trkpt lat="49.52499" lon="3.31819">
        <ele>96.3</ele>
        <time>2016-08-27T10:18:05.000Z</time>
      </trkpt>
      <trkpt lat="49.52498" lon="3.31819">
        <ele>96.2</ele>
        <time>2016-08-27T10:18:07.000Z</time>
      </trkpt>
      <trkpt lat="49.52497" lon="3.31818">
        <ele>96.1</ele>
        <time>2016-08-27T10:18:08.000Z</time>
      </trkpt>
      <trkpt lat="49.52498" lon="3.31818">
        <ele>96</ele>
        <time>2016-08-27T10:18:09.000Z</time>
      </trkpt>
      <trkpt lat="49.52499" lon="3.31817">
        <ele>95.9</ele>
        <time>2016-08-27T10:18:12.000Z</time>
      </trkpt>
      <trkpt lat="49.52499" lon="3.31817">
        <ele>95.9</ele>
        <time>2016-08-27T10:18:13.000Z</time>
      </trkpt>
      <trkpt lat="49.525" lon="3.31818">
        <ele>96</ele>
        <time>2016-08-27T10:18:18.000Z</time>
      </trkpt>
      <trkpt lat="49.52501" lon="3.31819">
        <ele>96.4</ele>
        <time>2016-08-27T10:18:19.000Z</time>
      </trkpt>
      <trkpt lat="49.52503" lon="3.31813">
        <ele>96</ele>
        <time>2016-08-27T10:18:29.000Z</time>
      </trkpt>
      <trkpt lat="49.52503" lon="3.31813">
        <ele>95.9</ele>
        <time>2016-08-27T10:18:30.000Z</time>
      </trkpt>
      <trkpt lat="49.52503" lon="3.31813">
        <ele>96.1</ele>
        <time>2016-08-27T10:18:31.000Z</time>
      </trkpt>
      <trkpt lat="49.52501" lon="3.31813">
        <ele>97.3</ele>
        <time>2016-08-27T10:18:36.000Z</time>
      </trkpt>
      <trkpt lat="49.52501" lon="3.31813">
        <ele>97</ele>
        <time>2016-08-27T10:18:37.000Z</time>
      </trkpt>
      <trkpt lat="49.52501" lon="3.31813">
        <ele>96.8</ele>
        <time>2016-08-27T10:18:38.000Z</time>
      </trkpt>
      <trkpt lat="49.525" lon="3.31818">
        <ele>96.7</ele>
        <time>2016-08-27T10:18:43.000Z</time>
      </trkpt>
      <trkpt lat="49.52499" lon="3.31818">
        <ele>95.4</ele>
        <time>2016-08-27T10:18:44.000Z</time>
      </trkpt>
      <trkpt lat="49.52498" lon="3.31818">
        <ele>94.6</ele>
        <time>2016-08-27T10:18:45.000Z</time>
      </trkpt>
      <trkpt lat="49.52497" lon="3.31819">
        <ele>94.7</ele>
        <time>2016-08-27T10:18:48.000Z</time>
      </trkpt>
      <trkpt lat="49.52497" lon="3.31819">
        <ele>94.8</ele>
        <time>2016-08-27T10:18:49.000Z</time>
      </trkpt>
      <trkpt lat="49.52497" lon="3.31819">
        <ele>94.9</ele>
        <time>2016-08-27T10:18:50.000Z</time>
      </trkpt>
      <trkpt lat="49.52498" lon="3.31818">
        <ele>94.8</ele>
        <time>2016-08-27T10:18:52.000Z</time>
      </trkpt>
      <trkpt lat="49.52498" lon="3.31818">
        <ele>94.8</ele>
        <time>2016-08-27T10:18:53.000Z</time>
      </trkpt>
      <trkpt lat="49.52499" lon="3.31818">
        <ele>94.6</ele>
        <time>2016-08-27T10:18:54.000Z</time>
      </trkpt>
      <trkpt lat="49.52497" lon="3.31818">
        <ele>94.7</ele>
        <time>2016-08-27T10:18:57.000Z</time>
      </trkpt>
      <trkpt lat="49.52497" lon="3.31818">
        <ele>94.9</ele>
        <time>2016-08-27T10:18:58.000Z</time>
      </trkpt>
      <trkpt lat="49.52497" lon="3.31819">
        <ele>95.2</ele>
        <time>2016-08-27T10:18:59.000Z</time>
      </trkpt>
      <trkpt lat="49.52501" lon="3.31821">
        <ele>96.1</ele>
        <time>2016-08-27T10:19:07.000Z</time>
      </trkpt>
      <trkpt lat="49.525" lon="3.31821">
        <ele>96.2</ele>
        <time>2016-08-27T10:19:08.000Z</time>
      </trkpt>
      <trkpt lat="49.525" lon="3.31821">
        <ele>96.3</ele>
        <time>2016-08-27T10:19:10.000Z</time>
      </trkpt>
      <trkpt lat="49.52499" lon="3.31823">
        <ele>96.4</ele>
        <time>2016-08-27T10:19:11.000Z</time>
      </trkpt>
      <trkpt lat="49.52496" lon="3.31825">
        <ele>96.6</ele>
        <time>2016-08-27T10:19:14.000Z</time>
      </trkpt>
      <trkpt lat="49.52494" lon="3.31825">
        <ele>97</ele>
        <time>2016-08-27T10:19:15.000Z</time>
      </trkpt>
      <trkpt lat="49.52493" lon="3.31826">
        <ele>97.3</ele>
        <time>2016-08-27T10:19:16.000Z</time>
      </trkpt>
      <trkpt lat="49.5249" lon="3.31825">
        <ele>97.9</ele>
        <time>2016-08-27T10:19:18.000Z</time>
      </trkpt>
      <trkpt lat="49.52489" lon="3.31825">
        <ele>97.8</ele>
        <time>2016-08-27T10:19:19.000Z</time>
      </trkpt>
      <trkpt lat="49.5249" lon="3.31823">
        <ele>97.1</ele>
        <time>2016-08-27T10:19:23.000Z</time>
      </trkpt>
      <trkpt lat="49.52491" lon="3.31821">
        <ele>100.6</ele>
        <time>2016-08-27T10:19:24.000Z</time>
      </trkpt>
      <trkpt lat="49.52491" lon="3.31822">
        <ele>103.1</ele>
        <time>2016-08-27T10:19:26.000Z</time>
      </trkpt>
      <trkpt lat="49.52491" lon="3.31823">
        <ele>104</ele>
        <time>2016-08-27T10:19:27.000Z</time>
      </trkpt>
      <trkpt lat="49.52491" lon="3.31824">
        <ele>106.8</ele>
        <time>2016-08-27T10:20:11.000Z</time>
      </trkpt>
      <trkpt lat="49.52492" lon="3.31819">
        <ele>108.8</ele>
        <time>2016-08-27T10:20:12.000Z</time>
      </trkpt>
      <trkpt lat="49.52492" lon="3.31819">
        <ele>108.8</ele>
        <time>2016-08-27T10:20:13.000Z</time>
      </trkpt>
      <trkpt lat="49.52493" lon="3.31818">
        <ele>108.7</ele>
        <time>2016-08-27T10:20:14.000Z</time>
      </trkpt>
      <trkpt lat="49.52493" lon="3.31818">
        <ele>108.9</ele>
        <time>2016-08-27T10:20:15.000Z</time>
      </trkpt>
      <trkpt lat="49.52493" lon="3.31817">
        <ele>109.3</ele>
        <time>2016-08-27T10:20:16.000Z</time>
      </trkpt>
      <trkpt lat="49.52493" lon="3.31817">
        <ele>109.6</ele>
        <time>2016-08-27T10:20:17.000Z</time>
      </trkpt>
      <trkpt lat="49.52493" lon="3.31816">
        <ele>109.7</ele>
        <time>2016-08-27T10:20:18.000Z</time>
      </trkpt>
      <trkpt lat="49.52492" lon="3.31815">
        <ele>109.6</ele>
        <time>2016-08-27T10:20:26.000Z</time>
      </trkpt>
      <trkpt lat="49.52491" lon="3.31815">
        <ele>109.4</ele>
        <time>2016-08-27T10:20:27.000Z</time>
      </trkpt>
      <trkpt lat="49.52492" lon="3.31816">
        <ele>109.4</ele>
        <time>2016-08-27T10:20:28.000Z</time>
      </trkpt>
      <trkpt lat="49.52493" lon="3.31821">
        <ele>109.1</ele>
        <time>2016-08-27T10:20:35.000Z</time>
      </trkpt>
      <trkpt lat="49.52493" lon="3.31821">
        <ele>109</ele>
        <time>2016-08-27T10:20:36.000Z</time>
      </trkpt>
      <trkpt lat="49.52493" lon="3.31821">
        <ele>108.9</ele>
        <time>2016-08-27T10:20:51.000Z</time>
      </trkpt>
      <trkpt lat="49.52487" lon="3.31821">
        <ele>108.6</ele>
        <time>2016-08-27T10:20:52.000Z</time>
      </trkpt>
      <trkpt lat="49.5249" lon="3.3181">
        <ele>106.4</ele>
        <time>2016-08-27T10:20:56.000Z</time>
      </trkpt>
      <trkpt lat="49.52491" lon="3.31808">
        <ele>106.2</ele>
        <time>2016-08-27T10:20:57.000Z</time>
      </trkpt>
      <trkpt lat="49.52487" lon="3.31797">
        <ele>108.7</ele>
        <time>2016-08-27T10:21:05.000Z</time>
      </trkpt>
      <trkpt lat="49.52486" lon="3.31796">
        <ele>109.1</ele>
        <time>2016-08-27T10:21:06.000Z</time>
      </trkpt>
      <trkpt lat="49.52487" lon="3.31786">
        <ele>109.3</ele>
        <time>2016-08-27T10:21:26.000Z</time>
      </trkpt>
      <trkpt lat="49.52487" lon="3.31787">
        <ele>108.9</ele>
        <time>2016-08-27T10:21:27.000Z</time>
      </trkpt>
      <trkpt lat="49.52487" lon="3.31787">
        <ele>108.8</ele>
        <time>2016-08-27T10:21:31.000Z</time>
      </trkpt>
      <trkpt lat="49.52488" lon="3.31787">
        <ele>108.6</ele>
        <time>2016-08-27T10:21:32.000Z</time>
      </trkpt>
      <trkpt lat="49.52495" lon="3.31793">
        <ele>108.7</ele>
        <time>2016-08-27T10:21:37.000Z</time>
      </trkpt>
      <trkpt lat="49.52494" lon="3.31792">
        <ele>108.8</ele>
        <time>2016-08-27T10:21:38.000Z</time>
      </trkpt>
      <trkpt lat="49.52494" lon="3.31792">
        <ele>108.9</ele>
        <time>2016-08-27T10:21:42.000Z</time>
      </trkpt>
      <trkpt lat="49.52494" lon="3.31793">
        <ele>109</ele>
        <time>2016-08-27T10:21:43.000Z</time>
      </trkpt>
      <trkpt lat="49.52494" lon="3.31792">
        <ele>109.3</ele>
        <time>2016-08-27T10:21:49.000Z</time>
      </trkpt>
      <trkpt lat="49.52494" lon="3.31791">
        <ele>109.3</ele>
        <time>2016-08-27T10:21:50.000Z</time>
      </trkpt>
      <trkpt lat="49.52494" lon="3.31791">
        <ele>109.3</ele>
        <time>2016-08-27T10:21:52.000Z</time>
      </trkpt>
      <trkpt lat="49.52494" lon="3.3179">
        <ele>109.3</ele>
        <time>2016-08-27T10:21:53.000Z</time>
      </trkpt>
      <trkpt lat="49.52494" lon="3.3179">
        <ele>109.4</ele>
        <time>2016-08-27T10:21:56.002Z</time>
      </trkpt>
    </trkseg>
  </trk>
</gpx>